<?xml version="1.0" encoding="UTF-8" standalone="no" ?>
<gpx xmlns="http://www.topografix.com/GPX/1/1" xmlns:xsi="http://www.w3.org/2001/XMLSchema-instance" xsi:schemaLocation="http://www.topografix.com/GPX/1/1 http://www.topografix.com/GPX/1/1/gpx.xsd" version="1.1" creator="VisuGPX - https://www.visugpx.com">
  <metadata>
    <name>Raid 2012</name>
    <desc><![CDATA[Fontaine de Vaucluse]]></desc>
  </metadata>
  <trk>
    <name><![CDATA[Untitled]]></name>
    <trkseg>
      <trkpt lat="43.92191" lon="5.12898">
        <ele>86.400001525879</ele>
        <time>2012-06-17T06:55:29.000Z</time>
      </trkpt>
      <trkpt lat="43.92185" lon="5.12893">
        <ele>86.199996948242</ele>
        <time>2012-06-17T06:55:54.000Z</time>
      </trkpt>
      <trkpt lat="43.92188" lon="5.12888">
        <ele>86.199996948242</ele>
        <time>2012-06-17T06:55:57.000Z</time>
      </trkpt>
      <trkpt lat="43.92194" lon="5.12836">
        <ele>84.800003051758</ele>
        <time>2012-06-17T06:56:15.000Z</time>
      </trkpt>
      <trkpt lat="43.92187" lon="5.12834">
        <ele>85</ele>
        <time>2012-06-17T06:56:17.000Z</time>
      </trkpt>
      <trkpt lat="43.92179" lon="5.12833">
        <ele>85.400001525879</ele>
        <time>2012-06-17T06:56:19.000Z</time>
      </trkpt>
      <trkpt lat="43.92167" lon="5.12832">
        <ele>86</ele>
        <time>2012-06-17T06:56:22.000Z</time>
      </trkpt>
      <trkpt lat="43.92153" lon="5.1283">
        <ele>87.400001525879</ele>
        <time>2012-06-17T06:56:26.000Z</time>
      </trkpt>
      <trkpt lat="43.92148" lon="5.12829">
        <ele>87.800003051758</ele>
        <time>2012-06-17T06:56:28.000Z</time>
      </trkpt>
      <trkpt lat="43.92131" lon="5.12823">
        <ele>89</ele>
        <time>2012-06-17T06:56:33.000Z</time>
      </trkpt>
      <trkpt lat="43.9211" lon="5.12821">
        <ele>90.800003051758</ele>
        <time>2012-06-17T06:56:38.000Z</time>
      </trkpt>
      <trkpt lat="43.92094" lon="5.12814">
        <ele>91.599998474121</ele>
        <time>2012-06-17T06:56:42.000Z</time>
      </trkpt>
      <trkpt lat="43.92077" lon="5.12808">
        <ele>92.199996948242</ele>
        <time>2012-06-17T06:56:47.000Z</time>
      </trkpt>
      <trkpt lat="43.92074" lon="5.12808">
        <ele>92.599998474121</ele>
        <time>2012-06-17T06:56:48.000Z</time>
      </trkpt>
      <trkpt lat="43.92063" lon="5.12808">
        <ele>93.400001525879</ele>
        <time>2012-06-17T06:56:51.000Z</time>
      </trkpt>
      <trkpt lat="43.92053" lon="5.12802">
        <ele>93.199996948242</ele>
        <time>2012-06-17T06:56:54.000Z</time>
      </trkpt>
      <trkpt lat="43.92046" lon="5.12798">
        <ele>93.199996948242</ele>
        <time>2012-06-17T06:56:56.000Z</time>
      </trkpt>
      <trkpt lat="43.92035" lon="5.12795">
        <ele>93.400001525879</ele>
        <time>2012-06-17T06:57:00.000Z</time>
      </trkpt>
      <trkpt lat="43.9202" lon="5.12795">
        <ele>94.199996948242</ele>
        <time>2012-06-17T06:57:05.000Z</time>
      </trkpt>
      <trkpt lat="43.92003" lon="5.12792">
        <ele>94.800003051758</ele>
        <time>2012-06-17T06:57:10.000Z</time>
      </trkpt>
      <trkpt lat="43.91987" lon="5.12782">
        <ele>94.199996948242</ele>
        <time>2012-06-17T06:57:15.000Z</time>
      </trkpt>
      <trkpt lat="43.91976" lon="5.12771">
        <ele>92.800003051758</ele>
        <time>2012-06-17T06:57:19.000Z</time>
      </trkpt>
      <trkpt lat="43.91965" lon="5.12762">
        <ele>92</ele>
        <time>2012-06-17T06:57:23.000Z</time>
      </trkpt>
      <trkpt lat="43.91958" lon="5.12748">
        <ele>90</ele>
        <time>2012-06-17T06:57:27.000Z</time>
      </trkpt>
      <trkpt lat="43.91951" lon="5.12737">
        <ele>90.199996948242</ele>
        <time>2012-06-17T06:57:32.000Z</time>
      </trkpt>
      <trkpt lat="43.91949" lon="5.1273">
        <ele>90</ele>
        <time>2012-06-17T06:57:36.000Z</time>
      </trkpt>
      <trkpt lat="43.91945" lon="5.12713">
        <ele>89.599998474121</ele>
        <time>2012-06-17T06:57:40.000Z</time>
      </trkpt>
      <trkpt lat="43.91947" lon="5.12697">
        <ele>88.599998474121</ele>
        <time>2012-06-17T06:57:43.000Z</time>
      </trkpt>
      <trkpt lat="43.91947" lon="5.12676">
        <ele>87.400001525879</ele>
        <time>2012-06-17T06:57:47.000Z</time>
      </trkpt>
      <trkpt lat="43.91945" lon="5.12652">
        <ele>86.800003051758</ele>
        <time>2012-06-17T06:57:52.000Z</time>
      </trkpt>
      <trkpt lat="43.91944" lon="5.12632">
        <ele>86</ele>
        <time>2012-06-17T06:57:57.000Z</time>
      </trkpt>
      <trkpt lat="43.91941" lon="5.12615">
        <ele>85.599998474121</ele>
        <time>2012-06-17T06:58:02.000Z</time>
      </trkpt>
      <trkpt lat="43.91947" lon="5.12595">
        <ele>84.199996948242</ele>
        <time>2012-06-17T06:58:06.000Z</time>
      </trkpt>
      <trkpt lat="43.91954" lon="5.1258">
        <ele>83.599998474121</ele>
        <time>2012-06-17T06:58:10.000Z</time>
      </trkpt>
      <trkpt lat="43.91962" lon="5.12559">
        <ele>84</ele>
        <time>2012-06-17T06:58:16.000Z</time>
      </trkpt>
      <trkpt lat="43.91964" lon="5.12549">
        <ele>84.400001525879</ele>
        <time>2012-06-17T06:58:22.000Z</time>
      </trkpt>
      <trkpt lat="43.91958" lon="5.12545">
        <ele>85.199996948242</ele>
        <time>2012-06-17T06:58:28.000Z</time>
      </trkpt>
      <trkpt lat="43.91949" lon="5.12544">
        <ele>85.800003051758</ele>
        <time>2012-06-17T06:58:34.000Z</time>
      </trkpt>
      <trkpt lat="43.91946" lon="5.12542">
        <ele>86</ele>
        <time>2012-06-17T06:58:40.000Z</time>
      </trkpt>
      <trkpt lat="43.91943" lon="5.12544">
        <ele>86.199996948242</ele>
        <time>2012-06-17T06:58:46.000Z</time>
      </trkpt>
      <trkpt lat="43.91942" lon="5.12545">
        <ele>86.199996948242</ele>
        <time>2012-06-17T06:58:49.000Z</time>
      </trkpt>
      <trkpt lat="43.9194" lon="5.12547">
        <ele>86.199996948242</ele>
        <time>2012-06-17T06:58:56.000Z</time>
      </trkpt>
      <trkpt lat="43.9194" lon="5.12545">
        <ele>86.400001525879</ele>
        <time>2012-06-17T06:58:58.000Z</time>
      </trkpt>
      <trkpt lat="43.91938" lon="5.12545">
        <ele>86.400001525879</ele>
        <time>2012-06-17T06:59:00.000Z</time>
      </trkpt>
      <trkpt lat="43.91937" lon="5.12546">
        <ele>86.400001525879</ele>
        <time>2012-06-17T06:59:01.000Z</time>
      </trkpt>
      <trkpt lat="43.91934" lon="5.12546">
        <ele>86.599998474121</ele>
        <time>2012-06-17T06:59:05.000Z</time>
      </trkpt>
      <trkpt lat="43.91934" lon="5.12546">
        <ele>86.599998474121</ele>
        <time>2012-06-17T06:59:07.000Z</time>
      </trkpt>
      <trkpt lat="43.91933" lon="5.12545">
        <ele>86.800003051758</ele>
        <time>2012-06-17T06:59:10.000Z</time>
      </trkpt>
      <trkpt lat="43.91932" lon="5.12544">
        <ele>87</ele>
        <time>2012-06-17T06:59:12.000Z</time>
      </trkpt>
      <trkpt lat="43.9193" lon="5.12541">
        <ele>87.199996948242</ele>
        <time>2012-06-17T06:59:19.000Z</time>
      </trkpt>
      <trkpt lat="43.91926" lon="5.12539">
        <ele>87.400001525879</ele>
        <time>2012-06-17T06:59:24.000Z</time>
      </trkpt>
      <trkpt lat="43.91927" lon="5.12537">
        <ele>87.599998474121</ele>
        <time>2012-06-17T06:59:25.000Z</time>
      </trkpt>
      <trkpt lat="43.91926" lon="5.12533">
        <ele>87.800003051758</ele>
        <time>2012-06-17T06:59:32.000Z</time>
      </trkpt>
      <trkpt lat="43.91922" lon="5.12526">
        <ele>88.400001525879</ele>
        <time>2012-06-17T06:59:41.000Z</time>
      </trkpt>
      <trkpt lat="43.91919" lon="5.12522">
        <ele>88.800003051758</ele>
        <time>2012-06-17T06:59:45.000Z</time>
      </trkpt>
      <trkpt lat="43.91917" lon="5.12522">
        <ele>89</ele>
        <time>2012-06-17T06:59:51.000Z</time>
      </trkpt>
      <trkpt lat="43.91915" lon="5.12518">
        <ele>89.199996948242</ele>
        <time>2012-06-17T06:59:57.000Z</time>
      </trkpt>
      <trkpt lat="43.91913" lon="5.12512">
        <ele>89.400001525879</ele>
        <time>2012-06-17T07:00:04.000Z</time>
      </trkpt>
      <trkpt lat="43.91911" lon="5.12507">
        <ele>89.599998474121</ele>
        <time>2012-06-17T07:00:07.000Z</time>
      </trkpt>
      <trkpt lat="43.91904" lon="5.1249">
        <ele>91</ele>
        <time>2012-06-17T07:00:13.000Z</time>
      </trkpt>
      <trkpt lat="43.91902" lon="5.12488">
        <ele>91.199996948242</ele>
        <time>2012-06-17T07:00:14.000Z</time>
      </trkpt>
      <trkpt lat="43.91898" lon="5.12484">
        <ele>91.800003051758</ele>
        <time>2012-06-17T07:00:17.000Z</time>
      </trkpt>
      <trkpt lat="43.91895" lon="5.12481">
        <ele>92.199996948242</ele>
        <time>2012-06-17T07:00:19.000Z</time>
      </trkpt>
      <trkpt lat="43.91884" lon="5.12474">
        <ele>93.199996948242</ele>
        <time>2012-06-17T07:00:25.000Z</time>
      </trkpt>
      <trkpt lat="43.91876" lon="5.12465">
        <ele>94.400001525879</ele>
        <time>2012-06-17T07:00:30.000Z</time>
      </trkpt>
      <trkpt lat="43.91871" lon="5.12458">
        <ele>95.400001525879</ele>
        <time>2012-06-17T07:00:35.000Z</time>
      </trkpt>
      <trkpt lat="43.91868" lon="5.12451">
        <ele>96.400001525879</ele>
        <time>2012-06-17T07:00:40.000Z</time>
      </trkpt>
      <trkpt lat="43.91864" lon="5.12445">
        <ele>97.400001525879</ele>
        <time>2012-06-17T07:00:46.000Z</time>
      </trkpt>
      <trkpt lat="43.9186" lon="5.12442">
        <ele>98</ele>
        <time>2012-06-17T07:00:51.000Z</time>
      </trkpt>
      <trkpt lat="43.91855" lon="5.12438">
        <ele>98.599998474121</ele>
        <time>2012-06-17T07:00:56.000Z</time>
      </trkpt>
      <trkpt lat="43.91852" lon="5.12435">
        <ele>99.199996948242</ele>
        <time>2012-06-17T07:00:58.000Z</time>
      </trkpt>
      <trkpt lat="43.91846" lon="5.12434">
        <ele>99.800003051758</ele>
        <time>2012-06-17T07:01:01.000Z</time>
      </trkpt>
      <trkpt lat="43.9184" lon="5.12425">
        <ele>101.40000152588</ele>
        <time>2012-06-17T07:01:07.000Z</time>
      </trkpt>
      <trkpt lat="43.91831" lon="5.12421">
        <ele>102.59999847412</ele>
        <time>2012-06-17T07:01:14.000Z</time>
      </trkpt>
      <trkpt lat="43.91826" lon="5.12418">
        <ele>103.80000305176</ele>
        <time>2012-06-17T07:01:19.000Z</time>
      </trkpt>
      <trkpt lat="43.91818" lon="5.12413">
        <ele>105.59999847412</ele>
        <time>2012-06-17T07:01:25.000Z</time>
      </trkpt>
      <trkpt lat="43.91814" lon="5.12405">
        <ele>107.40000152588</ele>
        <time>2012-06-17T07:01:31.000Z</time>
      </trkpt>
      <trkpt lat="43.91812" lon="5.12397">
        <ele>108.80000305176</ele>
        <time>2012-06-17T07:01:35.000Z</time>
      </trkpt>
      <trkpt lat="43.91812" lon="5.12396">
        <ele>109</ele>
        <time>2012-06-17T07:01:36.000Z</time>
      </trkpt>
      <trkpt lat="43.91813" lon="5.12386">
        <ele>110.40000152588</ele>
        <time>2012-06-17T07:01:41.000Z</time>
      </trkpt>
      <trkpt lat="43.91813" lon="5.12384">
        <ele>110.80000305176</ele>
        <time>2012-06-17T07:01:42.000Z</time>
      </trkpt>
      <trkpt lat="43.91814" lon="5.12375">
        <ele>112</ele>
        <time>2012-06-17T07:01:47.000Z</time>
      </trkpt>
      <trkpt lat="43.91814" lon="5.12371">
        <ele>112.40000152588</ele>
        <time>2012-06-17T07:01:49.000Z</time>
      </trkpt>
      <trkpt lat="43.91812" lon="5.12366">
        <ele>113.59999847412</ele>
        <time>2012-06-17T07:01:52.000Z</time>
      </trkpt>
      <trkpt lat="43.91806" lon="5.12361">
        <ele>115.59999847412</ele>
        <time>2012-06-17T07:01:58.000Z</time>
      </trkpt>
      <trkpt lat="43.91805" lon="5.12359">
        <ele>116</ele>
        <time>2012-06-17T07:01:59.000Z</time>
      </trkpt>
      <trkpt lat="43.91803" lon="5.12356">
        <ele>116.80000305176</ele>
        <time>2012-06-17T07:02:01.000Z</time>
      </trkpt>
      <trkpt lat="43.91801" lon="5.12352">
        <ele>118</ele>
        <time>2012-06-17T07:02:04.000Z</time>
      </trkpt>
      <trkpt lat="43.91793" lon="5.12345">
        <ele>120.59999847412</ele>
        <time>2012-06-17T07:02:10.000Z</time>
      </trkpt>
      <trkpt lat="43.91788" lon="5.12337">
        <ele>123.19999694824</ele>
        <time>2012-06-17T07:02:17.000Z</time>
      </trkpt>
      <trkpt lat="43.91783" lon="5.12331">
        <ele>124.80000305176</ele>
        <time>2012-06-17T07:02:22.000Z</time>
      </trkpt>
      <trkpt lat="43.91782" lon="5.1233">
        <ele>125</ele>
        <time>2012-06-17T07:02:23.000Z</time>
      </trkpt>
      <trkpt lat="43.91779" lon="5.1232">
        <ele>125.80000305176</ele>
        <time>2012-06-17T07:02:28.000Z</time>
      </trkpt>
      <trkpt lat="43.91777" lon="5.12314">
        <ele>126</ele>
        <time>2012-06-17T07:02:31.000Z</time>
      </trkpt>
      <trkpt lat="43.91776" lon="5.12311">
        <ele>126.19999694824</ele>
        <time>2012-06-17T07:02:33.000Z</time>
      </trkpt>
      <trkpt lat="43.91775" lon="5.12308">
        <ele>126.40000152588</ele>
        <time>2012-06-17T07:02:35.000Z</time>
      </trkpt>
      <trkpt lat="43.91773" lon="5.12305">
        <ele>126.80000305176</ele>
        <time>2012-06-17T07:02:37.000Z</time>
      </trkpt>
      <trkpt lat="43.91773" lon="5.12302">
        <ele>126.80000305176</ele>
        <time>2012-06-17T07:02:39.000Z</time>
      </trkpt>
      <trkpt lat="43.91766" lon="5.12298">
        <ele>128.39999389648</ele>
        <time>2012-06-17T07:02:44.000Z</time>
      </trkpt>
      <trkpt lat="43.91765" lon="5.12296">
        <ele>128.80000305176</ele>
        <time>2012-06-17T07:02:46.000Z</time>
      </trkpt>
      <trkpt lat="43.91763" lon="5.12294">
        <ele>129.19999694824</ele>
        <time>2012-06-17T07:02:48.000Z</time>
      </trkpt>
      <trkpt lat="43.91759" lon="5.12288">
        <ele>130</ele>
        <time>2012-06-17T07:02:52.000Z</time>
      </trkpt>
      <trkpt lat="43.91758" lon="5.12287">
        <ele>130.19999694824</ele>
        <time>2012-06-17T07:02:53.000Z</time>
      </trkpt>
      <trkpt lat="43.91757" lon="5.12286">
        <ele>130.39999389648</ele>
        <time>2012-06-17T07:02:54.000Z</time>
      </trkpt>
      <trkpt lat="43.91752" lon="5.12285">
        <ele>131.39999389648</ele>
        <time>2012-06-17T07:02:58.000Z</time>
      </trkpt>
      <trkpt lat="43.91746" lon="5.12279">
        <ele>132.80000305176</ele>
        <time>2012-06-17T07:03:04.000Z</time>
      </trkpt>
      <trkpt lat="43.9174" lon="5.12272">
        <ele>134</ele>
        <time>2012-06-17T07:03:10.000Z</time>
      </trkpt>
      <trkpt lat="43.91738" lon="5.12269">
        <ele>134.39999389648</ele>
        <time>2012-06-17T07:03:12.000Z</time>
      </trkpt>
      <trkpt lat="43.91736" lon="5.12265">
        <ele>135</ele>
        <time>2012-06-17T07:03:15.000Z</time>
      </trkpt>
      <trkpt lat="43.91735" lon="5.12264">
        <ele>135.19999694824</ele>
        <time>2012-06-17T07:03:16.000Z</time>
      </trkpt>
      <trkpt lat="43.91732" lon="5.12259">
        <ele>135.80000305176</ele>
        <time>2012-06-17T07:03:20.000Z</time>
      </trkpt>
      <trkpt lat="43.9173" lon="5.12257">
        <ele>136.39999389648</ele>
        <time>2012-06-17T07:03:22.000Z</time>
      </trkpt>
      <trkpt lat="43.91727" lon="5.12254">
        <ele>137.19999694824</ele>
        <time>2012-06-17T07:03:26.000Z</time>
      </trkpt>
      <trkpt lat="43.91716" lon="5.12256">
        <ele>139.60000610352</ele>
        <time>2012-06-17T07:03:33.000Z</time>
      </trkpt>
      <trkpt lat="43.9171" lon="5.12253">
        <ele>141</ele>
        <time>2012-06-17T07:03:40.000Z</time>
      </trkpt>
      <trkpt lat="43.91701" lon="5.12252">
        <ele>143</ele>
        <time>2012-06-17T07:03:48.000Z</time>
      </trkpt>
      <trkpt lat="43.91692" lon="5.12253">
        <ele>145</ele>
        <time>2012-06-17T07:03:58.000Z</time>
      </trkpt>
      <trkpt lat="43.91689" lon="5.12254">
        <ele>145.60000610352</ele>
        <time>2012-06-17T07:04:01.000Z</time>
      </trkpt>
      <trkpt lat="43.91686" lon="5.12255">
        <ele>146.19999694824</ele>
        <time>2012-06-17T07:04:04.000Z</time>
      </trkpt>
      <trkpt lat="43.91676" lon="5.12257">
        <ele>148.39999389648</ele>
        <time>2012-06-17T07:04:12.000Z</time>
      </trkpt>
      <trkpt lat="43.91672" lon="5.12256">
        <ele>149.19999694824</ele>
        <time>2012-06-17T07:04:16.000Z</time>
      </trkpt>
      <trkpt lat="43.91672" lon="5.12254">
        <ele>149.60000610352</ele>
        <time>2012-06-17T07:04:18.000Z</time>
      </trkpt>
      <trkpt lat="43.9167" lon="5.12246">
        <ele>150.19999694824</ele>
        <time>2012-06-17T07:04:22.000Z</time>
      </trkpt>
      <trkpt lat="43.91668" lon="5.12243">
        <ele>150.39999389648</ele>
        <time>2012-06-17T07:04:24.000Z</time>
      </trkpt>
      <trkpt lat="43.91664" lon="5.12241">
        <ele>151</ele>
        <time>2012-06-17T07:04:28.000Z</time>
      </trkpt>
      <trkpt lat="43.9166" lon="5.12238">
        <ele>151.60000610352</ele>
        <time>2012-06-17T07:04:32.000Z</time>
      </trkpt>
      <trkpt lat="43.91659" lon="5.12238">
        <ele>151.80000305176</ele>
        <time>2012-06-17T07:04:34.000Z</time>
      </trkpt>
      <trkpt lat="43.91659" lon="5.1224">
        <ele>151.80000305176</ele>
        <time>2012-06-17T07:04:36.000Z</time>
      </trkpt>
      <trkpt lat="43.9166" lon="5.12244">
        <ele>151.80000305176</ele>
        <time>2012-06-17T07:04:38.000Z</time>
      </trkpt>
      <trkpt lat="43.91661" lon="5.12262">
        <ele>151</ele>
        <time>2012-06-17T07:04:43.000Z</time>
      </trkpt>
      <trkpt lat="43.91659" lon="5.12263">
        <ele>151.39999389648</ele>
        <time>2012-06-17T07:04:44.000Z</time>
      </trkpt>
      <trkpt lat="43.91655" lon="5.12259">
        <ele>152.39999389648</ele>
        <time>2012-06-17T07:04:46.000Z</time>
      </trkpt>
      <trkpt lat="43.91651" lon="5.1226">
        <ele>153</ele>
        <time>2012-06-17T07:04:48.000Z</time>
      </trkpt>
      <trkpt lat="43.91647" lon="5.12259">
        <ele>153.80000305176</ele>
        <time>2012-06-17T07:04:51.000Z</time>
      </trkpt>
      <trkpt lat="43.9164" lon="5.12259">
        <ele>155</ele>
        <time>2012-06-17T07:04:56.000Z</time>
      </trkpt>
      <trkpt lat="43.91639" lon="5.12259">
        <ele>155.19999694824</ele>
        <time>2012-06-17T07:04:57.000Z</time>
      </trkpt>
      <trkpt lat="43.91631" lon="5.12262">
        <ele>156.39999389648</ele>
        <time>2012-06-17T07:05:03.000Z</time>
      </trkpt>
      <trkpt lat="43.91627" lon="5.12261">
        <ele>157.19999694824</ele>
        <time>2012-06-17T07:05:06.000Z</time>
      </trkpt>
      <trkpt lat="43.91624" lon="5.1226">
        <ele>157.80000305176</ele>
        <time>2012-06-17T07:05:09.000Z</time>
      </trkpt>
      <trkpt lat="43.9162" lon="5.12256">
        <ele>158.80000305176</ele>
        <time>2012-06-17T07:05:13.000Z</time>
      </trkpt>
      <trkpt lat="43.9162" lon="5.12256">
        <ele>158.80000305176</ele>
        <time>2012-06-17T07:05:14.000Z</time>
      </trkpt>
      <trkpt lat="43.91619" lon="5.1225">
        <ele>159.60000610352</ele>
        <time>2012-06-17T07:05:19.000Z</time>
      </trkpt>
      <trkpt lat="43.91617" lon="5.12247">
        <ele>159.80000305176</ele>
        <time>2012-06-17T07:05:21.000Z</time>
      </trkpt>
      <trkpt lat="43.91617" lon="5.12242">
        <ele>159.60000610352</ele>
        <time>2012-06-17T07:05:24.000Z</time>
      </trkpt>
      <trkpt lat="43.91618" lon="5.12241">
        <ele>159.39999389648</ele>
        <time>2012-06-17T07:05:26.000Z</time>
      </trkpt>
      <trkpt lat="43.91618" lon="5.12242">
        <ele>159.39999389648</ele>
        <time>2012-06-17T07:05:29.000Z</time>
      </trkpt>
      <trkpt lat="43.9162" lon="5.12233">
        <ele>158.60000610352</ele>
        <time>2012-06-17T07:05:36.000Z</time>
      </trkpt>
      <trkpt lat="43.9162" lon="5.12231">
        <ele>158.60000610352</ele>
        <time>2012-06-17T07:05:37.000Z</time>
      </trkpt>
      <trkpt lat="43.91621" lon="5.12226">
        <ele>158</ele>
        <time>2012-06-17T07:05:40.000Z</time>
      </trkpt>
      <trkpt lat="43.91624" lon="5.12226">
        <ele>157.60000610352</ele>
        <time>2012-06-17T07:05:43.000Z</time>
      </trkpt>
      <trkpt lat="43.91624" lon="5.12226">
        <ele>157.60000610352</ele>
        <time>2012-06-17T07:05:44.000Z</time>
      </trkpt>
      <trkpt lat="43.91619" lon="5.1223">
        <ele>158.60000610352</ele>
        <time>2012-06-17T07:06:05.000Z</time>
      </trkpt>
      <trkpt lat="43.91615" lon="5.12229">
        <ele>159.19999694824</ele>
        <time>2012-06-17T07:06:11.000Z</time>
      </trkpt>
      <trkpt lat="43.91613" lon="5.1223">
        <ele>159.60000610352</ele>
        <time>2012-06-17T07:06:22.000Z</time>
      </trkpt>
      <trkpt lat="43.91612" lon="5.1223">
        <ele>159.80000305176</ele>
        <time>2012-06-17T07:06:30.000Z</time>
      </trkpt>
      <trkpt lat="43.91611" lon="5.12225">
        <ele>159.80000305176</ele>
        <time>2012-06-17T07:06:38.000Z</time>
      </trkpt>
      <trkpt lat="43.91612" lon="5.12222">
        <ele>159.60000610352</ele>
        <time>2012-06-17T07:06:41.000Z</time>
      </trkpt>
      <trkpt lat="43.91609" lon="5.12226">
        <ele>160.19999694824</ele>
        <time>2012-06-17T07:07:04.000Z</time>
      </trkpt>
      <trkpt lat="43.91612" lon="5.12223">
        <ele>159.60000610352</ele>
        <time>2012-06-17T07:07:09.000Z</time>
      </trkpt>
      <trkpt lat="43.91612" lon="5.1222">
        <ele>159.19999694824</ele>
        <time>2012-06-17T07:07:12.000Z</time>
      </trkpt>
      <trkpt lat="43.91618" lon="5.12228">
        <ele>158.80000305176</ele>
        <time>2012-06-17T07:07:20.000Z</time>
      </trkpt>
      <trkpt lat="43.91615" lon="5.12236">
        <ele>159.60000610352</ele>
        <time>2012-06-17T07:07:24.000Z</time>
      </trkpt>
      <trkpt lat="43.91614" lon="5.12233">
        <ele>159.80000305176</ele>
        <time>2012-06-17T07:07:28.000Z</time>
      </trkpt>
      <trkpt lat="43.91614" lon="5.12232">
        <ele>159.60000610352</ele>
        <time>2012-06-17T07:07:29.000Z</time>
      </trkpt>
      <trkpt lat="43.91611" lon="5.12227">
        <ele>160</ele>
        <time>2012-06-17T07:07:34.000Z</time>
      </trkpt>
      <trkpt lat="43.91608" lon="5.12226">
        <ele>160.39999389648</ele>
        <time>2012-06-17T07:07:53.000Z</time>
      </trkpt>
      <trkpt lat="43.91608" lon="5.12224">
        <ele>160.39999389648</ele>
        <time>2012-06-17T07:07:55.000Z</time>
      </trkpt>
      <trkpt lat="43.91601" lon="5.12227">
        <ele>161.60000610352</ele>
        <time>2012-06-17T07:08:01.000Z</time>
      </trkpt>
      <trkpt lat="43.91597" lon="5.12229">
        <ele>162.60000610352</ele>
        <time>2012-06-17T07:08:05.000Z</time>
      </trkpt>
      <trkpt lat="43.91588" lon="5.12229">
        <ele>164</ele>
        <time>2012-06-17T07:08:13.000Z</time>
      </trkpt>
      <trkpt lat="43.9159" lon="5.12226">
        <ele>163.60000610352</ele>
        <time>2012-06-17T07:08:17.000Z</time>
      </trkpt>
      <trkpt lat="43.9159" lon="5.12227">
        <ele>163.60000610352</ele>
        <time>2012-06-17T07:08:22.000Z</time>
      </trkpt>
      <trkpt lat="43.91585" lon="5.12228">
        <ele>164.60000610352</ele>
        <time>2012-06-17T07:08:46.000Z</time>
      </trkpt>
      <trkpt lat="43.91581" lon="5.12229">
        <ele>165.39999389648</ele>
        <time>2012-06-17T07:08:48.000Z</time>
      </trkpt>
      <trkpt lat="43.91577" lon="5.12233">
        <ele>166.80000305176</ele>
        <time>2012-06-17T07:08:50.000Z</time>
      </trkpt>
      <trkpt lat="43.91576" lon="5.12234">
        <ele>167</ele>
        <time>2012-06-17T07:08:51.000Z</time>
      </trkpt>
      <trkpt lat="43.91572" lon="5.12236">
        <ele>168.19999694824</ele>
        <time>2012-06-17T07:08:55.000Z</time>
      </trkpt>
      <trkpt lat="43.91568" lon="5.12237">
        <ele>169</ele>
        <time>2012-06-17T07:08:57.000Z</time>
      </trkpt>
      <trkpt lat="43.91567" lon="5.12236">
        <ele>169.39999389648</ele>
        <time>2012-06-17T07:08:58.000Z</time>
      </trkpt>
      <trkpt lat="43.91563" lon="5.12233">
        <ele>170.19999694824</ele>
        <time>2012-06-17T07:09:02.000Z</time>
      </trkpt>
      <trkpt lat="43.91562" lon="5.12231">
        <ele>170.19999694824</ele>
        <time>2012-06-17T07:09:04.000Z</time>
      </trkpt>
      <trkpt lat="43.91562" lon="5.12226">
        <ele>170</ele>
        <time>2012-06-17T07:09:33.000Z</time>
      </trkpt>
      <trkpt lat="43.91555" lon="5.12225">
        <ele>171.80000305176</ele>
        <time>2012-06-17T07:09:38.000Z</time>
      </trkpt>
      <trkpt lat="43.91538" lon="5.12214">
        <ele>175.60000610352</ele>
        <time>2012-06-17T07:09:44.000Z</time>
      </trkpt>
      <trkpt lat="43.91533" lon="5.12212">
        <ele>176.60000610352</ele>
        <time>2012-06-17T07:09:46.000Z</time>
      </trkpt>
      <trkpt lat="43.91532" lon="5.12213">
        <ele>177</ele>
        <time>2012-06-17T07:09:47.000Z</time>
      </trkpt>
      <trkpt lat="43.91525" lon="5.12219">
        <ele>179</ele>
        <time>2012-06-17T07:09:52.000Z</time>
      </trkpt>
      <trkpt lat="43.91524" lon="5.1222">
        <ele>179.39999389648</ele>
        <time>2012-06-17T07:09:53.000Z</time>
      </trkpt>
      <trkpt lat="43.91521" lon="5.12223">
        <ele>180.19999694824</ele>
        <time>2012-06-17T07:09:56.000Z</time>
      </trkpt>
      <trkpt lat="43.91518" lon="5.12223">
        <ele>181</ele>
        <time>2012-06-17T07:09:58.000Z</time>
      </trkpt>
      <trkpt lat="43.91514" lon="5.1222">
        <ele>181.80000305176</ele>
        <time>2012-06-17T07:10:01.000Z</time>
      </trkpt>
      <trkpt lat="43.91506" lon="5.1222">
        <ele>183.80000305176</ele>
        <time>2012-06-17T07:10:08.000Z</time>
      </trkpt>
      <trkpt lat="43.91501" lon="5.1222">
        <ele>185.19999694824</ele>
        <time>2012-06-17T07:10:13.000Z</time>
      </trkpt>
      <trkpt lat="43.91498" lon="5.12219">
        <ele>185.39999389648</ele>
        <time>2012-06-17T07:10:15.000Z</time>
      </trkpt>
      <trkpt lat="43.91495" lon="5.12217">
        <ele>185.80000305176</ele>
        <time>2012-06-17T07:10:21.000Z</time>
      </trkpt>
      <trkpt lat="43.91491" lon="5.1222">
        <ele>186.60000610352</ele>
        <time>2012-06-17T07:10:26.000Z</time>
      </trkpt>
      <trkpt lat="43.91489" lon="5.12219">
        <ele>186.80000305176</ele>
        <time>2012-06-17T07:10:29.000Z</time>
      </trkpt>
      <trkpt lat="43.91488" lon="5.12219">
        <ele>186.80000305176</ele>
        <time>2012-06-17T07:10:31.000Z</time>
      </trkpt>
      <trkpt lat="43.91486" lon="5.12217">
        <ele>187</ele>
        <time>2012-06-17T07:10:35.000Z</time>
      </trkpt>
      <trkpt lat="43.91484" lon="5.12214">
        <ele>187.19999694824</ele>
        <time>2012-06-17T07:10:41.000Z</time>
      </trkpt>
      <trkpt lat="43.91481" lon="5.12213">
        <ele>187.60000610352</ele>
        <time>2012-06-17T07:10:45.000Z</time>
      </trkpt>
      <trkpt lat="43.9148" lon="5.12211">
        <ele>187.60000610352</ele>
        <time>2012-06-17T07:10:46.000Z</time>
      </trkpt>
      <trkpt lat="43.91477" lon="5.12201">
        <ele>187.60000610352</ele>
        <time>2012-06-17T07:10:50.000Z</time>
      </trkpt>
      <trkpt lat="43.91478" lon="5.12197">
        <ele>187.39999389648</ele>
        <time>2012-06-17T07:10:51.000Z</time>
      </trkpt>
      <trkpt lat="43.91477" lon="5.12186">
        <ele>187</ele>
        <time>2012-06-17T07:10:55.000Z</time>
      </trkpt>
      <trkpt lat="43.91469" lon="5.12183">
        <ele>188</ele>
        <time>2012-06-17T07:10:59.000Z</time>
      </trkpt>
      <trkpt lat="43.91468" lon="5.12182">
        <ele>188</ele>
        <time>2012-06-17T07:11:00.000Z</time>
      </trkpt>
      <trkpt lat="43.91467" lon="5.12181">
        <ele>188</ele>
        <time>2012-06-17T07:11:01.000Z</time>
      </trkpt>
      <trkpt lat="43.91467" lon="5.12175">
        <ele>187.80000305176</ele>
        <time>2012-06-17T07:11:06.000Z</time>
      </trkpt>
      <trkpt lat="43.91464" lon="5.1217">
        <ele>188</ele>
        <time>2012-06-17T07:11:09.000Z</time>
      </trkpt>
      <trkpt lat="43.91464" lon="5.12166">
        <ele>187.80000305176</ele>
        <time>2012-06-17T07:11:12.000Z</time>
      </trkpt>
      <trkpt lat="43.91464" lon="5.12165">
        <ele>187.80000305176</ele>
        <time>2012-06-17T07:11:13.000Z</time>
      </trkpt>
      <trkpt lat="43.91465" lon="5.1216">
        <ele>187</ele>
        <time>2012-06-17T07:11:17.000Z</time>
      </trkpt>
      <trkpt lat="43.91466" lon="5.12157">
        <ele>186.39999389648</ele>
        <time>2012-06-17T07:11:26.000Z</time>
      </trkpt>
      <trkpt lat="43.91467" lon="5.12158">
        <ele>186.39999389648</ele>
        <time>2012-06-17T07:11:27.000Z</time>
      </trkpt>
      <trkpt lat="43.91469" lon="5.12156">
        <ele>185.80000305176</ele>
        <time>2012-06-17T07:11:32.000Z</time>
      </trkpt>
      <trkpt lat="43.91474" lon="5.12147">
        <ele>184.19999694824</ele>
        <time>2012-06-17T07:11:37.000Z</time>
      </trkpt>
      <trkpt lat="43.91477" lon="5.12134">
        <ele>182.39999389648</ele>
        <time>2012-06-17T07:11:43.000Z</time>
      </trkpt>
      <trkpt lat="43.91477" lon="5.12129">
        <ele>181.60000610352</ele>
        <time>2012-06-17T07:11:48.000Z</time>
      </trkpt>
      <trkpt lat="43.91479" lon="5.12123">
        <ele>180.80000305176</ele>
        <time>2012-06-17T07:11:53.000Z</time>
      </trkpt>
      <trkpt lat="43.9148" lon="5.12122">
        <ele>180.60000610352</ele>
        <time>2012-06-17T07:11:54.000Z</time>
      </trkpt>
      <trkpt lat="43.91479" lon="5.12119">
        <ele>180.19999694824</ele>
        <time>2012-06-17T07:11:57.000Z</time>
      </trkpt>
      <trkpt lat="43.91479" lon="5.12117">
        <ele>180</ele>
        <time>2012-06-17T07:11:59.000Z</time>
      </trkpt>
      <trkpt lat="43.9148" lon="5.12112">
        <ele>179.19999694824</ele>
        <time>2012-06-17T07:12:04.000Z</time>
      </trkpt>
      <trkpt lat="43.91482" lon="5.12108">
        <ele>178.60000610352</ele>
        <time>2012-06-17T07:12:08.000Z</time>
      </trkpt>
      <trkpt lat="43.91481" lon="5.12102">
        <ele>178</ele>
        <time>2012-06-17T07:12:12.000Z</time>
      </trkpt>
      <trkpt lat="43.9148" lon="5.12097">
        <ele>177.39999389648</ele>
        <time>2012-06-17T07:12:17.000Z</time>
      </trkpt>
      <trkpt lat="43.91481" lon="5.12091">
        <ele>176.60000610352</ele>
        <time>2012-06-17T07:12:22.000Z</time>
      </trkpt>
      <trkpt lat="43.91482" lon="5.12089">
        <ele>176.39999389648</ele>
        <time>2012-06-17T07:12:24.000Z</time>
      </trkpt>
      <trkpt lat="43.91483" lon="5.12086">
        <ele>176</ele>
        <time>2012-06-17T07:12:26.000Z</time>
      </trkpt>
      <trkpt lat="43.91483" lon="5.12085">
        <ele>175.80000305176</ele>
        <time>2012-06-17T07:12:27.000Z</time>
      </trkpt>
      <trkpt lat="43.91484" lon="5.12082">
        <ele>175.39999389648</ele>
        <time>2012-06-17T07:12:30.000Z</time>
      </trkpt>
      <trkpt lat="43.91483" lon="5.1208">
        <ele>175</ele>
        <time>2012-06-17T07:12:32.000Z</time>
      </trkpt>
      <trkpt lat="43.91483" lon="5.12079">
        <ele>174.80000305176</ele>
        <time>2012-06-17T07:12:34.000Z</time>
      </trkpt>
      <trkpt lat="43.91482" lon="5.12075">
        <ele>174.19999694824</ele>
        <time>2012-06-17T07:12:39.000Z</time>
      </trkpt>
      <trkpt lat="43.91481" lon="5.12072">
        <ele>174</ele>
        <time>2012-06-17T07:12:41.000Z</time>
      </trkpt>
      <trkpt lat="43.91481" lon="5.12067">
        <ele>173</ele>
        <time>2012-06-17T07:12:44.000Z</time>
      </trkpt>
      <trkpt lat="43.91481" lon="5.12065">
        <ele>172.60000610352</ele>
        <time>2012-06-17T07:12:45.000Z</time>
      </trkpt>
      <trkpt lat="43.9148" lon="5.12063">
        <ele>172.39999389648</ele>
        <time>2012-06-17T07:12:46.000Z</time>
      </trkpt>
      <trkpt lat="43.91477" lon="5.1206">
        <ele>172.19999694824</ele>
        <time>2012-06-17T07:12:49.000Z</time>
      </trkpt>
      <trkpt lat="43.91473" lon="5.12059">
        <ele>172</ele>
        <time>2012-06-17T07:12:52.000Z</time>
      </trkpt>
      <trkpt lat="43.91469" lon="5.12058">
        <ele>172</ele>
        <time>2012-06-17T07:12:54.000Z</time>
      </trkpt>
      <trkpt lat="43.91464" lon="5.12056">
        <ele>172</ele>
        <time>2012-06-17T07:12:59.000Z</time>
      </trkpt>
      <trkpt lat="43.91462" lon="5.12057">
        <ele>172.19999694824</ele>
        <time>2012-06-17T07:13:01.000Z</time>
      </trkpt>
      <trkpt lat="43.9146" lon="5.12057">
        <ele>172.19999694824</ele>
        <time>2012-06-17T07:13:07.000Z</time>
      </trkpt>
      <trkpt lat="43.9146" lon="5.12056">
        <ele>172.19999694824</ele>
        <time>2012-06-17T07:13:13.000Z</time>
      </trkpt>
      <trkpt lat="43.9146" lon="5.12055">
        <ele>172</ele>
        <time>2012-06-17T07:13:23.000Z</time>
      </trkpt>
      <trkpt lat="43.9146" lon="5.12054">
        <ele>171.80000305176</ele>
        <time>2012-06-17T07:13:26.000Z</time>
      </trkpt>
      <trkpt lat="43.91459" lon="5.12052">
        <ele>171.60000610352</ele>
        <time>2012-06-17T07:13:32.000Z</time>
      </trkpt>
      <trkpt lat="43.91461" lon="5.1205">
        <ele>171.19999694824</ele>
        <time>2012-06-17T07:13:36.000Z</time>
      </trkpt>
      <trkpt lat="43.9146" lon="5.12048">
        <ele>171</ele>
        <time>2012-06-17T07:13:38.000Z</time>
      </trkpt>
      <trkpt lat="43.91461" lon="5.12046">
        <ele>170.60000610352</ele>
        <time>2012-06-17T07:13:40.000Z</time>
      </trkpt>
      <trkpt lat="43.9146" lon="5.12044">
        <ele>170.19999694824</ele>
        <time>2012-06-17T07:13:41.000Z</time>
      </trkpt>
      <trkpt lat="43.91458" lon="5.12042">
        <ele>170.19999694824</ele>
        <time>2012-06-17T07:13:43.000Z</time>
      </trkpt>
      <trkpt lat="43.91455" lon="5.1204">
        <ele>169.80000305176</ele>
        <time>2012-06-17T07:13:45.000Z</time>
      </trkpt>
      <trkpt lat="43.91455" lon="5.12038">
        <ele>169.60000610352</ele>
        <time>2012-06-17T07:13:46.000Z</time>
      </trkpt>
      <trkpt lat="43.91455" lon="5.12036">
        <ele>169.39999389648</ele>
        <time>2012-06-17T07:13:47.000Z</time>
      </trkpt>
      <trkpt lat="43.9146" lon="5.12034">
        <ele>168.80000305176</ele>
        <time>2012-06-17T07:13:51.000Z</time>
      </trkpt>
      <trkpt lat="43.91465" lon="5.1203">
        <ele>168</ele>
        <time>2012-06-17T07:13:56.000Z</time>
      </trkpt>
      <trkpt lat="43.91467" lon="5.12024">
        <ele>166.80000305176</ele>
        <time>2012-06-17T07:14:01.000Z</time>
      </trkpt>
      <trkpt lat="43.91469" lon="5.12018">
        <ele>165.80000305176</ele>
        <time>2012-06-17T07:14:07.000Z</time>
      </trkpt>
      <trkpt lat="43.9147" lon="5.12016">
        <ele>165.39999389648</ele>
        <time>2012-06-17T07:14:09.000Z</time>
      </trkpt>
      <trkpt lat="43.91471" lon="5.12014">
        <ele>165</ele>
        <time>2012-06-17T07:14:12.000Z</time>
      </trkpt>
      <trkpt lat="43.91473" lon="5.1201">
        <ele>164.19999694824</ele>
        <time>2012-06-17T07:14:17.000Z</time>
      </trkpt>
      <trkpt lat="43.91475" lon="5.12006">
        <ele>163.39999389648</ele>
        <time>2012-06-17T07:14:22.000Z</time>
      </trkpt>
      <trkpt lat="43.91474" lon="5.12001">
        <ele>162.80000305176</ele>
        <time>2012-06-17T07:14:26.000Z</time>
      </trkpt>
      <trkpt lat="43.91476" lon="5.11998">
        <ele>162</ele>
        <time>2012-06-17T07:14:31.000Z</time>
      </trkpt>
      <trkpt lat="43.91477" lon="5.11998">
        <ele>162</ele>
        <time>2012-06-17T07:14:32.000Z</time>
      </trkpt>
      <trkpt lat="43.91477" lon="5.11997">
        <ele>161.80000305176</ele>
        <time>2012-06-17T07:14:35.000Z</time>
      </trkpt>
      <trkpt lat="43.91478" lon="5.11994">
        <ele>161</ele>
        <time>2012-06-17T07:14:38.000Z</time>
      </trkpt>
      <trkpt lat="43.91478" lon="5.11993">
        <ele>160.80000305176</ele>
        <time>2012-06-17T07:14:39.000Z</time>
      </trkpt>
      <trkpt lat="43.91477" lon="5.11989">
        <ele>160.19999694824</ele>
        <time>2012-06-17T07:14:41.000Z</time>
      </trkpt>
      <trkpt lat="43.91478" lon="5.11986">
        <ele>159.60000610352</ele>
        <time>2012-06-17T07:14:43.000Z</time>
      </trkpt>
      <trkpt lat="43.91481" lon="5.11979">
        <ele>157.80000305176</ele>
        <time>2012-06-17T07:14:48.000Z</time>
      </trkpt>
      <trkpt lat="43.91484" lon="5.11973">
        <ele>156.39999389648</ele>
        <time>2012-06-17T07:14:54.000Z</time>
      </trkpt>
      <trkpt lat="43.91483" lon="5.1197">
        <ele>155.80000305176</ele>
        <time>2012-06-17T07:14:59.000Z</time>
      </trkpt>
      <trkpt lat="43.91482" lon="5.11964">
        <ele>154.60000610352</ele>
        <time>2012-06-17T07:15:04.000Z</time>
      </trkpt>
      <trkpt lat="43.91483" lon="5.11966">
        <ele>154.80000305176</ele>
        <time>2012-06-17T07:15:11.000Z</time>
      </trkpt>
      <trkpt lat="43.91494" lon="5.11962">
        <ele>153</ele>
        <time>2012-06-17T07:15:15.000Z</time>
      </trkpt>
      <trkpt lat="43.91497" lon="5.11961">
        <ele>152.39999389648</ele>
        <time>2012-06-17T07:15:17.000Z</time>
      </trkpt>
      <trkpt lat="43.91499" lon="5.11961">
        <ele>152.19999694824</ele>
        <time>2012-06-17T07:15:19.000Z</time>
      </trkpt>
      <trkpt lat="43.91501" lon="5.11961">
        <ele>152</ele>
        <time>2012-06-17T07:15:21.000Z</time>
      </trkpt>
      <trkpt lat="43.91504" lon="5.11961">
        <ele>151.60000610352</ele>
        <time>2012-06-17T07:15:25.000Z</time>
      </trkpt>
      <trkpt lat="43.91504" lon="5.11963">
        <ele>152</ele>
        <time>2012-06-17T07:15:28.000Z</time>
      </trkpt>
      <trkpt lat="43.91504" lon="5.11965">
        <ele>152.39999389648</ele>
        <time>2012-06-17T07:15:32.000Z</time>
      </trkpt>
      <trkpt lat="43.91502" lon="5.11965">
        <ele>152.60000610352</ele>
        <time>2012-06-17T07:15:48.000Z</time>
      </trkpt>
      <trkpt lat="43.915" lon="5.11962">
        <ele>152.19999694824</ele>
        <time>2012-06-17T07:15:52.000Z</time>
      </trkpt>
      <trkpt lat="43.91497" lon="5.11964">
        <ele>153</ele>
        <time>2012-06-17T07:15:57.000Z</time>
      </trkpt>
      <trkpt lat="43.91496" lon="5.11965">
        <ele>153.39999389648</ele>
        <time>2012-06-17T07:15:59.000Z</time>
      </trkpt>
      <trkpt lat="43.91494" lon="5.11968">
        <ele>154.19999694824</ele>
        <time>2012-06-17T07:16:01.000Z</time>
      </trkpt>
      <trkpt lat="43.91493" lon="5.11969">
        <ele>154.60000610352</ele>
        <time>2012-06-17T07:16:03.000Z</time>
      </trkpt>
      <trkpt lat="43.91492" lon="5.11969">
        <ele>154.60000610352</ele>
        <time>2012-06-17T07:16:04.000Z</time>
      </trkpt>
      <trkpt lat="43.91492" lon="5.1197">
        <ele>154.80000305176</ele>
        <time>2012-06-17T07:16:06.000Z</time>
      </trkpt>
      <trkpt lat="43.91492" lon="5.11969">
        <ele>154.80000305176</ele>
        <time>2012-06-17T07:16:16.000Z</time>
      </trkpt>
      <trkpt lat="43.9149" lon="5.11969">
        <ele>154.80000305176</ele>
        <time>2012-06-17T07:16:18.000Z</time>
      </trkpt>
      <trkpt lat="43.91488" lon="5.11969">
        <ele>155</ele>
        <time>2012-06-17T07:16:19.000Z</time>
      </trkpt>
      <trkpt lat="43.91482" lon="5.11966">
        <ele>155</ele>
        <time>2012-06-17T07:16:24.000Z</time>
      </trkpt>
      <trkpt lat="43.91476" lon="5.11968">
        <ele>156</ele>
        <time>2012-06-17T07:16:27.000Z</time>
      </trkpt>
      <trkpt lat="43.91471" lon="5.11972">
        <ele>157.19999694824</ele>
        <time>2012-06-17T07:16:30.000Z</time>
      </trkpt>
      <trkpt lat="43.91469" lon="5.11974">
        <ele>157.60000610352</ele>
        <time>2012-06-17T07:16:32.000Z</time>
      </trkpt>
      <trkpt lat="43.91465" lon="5.11977">
        <ele>158.80000305176</ele>
        <time>2012-06-17T07:16:37.000Z</time>
      </trkpt>
      <trkpt lat="43.9146" lon="5.11979">
        <ele>159.39999389648</ele>
        <time>2012-06-17T07:16:44.000Z</time>
      </trkpt>
      <trkpt lat="43.91456" lon="5.11979">
        <ele>159.80000305176</ele>
        <time>2012-06-17T07:16:49.000Z</time>
      </trkpt>
      <trkpt lat="43.91453" lon="5.11975">
        <ele>159.39999389648</ele>
        <time>2012-06-17T07:16:56.000Z</time>
      </trkpt>
      <trkpt lat="43.91448" lon="5.11975">
        <ele>159.60000610352</ele>
        <time>2012-06-17T07:17:00.000Z</time>
      </trkpt>
      <trkpt lat="43.91446" lon="5.11978">
        <ele>160.39999389648</ele>
        <time>2012-06-17T07:17:04.000Z</time>
      </trkpt>
      <trkpt lat="43.91445" lon="5.11979">
        <ele>160.60000610352</ele>
        <time>2012-06-17T07:17:05.000Z</time>
      </trkpt>
      <trkpt lat="43.91444" lon="5.11984">
        <ele>161.60000610352</ele>
        <time>2012-06-17T07:17:09.000Z</time>
      </trkpt>
      <trkpt lat="43.91443" lon="5.11986">
        <ele>162</ele>
        <time>2012-06-17T07:17:14.000Z</time>
      </trkpt>
      <trkpt lat="43.9144" lon="5.11993">
        <ele>163.60000610352</ele>
        <time>2012-06-17T07:17:20.000Z</time>
      </trkpt>
      <trkpt lat="43.91439" lon="5.11997">
        <ele>164.19999694824</ele>
        <time>2012-06-17T07:17:22.000Z</time>
      </trkpt>
      <trkpt lat="43.91437" lon="5.12001">
        <ele>165</ele>
        <time>2012-06-17T07:17:25.000Z</time>
      </trkpt>
      <trkpt lat="43.91435" lon="5.12005">
        <ele>165.60000610352</ele>
        <time>2012-06-17T07:17:27.000Z</time>
      </trkpt>
      <trkpt lat="43.91432" lon="5.12013">
        <ele>167</ele>
        <time>2012-06-17T07:17:31.000Z</time>
      </trkpt>
      <trkpt lat="43.91431" lon="5.12016">
        <ele>167.39999389648</ele>
        <time>2012-06-17T07:17:32.000Z</time>
      </trkpt>
      <trkpt lat="43.91428" lon="5.12022">
        <ele>168.60000610352</ele>
        <time>2012-06-17T07:17:35.000Z</time>
      </trkpt>
      <trkpt lat="43.91424" lon="5.12024">
        <ele>169.19999694824</ele>
        <time>2012-06-17T07:17:37.000Z</time>
      </trkpt>
      <trkpt lat="43.9142" lon="5.12024">
        <ele>169.19999694824</ele>
        <time>2012-06-17T07:17:39.000Z</time>
      </trkpt>
      <trkpt lat="43.91416" lon="5.12022">
        <ele>169.19999694824</ele>
        <time>2012-06-17T07:17:41.000Z</time>
      </trkpt>
      <trkpt lat="43.91409" lon="5.1202">
        <ele>170.19999694824</ele>
        <time>2012-06-17T07:17:44.000Z</time>
      </trkpt>
      <trkpt lat="43.91408" lon="5.12022">
        <ele>170.80000305176</ele>
        <time>2012-06-17T07:17:45.000Z</time>
      </trkpt>
      <trkpt lat="43.91405" lon="5.12023">
        <ele>171.39999389648</ele>
        <time>2012-06-17T07:17:48.000Z</time>
      </trkpt>
      <trkpt lat="43.91404" lon="5.12023">
        <ele>171.39999389648</ele>
        <time>2012-06-17T07:17:51.000Z</time>
      </trkpt>
      <trkpt lat="43.91405" lon="5.12025">
        <ele>171.80000305176</ele>
        <time>2012-06-17T07:17:55.000Z</time>
      </trkpt>
      <trkpt lat="43.91404" lon="5.12026">
        <ele>172</ele>
        <time>2012-06-17T07:17:56.000Z</time>
      </trkpt>
      <trkpt lat="43.91398" lon="5.12034">
        <ele>173.80000305176</ele>
        <time>2012-06-17T07:18:03.000Z</time>
      </trkpt>
      <trkpt lat="43.91395" lon="5.12043">
        <ele>175.19999694824</ele>
        <time>2012-06-17T07:18:08.000Z</time>
      </trkpt>
      <trkpt lat="43.91398" lon="5.12047">
        <ele>175.39999389648</ele>
        <time>2012-06-17T07:18:13.000Z</time>
      </trkpt>
      <trkpt lat="43.91401" lon="5.12053">
        <ele>175.80000305176</ele>
        <time>2012-06-17T07:18:17.000Z</time>
      </trkpt>
      <trkpt lat="43.91404" lon="5.12061">
        <ele>176.39999389648</ele>
        <time>2012-06-17T07:18:21.000Z</time>
      </trkpt>
      <trkpt lat="43.91406" lon="5.12067">
        <ele>176.80000305176</ele>
        <time>2012-06-17T07:18:23.000Z</time>
      </trkpt>
      <trkpt lat="43.91405" lon="5.12069">
        <ele>177.19999694824</ele>
        <time>2012-06-17T07:18:24.000Z</time>
      </trkpt>
      <trkpt lat="43.91405" lon="5.12079">
        <ele>178.39999389648</ele>
        <time>2012-06-17T07:18:27.000Z</time>
      </trkpt>
      <trkpt lat="43.91398" lon="5.12086">
        <ele>180</ele>
        <time>2012-06-17T07:18:32.000Z</time>
      </trkpt>
      <trkpt lat="43.91392" lon="5.12095">
        <ele>181.80000305176</ele>
        <time>2012-06-17T07:18:36.000Z</time>
      </trkpt>
      <trkpt lat="43.9139" lon="5.12096">
        <ele>182.19999694824</ele>
        <time>2012-06-17T07:18:37.000Z</time>
      </trkpt>
      <trkpt lat="43.91383" lon="5.12101">
        <ele>183.19999694824</ele>
        <time>2012-06-17T07:18:41.000Z</time>
      </trkpt>
      <trkpt lat="43.9138" lon="5.12105">
        <ele>183.80000305176</ele>
        <time>2012-06-17T07:18:43.000Z</time>
      </trkpt>
      <trkpt lat="43.91379" lon="5.12106">
        <ele>184.19999694824</ele>
        <time>2012-06-17T07:18:45.000Z</time>
      </trkpt>
      <trkpt lat="43.91375" lon="5.12107">
        <ele>184.39999389648</ele>
        <time>2012-06-17T07:18:47.000Z</time>
      </trkpt>
      <trkpt lat="43.91366" lon="5.12111">
        <ele>185.39999389648</ele>
        <time>2012-06-17T07:18:52.000Z</time>
      </trkpt>
      <trkpt lat="43.91361" lon="5.12116">
        <ele>186.19999694824</ele>
        <time>2012-06-17T07:18:56.000Z</time>
      </trkpt>
      <trkpt lat="43.9135" lon="5.1212">
        <ele>187</ele>
        <time>2012-06-17T07:19:01.000Z</time>
      </trkpt>
      <trkpt lat="43.91337" lon="5.12117">
        <ele>187.19999694824</ele>
        <time>2012-06-17T07:19:06.000Z</time>
      </trkpt>
      <trkpt lat="43.91332" lon="5.12117">
        <ele>187.39999389648</ele>
        <time>2012-06-17T07:19:08.000Z</time>
      </trkpt>
      <trkpt lat="43.91329" lon="5.12115">
        <ele>187.60000610352</ele>
        <time>2012-06-17T07:19:10.000Z</time>
      </trkpt>
      <trkpt lat="43.91327" lon="5.12117">
        <ele>187.80000305176</ele>
        <time>2012-06-17T07:19:11.000Z</time>
      </trkpt>
      <trkpt lat="43.91327" lon="5.12118">
        <ele>188</ele>
        <time>2012-06-17T07:19:13.000Z</time>
      </trkpt>
      <trkpt lat="43.91327" lon="5.1212">
        <ele>188.19999694824</ele>
        <time>2012-06-17T07:19:15.000Z</time>
      </trkpt>
      <trkpt lat="43.91323" lon="5.12125">
        <ele>188.80000305176</ele>
        <time>2012-06-17T07:19:19.000Z</time>
      </trkpt>
      <trkpt lat="43.91318" lon="5.12125">
        <ele>189.19999694824</ele>
        <time>2012-06-17T07:19:21.000Z</time>
      </trkpt>
      <trkpt lat="43.91314" lon="5.12126">
        <ele>189.60000610352</ele>
        <time>2012-06-17T07:19:25.000Z</time>
      </trkpt>
      <trkpt lat="43.91307" lon="5.12129">
        <ele>190.39999389648</ele>
        <time>2012-06-17T07:19:29.000Z</time>
      </trkpt>
      <trkpt lat="43.91305" lon="5.1213">
        <ele>190.60000610352</ele>
        <time>2012-06-17T07:19:30.000Z</time>
      </trkpt>
      <trkpt lat="43.91303" lon="5.12135">
        <ele>191</ele>
        <time>2012-06-17T07:19:36.000Z</time>
      </trkpt>
      <trkpt lat="43.91293" lon="5.1214">
        <ele>192</ele>
        <time>2012-06-17T07:19:43.000Z</time>
      </trkpt>
      <trkpt lat="43.91291" lon="5.12139">
        <ele>192.19999694824</ele>
        <time>2012-06-17T07:19:45.000Z</time>
      </trkpt>
      <trkpt lat="43.91287" lon="5.12138">
        <ele>192.39999389648</ele>
        <time>2012-06-17T07:19:48.000Z</time>
      </trkpt>
      <trkpt lat="43.91282" lon="5.12139">
        <ele>193</ele>
        <time>2012-06-17T07:19:52.000Z</time>
      </trkpt>
      <trkpt lat="43.91281" lon="5.12138">
        <ele>193</ele>
        <time>2012-06-17T07:19:53.000Z</time>
      </trkpt>
      <trkpt lat="43.91277" lon="5.1214">
        <ele>193.39999389648</ele>
        <time>2012-06-17T07:19:57.000Z</time>
      </trkpt>
      <trkpt lat="43.91275" lon="5.1214">
        <ele>193.60000610352</ele>
        <time>2012-06-17T07:19:58.000Z</time>
      </trkpt>
      <trkpt lat="43.91267" lon="5.12139">
        <ele>194</ele>
        <time>2012-06-17T07:20:02.000Z</time>
      </trkpt>
      <trkpt lat="43.91265" lon="5.12141">
        <ele>194.19999694824</ele>
        <time>2012-06-17T07:20:03.000Z</time>
      </trkpt>
      <trkpt lat="43.91255" lon="5.12144">
        <ele>195.19999694824</ele>
        <time>2012-06-17T07:20:08.000Z</time>
      </trkpt>
      <trkpt lat="43.91251" lon="5.12146">
        <ele>195.60000610352</ele>
        <time>2012-06-17T07:20:11.000Z</time>
      </trkpt>
      <trkpt lat="43.91248" lon="5.12148">
        <ele>196</ele>
        <time>2012-06-17T07:20:13.000Z</time>
      </trkpt>
      <trkpt lat="43.91246" lon="5.12147">
        <ele>196</ele>
        <time>2012-06-17T07:20:18.000Z</time>
      </trkpt>
      <trkpt lat="43.91244" lon="5.12138">
        <ele>195.39999389648</ele>
        <time>2012-06-17T07:20:25.000Z</time>
      </trkpt>
      <trkpt lat="43.91244" lon="5.12134">
        <ele>195.19999694824</ele>
        <time>2012-06-17T07:20:26.000Z</time>
      </trkpt>
      <trkpt lat="43.91245" lon="5.12119">
        <ele>194.39999389648</ele>
        <time>2012-06-17T07:20:29.000Z</time>
      </trkpt>
      <trkpt lat="43.91244" lon="5.1211">
        <ele>193.80000305176</ele>
        <time>2012-06-17T07:20:31.000Z</time>
      </trkpt>
      <trkpt lat="43.91244" lon="5.12103">
        <ele>193.39999389648</ele>
        <time>2012-06-17T07:20:33.000Z</time>
      </trkpt>
      <trkpt lat="43.91245" lon="5.12084">
        <ele>192.19999694824</ele>
        <time>2012-06-17T07:20:38.000Z</time>
      </trkpt>
      <trkpt lat="43.91246" lon="5.1208">
        <ele>192.19999694824</ele>
        <time>2012-06-17T07:20:39.000Z</time>
      </trkpt>
      <trkpt lat="43.91247" lon="5.12068">
        <ele>192</ele>
        <time>2012-06-17T07:20:43.000Z</time>
      </trkpt>
      <trkpt lat="43.91244" lon="5.12053">
        <ele>192</ele>
        <time>2012-06-17T07:20:48.000Z</time>
      </trkpt>
      <trkpt lat="43.91244" lon="5.12044">
        <ele>191.80000305176</ele>
        <time>2012-06-17T07:20:52.000Z</time>
      </trkpt>
      <trkpt lat="43.91243" lon="5.12034">
        <ele>191.80000305176</ele>
        <time>2012-06-17T07:20:57.000Z</time>
      </trkpt>
      <trkpt lat="43.91243" lon="5.12031">
        <ele>191.80000305176</ele>
        <time>2012-06-17T07:21:02.000Z</time>
      </trkpt>
      <trkpt lat="43.91242" lon="5.12015">
        <ele>191.80000305176</ele>
        <time>2012-06-17T07:21:07.000Z</time>
      </trkpt>
      <trkpt lat="43.91242" lon="5.12009">
        <ele>191.80000305176</ele>
        <time>2012-06-17T07:21:10.000Z</time>
      </trkpt>
      <trkpt lat="43.91243" lon="5.12007">
        <ele>191.80000305176</ele>
        <time>2012-06-17T07:21:11.000Z</time>
      </trkpt>
      <trkpt lat="43.91243" lon="5.12004">
        <ele>191.60000610352</ele>
        <time>2012-06-17T07:21:12.000Z</time>
      </trkpt>
      <trkpt lat="43.91245" lon="5.11994">
        <ele>191.39999389648</ele>
        <time>2012-06-17T07:21:16.000Z</time>
      </trkpt>
      <trkpt lat="43.91241" lon="5.11984">
        <ele>191.80000305176</ele>
        <time>2012-06-17T07:21:21.000Z</time>
      </trkpt>
      <trkpt lat="43.91238" lon="5.11982">
        <ele>192.19999694824</ele>
        <time>2012-06-17T07:21:23.000Z</time>
      </trkpt>
      <trkpt lat="43.91237" lon="5.1198">
        <ele>192.19999694824</ele>
        <time>2012-06-17T07:21:26.000Z</time>
      </trkpt>
      <trkpt lat="43.91236" lon="5.11978">
        <ele>192.39999389648</ele>
        <time>2012-06-17T07:21:29.000Z</time>
      </trkpt>
      <trkpt lat="43.91236" lon="5.11969">
        <ele>192.39999389648</ele>
        <time>2012-06-17T07:21:32.000Z</time>
      </trkpt>
      <trkpt lat="43.91237" lon="5.11953">
        <ele>192.39999389648</ele>
        <time>2012-06-17T07:21:36.000Z</time>
      </trkpt>
      <trkpt lat="43.91238" lon="5.11949">
        <ele>192.19999694824</ele>
        <time>2012-06-17T07:21:38.000Z</time>
      </trkpt>
      <trkpt lat="43.9124" lon="5.11945">
        <ele>191.80000305176</ele>
        <time>2012-06-17T07:21:40.000Z</time>
      </trkpt>
      <trkpt lat="43.9124" lon="5.11942">
        <ele>191.80000305176</ele>
        <time>2012-06-17T07:21:45.000Z</time>
      </trkpt>
      <trkpt lat="43.9124" lon="5.11946">
        <ele>191.80000305176</ele>
        <time>2012-06-17T07:21:56.000Z</time>
      </trkpt>
      <trkpt lat="43.91238" lon="5.1195">
        <ele>192.19999694824</ele>
        <time>2012-06-17T07:21:59.000Z</time>
      </trkpt>
      <trkpt lat="43.91235" lon="5.11959">
        <ele>192.80000305176</ele>
        <time>2012-06-17T07:22:03.000Z</time>
      </trkpt>
      <trkpt lat="43.91236" lon="5.11976">
        <ele>192.39999389648</ele>
        <time>2012-06-17T07:22:07.000Z</time>
      </trkpt>
      <trkpt lat="43.91238" lon="5.11983">
        <ele>192.19999694824</ele>
        <time>2012-06-17T07:22:11.000Z</time>
      </trkpt>
      <trkpt lat="43.91239" lon="5.11987">
        <ele>192</ele>
        <time>2012-06-17T07:22:15.000Z</time>
      </trkpt>
      <trkpt lat="43.91239" lon="5.11986">
        <ele>192</ele>
        <time>2012-06-17T07:22:18.000Z</time>
      </trkpt>
      <trkpt lat="43.91242" lon="5.11989">
        <ele>191.60000610352</ele>
        <time>2012-06-17T07:22:28.000Z</time>
      </trkpt>
      <trkpt lat="43.91242" lon="5.11994">
        <ele>191.60000610352</ele>
        <time>2012-06-17T07:22:30.000Z</time>
      </trkpt>
      <trkpt lat="43.91243" lon="5.12004">
        <ele>191.60000610352</ele>
        <time>2012-06-17T07:22:35.000Z</time>
      </trkpt>
      <trkpt lat="43.91243" lon="5.1202">
        <ele>191.80000305176</ele>
        <time>2012-06-17T07:22:39.000Z</time>
      </trkpt>
      <trkpt lat="43.91244" lon="5.12028">
        <ele>191.80000305176</ele>
        <time>2012-06-17T07:22:41.000Z</time>
      </trkpt>
      <trkpt lat="43.91244" lon="5.12034">
        <ele>191.80000305176</ele>
        <time>2012-06-17T07:22:43.000Z</time>
      </trkpt>
      <trkpt lat="43.91241" lon="5.12047">
        <ele>192.19999694824</ele>
        <time>2012-06-17T07:22:48.000Z</time>
      </trkpt>
      <trkpt lat="43.91243" lon="5.12066">
        <ele>192.19999694824</ele>
        <time>2012-06-17T07:22:52.000Z</time>
      </trkpt>
      <trkpt lat="43.91245" lon="5.12086">
        <ele>192.39999389648</ele>
        <time>2012-06-17T07:22:56.000Z</time>
      </trkpt>
      <trkpt lat="43.91243" lon="5.12102">
        <ele>193.39999389648</ele>
        <time>2012-06-17T07:23:00.000Z</time>
      </trkpt>
      <trkpt lat="43.91244" lon="5.1212">
        <ele>194.39999389648</ele>
        <time>2012-06-17T07:23:05.000Z</time>
      </trkpt>
      <trkpt lat="43.91243" lon="5.12137">
        <ele>195.39999389648</ele>
        <time>2012-06-17T07:23:10.000Z</time>
      </trkpt>
      <trkpt lat="43.91243" lon="5.12141">
        <ele>195.80000305176</ele>
        <time>2012-06-17T07:23:12.000Z</time>
      </trkpt>
      <trkpt lat="43.9124" lon="5.12146">
        <ele>196</ele>
        <time>2012-06-17T07:23:14.000Z</time>
      </trkpt>
      <trkpt lat="43.91239" lon="5.12155">
        <ele>196.80000305176</ele>
        <time>2012-06-17T07:23:19.000Z</time>
      </trkpt>
      <trkpt lat="43.91238" lon="5.12169">
        <ele>197.60000610352</ele>
        <time>2012-06-17T07:23:27.000Z</time>
      </trkpt>
      <trkpt lat="43.9123" lon="5.12171">
        <ele>198.19999694824</ele>
        <time>2012-06-17T07:23:31.000Z</time>
      </trkpt>
      <trkpt lat="43.91227" lon="5.12171">
        <ele>198.19999694824</ele>
        <time>2012-06-17T07:23:32.000Z</time>
      </trkpt>
      <trkpt lat="43.91214" lon="5.12165">
        <ele>198.19999694824</ele>
        <time>2012-06-17T07:23:37.000Z</time>
      </trkpt>
      <trkpt lat="43.91198" lon="5.12163">
        <ele>198.60000610352</ele>
        <time>2012-06-17T07:23:43.000Z</time>
      </trkpt>
      <trkpt lat="43.91186" lon="5.12163">
        <ele>199</ele>
        <time>2012-06-17T07:23:47.000Z</time>
      </trkpt>
      <trkpt lat="43.9117" lon="5.12161">
        <ele>199.60000610352</ele>
        <time>2012-06-17T07:23:53.000Z</time>
      </trkpt>
      <trkpt lat="43.91154" lon="5.12156">
        <ele>199.19999694824</ele>
        <time>2012-06-17T07:23:59.000Z</time>
      </trkpt>
      <trkpt lat="43.91139" lon="5.12152">
        <ele>199</ele>
        <time>2012-06-17T07:24:04.000Z</time>
      </trkpt>
      <trkpt lat="43.91125" lon="5.12144">
        <ele>198.39999389648</ele>
        <time>2012-06-17T07:24:10.000Z</time>
      </trkpt>
      <trkpt lat="43.91113" lon="5.12144">
        <ele>198.39999389648</ele>
        <time>2012-06-17T07:24:15.000Z</time>
      </trkpt>
      <trkpt lat="43.91096" lon="5.1215">
        <ele>198.39999389648</ele>
        <time>2012-06-17T07:24:21.000Z</time>
      </trkpt>
      <trkpt lat="43.91089" lon="5.12163">
        <ele>199</ele>
        <time>2012-06-17T07:24:25.000Z</time>
      </trkpt>
      <trkpt lat="43.91086" lon="5.12175">
        <ele>199.60000610352</ele>
        <time>2012-06-17T07:24:29.000Z</time>
      </trkpt>
      <trkpt lat="43.91083" lon="5.12186">
        <ele>200</ele>
        <time>2012-06-17T07:24:34.000Z</time>
      </trkpt>
      <trkpt lat="43.91076" lon="5.12201">
        <ele>200.60000610352</ele>
        <time>2012-06-17T07:24:40.000Z</time>
      </trkpt>
      <trkpt lat="43.91072" lon="5.12207">
        <ele>200.80000305176</ele>
        <time>2012-06-17T07:24:44.000Z</time>
      </trkpt>
      <trkpt lat="43.91072" lon="5.12209">
        <ele>200.80000305176</ele>
        <time>2012-06-17T07:24:45.000Z</time>
      </trkpt>
      <trkpt lat="43.91072" lon="5.12215">
        <ele>201.19999694824</ele>
        <time>2012-06-17T07:24:49.000Z</time>
      </trkpt>
      <trkpt lat="43.91074" lon="5.12216">
        <ele>201.39999389648</ele>
        <time>2012-06-17T07:24:51.000Z</time>
      </trkpt>
      <trkpt lat="43.91075" lon="5.12218">
        <ele>201.60000610352</ele>
        <time>2012-06-17T07:24:52.000Z</time>
      </trkpt>
      <trkpt lat="43.91074" lon="5.12221">
        <ele>201.80000305176</ele>
        <time>2012-06-17T07:24:54.000Z</time>
      </trkpt>
      <trkpt lat="43.91072" lon="5.12229">
        <ele>202.19999694824</ele>
        <time>2012-06-17T07:25:00.000Z</time>
      </trkpt>
      <trkpt lat="43.91073" lon="5.1223">
        <ele>202.19999694824</ele>
        <time>2012-06-17T07:25:01.000Z</time>
      </trkpt>
      <trkpt lat="43.91077" lon="5.12235">
        <ele>202.80000305176</ele>
        <time>2012-06-17T07:25:05.000Z</time>
      </trkpt>
      <trkpt lat="43.91077" lon="5.12243">
        <ele>203.19999694824</ele>
        <time>2012-06-17T07:25:10.000Z</time>
      </trkpt>
      <trkpt lat="43.91078" lon="5.12244">
        <ele>203.39999389648</ele>
        <time>2012-06-17T07:25:12.000Z</time>
      </trkpt>
      <trkpt lat="43.91079" lon="5.12246">
        <ele>203.60000610352</ele>
        <time>2012-06-17T07:25:14.000Z</time>
      </trkpt>
      <trkpt lat="43.91077" lon="5.12251">
        <ele>203.80000305176</ele>
        <time>2012-06-17T07:25:18.000Z</time>
      </trkpt>
      <trkpt lat="43.91078" lon="5.12256">
        <ele>204</ele>
        <time>2012-06-17T07:25:24.000Z</time>
      </trkpt>
      <trkpt lat="43.9108" lon="5.1226">
        <ele>204.19999694824</ele>
        <time>2012-06-17T07:25:30.000Z</time>
      </trkpt>
      <trkpt lat="43.91083" lon="5.12263">
        <ele>204.39999389648</ele>
        <time>2012-06-17T07:25:34.000Z</time>
      </trkpt>
      <trkpt lat="43.91079" lon="5.12263">
        <ele>204.39999389648</ele>
        <time>2012-06-17T07:25:39.000Z</time>
      </trkpt>
      <trkpt lat="43.91076" lon="5.12268">
        <ele>204.39999389648</ele>
        <time>2012-06-17T07:25:43.000Z</time>
      </trkpt>
      <trkpt lat="43.91075" lon="5.12269">
        <ele>204.39999389648</ele>
        <time>2012-06-17T07:25:44.000Z</time>
      </trkpt>
      <trkpt lat="43.91073" lon="5.12273">
        <ele>204.39999389648</ele>
        <time>2012-06-17T07:25:47.000Z</time>
      </trkpt>
      <trkpt lat="43.91073" lon="5.12273">
        <ele>204.39999389648</ele>
        <time>2012-06-17T07:25:49.000Z</time>
      </trkpt>
      <trkpt lat="43.91074" lon="5.12275">
        <ele>204.39999389648</ele>
        <time>2012-06-17T07:25:50.000Z</time>
      </trkpt>
      <trkpt lat="43.91072" lon="5.12279">
        <ele>204.60000610352</ele>
        <time>2012-06-17T07:25:53.000Z</time>
      </trkpt>
      <trkpt lat="43.91072" lon="5.12288">
        <ele>205</ele>
        <time>2012-06-17T07:25:58.000Z</time>
      </trkpt>
      <trkpt lat="43.91072" lon="5.12288">
        <ele>205</ele>
        <time>2012-06-17T07:25:59.000Z</time>
      </trkpt>
      <trkpt lat="43.91073" lon="5.12293">
        <ele>205.19999694824</ele>
        <time>2012-06-17T07:26:04.000Z</time>
      </trkpt>
      <trkpt lat="43.91074" lon="5.12302">
        <ele>205.60000610352</ele>
        <time>2012-06-17T07:26:08.000Z</time>
      </trkpt>
      <trkpt lat="43.91077" lon="5.12307">
        <ele>205.80000305176</ele>
        <time>2012-06-17T07:26:11.000Z</time>
      </trkpt>
      <trkpt lat="43.91079" lon="5.12311">
        <ele>206</ele>
        <time>2012-06-17T07:26:13.000Z</time>
      </trkpt>
      <trkpt lat="43.9108" lon="5.12314">
        <ele>206.19999694824</ele>
        <time>2012-06-17T07:26:14.000Z</time>
      </trkpt>
      <trkpt lat="43.91077" lon="5.12319">
        <ele>206.39999389648</ele>
        <time>2012-06-17T07:26:17.000Z</time>
      </trkpt>
      <trkpt lat="43.91073" lon="5.12322">
        <ele>206.39999389648</ele>
        <time>2012-06-17T07:26:22.000Z</time>
      </trkpt>
      <trkpt lat="43.91073" lon="5.12327">
        <ele>206.39999389648</ele>
        <time>2012-06-17T07:26:27.000Z</time>
      </trkpt>
      <trkpt lat="43.91071" lon="5.12324">
        <ele>206.39999389648</ele>
        <time>2012-06-17T07:26:49.000Z</time>
      </trkpt>
      <trkpt lat="43.91071" lon="5.12323">
        <ele>206.39999389648</ele>
        <time>2012-06-17T07:26:50.000Z</time>
      </trkpt>
      <trkpt lat="43.91073" lon="5.12322">
        <ele>206.39999389648</ele>
        <time>2012-06-17T07:26:53.000Z</time>
      </trkpt>
      <trkpt lat="43.91076" lon="5.12319">
        <ele>206.19999694824</ele>
        <time>2012-06-17T07:26:56.000Z</time>
      </trkpt>
      <trkpt lat="43.91076" lon="5.12311">
        <ele>206</ele>
        <time>2012-06-17T07:26:58.000Z</time>
      </trkpt>
      <trkpt lat="43.91073" lon="5.12301">
        <ele>205.60000610352</ele>
        <time>2012-06-17T07:27:01.000Z</time>
      </trkpt>
      <trkpt lat="43.91071" lon="5.12295">
        <ele>205.19999694824</ele>
        <time>2012-06-17T07:27:03.000Z</time>
      </trkpt>
      <trkpt lat="43.91071" lon="5.12291">
        <ele>205</ele>
        <time>2012-06-17T07:27:04.000Z</time>
      </trkpt>
      <trkpt lat="43.91073" lon="5.12283">
        <ele>204.80000305176</ele>
        <time>2012-06-17T07:27:07.000Z</time>
      </trkpt>
      <trkpt lat="43.91074" lon="5.1228">
        <ele>204.80000305176</ele>
        <time>2012-06-17T07:27:09.000Z</time>
      </trkpt>
      <trkpt lat="43.91074" lon="5.12276">
        <ele>204.60000610352</ele>
        <time>2012-06-17T07:27:11.000Z</time>
      </trkpt>
      <trkpt lat="43.91073" lon="5.12274">
        <ele>204.39999389648</ele>
        <time>2012-06-17T07:27:12.000Z</time>
      </trkpt>
      <trkpt lat="43.91072" lon="5.12272">
        <ele>204.39999389648</ele>
        <time>2012-06-17T07:27:14.000Z</time>
      </trkpt>
      <trkpt lat="43.91073" lon="5.1227">
        <ele>204.19999694824</ele>
        <time>2012-06-17T07:27:17.000Z</time>
      </trkpt>
      <trkpt lat="43.9108" lon="5.12261">
        <ele>204.19999694824</ele>
        <time>2012-06-17T07:27:22.000Z</time>
      </trkpt>
      <trkpt lat="43.91079" lon="5.12263">
        <ele>204.19999694824</ele>
        <time>2012-06-17T07:27:24.000Z</time>
      </trkpt>
      <trkpt lat="43.91077" lon="5.12264">
        <ele>204.19999694824</ele>
        <time>2012-06-17T07:27:26.000Z</time>
      </trkpt>
      <trkpt lat="43.91074" lon="5.1226">
        <ele>204</ele>
        <time>2012-06-17T07:27:30.000Z</time>
      </trkpt>
      <trkpt lat="43.91074" lon="5.12256">
        <ele>203.80000305176</ele>
        <time>2012-06-17T07:27:32.000Z</time>
      </trkpt>
      <trkpt lat="43.91076" lon="5.12254">
        <ele>203.80000305176</ele>
        <time>2012-06-17T07:27:35.000Z</time>
      </trkpt>
      <trkpt lat="43.91079" lon="5.12251">
        <ele>203.80000305176</ele>
        <time>2012-06-17T07:27:39.000Z</time>
      </trkpt>
      <trkpt lat="43.91079" lon="5.12249">
        <ele>203.80000305176</ele>
        <time>2012-06-17T07:27:40.000Z</time>
      </trkpt>
      <trkpt lat="43.9108" lon="5.12245">
        <ele>203.60000610352</ele>
        <time>2012-06-17T07:27:44.000Z</time>
      </trkpt>
      <trkpt lat="43.91079" lon="5.12243">
        <ele>203.39999389648</ele>
        <time>2012-06-17T07:27:45.000Z</time>
      </trkpt>
      <trkpt lat="43.91082" lon="5.12231">
        <ele>202.80000305176</ele>
        <time>2012-06-17T07:27:50.000Z</time>
      </trkpt>
      <trkpt lat="43.91089" lon="5.12221">
        <ele>202.19999694824</ele>
        <time>2012-06-17T07:27:54.000Z</time>
      </trkpt>
      <trkpt lat="43.9109" lon="5.1222">
        <ele>202.19999694824</ele>
        <time>2012-06-17T07:27:55.000Z</time>
      </trkpt>
      <trkpt lat="43.91091" lon="5.12217">
        <ele>202</ele>
        <time>2012-06-17T07:27:56.000Z</time>
      </trkpt>
      <trkpt lat="43.91091" lon="5.1221">
        <ele>201.60000610352</ele>
        <time>2012-06-17T07:27:58.000Z</time>
      </trkpt>
      <trkpt lat="43.91095" lon="5.12201">
        <ele>201.19999694824</ele>
        <time>2012-06-17T07:28:02.000Z</time>
      </trkpt>
      <trkpt lat="43.91092" lon="5.12202">
        <ele>201.19999694824</ele>
        <time>2012-06-17T07:28:05.000Z</time>
      </trkpt>
      <trkpt lat="43.91087" lon="5.122">
        <ele>201</ele>
        <time>2012-06-17T07:28:07.000Z</time>
      </trkpt>
      <trkpt lat="43.91084" lon="5.12195">
        <ele>200.60000610352</ele>
        <time>2012-06-17T07:28:09.000Z</time>
      </trkpt>
      <trkpt lat="43.9108" lon="5.12188">
        <ele>200</ele>
        <time>2012-06-17T07:28:11.000Z</time>
      </trkpt>
      <trkpt lat="43.9108" lon="5.12181">
        <ele>199.60000610352</ele>
        <time>2012-06-17T07:28:13.000Z</time>
      </trkpt>
      <trkpt lat="43.91084" lon="5.12167">
        <ele>199</ele>
        <time>2012-06-17T07:28:17.000Z</time>
      </trkpt>
      <trkpt lat="43.91087" lon="5.12161">
        <ele>198.80000305176</ele>
        <time>2012-06-17T07:28:19.000Z</time>
      </trkpt>
      <trkpt lat="43.91095" lon="5.12146">
        <ele>198.39999389648</ele>
        <time>2012-06-17T07:28:24.000Z</time>
      </trkpt>
      <trkpt lat="43.91106" lon="5.12142">
        <ele>198.19999694824</ele>
        <time>2012-06-17T07:28:28.000Z</time>
      </trkpt>
      <trkpt lat="43.91125" lon="5.12143">
        <ele>198.39999389648</ele>
        <time>2012-06-17T07:28:35.000Z</time>
      </trkpt>
      <trkpt lat="43.91141" lon="5.12151">
        <ele>198.80000305176</ele>
        <time>2012-06-17T07:28:41.000Z</time>
      </trkpt>
      <trkpt lat="43.91151" lon="5.12153">
        <ele>199</ele>
        <time>2012-06-17T07:28:45.000Z</time>
      </trkpt>
      <trkpt lat="43.91165" lon="5.12157">
        <ele>199.39999389648</ele>
        <time>2012-06-17T07:28:50.000Z</time>
      </trkpt>
      <trkpt lat="43.9118" lon="5.12159">
        <ele>199</ele>
        <time>2012-06-17T07:28:55.000Z</time>
      </trkpt>
      <trkpt lat="43.91193" lon="5.12161">
        <ele>198.80000305176</ele>
        <time>2012-06-17T07:29:00.000Z</time>
      </trkpt>
      <trkpt lat="43.91209" lon="5.12163">
        <ele>198.39999389648</ele>
        <time>2012-06-17T07:29:05.000Z</time>
      </trkpt>
      <trkpt lat="43.91223" lon="5.12167">
        <ele>198</ele>
        <time>2012-06-17T07:29:10.000Z</time>
      </trkpt>
      <trkpt lat="43.91231" lon="5.1217">
        <ele>198</ele>
        <time>2012-06-17T07:29:13.000Z</time>
      </trkpt>
      <trkpt lat="43.91241" lon="5.12176">
        <ele>198.19999694824</ele>
        <time>2012-06-17T07:29:17.000Z</time>
      </trkpt>
      <trkpt lat="43.91253" lon="5.12189">
        <ele>199</ele>
        <time>2012-06-17T07:29:23.000Z</time>
      </trkpt>
      <trkpt lat="43.91262" lon="5.12196">
        <ele>199.19999694824</ele>
        <time>2012-06-17T07:29:27.000Z</time>
      </trkpt>
      <trkpt lat="43.91275" lon="5.12197">
        <ele>198.60000610352</ele>
        <time>2012-06-17T07:29:31.000Z</time>
      </trkpt>
      <trkpt lat="43.91295" lon="5.12202">
        <ele>198</ele>
        <time>2012-06-17T07:29:38.000Z</time>
      </trkpt>
      <trkpt lat="43.91308" lon="5.12204">
        <ele>197.60000610352</ele>
        <time>2012-06-17T07:29:43.000Z</time>
      </trkpt>
      <trkpt lat="43.91322" lon="5.12206">
        <ele>197.19999694824</ele>
        <time>2012-06-17T07:29:48.000Z</time>
      </trkpt>
      <trkpt lat="43.91334" lon="5.12208">
        <ele>196.80000305176</ele>
        <time>2012-06-17T07:29:53.000Z</time>
      </trkpt>
      <trkpt lat="43.91352" lon="5.12213">
        <ele>197.19999694824</ele>
        <time>2012-06-17T07:29:59.000Z</time>
      </trkpt>
      <trkpt lat="43.91372" lon="5.12218">
        <ele>197.39999389648</ele>
        <time>2012-06-17T07:30:05.000Z</time>
      </trkpt>
      <trkpt lat="43.91383" lon="5.12221">
        <ele>197.19999694824</ele>
        <time>2012-06-17T07:30:10.000Z</time>
      </trkpt>
      <trkpt lat="43.91395" lon="5.12223">
        <ele>197</ele>
        <time>2012-06-17T07:30:14.000Z</time>
      </trkpt>
      <trkpt lat="43.9141" lon="5.12224">
        <ele>196.60000610352</ele>
        <time>2012-06-17T07:30:19.000Z</time>
      </trkpt>
      <trkpt lat="43.9142" lon="5.1222">
        <ele>195.80000305176</ele>
        <time>2012-06-17T07:30:23.000Z</time>
      </trkpt>
      <trkpt lat="43.91436" lon="5.12215">
        <ele>193.39999389648</ele>
        <time>2012-06-17T07:30:28.000Z</time>
      </trkpt>
      <trkpt lat="43.91454" lon="5.12213">
        <ele>191</ele>
        <time>2012-06-17T07:30:33.000Z</time>
      </trkpt>
      <trkpt lat="43.91466" lon="5.12212">
        <ele>189.39999389648</ele>
        <time>2012-06-17T07:30:37.000Z</time>
      </trkpt>
      <trkpt lat="43.9148" lon="5.12211">
        <ele>187.60000610352</ele>
        <time>2012-06-17T07:30:42.000Z</time>
      </trkpt>
      <trkpt lat="43.91499" lon="5.12213">
        <ele>185.19999694824</ele>
        <time>2012-06-17T07:30:48.000Z</time>
      </trkpt>
      <trkpt lat="43.91515" lon="5.12217">
        <ele>181.39999389648</ele>
        <time>2012-06-17T07:30:53.000Z</time>
      </trkpt>
      <trkpt lat="43.91525" lon="5.12222">
        <ele>179.19999694824</ele>
        <time>2012-06-17T07:30:57.000Z</time>
      </trkpt>
      <trkpt lat="43.9154" lon="5.12227">
        <ele>175.60000610352</ele>
        <time>2012-06-17T07:31:02.000Z</time>
      </trkpt>
      <trkpt lat="43.91554" lon="5.12234">
        <ele>172.39999389648</ele>
        <time>2012-06-17T07:31:06.000Z</time>
      </trkpt>
      <trkpt lat="43.91568" lon="5.12245">
        <ele>169.60000610352</ele>
        <time>2012-06-17T07:31:11.000Z</time>
      </trkpt>
      <trkpt lat="43.9158" lon="5.12252">
        <ele>166.60000610352</ele>
        <time>2012-06-17T07:31:16.000Z</time>
      </trkpt>
      <trkpt lat="43.91596" lon="5.1225">
        <ele>163.60000610352</ele>
        <time>2012-06-17T07:31:21.000Z</time>
      </trkpt>
      <trkpt lat="43.91611" lon="5.12253">
        <ele>160.60000610352</ele>
        <time>2012-06-17T07:31:26.000Z</time>
      </trkpt>
      <trkpt lat="43.9162" lon="5.12254">
        <ele>159</ele>
        <time>2012-06-17T07:31:30.000Z</time>
      </trkpt>
      <trkpt lat="43.91637" lon="5.12255">
        <ele>155.80000305176</ele>
        <time>2012-06-17T07:31:37.000Z</time>
      </trkpt>
      <trkpt lat="43.91655" lon="5.12255">
        <ele>152.80000305176</ele>
        <time>2012-06-17T07:31:44.000Z</time>
      </trkpt>
      <trkpt lat="43.91663" lon="5.12254">
        <ele>151.19999694824</ele>
        <time>2012-06-17T07:31:48.000Z</time>
      </trkpt>
      <trkpt lat="43.91679" lon="5.12249">
        <ele>148.19999694824</ele>
        <time>2012-06-17T07:31:54.000Z</time>
      </trkpt>
      <trkpt lat="43.91689" lon="5.12249">
        <ele>146</ele>
        <time>2012-06-17T07:31:58.000Z</time>
      </trkpt>
      <trkpt lat="43.91704" lon="5.12249">
        <ele>142.39999389648</ele>
        <time>2012-06-17T07:32:04.000Z</time>
      </trkpt>
      <trkpt lat="43.91715" lon="5.1225">
        <ele>140</ele>
        <time>2012-06-17T07:32:08.000Z</time>
      </trkpt>
      <trkpt lat="43.91718" lon="5.12251">
        <ele>139.39999389648</ele>
        <time>2012-06-17T07:32:09.000Z</time>
      </trkpt>
      <trkpt lat="43.91734" lon="5.12257">
        <ele>135.60000610352</ele>
        <time>2012-06-17T07:32:15.000Z</time>
      </trkpt>
      <trkpt lat="43.91737" lon="5.12261">
        <ele>134.80000305176</ele>
        <time>2012-06-17T07:32:19.000Z</time>
      </trkpt>
      <trkpt lat="43.91739" lon="5.12262">
        <ele>134.39999389648</ele>
        <time>2012-06-17T07:32:20.000Z</time>
      </trkpt>
      <trkpt lat="43.91745" lon="5.12268">
        <ele>133.19999694824</ele>
        <time>2012-06-17T07:32:23.000Z</time>
      </trkpt>
      <trkpt lat="43.91756" lon="5.12275">
        <ele>130.60000610352</ele>
        <time>2012-06-17T07:32:28.000Z</time>
      </trkpt>
      <trkpt lat="43.91766" lon="5.12282">
        <ele>128.39999389648</ele>
        <time>2012-06-17T07:32:32.000Z</time>
      </trkpt>
      <trkpt lat="43.91777" lon="5.12291">
        <ele>125.80000305176</ele>
        <time>2012-06-17T07:32:37.000Z</time>
      </trkpt>
      <trkpt lat="43.91788" lon="5.12309">
        <ele>123.59999847412</ele>
        <time>2012-06-17T07:32:43.000Z</time>
      </trkpt>
      <trkpt lat="43.91796" lon="5.12328">
        <ele>122</ele>
        <time>2012-06-17T07:32:48.000Z</time>
      </trkpt>
      <trkpt lat="43.91803" lon="5.12337">
        <ele>120</ele>
        <time>2012-06-17T07:32:52.000Z</time>
      </trkpt>
      <trkpt lat="43.9181" lon="5.12352">
        <ele>116.19999694824</ele>
        <time>2012-06-17T07:32:57.000Z</time>
      </trkpt>
      <trkpt lat="43.91814" lon="5.1236">
        <ele>114.19999694824</ele>
        <time>2012-06-17T07:33:00.000Z</time>
      </trkpt>
      <trkpt lat="43.91816" lon="5.12369">
        <ele>112.59999847412</ele>
        <time>2012-06-17T07:33:02.000Z</time>
      </trkpt>
      <trkpt lat="43.91818" lon="5.12387">
        <ele>109.40000152588</ele>
        <time>2012-06-17T07:33:07.000Z</time>
      </trkpt>
      <trkpt lat="43.91818" lon="5.12394">
        <ele>108.40000152588</ele>
        <time>2012-06-17T07:33:10.000Z</time>
      </trkpt>
      <trkpt lat="43.91818" lon="5.12397">
        <ele>108</ele>
        <time>2012-06-17T07:33:11.000Z</time>
      </trkpt>
      <trkpt lat="43.91821" lon="5.12412">
        <ele>105.40000152588</ele>
        <time>2012-06-17T07:33:16.000Z</time>
      </trkpt>
      <trkpt lat="43.91823" lon="5.12413">
        <ele>104.80000305176</ele>
        <time>2012-06-17T07:33:17.000Z</time>
      </trkpt>
      <trkpt lat="43.91831" lon="5.12418">
        <ele>103</ele>
        <time>2012-06-17T07:33:21.000Z</time>
      </trkpt>
      <trkpt lat="43.91833" lon="5.12418">
        <ele>102.80000305176</ele>
        <time>2012-06-17T07:33:22.000Z</time>
      </trkpt>
      <trkpt lat="43.9184" lon="5.12422">
        <ele>101.80000305176</ele>
        <time>2012-06-17T07:33:25.000Z</time>
      </trkpt>
      <trkpt lat="43.9185" lon="5.1243">
        <ele>100.19999694824</ele>
        <time>2012-06-17T07:33:30.000Z</time>
      </trkpt>
      <trkpt lat="43.91857" lon="5.12434">
        <ele>99.199996948242</ele>
        <time>2012-06-17T07:33:34.000Z</time>
      </trkpt>
      <trkpt lat="43.91861" lon="5.12435">
        <ele>98.800003051758</ele>
        <time>2012-06-17T07:33:36.000Z</time>
      </trkpt>
      <trkpt lat="43.91865" lon="5.1244">
        <ele>98</ele>
        <time>2012-06-17T07:33:39.000Z</time>
      </trkpt>
      <trkpt lat="43.91875" lon="5.12447">
        <ele>96.800003051758</ele>
        <time>2012-06-17T07:33:44.000Z</time>
      </trkpt>
      <trkpt lat="43.9188" lon="5.1245">
        <ele>96.199996948242</ele>
        <time>2012-06-17T07:33:46.000Z</time>
      </trkpt>
      <trkpt lat="43.91881" lon="5.12452">
        <ele>95.800003051758</ele>
        <time>2012-06-17T07:33:47.000Z</time>
      </trkpt>
      <trkpt lat="43.91883" lon="5.12458">
        <ele>95.199996948242</ele>
        <time>2012-06-17T07:33:49.000Z</time>
      </trkpt>
      <trkpt lat="43.91894" lon="5.12471">
        <ele>93.199996948242</ele>
        <time>2012-06-17T07:33:54.000Z</time>
      </trkpt>
      <trkpt lat="43.91903" lon="5.12479">
        <ele>92.199996948242</ele>
        <time>2012-06-17T07:33:59.000Z</time>
      </trkpt>
      <trkpt lat="43.91911" lon="5.12491">
        <ele>91</ele>
        <time>2012-06-17T07:34:04.000Z</time>
      </trkpt>
      <trkpt lat="43.91917" lon="5.12506">
        <ele>89.599998474121</ele>
        <time>2012-06-17T07:34:09.000Z</time>
      </trkpt>
      <trkpt lat="43.9192" lon="5.12516">
        <ele>89</ele>
        <time>2012-06-17T07:34:14.000Z</time>
      </trkpt>
      <trkpt lat="43.91928" lon="5.1253">
        <ele>87.800003051758</ele>
        <time>2012-06-17T07:34:19.000Z</time>
      </trkpt>
      <trkpt lat="43.91931" lon="5.12534">
        <ele>87.400001525879</ele>
        <time>2012-06-17T07:34:21.000Z</time>
      </trkpt>
      <trkpt lat="43.91934" lon="5.12536">
        <ele>87.199996948242</ele>
        <time>2012-06-17T07:34:23.000Z</time>
      </trkpt>
      <trkpt lat="43.91944" lon="5.12539">
        <ele>86.400001525879</ele>
        <time>2012-06-17T07:34:27.000Z</time>
      </trkpt>
      <trkpt lat="43.91947" lon="5.1254">
        <ele>86.199996948242</ele>
        <time>2012-06-17T07:34:28.000Z</time>
      </trkpt>
      <trkpt lat="43.9196" lon="5.12546">
        <ele>85</ele>
        <time>2012-06-17T07:34:32.000Z</time>
      </trkpt>
      <trkpt lat="43.91975" lon="5.12548">
        <ele>83.800003051758</ele>
        <time>2012-06-17T07:34:37.000Z</time>
      </trkpt>
      <trkpt lat="43.9198" lon="5.12543">
        <ele>83.800003051758</ele>
        <time>2012-06-17T07:34:39.000Z</time>
      </trkpt>
      <trkpt lat="43.91983" lon="5.12537">
        <ele>84</ele>
        <time>2012-06-17T07:34:41.000Z</time>
      </trkpt>
      <trkpt lat="43.91991" lon="5.12524">
        <ele>84.199996948242</ele>
        <time>2012-06-17T07:34:45.000Z</time>
      </trkpt>
      <trkpt lat="43.92" lon="5.12512">
        <ele>84.199996948242</ele>
        <time>2012-06-17T07:34:49.000Z</time>
      </trkpt>
      <trkpt lat="43.92006" lon="5.125">
        <ele>85</ele>
        <time>2012-06-17T07:34:53.000Z</time>
      </trkpt>
      <trkpt lat="43.92015" lon="5.12481">
        <ele>85.800003051758</ele>
        <time>2012-06-17T07:34:59.000Z</time>
      </trkpt>
      <trkpt lat="43.92024" lon="5.1246">
        <ele>86.199996948242</ele>
        <time>2012-06-17T07:35:05.000Z</time>
      </trkpt>
      <trkpt lat="43.92027" lon="5.12433">
        <ele>87</ele>
        <time>2012-06-17T07:35:12.000Z</time>
      </trkpt>
      <trkpt lat="43.92028" lon="5.12407">
        <ele>86.800003051758</ele>
        <time>2012-06-17T07:35:18.000Z</time>
      </trkpt>
      <trkpt lat="43.92028" lon="5.12404">
        <ele>86.599998474121</ele>
        <time>2012-06-17T07:35:19.000Z</time>
      </trkpt>
      <trkpt lat="43.92026" lon="5.12387">
        <ele>86</ele>
        <time>2012-06-17T07:35:24.000Z</time>
      </trkpt>
      <trkpt lat="43.92019" lon="5.12369">
        <ele>85.800003051758</ele>
        <time>2012-06-17T07:35:29.000Z</time>
      </trkpt>
      <trkpt lat="43.92011" lon="5.12353">
        <ele>85.400001525879</ele>
        <time>2012-06-17T07:35:34.000Z</time>
      </trkpt>
      <trkpt lat="43.92003" lon="5.12339">
        <ele>85.199996948242</ele>
        <time>2012-06-17T07:35:39.000Z</time>
      </trkpt>
      <trkpt lat="43.91997" lon="5.12328">
        <ele>85</ele>
        <time>2012-06-17T07:35:45.000Z</time>
      </trkpt>
      <trkpt lat="43.91988" lon="5.12315">
        <ele>85.599998474121</ele>
        <time>2012-06-17T07:35:50.000Z</time>
      </trkpt>
      <trkpt lat="43.91985" lon="5.12311">
        <ele>85.800003051758</ele>
        <time>2012-06-17T07:35:52.000Z</time>
      </trkpt>
      <trkpt lat="43.91982" lon="5.12304">
        <ele>85.599998474121</ele>
        <time>2012-06-17T07:35:54.000Z</time>
      </trkpt>
      <trkpt lat="43.91975" lon="5.12286">
        <ele>85.599998474121</ele>
        <time>2012-06-17T07:35:59.000Z</time>
      </trkpt>
      <trkpt lat="43.9197" lon="5.12268">
        <ele>85.199996948242</ele>
        <time>2012-06-17T07:36:04.000Z</time>
      </trkpt>
      <trkpt lat="43.91962" lon="5.12242">
        <ele>85</ele>
        <time>2012-06-17T07:36:11.000Z</time>
      </trkpt>
      <trkpt lat="43.91956" lon="5.12224">
        <ele>85</ele>
        <time>2012-06-17T07:36:16.000Z</time>
      </trkpt>
      <trkpt lat="43.91952" lon="5.12206">
        <ele>85</ele>
        <time>2012-06-17T07:36:21.000Z</time>
      </trkpt>
      <trkpt lat="43.91942" lon="5.12181">
        <ele>85.199996948242</ele>
        <time>2012-06-17T07:36:27.000Z</time>
      </trkpt>
      <trkpt lat="43.91941" lon="5.12177">
        <ele>85</ele>
        <time>2012-06-17T07:36:28.000Z</time>
      </trkpt>
      <trkpt lat="43.91934" lon="5.12154">
        <ele>84.599998474121</ele>
        <time>2012-06-17T07:36:34.000Z</time>
      </trkpt>
      <trkpt lat="43.9193" lon="5.12133">
        <ele>83.800003051758</ele>
        <time>2012-06-17T07:36:39.000Z</time>
      </trkpt>
      <trkpt lat="43.91924" lon="5.12113">
        <ele>82.800003051758</ele>
        <time>2012-06-17T07:36:44.000Z</time>
      </trkpt>
      <trkpt lat="43.91918" lon="5.12093">
        <ele>81.800003051758</ele>
        <time>2012-06-17T07:36:49.000Z</time>
      </trkpt>
      <trkpt lat="43.91912" lon="5.12079">
        <ele>82.199996948242</ele>
        <time>2012-06-17T07:36:53.000Z</time>
      </trkpt>
      <trkpt lat="43.91908" lon="5.12064">
        <ele>82.800003051758</ele>
        <time>2012-06-17T07:36:57.000Z</time>
      </trkpt>
      <trkpt lat="43.91907" lon="5.1206">
        <ele>83</ele>
        <time>2012-06-17T07:36:58.000Z</time>
      </trkpt>
      <trkpt lat="43.91903" lon="5.12048">
        <ele>83.599998474121</ele>
        <time>2012-06-17T07:37:01.000Z</time>
      </trkpt>
      <trkpt lat="43.91901" lon="5.12044">
        <ele>84</ele>
        <time>2012-06-17T07:37:02.000Z</time>
      </trkpt>
      <trkpt lat="43.91898" lon="5.12032">
        <ele>84.199996948242</ele>
        <time>2012-06-17T07:37:06.000Z</time>
      </trkpt>
      <trkpt lat="43.91895" lon="5.12013">
        <ele>84.199996948242</ele>
        <time>2012-06-17T07:37:13.000Z</time>
      </trkpt>
      <trkpt lat="43.91885" lon="5.11988">
        <ele>85.400001525879</ele>
        <time>2012-06-17T07:37:20.000Z</time>
      </trkpt>
      <trkpt lat="43.91884" lon="5.11985">
        <ele>85.599998474121</ele>
        <time>2012-06-17T07:37:21.000Z</time>
      </trkpt>
      <trkpt lat="43.91878" lon="5.11969">
        <ele>86.599998474121</ele>
        <time>2012-06-17T07:37:25.000Z</time>
      </trkpt>
      <trkpt lat="43.91872" lon="5.1195">
        <ele>87.800003051758</ele>
        <time>2012-06-17T07:37:30.000Z</time>
      </trkpt>
      <trkpt lat="43.9187" lon="5.1193">
        <ele>88</ele>
        <time>2012-06-17T07:37:35.000Z</time>
      </trkpt>
      <trkpt lat="43.91867" lon="5.11915">
        <ele>88.400001525879</ele>
        <time>2012-06-17T07:37:39.000Z</time>
      </trkpt>
      <trkpt lat="43.91863" lon="5.11897">
        <ele>88.199996948242</ele>
        <time>2012-06-17T07:37:44.000Z</time>
      </trkpt>
      <trkpt lat="43.91862" lon="5.11882">
        <ele>87.800003051758</ele>
        <time>2012-06-17T07:37:48.000Z</time>
      </trkpt>
      <trkpt lat="43.91861" lon="5.11862">
        <ele>87.199996948242</ele>
        <time>2012-06-17T07:37:53.000Z</time>
      </trkpt>
      <trkpt lat="43.91862" lon="5.11843">
        <ele>86.199996948242</ele>
        <time>2012-06-17T07:37:58.000Z</time>
      </trkpt>
      <trkpt lat="43.91865" lon="5.1182">
        <ele>85.800003051758</ele>
        <time>2012-06-17T07:38:04.000Z</time>
      </trkpt>
      <trkpt lat="43.91868" lon="5.11793">
        <ele>86.199996948242</ele>
        <time>2012-06-17T07:38:11.000Z</time>
      </trkpt>
      <trkpt lat="43.91872" lon="5.11771">
        <ele>86.400001525879</ele>
        <time>2012-06-17T07:38:17.000Z</time>
      </trkpt>
      <trkpt lat="43.91878" lon="5.1175">
        <ele>86.199996948242</ele>
        <time>2012-06-17T07:38:23.000Z</time>
      </trkpt>
      <trkpt lat="43.91884" lon="5.11729">
        <ele>86</ele>
        <time>2012-06-17T07:38:29.000Z</time>
      </trkpt>
      <trkpt lat="43.91887" lon="5.11711">
        <ele>86</ele>
        <time>2012-06-17T07:38:34.000Z</time>
      </trkpt>
      <trkpt lat="43.9189" lon="5.11705">
        <ele>86</ele>
        <time>2012-06-17T07:38:37.000Z</time>
      </trkpt>
      <trkpt lat="43.9189" lon="5.11706">
        <ele>86</ele>
        <time>2012-06-17T07:38:38.000Z</time>
      </trkpt>
      <trkpt lat="43.9189" lon="5.11705">
        <ele>86</ele>
        <time>2012-06-17T07:38:40.000Z</time>
      </trkpt>
      <trkpt lat="43.91893" lon="5.11697">
        <ele>85.800003051758</ele>
        <time>2012-06-17T07:38:43.000Z</time>
      </trkpt>
      <trkpt lat="43.91893" lon="5.11683">
        <ele>86</ele>
        <time>2012-06-17T07:38:47.000Z</time>
      </trkpt>
      <trkpt lat="43.91892" lon="5.11668">
        <ele>86.400001525879</ele>
        <time>2012-06-17T07:38:51.000Z</time>
      </trkpt>
      <trkpt lat="43.91884" lon="5.11646">
        <ele>85</ele>
        <time>2012-06-17T07:38:57.000Z</time>
      </trkpt>
      <trkpt lat="43.91883" lon="5.11642">
        <ele>84.800003051758</ele>
        <time>2012-06-17T07:38:58.000Z</time>
      </trkpt>
      <trkpt lat="43.91872" lon="5.11622">
        <ele>83.400001525879</ele>
        <time>2012-06-17T07:39:05.000Z</time>
      </trkpt>
      <trkpt lat="43.91866" lon="5.11616">
        <ele>82.800003051758</ele>
        <time>2012-06-17T07:39:09.000Z</time>
      </trkpt>
      <trkpt lat="43.91859" lon="5.11612">
        <ele>82.599998474121</ele>
        <time>2012-06-17T07:39:15.000Z</time>
      </trkpt>
      <trkpt lat="43.91857" lon="5.11607">
        <ele>82</ele>
        <time>2012-06-17T07:39:19.000Z</time>
      </trkpt>
      <trkpt lat="43.91858" lon="5.11606">
        <ele>82</ele>
        <time>2012-06-17T07:39:20.000Z</time>
      </trkpt>
      <trkpt lat="43.91863" lon="5.11593">
        <ele>80.199996948242</ele>
        <time>2012-06-17T07:39:26.000Z</time>
      </trkpt>
      <trkpt lat="43.91871" lon="5.11574">
        <ele>79.800003051758</ele>
        <time>2012-06-17T07:39:33.000Z</time>
      </trkpt>
      <trkpt lat="43.91869" lon="5.11567">
        <ele>80.199996948242</ele>
        <time>2012-06-17T07:39:37.000Z</time>
      </trkpt>
      <trkpt lat="43.91868" lon="5.11566">
        <ele>80.400001525879</ele>
        <time>2012-06-17T07:39:38.000Z</time>
      </trkpt>
      <trkpt lat="43.91859" lon="5.11564">
        <ele>80.599998474121</ele>
        <time>2012-06-17T07:39:41.000Z</time>
      </trkpt>
      <trkpt lat="43.91856" lon="5.11563">
        <ele>80.599998474121</ele>
        <time>2012-06-17T07:39:42.000Z</time>
      </trkpt>
      <trkpt lat="43.91844" lon="5.1156">
        <ele>81</ele>
        <time>2012-06-17T07:39:46.000Z</time>
      </trkpt>
      <trkpt lat="43.9183" lon="5.11551">
        <ele>81.599998474121</ele>
        <time>2012-06-17T07:39:51.000Z</time>
      </trkpt>
      <trkpt lat="43.91814" lon="5.1154">
        <ele>82</ele>
        <time>2012-06-17T07:39:57.000Z</time>
      </trkpt>
      <trkpt lat="43.91801" lon="5.11531">
        <ele>82</ele>
        <time>2012-06-17T07:40:02.000Z</time>
      </trkpt>
      <trkpt lat="43.91788" lon="5.11521">
        <ele>81.599998474121</ele>
        <time>2012-06-17T07:40:07.000Z</time>
      </trkpt>
      <trkpt lat="43.91777" lon="5.11516">
        <ele>81</ele>
        <time>2012-06-17T07:40:11.000Z</time>
      </trkpt>
      <trkpt lat="43.9176" lon="5.1151">
        <ele>80</ele>
        <time>2012-06-17T07:40:17.000Z</time>
      </trkpt>
      <trkpt lat="43.91748" lon="5.11505">
        <ele>79</ele>
        <time>2012-06-17T07:40:22.000Z</time>
      </trkpt>
      <trkpt lat="43.91735" lon="5.11499">
        <ele>78.400001525879</ele>
        <time>2012-06-17T07:40:27.000Z</time>
      </trkpt>
      <trkpt lat="43.91732" lon="5.11498">
        <ele>78.599998474121</ele>
        <time>2012-06-17T07:40:28.000Z</time>
      </trkpt>
      <trkpt lat="43.91722" lon="5.11492">
        <ele>79.599998474121</ele>
        <time>2012-06-17T07:40:33.000Z</time>
      </trkpt>
      <trkpt lat="43.91708" lon="5.11484">
        <ele>79.800003051758</ele>
        <time>2012-06-17T07:40:38.000Z</time>
      </trkpt>
      <trkpt lat="43.91696" lon="5.11478">
        <ele>79.599998474121</ele>
        <time>2012-06-17T07:40:43.000Z</time>
      </trkpt>
      <trkpt lat="43.91687" lon="5.11473">
        <ele>79.199996948242</ele>
        <time>2012-06-17T07:40:49.000Z</time>
      </trkpt>
      <trkpt lat="43.91677" lon="5.11467">
        <ele>78.800003051758</ele>
        <time>2012-06-17T07:40:54.000Z</time>
      </trkpt>
      <trkpt lat="43.9167" lon="5.11463">
        <ele>78.199996948242</ele>
        <time>2012-06-17T07:40:59.000Z</time>
      </trkpt>
      <trkpt lat="43.91666" lon="5.11463">
        <ele>77.599998474121</ele>
        <time>2012-06-17T07:41:04.000Z</time>
      </trkpt>
      <trkpt lat="43.91665" lon="5.1146">
        <ele>77.800003051758</ele>
        <time>2012-06-17T07:41:07.000Z</time>
      </trkpt>
      <trkpt lat="43.91664" lon="5.11459">
        <ele>78</ele>
        <time>2012-06-17T07:41:09.000Z</time>
      </trkpt>
      <trkpt lat="43.9166" lon="5.11455">
        <ele>78.199996948242</ele>
        <time>2012-06-17T07:41:14.000Z</time>
      </trkpt>
      <trkpt lat="43.91661" lon="5.11447">
        <ele>78.599998474121</ele>
        <time>2012-06-17T07:41:19.000Z</time>
      </trkpt>
      <trkpt lat="43.91661" lon="5.11446">
        <ele>78.800003051758</ele>
        <time>2012-06-17T07:41:20.000Z</time>
      </trkpt>
      <trkpt lat="43.9166" lon="5.11444">
        <ele>78.800003051758</ele>
        <time>2012-06-17T07:41:23.000Z</time>
      </trkpt>
      <trkpt lat="43.91657" lon="5.11448">
        <ele>78.400001525879</ele>
        <time>2012-06-17T07:41:29.000Z</time>
      </trkpt>
      <trkpt lat="43.91655" lon="5.11449">
        <ele>78.400001525879</ele>
        <time>2012-06-17T07:41:32.000Z</time>
      </trkpt>
      <trkpt lat="43.91654" lon="5.11449">
        <ele>78.400001525879</ele>
        <time>2012-06-17T07:41:33.000Z</time>
      </trkpt>
      <trkpt lat="43.91653" lon="5.11451">
        <ele>78.199996948242</ele>
        <time>2012-06-17T07:41:38.000Z</time>
      </trkpt>
      <trkpt lat="43.91651" lon="5.11454">
        <ele>78</ele>
        <time>2012-06-17T07:41:46.000Z</time>
      </trkpt>
      <trkpt lat="43.9165" lon="5.11457">
        <ele>77.800003051758</ele>
        <time>2012-06-17T07:41:59.000Z</time>
      </trkpt>
      <trkpt lat="43.91646" lon="5.11456">
        <ele>77.800003051758</ele>
        <time>2012-06-17T07:42:03.000Z</time>
      </trkpt>
      <trkpt lat="43.9164" lon="5.11452">
        <ele>77.800003051758</ele>
        <time>2012-06-17T07:42:07.000Z</time>
      </trkpt>
      <trkpt lat="43.91632" lon="5.11444">
        <ele>77.800003051758</ele>
        <time>2012-06-17T07:42:13.000Z</time>
      </trkpt>
      <trkpt lat="43.91626" lon="5.11436">
        <ele>77.800003051758</ele>
        <time>2012-06-17T07:42:18.000Z</time>
      </trkpt>
      <trkpt lat="43.91623" lon="5.11431">
        <ele>77.800003051758</ele>
        <time>2012-06-17T07:42:22.000Z</time>
      </trkpt>
      <trkpt lat="43.91623" lon="5.1143">
        <ele>77.800003051758</ele>
        <time>2012-06-17T07:42:23.000Z</time>
      </trkpt>
      <trkpt lat="43.91623" lon="5.11429">
        <ele>77.800003051758</ele>
        <time>2012-06-17T07:42:24.000Z</time>
      </trkpt>
      <trkpt lat="43.91622" lon="5.11429">
        <ele>77.599998474121</ele>
        <time>2012-06-17T07:42:29.000Z</time>
      </trkpt>
      <trkpt lat="43.9162" lon="5.11429">
        <ele>77.599998474121</ele>
        <time>2012-06-17T07:42:34.000Z</time>
      </trkpt>
      <trkpt lat="43.91619" lon="5.11428">
        <ele>77.599998474121</ele>
        <time>2012-06-17T07:42:35.000Z</time>
      </trkpt>
      <trkpt lat="43.91614" lon="5.11427">
        <ele>77.199996948242</ele>
        <time>2012-06-17T07:42:39.000Z</time>
      </trkpt>
      <trkpt lat="43.91609" lon="5.11426">
        <ele>77</ele>
        <time>2012-06-17T07:42:44.000Z</time>
      </trkpt>
      <trkpt lat="43.91608" lon="5.11425">
        <ele>76.800003051758</ele>
        <time>2012-06-17T07:42:45.000Z</time>
      </trkpt>
      <trkpt lat="43.91606" lon="5.11424">
        <ele>76.800003051758</ele>
        <time>2012-06-17T07:42:47.000Z</time>
      </trkpt>
      <trkpt lat="43.91603" lon="5.11421">
        <ele>76.599998474121</ele>
        <time>2012-06-17T07:42:50.000Z</time>
      </trkpt>
      <trkpt lat="43.91602" lon="5.11419">
        <ele>76.400001525879</ele>
        <time>2012-06-17T07:42:52.000Z</time>
      </trkpt>
      <trkpt lat="43.91598" lon="5.11409">
        <ele>76.400001525879</ele>
        <time>2012-06-17T07:42:59.000Z</time>
      </trkpt>
      <trkpt lat="43.91594" lon="5.11398">
        <ele>76.199996948242</ele>
        <time>2012-06-17T07:43:05.000Z</time>
      </trkpt>
      <trkpt lat="43.91587" lon="5.11387">
        <ele>75.800003051758</ele>
        <time>2012-06-17T07:43:11.000Z</time>
      </trkpt>
      <trkpt lat="43.91581" lon="5.11377">
        <ele>76.400001525879</ele>
        <time>2012-06-17T07:43:16.000Z</time>
      </trkpt>
      <trkpt lat="43.91574" lon="5.11368">
        <ele>78.400001525879</ele>
        <time>2012-06-17T07:43:21.000Z</time>
      </trkpt>
      <trkpt lat="43.91568" lon="5.11351">
        <ele>79.800003051758</ele>
        <time>2012-06-17T07:43:29.000Z</time>
      </trkpt>
      <trkpt lat="43.91568" lon="5.11341">
        <ele>79.800003051758</ele>
        <time>2012-06-17T07:43:35.000Z</time>
      </trkpt>
      <trkpt lat="43.91569" lon="5.11336">
        <ele>79.599998474121</ele>
        <time>2012-06-17T07:43:39.000Z</time>
      </trkpt>
      <trkpt lat="43.91569" lon="5.11336">
        <ele>79.599998474121</ele>
        <time>2012-06-17T07:43:40.000Z</time>
      </trkpt>
      <trkpt lat="43.91569" lon="5.11334">
        <ele>79.400001525879</ele>
        <time>2012-06-17T07:43:44.000Z</time>
      </trkpt>
      <trkpt lat="43.91568" lon="5.11333">
        <ele>79.800003051758</ele>
        <time>2012-06-17T07:43:49.000Z</time>
      </trkpt>
      <trkpt lat="43.91566" lon="5.11332">
        <ele>80.199996948242</ele>
        <time>2012-06-17T07:43:54.000Z</time>
      </trkpt>
      <trkpt lat="43.91565" lon="5.11327">
        <ele>80.400001525879</ele>
        <time>2012-06-17T07:43:58.000Z</time>
      </trkpt>
      <trkpt lat="43.91562" lon="5.1132">
        <ele>80.800003051758</ele>
        <time>2012-06-17T07:44:03.000Z</time>
      </trkpt>
      <trkpt lat="43.91561" lon="5.11319">
        <ele>81</ele>
        <time>2012-06-17T07:44:04.000Z</time>
      </trkpt>
      <trkpt lat="43.91555" lon="5.11311">
        <ele>82</ele>
        <time>2012-06-17T07:44:10.000Z</time>
      </trkpt>
      <trkpt lat="43.9155" lon="5.11303">
        <ele>82.599998474121</ele>
        <time>2012-06-17T07:44:16.000Z</time>
      </trkpt>
      <trkpt lat="43.9155" lon="5.11303">
        <ele>82.599998474121</ele>
        <time>2012-06-17T07:44:17.000Z</time>
      </trkpt>
      <trkpt lat="43.91547" lon="5.11296">
        <ele>82.599998474121</ele>
        <time>2012-06-17T07:44:22.000Z</time>
      </trkpt>
      <trkpt lat="43.91545" lon="5.11289">
        <ele>82.400001525879</ele>
        <time>2012-06-17T07:44:28.000Z</time>
      </trkpt>
      <trkpt lat="43.91545" lon="5.11285">
        <ele>82.199996948242</ele>
        <time>2012-06-17T07:44:31.000Z</time>
      </trkpt>
      <trkpt lat="43.91544" lon="5.11283">
        <ele>82.199996948242</ele>
        <time>2012-06-17T07:44:33.000Z</time>
      </trkpt>
      <trkpt lat="43.91541" lon="5.11275">
        <ele>81.800003051758</ele>
        <time>2012-06-17T07:44:39.000Z</time>
      </trkpt>
      <trkpt lat="43.9154" lon="5.11268">
        <ele>81.400001525879</ele>
        <time>2012-06-17T07:44:43.000Z</time>
      </trkpt>
      <trkpt lat="43.91539" lon="5.11265">
        <ele>81.199996948242</ele>
        <time>2012-06-17T07:44:45.000Z</time>
      </trkpt>
      <trkpt lat="43.91538" lon="5.11254">
        <ele>80.400001525879</ele>
        <time>2012-06-17T07:44:52.000Z</time>
      </trkpt>
      <trkpt lat="43.91537" lon="5.1125">
        <ele>80</ele>
        <time>2012-06-17T07:44:56.000Z</time>
      </trkpt>
      <trkpt lat="43.91537" lon="5.11249">
        <ele>80</ele>
        <time>2012-06-17T07:44:58.000Z</time>
      </trkpt>
      <trkpt lat="43.91537" lon="5.11248">
        <ele>79.800003051758</ele>
        <time>2012-06-17T07:44:59.000Z</time>
      </trkpt>
      <trkpt lat="43.91537" lon="5.11247">
        <ele>79.800003051758</ele>
        <time>2012-06-17T07:45:06.000Z</time>
      </trkpt>
      <trkpt lat="43.91535" lon="5.11245">
        <ele>79.599998474121</ele>
        <time>2012-06-17T07:45:13.000Z</time>
      </trkpt>
      <trkpt lat="43.91534" lon="5.11243">
        <ele>79.400001525879</ele>
        <time>2012-06-17T07:45:24.000Z</time>
      </trkpt>
      <trkpt lat="43.91532" lon="5.11241">
        <ele>79.199996948242</ele>
        <time>2012-06-17T07:45:27.000Z</time>
      </trkpt>
      <trkpt lat="43.91531" lon="5.1124">
        <ele>79.199996948242</ele>
        <time>2012-06-17T07:45:29.000Z</time>
      </trkpt>
      <trkpt lat="43.9153" lon="5.11239">
        <ele>79.199996948242</ele>
        <time>2012-06-17T07:45:33.000Z</time>
      </trkpt>
      <trkpt lat="43.91531" lon="5.11238">
        <ele>79</ele>
        <time>2012-06-17T07:45:38.000Z</time>
      </trkpt>
      <trkpt lat="43.91533" lon="5.11237">
        <ele>79</ele>
        <time>2012-06-17T07:45:45.000Z</time>
      </trkpt>
      <trkpt lat="43.91532" lon="5.11236">
        <ele>79</ele>
        <time>2012-06-17T07:45:54.000Z</time>
      </trkpt>
      <trkpt lat="43.91532" lon="5.11233">
        <ele>78.800003051758</ele>
        <time>2012-06-17T07:45:59.000Z</time>
      </trkpt>
      <trkpt lat="43.91534" lon="5.11232">
        <ele>78.599998474121</ele>
        <time>2012-06-17T07:46:16.000Z</time>
      </trkpt>
      <trkpt lat="43.91532" lon="5.11229">
        <ele>78.400001525879</ele>
        <time>2012-06-17T07:46:27.000Z</time>
      </trkpt>
      <trkpt lat="43.9153" lon="5.1122">
        <ele>77.599998474121</ele>
        <time>2012-06-17T07:46:35.000Z</time>
      </trkpt>
      <trkpt lat="43.91529" lon="5.11209">
        <ele>76.800003051758</ele>
        <time>2012-06-17T07:46:44.000Z</time>
      </trkpt>
      <trkpt lat="43.9153" lon="5.11209">
        <ele>76.800003051758</ele>
        <time>2012-06-17T07:46:45.000Z</time>
      </trkpt>
      <trkpt lat="43.91531" lon="5.11205">
        <ele>76.599998474121</ele>
        <time>2012-06-17T07:46:49.000Z</time>
      </trkpt>
      <trkpt lat="43.91533" lon="5.11202">
        <ele>76.400001525879</ele>
        <time>2012-06-17T07:46:55.000Z</time>
      </trkpt>
      <trkpt lat="43.91533" lon="5.11197">
        <ele>76</ele>
        <time>2012-06-17T07:47:01.000Z</time>
      </trkpt>
      <trkpt lat="43.91531" lon="5.11193">
        <ele>75.599998474121</ele>
        <time>2012-06-17T07:47:06.000Z</time>
      </trkpt>
      <trkpt lat="43.91527" lon="5.11186">
        <ele>74.800003051758</ele>
        <time>2012-06-17T07:47:10.000Z</time>
      </trkpt>
      <trkpt lat="43.91524" lon="5.11179">
        <ele>74</ele>
        <time>2012-06-17T07:47:13.000Z</time>
      </trkpt>
      <trkpt lat="43.91523" lon="5.11178">
        <ele>74</ele>
        <time>2012-06-17T07:47:14.000Z</time>
      </trkpt>
      <trkpt lat="43.91523" lon="5.11172">
        <ele>73.400001525879</ele>
        <time>2012-06-17T07:47:19.000Z</time>
      </trkpt>
      <trkpt lat="43.91523" lon="5.11171">
        <ele>73.400001525879</ele>
        <time>2012-06-17T07:47:20.000Z</time>
      </trkpt>
      <trkpt lat="43.91526" lon="5.11166">
        <ele>73.199996948242</ele>
        <time>2012-06-17T07:47:26.000Z</time>
      </trkpt>
      <trkpt lat="43.91526" lon="5.11164">
        <ele>73.199996948242</ele>
        <time>2012-06-17T07:47:27.000Z</time>
      </trkpt>
      <trkpt lat="43.91527" lon="5.11158">
        <ele>73.400001525879</ele>
        <time>2012-06-17T07:47:35.000Z</time>
      </trkpt>
      <trkpt lat="43.91527" lon="5.11155">
        <ele>73.400001525879</ele>
        <time>2012-06-17T07:47:39.000Z</time>
      </trkpt>
      <trkpt lat="43.91523" lon="5.11145">
        <ele>73.199996948242</ele>
        <time>2012-06-17T07:47:47.000Z</time>
      </trkpt>
      <trkpt lat="43.91521" lon="5.11135">
        <ele>73.199996948242</ele>
        <time>2012-06-17T07:47:53.000Z</time>
      </trkpt>
      <trkpt lat="43.9152" lon="5.11132">
        <ele>73.199996948242</ele>
        <time>2012-06-17T07:47:56.000Z</time>
      </trkpt>
      <trkpt lat="43.9152" lon="5.11132">
        <ele>73.199996948242</ele>
        <time>2012-06-17T07:47:58.000Z</time>
      </trkpt>
      <trkpt lat="43.91518" lon="5.11129">
        <ele>73.199996948242</ele>
        <time>2012-06-17T07:48:02.000Z</time>
      </trkpt>
      <trkpt lat="43.91517" lon="5.11122">
        <ele>73.199996948242</ele>
        <time>2012-06-17T07:48:10.000Z</time>
      </trkpt>
      <trkpt lat="43.91517" lon="5.11119">
        <ele>73.199996948242</ele>
        <time>2012-06-17T07:48:12.000Z</time>
      </trkpt>
      <trkpt lat="43.91516" lon="5.11115">
        <ele>73.199996948242</ele>
        <time>2012-06-17T07:48:15.000Z</time>
      </trkpt>
      <trkpt lat="43.91515" lon="5.11115">
        <ele>73.199996948242</ele>
        <time>2012-06-17T07:48:16.000Z</time>
      </trkpt>
      <trkpt lat="43.91512" lon="5.11111">
        <ele>73</ele>
        <time>2012-06-17T07:48:20.000Z</time>
      </trkpt>
      <trkpt lat="43.91508" lon="5.11103">
        <ele>73</ele>
        <time>2012-06-17T07:48:25.000Z</time>
      </trkpt>
      <trkpt lat="43.91507" lon="5.11097">
        <ele>73</ele>
        <time>2012-06-17T07:48:28.000Z</time>
      </trkpt>
      <trkpt lat="43.91507" lon="5.11094">
        <ele>73.199996948242</ele>
        <time>2012-06-17T07:48:30.000Z</time>
      </trkpt>
      <trkpt lat="43.91507" lon="5.11089">
        <ele>73.199996948242</ele>
        <time>2012-06-17T07:48:34.000Z</time>
      </trkpt>
      <trkpt lat="43.91506" lon="5.11084">
        <ele>73.199996948242</ele>
        <time>2012-06-17T07:48:41.000Z</time>
      </trkpt>
      <trkpt lat="43.915" lon="5.11073">
        <ele>73.400001525879</ele>
        <time>2012-06-17T07:48:48.000Z</time>
      </trkpt>
      <trkpt lat="43.91495" lon="5.11063">
        <ele>73.599998474121</ele>
        <time>2012-06-17T07:48:54.000Z</time>
      </trkpt>
      <trkpt lat="43.91494" lon="5.11062">
        <ele>73.599998474121</ele>
        <time>2012-06-17T07:48:55.000Z</time>
      </trkpt>
      <trkpt lat="43.91491" lon="5.1106">
        <ele>73.400001525879</ele>
        <time>2012-06-17T07:48:59.000Z</time>
      </trkpt>
      <trkpt lat="43.91488" lon="5.11058">
        <ele>73.400001525879</ele>
        <time>2012-06-17T07:49:05.000Z</time>
      </trkpt>
      <trkpt lat="43.91488" lon="5.11058">
        <ele>73.400001525879</ele>
        <time>2012-06-17T07:49:11.000Z</time>
      </trkpt>
      <trkpt lat="43.91485" lon="5.11054">
        <ele>73.400001525879</ele>
        <time>2012-06-17T07:49:29.000Z</time>
      </trkpt>
      <trkpt lat="43.91483" lon="5.11053">
        <ele>73.400001525879</ele>
        <time>2012-06-17T07:49:33.000Z</time>
      </trkpt>
      <trkpt lat="43.91479" lon="5.11046">
        <ele>73.400001525879</ele>
        <time>2012-06-17T07:49:54.000Z</time>
      </trkpt>
      <trkpt lat="43.91476" lon="5.11046">
        <ele>73.400001525879</ele>
        <time>2012-06-17T07:49:58.000Z</time>
      </trkpt>
      <trkpt lat="43.91472" lon="5.11044">
        <ele>73.199996948242</ele>
        <time>2012-06-17T07:50:03.000Z</time>
      </trkpt>
      <trkpt lat="43.9147" lon="5.11042">
        <ele>73.199996948242</ele>
        <time>2012-06-17T07:50:05.000Z</time>
      </trkpt>
      <trkpt lat="43.91469" lon="5.1104">
        <ele>73.199996948242</ele>
        <time>2012-06-17T07:50:07.000Z</time>
      </trkpt>
      <trkpt lat="43.91467" lon="5.11037">
        <ele>73.199996948242</ele>
        <time>2012-06-17T07:50:10.000Z</time>
      </trkpt>
      <trkpt lat="43.91464" lon="5.11035">
        <ele>73.199996948242</ele>
        <time>2012-06-17T07:50:14.000Z</time>
      </trkpt>
      <trkpt lat="43.9146" lon="5.11034">
        <ele>73</ele>
        <time>2012-06-17T07:50:21.000Z</time>
      </trkpt>
      <trkpt lat="43.91456" lon="5.1103">
        <ele>73</ele>
        <time>2012-06-17T07:50:28.000Z</time>
      </trkpt>
      <trkpt lat="43.91451" lon="5.11024">
        <ele>73</ele>
        <time>2012-06-17T07:50:34.000Z</time>
      </trkpt>
      <trkpt lat="43.91444" lon="5.11015">
        <ele>72.800003051758</ele>
        <time>2012-06-17T07:50:41.000Z</time>
      </trkpt>
      <trkpt lat="43.9144" lon="5.11014">
        <ele>72.800003051758</ele>
        <time>2012-06-17T07:50:47.000Z</time>
      </trkpt>
      <trkpt lat="43.91439" lon="5.11013">
        <ele>72.800003051758</ele>
        <time>2012-06-17T07:50:48.000Z</time>
      </trkpt>
      <trkpt lat="43.91438" lon="5.1101">
        <ele>72.800003051758</ele>
        <time>2012-06-17T07:50:54.000Z</time>
      </trkpt>
      <trkpt lat="43.91435" lon="5.11008">
        <ele>72.599998474121</ele>
        <time>2012-06-17T07:51:01.000Z</time>
      </trkpt>
      <trkpt lat="43.9143" lon="5.11">
        <ele>72.599998474121</ele>
        <time>2012-06-17T07:51:08.000Z</time>
      </trkpt>
      <trkpt lat="43.91428" lon="5.10997">
        <ele>72.599998474121</ele>
        <time>2012-06-17T07:51:11.000Z</time>
      </trkpt>
      <trkpt lat="43.91427" lon="5.10997">
        <ele>72.599998474121</ele>
        <time>2012-06-17T07:51:14.000Z</time>
      </trkpt>
      <trkpt lat="43.91427" lon="5.10997">
        <ele>72.599998474121</ele>
        <time>2012-06-17T07:51:21.000Z</time>
      </trkpt>
      <trkpt lat="43.91426" lon="5.11001">
        <ele>72.400001525879</ele>
        <time>2012-06-17T07:51:26.000Z</time>
      </trkpt>
      <trkpt lat="43.91424" lon="5.11001">
        <ele>72.400001525879</ele>
        <time>2012-06-17T07:51:31.000Z</time>
      </trkpt>
      <trkpt lat="43.91419" lon="5.10999">
        <ele>72.199996948242</ele>
        <time>2012-06-17T07:51:37.000Z</time>
      </trkpt>
      <trkpt lat="43.91415" lon="5.10995">
        <ele>72.199996948242</ele>
        <time>2012-06-17T07:51:43.000Z</time>
      </trkpt>
      <trkpt lat="43.91409" lon="5.10992">
        <ele>72.199996948242</ele>
        <time>2012-06-17T07:51:49.000Z</time>
      </trkpt>
      <trkpt lat="43.91404" lon="5.1099">
        <ele>72.400001525879</ele>
        <time>2012-06-17T07:51:53.000Z</time>
      </trkpt>
      <trkpt lat="43.91397" lon="5.10985">
        <ele>72.400001525879</ele>
        <time>2012-06-17T07:51:59.000Z</time>
      </trkpt>
      <trkpt lat="43.91396" lon="5.10984">
        <ele>72.400001525879</ele>
        <time>2012-06-17T07:52:00.000Z</time>
      </trkpt>
      <trkpt lat="43.91392" lon="5.10979">
        <ele>72.599998474121</ele>
        <time>2012-06-17T07:52:05.000Z</time>
      </trkpt>
      <trkpt lat="43.91391" lon="5.10979">
        <ele>72.599998474121</ele>
        <time>2012-06-17T07:52:06.000Z</time>
      </trkpt>
      <trkpt lat="43.91388" lon="5.10975">
        <ele>72.599998474121</ele>
        <time>2012-06-17T07:52:14.000Z</time>
      </trkpt>
      <trkpt lat="43.91386" lon="5.10971">
        <ele>72.599998474121</ele>
        <time>2012-06-17T07:52:18.000Z</time>
      </trkpt>
      <trkpt lat="43.91383" lon="5.10962">
        <ele>72.800003051758</ele>
        <time>2012-06-17T07:52:24.000Z</time>
      </trkpt>
      <trkpt lat="43.91377" lon="5.10955">
        <ele>72.800003051758</ele>
        <time>2012-06-17T07:52:30.000Z</time>
      </trkpt>
      <trkpt lat="43.91369" lon="5.10947">
        <ele>72.800003051758</ele>
        <time>2012-06-17T07:52:38.000Z</time>
      </trkpt>
      <trkpt lat="43.91364" lon="5.1094">
        <ele>72.800003051758</ele>
        <time>2012-06-17T07:52:42.000Z</time>
      </trkpt>
      <trkpt lat="43.91362" lon="5.10937">
        <ele>72.800003051758</ele>
        <time>2012-06-17T07:52:44.000Z</time>
      </trkpt>
      <trkpt lat="43.91353" lon="5.10926">
        <ele>72.599998474121</ele>
        <time>2012-06-17T07:52:50.000Z</time>
      </trkpt>
      <trkpt lat="43.91346" lon="5.10916">
        <ele>72.400001525879</ele>
        <time>2012-06-17T07:52:56.000Z</time>
      </trkpt>
      <trkpt lat="43.91335" lon="5.10907">
        <ele>72.199996948242</ele>
        <time>2012-06-17T07:53:04.000Z</time>
      </trkpt>
      <trkpt lat="43.91325" lon="5.10898">
        <ele>72.199996948242</ele>
        <time>2012-06-17T07:53:10.000Z</time>
      </trkpt>
      <trkpt lat="43.91314" lon="5.1089">
        <ele>72.199996948242</ele>
        <time>2012-06-17T07:53:16.000Z</time>
      </trkpt>
      <trkpt lat="43.91307" lon="5.10883">
        <ele>72.199996948242</ele>
        <time>2012-06-17T07:53:21.000Z</time>
      </trkpt>
      <trkpt lat="43.91298" lon="5.10871">
        <ele>72</ele>
        <time>2012-06-17T07:53:27.000Z</time>
      </trkpt>
      <trkpt lat="43.91289" lon="5.10861">
        <ele>71.800003051758</ele>
        <time>2012-06-17T07:53:32.000Z</time>
      </trkpt>
      <trkpt lat="43.91279" lon="5.10853">
        <ele>71.400001525879</ele>
        <time>2012-06-17T07:53:37.000Z</time>
      </trkpt>
      <trkpt lat="43.91269" lon="5.10843">
        <ele>71</ele>
        <time>2012-06-17T07:53:42.000Z</time>
      </trkpt>
      <trkpt lat="43.91259" lon="5.10828">
        <ele>70.199996948242</ele>
        <time>2012-06-17T07:53:49.000Z</time>
      </trkpt>
      <trkpt lat="43.9125" lon="5.10816">
        <ele>69.800003051758</ele>
        <time>2012-06-17T07:53:54.000Z</time>
      </trkpt>
      <trkpt lat="43.91243" lon="5.10804">
        <ele>69.800003051758</ele>
        <time>2012-06-17T07:53:59.000Z</time>
      </trkpt>
      <trkpt lat="43.91237" lon="5.10796">
        <ele>69.599998474121</ele>
        <time>2012-06-17T07:54:03.000Z</time>
      </trkpt>
      <trkpt lat="43.91229" lon="5.10786">
        <ele>69.599998474121</ele>
        <time>2012-06-17T07:54:09.000Z</time>
      </trkpt>
      <trkpt lat="43.91223" lon="5.10774">
        <ele>69.599998474121</ele>
        <time>2012-06-17T07:54:14.000Z</time>
      </trkpt>
      <trkpt lat="43.91216" lon="5.10757">
        <ele>69.400001525879</ele>
        <time>2012-06-17T07:54:21.000Z</time>
      </trkpt>
      <trkpt lat="43.91211" lon="5.10748">
        <ele>69.400001525879</ele>
        <time>2012-06-17T07:54:27.000Z</time>
      </trkpt>
      <trkpt lat="43.91208" lon="5.10743">
        <ele>69.599998474121</ele>
        <time>2012-06-17T07:54:32.000Z</time>
      </trkpt>
      <trkpt lat="43.91205" lon="5.10734">
        <ele>69.599998474121</ele>
        <time>2012-06-17T07:54:37.000Z</time>
      </trkpt>
      <trkpt lat="43.91204" lon="5.10731">
        <ele>69.599998474121</ele>
        <time>2012-06-17T07:54:39.000Z</time>
      </trkpt>
      <trkpt lat="43.91204" lon="5.10728">
        <ele>69.599998474121</ele>
        <time>2012-06-17T07:54:42.000Z</time>
      </trkpt>
      <trkpt lat="43.91203" lon="5.10728">
        <ele>69.599998474121</ele>
        <time>2012-06-17T07:54:43.000Z</time>
      </trkpt>
      <trkpt lat="43.91201" lon="5.10727">
        <ele>69.599998474121</ele>
        <time>2012-06-17T07:54:46.000Z</time>
      </trkpt>
      <trkpt lat="43.91199" lon="5.10726">
        <ele>69.599998474121</ele>
        <time>2012-06-17T07:54:51.000Z</time>
      </trkpt>
      <trkpt lat="43.91194" lon="5.10719">
        <ele>69.599998474121</ele>
        <time>2012-06-17T07:54:57.000Z</time>
      </trkpt>
      <trkpt lat="43.91192" lon="5.10713">
        <ele>69.599998474121</ele>
        <time>2012-06-17T07:55:00.000Z</time>
      </trkpt>
      <trkpt lat="43.91192" lon="5.10709">
        <ele>69.599998474121</ele>
        <time>2012-06-17T07:55:02.000Z</time>
      </trkpt>
      <trkpt lat="43.91188" lon="5.1069">
        <ele>69.599998474121</ele>
        <time>2012-06-17T07:55:08.000Z</time>
      </trkpt>
      <trkpt lat="43.91183" lon="5.10676">
        <ele>69.400001525879</ele>
        <time>2012-06-17T07:55:13.000Z</time>
      </trkpt>
      <trkpt lat="43.91176" lon="5.10657">
        <ele>69</ele>
        <time>2012-06-17T07:55:19.000Z</time>
      </trkpt>
      <trkpt lat="43.91169" lon="5.10641">
        <ele>68.199996948242</ele>
        <time>2012-06-17T07:55:24.000Z</time>
      </trkpt>
      <trkpt lat="43.91164" lon="5.10627">
        <ele>67.599998474121</ele>
        <time>2012-06-17T07:55:28.000Z</time>
      </trkpt>
      <trkpt lat="43.91161" lon="5.10609">
        <ele>67.199996948242</ele>
        <time>2012-06-17T07:55:34.000Z</time>
      </trkpt>
      <trkpt lat="43.91155" lon="5.10594">
        <ele>67</ele>
        <time>2012-06-17T07:55:41.000Z</time>
      </trkpt>
      <trkpt lat="43.91146" lon="5.10578">
        <ele>67.199996948242</ele>
        <time>2012-06-17T07:55:48.000Z</time>
      </trkpt>
      <trkpt lat="43.91138" lon="5.10559">
        <ele>67.599998474121</ele>
        <time>2012-06-17T07:55:55.000Z</time>
      </trkpt>
      <trkpt lat="43.91136" lon="5.10547">
        <ele>67.599998474121</ele>
        <time>2012-06-17T07:56:01.000Z</time>
      </trkpt>
      <trkpt lat="43.91133" lon="5.1054">
        <ele>67.800003051758</ele>
        <time>2012-06-17T07:56:05.000Z</time>
      </trkpt>
      <trkpt lat="43.91126" lon="5.10525">
        <ele>68.199996948242</ele>
        <time>2012-06-17T07:56:12.000Z</time>
      </trkpt>
      <trkpt lat="43.91119" lon="5.10519">
        <ele>68.599998474121</ele>
        <time>2012-06-17T07:56:17.000Z</time>
      </trkpt>
      <trkpt lat="43.91113" lon="5.10518">
        <ele>69</ele>
        <time>2012-06-17T07:56:21.000Z</time>
      </trkpt>
      <trkpt lat="43.91113" lon="5.10519">
        <ele>69</ele>
        <time>2012-06-17T07:56:22.000Z</time>
      </trkpt>
      <trkpt lat="43.91108" lon="5.10522">
        <ele>69.199996948242</ele>
        <time>2012-06-17T07:56:27.000Z</time>
      </trkpt>
      <trkpt lat="43.91102" lon="5.10524">
        <ele>69.599998474121</ele>
        <time>2012-06-17T07:56:32.000Z</time>
      </trkpt>
      <trkpt lat="43.91097" lon="5.10524">
        <ele>70</ele>
        <time>2012-06-17T07:56:38.000Z</time>
      </trkpt>
      <trkpt lat="43.91092" lon="5.10525">
        <ele>70.400001525879</ele>
        <time>2012-06-17T07:56:41.000Z</time>
      </trkpt>
      <trkpt lat="43.91087" lon="5.10527">
        <ele>70.800003051758</ele>
        <time>2012-06-17T07:56:44.000Z</time>
      </trkpt>
      <trkpt lat="43.91077" lon="5.10532">
        <ele>71</ele>
        <time>2012-06-17T07:56:50.000Z</time>
      </trkpt>
      <trkpt lat="43.91066" lon="5.10538">
        <ele>71.199996948242</ele>
        <time>2012-06-17T07:56:56.000Z</time>
      </trkpt>
      <trkpt lat="43.91064" lon="5.10539">
        <ele>71.199996948242</ele>
        <time>2012-06-17T07:56:58.000Z</time>
      </trkpt>
      <trkpt lat="43.9106" lon="5.1054">
        <ele>71.199996948242</ele>
        <time>2012-06-17T07:57:01.000Z</time>
      </trkpt>
      <trkpt lat="43.91056" lon="5.1054">
        <ele>71.400001525879</ele>
        <time>2012-06-17T07:57:05.000Z</time>
      </trkpt>
      <trkpt lat="43.91054" lon="5.10539">
        <ele>71.400001525879</ele>
        <time>2012-06-17T07:57:07.000Z</time>
      </trkpt>
      <trkpt lat="43.91047" lon="5.10539">
        <ele>71.400001525879</ele>
        <time>2012-06-17T07:57:12.000Z</time>
      </trkpt>
      <trkpt lat="43.91046" lon="5.1054">
        <ele>71.400001525879</ele>
        <time>2012-06-17T07:57:13.000Z</time>
      </trkpt>
      <trkpt lat="43.91038" lon="5.1054">
        <ele>71.599998474121</ele>
        <time>2012-06-17T07:57:18.000Z</time>
      </trkpt>
      <trkpt lat="43.91031" lon="5.10539">
        <ele>71.599998474121</ele>
        <time>2012-06-17T07:57:22.000Z</time>
      </trkpt>
      <trkpt lat="43.91021" lon="5.10542">
        <ele>71.800003051758</ele>
        <time>2012-06-17T07:57:29.000Z</time>
      </trkpt>
      <trkpt lat="43.91014" lon="5.10538">
        <ele>71.800003051758</ele>
        <time>2012-06-17T07:57:35.000Z</time>
      </trkpt>
      <trkpt lat="43.91007" lon="5.10534">
        <ele>72</ele>
        <time>2012-06-17T07:57:41.000Z</time>
      </trkpt>
      <trkpt lat="43.91002" lon="5.10533">
        <ele>72</ele>
        <time>2012-06-17T07:57:44.000Z</time>
      </trkpt>
      <trkpt lat="43.90999" lon="5.1053">
        <ele>72</ele>
        <time>2012-06-17T07:57:46.000Z</time>
      </trkpt>
      <trkpt lat="43.9099" lon="5.10526">
        <ele>72</ele>
        <time>2012-06-17T07:57:52.000Z</time>
      </trkpt>
      <trkpt lat="43.90981" lon="5.10523">
        <ele>72.199996948242</ele>
        <time>2012-06-17T07:57:57.000Z</time>
      </trkpt>
      <trkpt lat="43.90969" lon="5.10518">
        <ele>72.199996948242</ele>
        <time>2012-06-17T07:58:03.000Z</time>
      </trkpt>
      <trkpt lat="43.9096" lon="5.10518">
        <ele>72.199996948242</ele>
        <time>2012-06-17T07:58:08.000Z</time>
      </trkpt>
      <trkpt lat="43.90952" lon="5.10521">
        <ele>72.199996948242</ele>
        <time>2012-06-17T07:58:13.000Z</time>
      </trkpt>
      <trkpt lat="43.90943" lon="5.10521">
        <ele>72.400001525879</ele>
        <time>2012-06-17T07:58:19.000Z</time>
      </trkpt>
      <trkpt lat="43.90942" lon="5.10519">
        <ele>72.400001525879</ele>
        <time>2012-06-17T07:58:20.000Z</time>
      </trkpt>
      <trkpt lat="43.90935" lon="5.10516">
        <ele>72.400001525879</ele>
        <time>2012-06-17T07:58:24.000Z</time>
      </trkpt>
      <trkpt lat="43.90925" lon="5.10516">
        <ele>72.400001525879</ele>
        <time>2012-06-17T07:58:29.000Z</time>
      </trkpt>
      <trkpt lat="43.90915" lon="5.10516">
        <ele>72.400001525879</ele>
        <time>2012-06-17T07:58:36.000Z</time>
      </trkpt>
      <trkpt lat="43.90914" lon="5.10515">
        <ele>72.400001525879</ele>
        <time>2012-06-17T07:58:37.000Z</time>
      </trkpt>
      <trkpt lat="43.9091" lon="5.10512">
        <ele>72.199996948242</ele>
        <time>2012-06-17T07:58:40.000Z</time>
      </trkpt>
      <trkpt lat="43.90904" lon="5.10507">
        <ele>72</ele>
        <time>2012-06-17T07:58:45.000Z</time>
      </trkpt>
      <trkpt lat="43.90895" lon="5.10503">
        <ele>71.800003051758</ele>
        <time>2012-06-17T07:58:52.000Z</time>
      </trkpt>
      <trkpt lat="43.90888" lon="5.10503">
        <ele>71.800003051758</ele>
        <time>2012-06-17T07:58:56.000Z</time>
      </trkpt>
      <trkpt lat="43.90884" lon="5.10502">
        <ele>71.599998474121</ele>
        <time>2012-06-17T07:58:59.000Z</time>
      </trkpt>
      <trkpt lat="43.90883" lon="5.105">
        <ele>71.599998474121</ele>
        <time>2012-06-17T07:59:01.000Z</time>
      </trkpt>
      <trkpt lat="43.90877" lon="5.10495">
        <ele>71.400001525879</ele>
        <time>2012-06-17T07:59:06.000Z</time>
      </trkpt>
      <trkpt lat="43.90868" lon="5.10488">
        <ele>71.400001525879</ele>
        <time>2012-06-17T07:59:13.000Z</time>
      </trkpt>
      <trkpt lat="43.90867" lon="5.10487">
        <ele>71.199996948242</ele>
        <time>2012-06-17T07:59:14.000Z</time>
      </trkpt>
      <trkpt lat="43.9086" lon="5.10479">
        <ele>71.199996948242</ele>
        <time>2012-06-17T07:59:19.000Z</time>
      </trkpt>
      <trkpt lat="43.90855" lon="5.10471">
        <ele>71</ele>
        <time>2012-06-17T07:59:24.000Z</time>
      </trkpt>
      <trkpt lat="43.90846" lon="5.10461">
        <ele>71</ele>
        <time>2012-06-17T07:59:31.000Z</time>
      </trkpt>
      <trkpt lat="43.90839" lon="5.10455">
        <ele>71</ele>
        <time>2012-06-17T07:59:36.000Z</time>
      </trkpt>
      <trkpt lat="43.90836" lon="5.10454">
        <ele>71</ele>
        <time>2012-06-17T07:59:38.000Z</time>
      </trkpt>
      <trkpt lat="43.90833" lon="5.10451">
        <ele>71</ele>
        <time>2012-06-17T07:59:41.000Z</time>
      </trkpt>
      <trkpt lat="43.90826" lon="5.10448">
        <ele>71.400001525879</ele>
        <time>2012-06-17T07:59:48.000Z</time>
      </trkpt>
      <trkpt lat="43.90818" lon="5.10442">
        <ele>71.599998474121</ele>
        <time>2012-06-17T07:59:54.000Z</time>
      </trkpt>
      <trkpt lat="43.90811" lon="5.10434">
        <ele>71.800003051758</ele>
        <time>2012-06-17T08:00:00.000Z</time>
      </trkpt>
      <trkpt lat="43.9081" lon="5.10432">
        <ele>71.800003051758</ele>
        <time>2012-06-17T08:00:01.000Z</time>
      </trkpt>
      <trkpt lat="43.90807" lon="5.10422">
        <ele>72</ele>
        <time>2012-06-17T08:00:07.000Z</time>
      </trkpt>
      <trkpt lat="43.90801" lon="5.10412">
        <ele>72</ele>
        <time>2012-06-17T08:00:13.000Z</time>
      </trkpt>
      <trkpt lat="43.908" lon="5.10411">
        <ele>72</ele>
        <time>2012-06-17T08:00:14.000Z</time>
      </trkpt>
      <trkpt lat="43.90795" lon="5.10406">
        <ele>72</ele>
        <time>2012-06-17T08:00:18.000Z</time>
      </trkpt>
      <trkpt lat="43.90789" lon="5.10401">
        <ele>72.199996948242</ele>
        <time>2012-06-17T08:00:23.000Z</time>
      </trkpt>
      <trkpt lat="43.90784" lon="5.10392">
        <ele>72.199996948242</ele>
        <time>2012-06-17T08:00:29.000Z</time>
      </trkpt>
      <trkpt lat="43.90783" lon="5.1039">
        <ele>72.199996948242</ele>
        <time>2012-06-17T08:00:30.000Z</time>
      </trkpt>
      <trkpt lat="43.90783" lon="5.10384">
        <ele>72</ele>
        <time>2012-06-17T08:00:33.000Z</time>
      </trkpt>
      <trkpt lat="43.90781" lon="5.10375">
        <ele>71.800003051758</ele>
        <time>2012-06-17T08:00:38.000Z</time>
      </trkpt>
      <trkpt lat="43.90778" lon="5.10366">
        <ele>71.800003051758</ele>
        <time>2012-06-17T08:00:44.000Z</time>
      </trkpt>
      <trkpt lat="43.90778" lon="5.10363">
        <ele>71.599998474121</ele>
        <time>2012-06-17T08:00:46.000Z</time>
      </trkpt>
      <trkpt lat="43.90778" lon="5.10359">
        <ele>71.599998474121</ele>
        <time>2012-06-17T08:00:48.000Z</time>
      </trkpt>
      <trkpt lat="43.90777" lon="5.10357">
        <ele>71.599998474121</ele>
        <time>2012-06-17T08:00:50.000Z</time>
      </trkpt>
      <trkpt lat="43.90775" lon="5.10349">
        <ele>71.599998474121</ele>
        <time>2012-06-17T08:00:55.000Z</time>
      </trkpt>
      <trkpt lat="43.90774" lon="5.10343">
        <ele>71.599998474121</ele>
        <time>2012-06-17T08:00:58.000Z</time>
      </trkpt>
      <trkpt lat="43.90774" lon="5.1034">
        <ele>71.400001525879</ele>
        <time>2012-06-17T08:01:00.000Z</time>
      </trkpt>
      <trkpt lat="43.90774" lon="5.10333">
        <ele>71.199996948242</ele>
        <time>2012-06-17T08:01:05.000Z</time>
      </trkpt>
      <trkpt lat="43.90774" lon="5.10331">
        <ele>71.199996948242</ele>
        <time>2012-06-17T08:01:07.000Z</time>
      </trkpt>
      <trkpt lat="43.90775" lon="5.1033">
        <ele>71</ele>
        <time>2012-06-17T08:01:09.000Z</time>
      </trkpt>
      <trkpt lat="43.90775" lon="5.10329">
        <ele>71</ele>
        <time>2012-06-17T08:01:10.000Z</time>
      </trkpt>
      <trkpt lat="43.90779" lon="5.10321">
        <ele>70.599998474121</ele>
        <time>2012-06-17T08:01:17.000Z</time>
      </trkpt>
      <trkpt lat="43.9078" lon="5.10316">
        <ele>70.199996948242</ele>
        <time>2012-06-17T08:01:24.000Z</time>
      </trkpt>
      <trkpt lat="43.90781" lon="5.10314">
        <ele>70.199996948242</ele>
        <time>2012-06-17T08:01:29.000Z</time>
      </trkpt>
      <trkpt lat="43.90782" lon="5.10313">
        <ele>70</ele>
        <time>2012-06-17T08:01:35.000Z</time>
      </trkpt>
      <trkpt lat="43.90784" lon="5.10313">
        <ele>70</ele>
        <time>2012-06-17T08:01:39.000Z</time>
      </trkpt>
      <trkpt lat="43.90783" lon="5.1031">
        <ele>69.800003051758</ele>
        <time>2012-06-17T08:01:42.000Z</time>
      </trkpt>
      <trkpt lat="43.90782" lon="5.10309">
        <ele>69.800003051758</ele>
        <time>2012-06-17T08:01:43.000Z</time>
      </trkpt>
      <trkpt lat="43.90782" lon="5.10308">
        <ele>70</ele>
        <time>2012-06-17T08:01:46.000Z</time>
      </trkpt>
      <trkpt lat="43.90781" lon="5.10305">
        <ele>70</ele>
        <time>2012-06-17T08:01:48.000Z</time>
      </trkpt>
      <trkpt lat="43.90782" lon="5.10304">
        <ele>69.800003051758</ele>
        <time>2012-06-17T08:01:52.000Z</time>
      </trkpt>
      <trkpt lat="43.90782" lon="5.103">
        <ele>69.599998474121</ele>
        <time>2012-06-17T08:01:57.000Z</time>
      </trkpt>
      <trkpt lat="43.9078" lon="5.10299">
        <ele>69.800003051758</ele>
        <time>2012-06-17T08:01:59.000Z</time>
      </trkpt>
      <trkpt lat="43.90779" lon="5.10299">
        <ele>69.800003051758</ele>
        <time>2012-06-17T08:02:01.000Z</time>
      </trkpt>
      <trkpt lat="43.90778" lon="5.10297">
        <ele>69.800003051758</ele>
        <time>2012-06-17T08:02:06.000Z</time>
      </trkpt>
      <trkpt lat="43.90776" lon="5.10292">
        <ele>69.800003051758</ele>
        <time>2012-06-17T08:02:12.000Z</time>
      </trkpt>
      <trkpt lat="43.90774" lon="5.1029">
        <ele>69.800003051758</ele>
        <time>2012-06-17T08:02:14.000Z</time>
      </trkpt>
      <trkpt lat="43.90773" lon="5.10289">
        <ele>69.800003051758</ele>
        <time>2012-06-17T08:02:17.000Z</time>
      </trkpt>
      <trkpt lat="43.90773" lon="5.10288">
        <ele>69.800003051758</ele>
        <time>2012-06-17T08:02:21.000Z</time>
      </trkpt>
      <trkpt lat="43.9077" lon="5.10289">
        <ele>70</ele>
        <time>2012-06-17T08:02:34.000Z</time>
      </trkpt>
      <trkpt lat="43.90762" lon="5.10288">
        <ele>70.599998474121</ele>
        <time>2012-06-17T08:02:42.000Z</time>
      </trkpt>
      <trkpt lat="43.90757" lon="5.10283">
        <ele>70.800003051758</ele>
        <time>2012-06-17T08:02:48.000Z</time>
      </trkpt>
      <trkpt lat="43.90755" lon="5.10281">
        <ele>70.800003051758</ele>
        <time>2012-06-17T08:02:54.000Z</time>
      </trkpt>
      <trkpt lat="43.90755" lon="5.10278">
        <ele>70.599998474121</ele>
        <time>2012-06-17T08:03:00.000Z</time>
      </trkpt>
      <trkpt lat="43.90755" lon="5.10272">
        <ele>70.400001525879</ele>
        <time>2012-06-17T08:03:04.000Z</time>
      </trkpt>
      <trkpt lat="43.90756" lon="5.1027">
        <ele>70.400001525879</ele>
        <time>2012-06-17T08:03:06.000Z</time>
      </trkpt>
      <trkpt lat="43.90756" lon="5.10267">
        <ele>70.199996948242</ele>
        <time>2012-06-17T08:03:08.000Z</time>
      </trkpt>
      <trkpt lat="43.90756" lon="5.10266">
        <ele>70.199996948242</ele>
        <time>2012-06-17T08:03:09.000Z</time>
      </trkpt>
      <trkpt lat="43.90757" lon="5.10264">
        <ele>70</ele>
        <time>2012-06-17T08:03:12.000Z</time>
      </trkpt>
      <trkpt lat="43.90756" lon="5.10258">
        <ele>70</ele>
        <time>2012-06-17T08:03:22.000Z</time>
      </trkpt>
      <trkpt lat="43.90754" lon="5.10257">
        <ele>70</ele>
        <time>2012-06-17T08:03:24.000Z</time>
      </trkpt>
      <trkpt lat="43.90752" lon="5.10254">
        <ele>70</ele>
        <time>2012-06-17T08:03:27.000Z</time>
      </trkpt>
      <trkpt lat="43.90749" lon="5.1025">
        <ele>70</ele>
        <time>2012-06-17T08:03:40.000Z</time>
      </trkpt>
      <trkpt lat="43.9075" lon="5.10243">
        <ele>70</ele>
        <time>2012-06-17T08:03:46.000Z</time>
      </trkpt>
      <trkpt lat="43.9075" lon="5.10241">
        <ele>69.800003051758</ele>
        <time>2012-06-17T08:03:47.000Z</time>
      </trkpt>
      <trkpt lat="43.90748" lon="5.10235">
        <ele>70</ele>
        <time>2012-06-17T08:03:52.000Z</time>
      </trkpt>
      <trkpt lat="43.90746" lon="5.10232">
        <ele>70.199996948242</ele>
        <time>2012-06-17T08:03:55.000Z</time>
      </trkpt>
      <trkpt lat="43.90743" lon="5.10226">
        <ele>70.400001525879</ele>
        <time>2012-06-17T08:03:59.000Z</time>
      </trkpt>
      <trkpt lat="43.90738" lon="5.10213">
        <ele>70.599998474121</ele>
        <time>2012-06-17T08:04:06.000Z</time>
      </trkpt>
      <trkpt lat="43.90737" lon="5.10201">
        <ele>70.599998474121</ele>
        <time>2012-06-17T08:04:12.000Z</time>
      </trkpt>
      <trkpt lat="43.90736" lon="5.102">
        <ele>70.599998474121</ele>
        <time>2012-06-17T08:04:13.000Z</time>
      </trkpt>
      <trkpt lat="43.90733" lon="5.10192">
        <ele>70.800003051758</ele>
        <time>2012-06-17T08:04:19.000Z</time>
      </trkpt>
      <trkpt lat="43.90726" lon="5.10179">
        <ele>71.400001525879</ele>
        <time>2012-06-17T08:04:25.000Z</time>
      </trkpt>
      <trkpt lat="43.90722" lon="5.10169">
        <ele>71.599998474121</ele>
        <time>2012-06-17T08:04:29.000Z</time>
      </trkpt>
      <trkpt lat="43.90723" lon="5.10164">
        <ele>71.599998474121</ele>
        <time>2012-06-17T08:04:31.000Z</time>
      </trkpt>
      <trkpt lat="43.90722" lon="5.10159">
        <ele>71.599998474121</ele>
        <time>2012-06-17T08:04:34.000Z</time>
      </trkpt>
      <trkpt lat="43.90721" lon="5.10157">
        <ele>71.599998474121</ele>
        <time>2012-06-17T08:04:36.000Z</time>
      </trkpt>
      <trkpt lat="43.9072" lon="5.10153">
        <ele>71.599998474121</ele>
        <time>2012-06-17T08:04:38.000Z</time>
      </trkpt>
      <trkpt lat="43.90718" lon="5.10147">
        <ele>71.800003051758</ele>
        <time>2012-06-17T08:04:41.000Z</time>
      </trkpt>
      <trkpt lat="43.90713" lon="5.10134">
        <ele>71.800003051758</ele>
        <time>2012-06-17T08:04:47.000Z</time>
      </trkpt>
      <trkpt lat="43.9071" lon="5.10123">
        <ele>71.800003051758</ele>
        <time>2012-06-17T08:04:52.000Z</time>
      </trkpt>
      <trkpt lat="43.90708" lon="5.10107">
        <ele>71.599998474121</ele>
        <time>2012-06-17T08:04:59.000Z</time>
      </trkpt>
      <trkpt lat="43.90708" lon="5.10096">
        <ele>71.400001525879</ele>
        <time>2012-06-17T08:05:04.000Z</time>
      </trkpt>
      <trkpt lat="43.90708" lon="5.10087">
        <ele>71.199996948242</ele>
        <time>2012-06-17T08:05:09.000Z</time>
      </trkpt>
      <trkpt lat="43.90707" lon="5.10079">
        <ele>71</ele>
        <time>2012-06-17T08:05:15.000Z</time>
      </trkpt>
      <trkpt lat="43.90706" lon="5.10079">
        <ele>71</ele>
        <time>2012-06-17T08:05:16.000Z</time>
      </trkpt>
      <trkpt lat="43.90703" lon="5.10074">
        <ele>71.199996948242</ele>
        <time>2012-06-17T08:05:21.000Z</time>
      </trkpt>
      <trkpt lat="43.90701" lon="5.10068">
        <ele>71.199996948242</ele>
        <time>2012-06-17T08:05:26.000Z</time>
      </trkpt>
      <trkpt lat="43.90701" lon="5.10065">
        <ele>71.199996948242</ele>
        <time>2012-06-17T08:05:28.000Z</time>
      </trkpt>
      <trkpt lat="43.90702" lon="5.10058">
        <ele>71</ele>
        <time>2012-06-17T08:05:33.000Z</time>
      </trkpt>
      <trkpt lat="43.90701" lon="5.10051">
        <ele>71</ele>
        <time>2012-06-17T08:05:39.000Z</time>
      </trkpt>
      <trkpt lat="43.90699" lon="5.10039">
        <ele>71</ele>
        <time>2012-06-17T08:05:46.000Z</time>
      </trkpt>
      <trkpt lat="43.90698" lon="5.10032">
        <ele>71</ele>
        <time>2012-06-17T08:05:50.000Z</time>
      </trkpt>
      <trkpt lat="43.90698" lon="5.10029">
        <ele>71</ele>
        <time>2012-06-17T08:05:52.000Z</time>
      </trkpt>
      <trkpt lat="43.90697" lon="5.10019">
        <ele>70.800003051758</ele>
        <time>2012-06-17T08:05:56.000Z</time>
      </trkpt>
      <trkpt lat="43.90697" lon="5.10017">
        <ele>70.800003051758</ele>
        <time>2012-06-17T08:05:57.000Z</time>
      </trkpt>
      <trkpt lat="43.90697" lon="5.10015">
        <ele>70.800003051758</ele>
        <time>2012-06-17T08:05:58.000Z</time>
      </trkpt>
      <trkpt lat="43.90697" lon="5.10003">
        <ele>70.599998474121</ele>
        <time>2012-06-17T08:06:03.000Z</time>
      </trkpt>
      <trkpt lat="43.90698" lon="5.09992">
        <ele>70.599998474121</ele>
        <time>2012-06-17T08:06:08.000Z</time>
      </trkpt>
      <trkpt lat="43.90699" lon="5.09991">
        <ele>70.400001525879</ele>
        <time>2012-06-17T08:06:09.000Z</time>
      </trkpt>
      <trkpt lat="43.90701" lon="5.09983">
        <ele>70.400001525879</ele>
        <time>2012-06-17T08:06:14.000Z</time>
      </trkpt>
      <trkpt lat="43.90701" lon="5.09976">
        <ele>70.199996948242</ele>
        <time>2012-06-17T08:06:18.000Z</time>
      </trkpt>
      <trkpt lat="43.907" lon="5.0997">
        <ele>70.199996948242</ele>
        <time>2012-06-17T08:06:21.000Z</time>
      </trkpt>
      <trkpt lat="43.907" lon="5.09966">
        <ele>70.199996948242</ele>
        <time>2012-06-17T08:06:24.000Z</time>
      </trkpt>
      <trkpt lat="43.907" lon="5.09961">
        <ele>70</ele>
        <time>2012-06-17T08:06:26.000Z</time>
      </trkpt>
      <trkpt lat="43.907" lon="5.09957">
        <ele>70</ele>
        <time>2012-06-17T08:06:28.000Z</time>
      </trkpt>
      <trkpt lat="43.907" lon="5.09942">
        <ele>69.800003051758</ele>
        <time>2012-06-17T08:06:34.000Z</time>
      </trkpt>
      <trkpt lat="43.907" lon="5.09941">
        <ele>69.800003051758</ele>
        <time>2012-06-17T08:06:35.000Z</time>
      </trkpt>
      <trkpt lat="43.907" lon="5.09936">
        <ele>69.599998474121</ele>
        <time>2012-06-17T08:06:37.000Z</time>
      </trkpt>
      <trkpt lat="43.90699" lon="5.09929">
        <ele>69.599998474121</ele>
        <time>2012-06-17T08:06:41.000Z</time>
      </trkpt>
      <trkpt lat="43.90698" lon="5.09925">
        <ele>69.400001525879</ele>
        <time>2012-06-17T08:06:43.000Z</time>
      </trkpt>
      <trkpt lat="43.907" lon="5.09918">
        <ele>69.400001525879</ele>
        <time>2012-06-17T08:06:46.000Z</time>
      </trkpt>
      <trkpt lat="43.90699" lon="5.09908">
        <ele>69.400001525879</ele>
        <time>2012-06-17T08:06:52.000Z</time>
      </trkpt>
      <trkpt lat="43.90699" lon="5.09907">
        <ele>69.400001525879</ele>
        <time>2012-06-17T08:06:53.000Z</time>
      </trkpt>
      <trkpt lat="43.90699" lon="5.099">
        <ele>69.400001525879</ele>
        <time>2012-06-17T08:06:57.000Z</time>
      </trkpt>
      <trkpt lat="43.90698" lon="5.09897">
        <ele>69.400001525879</ele>
        <time>2012-06-17T08:06:59.000Z</time>
      </trkpt>
      <trkpt lat="43.90698" lon="5.09895">
        <ele>69.400001525879</ele>
        <time>2012-06-17T08:07:00.000Z</time>
      </trkpt>
      <trkpt lat="43.90698" lon="5.09893">
        <ele>69.400001525879</ele>
        <time>2012-06-17T08:07:01.000Z</time>
      </trkpt>
      <trkpt lat="43.90698" lon="5.09882">
        <ele>69.400001525879</ele>
        <time>2012-06-17T08:07:07.000Z</time>
      </trkpt>
      <trkpt lat="43.90698" lon="5.0988">
        <ele>69.400001525879</ele>
        <time>2012-06-17T08:07:08.000Z</time>
      </trkpt>
      <trkpt lat="43.907" lon="5.09874">
        <ele>69.599998474121</ele>
        <time>2012-06-17T08:07:12.000Z</time>
      </trkpt>
      <trkpt lat="43.907" lon="5.09871">
        <ele>69.599998474121</ele>
        <time>2012-06-17T08:07:14.000Z</time>
      </trkpt>
      <trkpt lat="43.90701" lon="5.09867">
        <ele>69.599998474121</ele>
        <time>2012-06-17T08:07:17.000Z</time>
      </trkpt>
      <trkpt lat="43.90702" lon="5.09858">
        <ele>69.599998474121</ele>
        <time>2012-06-17T08:07:22.000Z</time>
      </trkpt>
      <trkpt lat="43.90702" lon="5.09855">
        <ele>69.599998474121</ele>
        <time>2012-06-17T08:07:23.000Z</time>
      </trkpt>
      <trkpt lat="43.90704" lon="5.09845">
        <ele>69.599998474121</ele>
        <time>2012-06-17T08:07:29.000Z</time>
      </trkpt>
      <trkpt lat="43.90704" lon="5.09843">
        <ele>69.599998474121</ele>
        <time>2012-06-17T08:07:30.000Z</time>
      </trkpt>
      <trkpt lat="43.90706" lon="5.09838">
        <ele>69.599998474121</ele>
        <time>2012-06-17T08:07:34.000Z</time>
      </trkpt>
      <trkpt lat="43.90706" lon="5.09837">
        <ele>69.599998474121</ele>
        <time>2012-06-17T08:07:35.000Z</time>
      </trkpt>
      <trkpt lat="43.90706" lon="5.09832">
        <ele>69.599998474121</ele>
        <time>2012-06-17T08:07:39.000Z</time>
      </trkpt>
      <trkpt lat="43.90702" lon="5.09826">
        <ele>69.400001525879</ele>
        <time>2012-06-17T08:07:46.000Z</time>
      </trkpt>
      <trkpt lat="43.90701" lon="5.09821">
        <ele>69.199996948242</ele>
        <time>2012-06-17T08:07:50.000Z</time>
      </trkpt>
      <trkpt lat="43.907" lon="5.09818">
        <ele>69.199996948242</ele>
        <time>2012-06-17T08:07:52.000Z</time>
      </trkpt>
      <trkpt lat="43.90696" lon="5.0981">
        <ele>69</ele>
        <time>2012-06-17T08:08:04.000Z</time>
      </trkpt>
      <trkpt lat="43.90692" lon="5.09807">
        <ele>69</ele>
        <time>2012-06-17T08:08:08.000Z</time>
      </trkpt>
      <trkpt lat="43.90689" lon="5.09805">
        <ele>69</ele>
        <time>2012-06-17T08:08:17.000Z</time>
      </trkpt>
      <trkpt lat="43.90688" lon="5.09801">
        <ele>69</ele>
        <time>2012-06-17T08:08:21.000Z</time>
      </trkpt>
      <trkpt lat="43.90688" lon="5.09799">
        <ele>69</ele>
        <time>2012-06-17T08:08:22.000Z</time>
      </trkpt>
      <trkpt lat="43.90687" lon="5.09789">
        <ele>68.599998474121</ele>
        <time>2012-06-17T08:08:28.000Z</time>
      </trkpt>
      <trkpt lat="43.90685" lon="5.09781">
        <ele>68.599998474121</ele>
        <time>2012-06-17T08:08:32.000Z</time>
      </trkpt>
      <trkpt lat="43.90682" lon="5.0977">
        <ele>68.400001525879</ele>
        <time>2012-06-17T08:08:37.000Z</time>
      </trkpt>
      <trkpt lat="43.90679" lon="5.09762">
        <ele>68.199996948242</ele>
        <time>2012-06-17T08:08:42.000Z</time>
      </trkpt>
      <trkpt lat="43.90678" lon="5.0976">
        <ele>68.199996948242</ele>
        <time>2012-06-17T08:08:43.000Z</time>
      </trkpt>
      <trkpt lat="43.90672" lon="5.09752">
        <ele>68</ele>
        <time>2012-06-17T08:08:48.000Z</time>
      </trkpt>
      <trkpt lat="43.90667" lon="5.09744">
        <ele>68</ele>
        <time>2012-06-17T08:08:52.000Z</time>
      </trkpt>
      <trkpt lat="43.90659" lon="5.09734">
        <ele>68</ele>
        <time>2012-06-17T08:08:58.000Z</time>
      </trkpt>
      <trkpt lat="43.90656" lon="5.0973">
        <ele>68</ele>
        <time>2012-06-17T08:09:02.000Z</time>
      </trkpt>
      <trkpt lat="43.90655" lon="5.09728">
        <ele>68</ele>
        <time>2012-06-17T08:09:04.000Z</time>
      </trkpt>
      <trkpt lat="43.90654" lon="5.09727">
        <ele>68</ele>
        <time>2012-06-17T08:09:05.000Z</time>
      </trkpt>
      <trkpt lat="43.90652" lon="5.09722">
        <ele>68</ele>
        <time>2012-06-17T08:09:09.000Z</time>
      </trkpt>
      <trkpt lat="43.90647" lon="5.09715">
        <ele>68</ele>
        <time>2012-06-17T08:09:17.000Z</time>
      </trkpt>
      <trkpt lat="43.90642" lon="5.09706">
        <ele>68</ele>
        <time>2012-06-17T08:09:25.000Z</time>
      </trkpt>
      <trkpt lat="43.90641" lon="5.09705">
        <ele>67.800003051758</ele>
        <time>2012-06-17T08:09:26.000Z</time>
      </trkpt>
      <trkpt lat="43.90636" lon="5.09699">
        <ele>67.800003051758</ele>
        <time>2012-06-17T08:09:31.000Z</time>
      </trkpt>
      <trkpt lat="43.9063" lon="5.09692">
        <ele>67.599998474121</ele>
        <time>2012-06-17T08:09:37.000Z</time>
      </trkpt>
      <trkpt lat="43.90628" lon="5.09691">
        <ele>67.599998474121</ele>
        <time>2012-06-17T08:09:39.000Z</time>
      </trkpt>
      <trkpt lat="43.90625" lon="5.0969">
        <ele>67.599998474121</ele>
        <time>2012-06-17T08:09:41.000Z</time>
      </trkpt>
      <trkpt lat="43.90623" lon="5.09688">
        <ele>67.400001525879</ele>
        <time>2012-06-17T08:09:43.000Z</time>
      </trkpt>
      <trkpt lat="43.90615" lon="5.09678">
        <ele>67.199996948242</ele>
        <time>2012-06-17T08:09:50.000Z</time>
      </trkpt>
      <trkpt lat="43.90607" lon="5.0967">
        <ele>66.800003051758</ele>
        <time>2012-06-17T08:09:57.000Z</time>
      </trkpt>
      <trkpt lat="43.90604" lon="5.09664">
        <ele>66.800003051758</ele>
        <time>2012-06-17T08:10:01.000Z</time>
      </trkpt>
      <trkpt lat="43.90601" lon="5.09658">
        <ele>66.800003051758</ele>
        <time>2012-06-17T08:10:04.000Z</time>
      </trkpt>
      <trkpt lat="43.90594" lon="5.09651">
        <ele>66.599998474121</ele>
        <time>2012-06-17T08:10:10.000Z</time>
      </trkpt>
      <trkpt lat="43.90588" lon="5.09647">
        <ele>66.400001525879</ele>
        <time>2012-06-17T08:10:16.000Z</time>
      </trkpt>
      <trkpt lat="43.90587" lon="5.09646">
        <ele>66.400001525879</ele>
        <time>2012-06-17T08:10:17.000Z</time>
      </trkpt>
      <trkpt lat="43.90582" lon="5.09643">
        <ele>66.400001525879</ele>
        <time>2012-06-17T08:10:23.000Z</time>
      </trkpt>
      <trkpt lat="43.90576" lon="5.0964">
        <ele>66.400001525879</ele>
        <time>2012-06-17T08:10:29.000Z</time>
      </trkpt>
      <trkpt lat="43.90575" lon="5.09639">
        <ele>66.599998474121</ele>
        <time>2012-06-17T08:10:30.000Z</time>
      </trkpt>
      <trkpt lat="43.9057" lon="5.09632">
        <ele>66.800003051758</ele>
        <time>2012-06-17T08:10:35.000Z</time>
      </trkpt>
      <trkpt lat="43.90561" lon="5.09617">
        <ele>67.199996948242</ele>
        <time>2012-06-17T08:10:43.000Z</time>
      </trkpt>
      <trkpt lat="43.90553" lon="5.09603">
        <ele>67.400001525879</ele>
        <time>2012-06-17T08:10:51.000Z</time>
      </trkpt>
      <trkpt lat="43.90549" lon="5.09591">
        <ele>67.800003051758</ele>
        <time>2012-06-17T08:10:57.000Z</time>
      </trkpt>
      <trkpt lat="43.90539" lon="5.09575">
        <ele>68.199996948242</ele>
        <time>2012-06-17T08:11:06.000Z</time>
      </trkpt>
      <trkpt lat="43.90538" lon="5.09564">
        <ele>68.199996948242</ele>
        <time>2012-06-17T08:11:11.000Z</time>
      </trkpt>
      <trkpt lat="43.90538" lon="5.09562">
        <ele>68.199996948242</ele>
        <time>2012-06-17T08:11:12.000Z</time>
      </trkpt>
      <trkpt lat="43.90539" lon="5.09551">
        <ele>68.400001525879</ele>
        <time>2012-06-17T08:11:17.000Z</time>
      </trkpt>
      <trkpt lat="43.9054" lon="5.09543">
        <ele>68.400001525879</ele>
        <time>2012-06-17T08:11:21.000Z</time>
      </trkpt>
      <trkpt lat="43.90541" lon="5.09537">
        <ele>68.599998474121</ele>
        <time>2012-06-17T08:11:24.000Z</time>
      </trkpt>
      <trkpt lat="43.90546" lon="5.09526">
        <ele>68.800003051758</ele>
        <time>2012-06-17T08:11:30.000Z</time>
      </trkpt>
      <trkpt lat="43.90547" lon="5.09509">
        <ele>69</ele>
        <time>2012-06-17T08:11:36.000Z</time>
      </trkpt>
      <trkpt lat="43.90547" lon="5.09495">
        <ele>69.199996948242</ele>
        <time>2012-06-17T08:11:41.000Z</time>
      </trkpt>
      <trkpt lat="43.90548" lon="5.09479">
        <ele>69.400001525879</ele>
        <time>2012-06-17T08:11:47.000Z</time>
      </trkpt>
      <trkpt lat="43.90554" lon="5.09466">
        <ele>69.800003051758</ele>
        <time>2012-06-17T08:11:53.000Z</time>
      </trkpt>
      <trkpt lat="43.90559" lon="5.09455">
        <ele>69.800003051758</ele>
        <time>2012-06-17T08:11:58.000Z</time>
      </trkpt>
      <trkpt lat="43.90561" lon="5.09447">
        <ele>70</ele>
        <time>2012-06-17T08:12:02.000Z</time>
      </trkpt>
      <trkpt lat="43.90566" lon="5.09432">
        <ele>70</ele>
        <time>2012-06-17T08:12:09.000Z</time>
      </trkpt>
      <trkpt lat="43.90571" lon="5.09419">
        <ele>70.199996948242</ele>
        <time>2012-06-17T08:12:16.000Z</time>
      </trkpt>
      <trkpt lat="43.90576" lon="5.09406">
        <ele>70.400001525879</ele>
        <time>2012-06-17T08:12:22.000Z</time>
      </trkpt>
      <trkpt lat="43.90583" lon="5.09388">
        <ele>70.599998474121</ele>
        <time>2012-06-17T08:12:30.000Z</time>
      </trkpt>
      <trkpt lat="43.90588" lon="5.09375">
        <ele>70.800003051758</ele>
        <time>2012-06-17T08:12:36.000Z</time>
      </trkpt>
      <trkpt lat="43.90589" lon="5.09373">
        <ele>70.800003051758</ele>
        <time>2012-06-17T08:12:37.000Z</time>
      </trkpt>
      <trkpt lat="43.90595" lon="5.09367">
        <ele>70.800003051758</ele>
        <time>2012-06-17T08:12:41.000Z</time>
      </trkpt>
      <trkpt lat="43.90597" lon="5.09359">
        <ele>71</ele>
        <time>2012-06-17T08:12:45.000Z</time>
      </trkpt>
      <trkpt lat="43.90598" lon="5.09356">
        <ele>71</ele>
        <time>2012-06-17T08:12:46.000Z</time>
      </trkpt>
      <trkpt lat="43.90602" lon="5.09338">
        <ele>71.199996948242</ele>
        <time>2012-06-17T08:12:54.000Z</time>
      </trkpt>
      <trkpt lat="43.90608" lon="5.09328">
        <ele>71.400001525879</ele>
        <time>2012-06-17T08:13:00.000Z</time>
      </trkpt>
      <trkpt lat="43.90613" lon="5.09317">
        <ele>71.599998474121</ele>
        <time>2012-06-17T08:13:06.000Z</time>
      </trkpt>
      <trkpt lat="43.90617" lon="5.09304">
        <ele>71.800003051758</ele>
        <time>2012-06-17T08:13:12.000Z</time>
      </trkpt>
      <trkpt lat="43.90623" lon="5.09294">
        <ele>72</ele>
        <time>2012-06-17T08:13:18.000Z</time>
      </trkpt>
      <trkpt lat="43.9063" lon="5.09287">
        <ele>72</ele>
        <time>2012-06-17T08:13:23.000Z</time>
      </trkpt>
      <trkpt lat="43.90633" lon="5.09277">
        <ele>72.199996948242</ele>
        <time>2012-06-17T08:13:28.000Z</time>
      </trkpt>
      <trkpt lat="43.90637" lon="5.09264">
        <ele>72.400001525879</ele>
        <time>2012-06-17T08:13:34.000Z</time>
      </trkpt>
      <trkpt lat="43.90642" lon="5.09251">
        <ele>72.400001525879</ele>
        <time>2012-06-17T08:13:40.000Z</time>
      </trkpt>
      <trkpt lat="43.90642" lon="5.09241">
        <ele>72.800003051758</ele>
        <time>2012-06-17T08:13:44.000Z</time>
      </trkpt>
      <trkpt lat="43.90643" lon="5.09239">
        <ele>72.800003051758</ele>
        <time>2012-06-17T08:13:45.000Z</time>
      </trkpt>
      <trkpt lat="43.90648" lon="5.09227">
        <ele>72.800003051758</ele>
        <time>2012-06-17T08:13:52.000Z</time>
      </trkpt>
      <trkpt lat="43.90654" lon="5.0922">
        <ele>72.599998474121</ele>
        <time>2012-06-17T08:13:57.000Z</time>
      </trkpt>
      <trkpt lat="43.90662" lon="5.09211">
        <ele>72.199996948242</ele>
        <time>2012-06-17T08:14:04.000Z</time>
      </trkpt>
      <trkpt lat="43.90671" lon="5.09203">
        <ele>71.800003051758</ele>
        <time>2012-06-17T08:14:11.000Z</time>
      </trkpt>
      <trkpt lat="43.90676" lon="5.09191">
        <ele>71.800003051758</ele>
        <time>2012-06-17T08:14:17.000Z</time>
      </trkpt>
      <trkpt lat="43.90682" lon="5.09179">
        <ele>71.599998474121</ele>
        <time>2012-06-17T08:14:23.000Z</time>
      </trkpt>
      <trkpt lat="43.90688" lon="5.09167">
        <ele>71.400001525879</ele>
        <time>2012-06-17T08:14:29.000Z</time>
      </trkpt>
      <trkpt lat="43.90689" lon="5.09163">
        <ele>71.400001525879</ele>
        <time>2012-06-17T08:14:31.000Z</time>
      </trkpt>
      <trkpt lat="43.90693" lon="5.09157">
        <ele>71.199996948242</ele>
        <time>2012-06-17T08:14:34.000Z</time>
      </trkpt>
      <trkpt lat="43.90699" lon="5.09144">
        <ele>70.800003051758</ele>
        <time>2012-06-17T08:14:41.000Z</time>
      </trkpt>
      <trkpt lat="43.90703" lon="5.09134">
        <ele>70.599998474121</ele>
        <time>2012-06-17T08:14:46.000Z</time>
      </trkpt>
      <trkpt lat="43.90707" lon="5.09122">
        <ele>70.400001525879</ele>
        <time>2012-06-17T08:14:52.000Z</time>
      </trkpt>
      <trkpt lat="43.9071" lon="5.09113">
        <ele>70.199996948242</ele>
        <time>2012-06-17T08:14:57.000Z</time>
      </trkpt>
      <trkpt lat="43.90711" lon="5.09111">
        <ele>70</ele>
        <time>2012-06-17T08:14:58.000Z</time>
      </trkpt>
      <trkpt lat="43.90716" lon="5.091">
        <ele>69.599998474121</ele>
        <time>2012-06-17T08:15:04.000Z</time>
      </trkpt>
      <trkpt lat="43.90719" lon="5.09088">
        <ele>69.400001525879</ele>
        <time>2012-06-17T08:15:10.000Z</time>
      </trkpt>
      <trkpt lat="43.90723" lon="5.09079">
        <ele>69</ele>
        <time>2012-06-17T08:15:16.000Z</time>
      </trkpt>
      <trkpt lat="43.90727" lon="5.09071">
        <ele>68.599998474121</ele>
        <time>2012-06-17T08:15:21.000Z</time>
      </trkpt>
      <trkpt lat="43.90727" lon="5.09069">
        <ele>68.599998474121</ele>
        <time>2012-06-17T08:15:22.000Z</time>
      </trkpt>
      <trkpt lat="43.90729" lon="5.09064">
        <ele>68.400001525879</ele>
        <time>2012-06-17T08:15:25.000Z</time>
      </trkpt>
      <trkpt lat="43.90733" lon="5.0905">
        <ele>68</ele>
        <time>2012-06-17T08:15:32.000Z</time>
      </trkpt>
      <trkpt lat="43.90735" lon="5.09044">
        <ele>67.800003051758</ele>
        <time>2012-06-17T08:15:35.000Z</time>
      </trkpt>
      <trkpt lat="43.90736" lon="5.09036">
        <ele>67.599998474121</ele>
        <time>2012-06-17T08:15:39.000Z</time>
      </trkpt>
      <trkpt lat="43.9074" lon="5.09028">
        <ele>67.199996948242</ele>
        <time>2012-06-17T08:15:43.000Z</time>
      </trkpt>
      <trkpt lat="43.90741" lon="5.09027">
        <ele>67.199996948242</ele>
        <time>2012-06-17T08:15:44.000Z</time>
      </trkpt>
      <trkpt lat="43.90743" lon="5.09019">
        <ele>67</ele>
        <time>2012-06-17T08:15:48.000Z</time>
      </trkpt>
      <trkpt lat="43.90744" lon="5.09006">
        <ele>66.800003051758</ele>
        <time>2012-06-17T08:15:54.000Z</time>
      </trkpt>
      <trkpt lat="43.90747" lon="5.08994">
        <ele>66.400001525879</ele>
        <time>2012-06-17T08:15:59.000Z</time>
      </trkpt>
      <trkpt lat="43.90751" lon="5.08984">
        <ele>66</ele>
        <time>2012-06-17T08:16:04.000Z</time>
      </trkpt>
      <trkpt lat="43.90755" lon="5.08977">
        <ele>66</ele>
        <time>2012-06-17T08:16:08.000Z</time>
      </trkpt>
      <trkpt lat="43.90756" lon="5.08976">
        <ele>66</ele>
        <time>2012-06-17T08:16:09.000Z</time>
      </trkpt>
      <trkpt lat="43.90758" lon="5.08968">
        <ele>65.800003051758</ele>
        <time>2012-06-17T08:16:13.000Z</time>
      </trkpt>
      <trkpt lat="43.9076" lon="5.08959">
        <ele>65.800003051758</ele>
        <time>2012-06-17T08:16:19.000Z</time>
      </trkpt>
      <trkpt lat="43.90762" lon="5.08947">
        <ele>65.800003051758</ele>
        <time>2012-06-17T08:16:25.000Z</time>
      </trkpt>
      <trkpt lat="43.90762" lon="5.08943">
        <ele>65.800003051758</ele>
        <time>2012-06-17T08:16:27.000Z</time>
      </trkpt>
      <trkpt lat="43.90762" lon="5.08937">
        <ele>65.800003051758</ele>
        <time>2012-06-17T08:16:30.000Z</time>
      </trkpt>
      <trkpt lat="43.90762" lon="5.0893">
        <ele>65.800003051758</ele>
        <time>2012-06-17T08:16:34.000Z</time>
      </trkpt>
      <trkpt lat="43.90763" lon="5.08929">
        <ele>65.800003051758</ele>
        <time>2012-06-17T08:16:35.000Z</time>
      </trkpt>
      <trkpt lat="43.90766" lon="5.08922">
        <ele>65.599998474121</ele>
        <time>2012-06-17T08:16:40.000Z</time>
      </trkpt>
      <trkpt lat="43.90767" lon="5.08921">
        <ele>65.599998474121</ele>
        <time>2012-06-17T08:16:41.000Z</time>
      </trkpt>
      <trkpt lat="43.90769" lon="5.08912">
        <ele>65.599998474121</ele>
        <time>2012-06-17T08:16:47.000Z</time>
      </trkpt>
      <trkpt lat="43.9077" lon="5.08904">
        <ele>65.800003051758</ele>
        <time>2012-06-17T08:16:51.000Z</time>
      </trkpt>
      <trkpt lat="43.9077" lon="5.08902">
        <ele>65.800003051758</ele>
        <time>2012-06-17T08:16:52.000Z</time>
      </trkpt>
      <trkpt lat="43.90772" lon="5.08895">
        <ele>66</ele>
        <time>2012-06-17T08:16:56.000Z</time>
      </trkpt>
      <trkpt lat="43.90774" lon="5.08885">
        <ele>66.199996948242</ele>
        <time>2012-06-17T08:17:01.000Z</time>
      </trkpt>
      <trkpt lat="43.90774" lon="5.08882">
        <ele>66.199996948242</ele>
        <time>2012-06-17T08:17:03.000Z</time>
      </trkpt>
      <trkpt lat="43.90776" lon="5.08874">
        <ele>66.400001525879</ele>
        <time>2012-06-17T08:17:07.000Z</time>
      </trkpt>
      <trkpt lat="43.90778" lon="5.08862">
        <ele>66.599998474121</ele>
        <time>2012-06-17T08:17:13.000Z</time>
      </trkpt>
      <trkpt lat="43.9078" lon="5.08854">
        <ele>66.800003051758</ele>
        <time>2012-06-17T08:17:17.000Z</time>
      </trkpt>
      <trkpt lat="43.90781" lon="5.08851">
        <ele>66.800003051758</ele>
        <time>2012-06-17T08:17:19.000Z</time>
      </trkpt>
      <trkpt lat="43.90786" lon="5.08844">
        <ele>66.800003051758</ele>
        <time>2012-06-17T08:17:24.000Z</time>
      </trkpt>
      <trkpt lat="43.90788" lon="5.08841">
        <ele>67</ele>
        <time>2012-06-17T08:17:26.000Z</time>
      </trkpt>
      <trkpt lat="43.90793" lon="5.0883">
        <ele>67</ele>
        <time>2012-06-17T08:17:33.000Z</time>
      </trkpt>
      <trkpt lat="43.908" lon="5.0882">
        <ele>67.199996948242</ele>
        <time>2012-06-17T08:17:41.000Z</time>
      </trkpt>
      <trkpt lat="43.90808" lon="5.08812">
        <ele>67.199996948242</ele>
        <time>2012-06-17T08:17:48.000Z</time>
      </trkpt>
      <trkpt lat="43.90809" lon="5.08812">
        <ele>67.199996948242</ele>
        <time>2012-06-17T08:17:49.000Z</time>
      </trkpt>
      <trkpt lat="43.90814" lon="5.0881">
        <ele>67.199996948242</ele>
        <time>2012-06-17T08:17:52.000Z</time>
      </trkpt>
      <trkpt lat="43.90821" lon="5.0881">
        <ele>67.199996948242</ele>
        <time>2012-06-17T08:17:57.000Z</time>
      </trkpt>
      <trkpt lat="43.90828" lon="5.08811">
        <ele>67.199996948242</ele>
        <time>2012-06-17T08:18:03.000Z</time>
      </trkpt>
      <trkpt lat="43.90832" lon="5.08808">
        <ele>67.199996948242</ele>
        <time>2012-06-17T08:18:08.000Z</time>
      </trkpt>
      <trkpt lat="43.90837" lon="5.08802">
        <ele>67.400001525879</ele>
        <time>2012-06-17T08:18:14.000Z</time>
      </trkpt>
      <trkpt lat="43.90838" lon="5.08801">
        <ele>67.400001525879</ele>
        <time>2012-06-17T08:18:15.000Z</time>
      </trkpt>
      <trkpt lat="43.90844" lon="5.08796">
        <ele>67.400001525879</ele>
        <time>2012-06-17T08:18:20.000Z</time>
      </trkpt>
      <trkpt lat="43.90851" lon="5.08791">
        <ele>67.400001525879</ele>
        <time>2012-06-17T08:18:25.000Z</time>
      </trkpt>
      <trkpt lat="43.90854" lon="5.08787">
        <ele>67.400001525879</ele>
        <time>2012-06-17T08:18:28.000Z</time>
      </trkpt>
      <trkpt lat="43.90856" lon="5.08784">
        <ele>67.400001525879</ele>
        <time>2012-06-17T08:18:30.000Z</time>
      </trkpt>
      <trkpt lat="43.90861" lon="5.08774">
        <ele>67.800003051758</ele>
        <time>2012-06-17T08:18:37.000Z</time>
      </trkpt>
      <trkpt lat="43.90865" lon="5.08769">
        <ele>67.800003051758</ele>
        <time>2012-06-17T08:18:43.000Z</time>
      </trkpt>
      <trkpt lat="43.90871" lon="5.08763">
        <ele>67.599998474121</ele>
        <time>2012-06-17T08:18:49.000Z</time>
      </trkpt>
      <trkpt lat="43.90876" lon="5.08758">
        <ele>67.599998474121</ele>
        <time>2012-06-17T08:18:53.000Z</time>
      </trkpt>
      <trkpt lat="43.90878" lon="5.08753">
        <ele>67.800003051758</ele>
        <time>2012-06-17T08:18:56.000Z</time>
      </trkpt>
      <trkpt lat="43.90881" lon="5.08748">
        <ele>67.800003051758</ele>
        <time>2012-06-17T08:19:00.000Z</time>
      </trkpt>
      <trkpt lat="43.90886" lon="5.08738">
        <ele>67.599998474121</ele>
        <time>2012-06-17T08:19:06.000Z</time>
      </trkpt>
      <trkpt lat="43.90889" lon="5.08732">
        <ele>67.599998474121</ele>
        <time>2012-06-17T08:19:11.000Z</time>
      </trkpt>
      <trkpt lat="43.90893" lon="5.08729">
        <ele>67.599998474121</ele>
        <time>2012-06-17T08:19:16.000Z</time>
      </trkpt>
      <trkpt lat="43.909" lon="5.08725">
        <ele>67.400001525879</ele>
        <time>2012-06-17T08:19:24.000Z</time>
      </trkpt>
      <trkpt lat="43.90901" lon="5.08725">
        <ele>67.400001525879</ele>
        <time>2012-06-17T08:19:25.000Z</time>
      </trkpt>
      <trkpt lat="43.90901" lon="5.08723">
        <ele>67.400001525879</ele>
        <time>2012-06-17T08:19:26.000Z</time>
      </trkpt>
      <trkpt lat="43.90904" lon="5.08722">
        <ele>67.400001525879</ele>
        <time>2012-06-17T08:19:29.000Z</time>
      </trkpt>
      <trkpt lat="43.90907" lon="5.08723">
        <ele>67.199996948242</ele>
        <time>2012-06-17T08:19:33.000Z</time>
      </trkpt>
      <trkpt lat="43.90909" lon="5.08725">
        <ele>67.199996948242</ele>
        <time>2012-06-17T08:19:35.000Z</time>
      </trkpt>
      <trkpt lat="43.90918" lon="5.08729">
        <ele>66.800003051758</ele>
        <time>2012-06-17T08:19:39.000Z</time>
      </trkpt>
      <trkpt lat="43.90924" lon="5.08728">
        <ele>66.599998474121</ele>
        <time>2012-06-17T08:19:44.000Z</time>
      </trkpt>
      <trkpt lat="43.90925" lon="5.08729">
        <ele>66.599998474121</ele>
        <time>2012-06-17T08:19:46.000Z</time>
      </trkpt>
      <trkpt lat="43.90926" lon="5.08729">
        <ele>66.599998474121</ele>
        <time>2012-06-17T08:19:49.000Z</time>
      </trkpt>
      <trkpt lat="43.90929" lon="5.08731">
        <ele>66.400001525879</ele>
        <time>2012-06-17T08:19:53.000Z</time>
      </trkpt>
      <trkpt lat="43.90928" lon="5.08735">
        <ele>66.199996948242</ele>
        <time>2012-06-17T08:19:57.000Z</time>
      </trkpt>
      <trkpt lat="43.90925" lon="5.08743">
        <ele>66</ele>
        <time>2012-06-17T08:20:02.000Z</time>
      </trkpt>
      <trkpt lat="43.90925" lon="5.08744">
        <ele>66</ele>
        <time>2012-06-17T08:20:03.000Z</time>
      </trkpt>
      <trkpt lat="43.90923" lon="5.08748">
        <ele>66</ele>
        <time>2012-06-17T08:20:08.000Z</time>
      </trkpt>
      <trkpt lat="43.90924" lon="5.08749">
        <ele>65.800003051758</ele>
        <time>2012-06-17T08:20:13.000Z</time>
      </trkpt>
      <trkpt lat="43.90922" lon="5.08742">
        <ele>66.199996948242</ele>
        <time>2012-06-17T08:20:20.000Z</time>
      </trkpt>
      <trkpt lat="43.90922" lon="5.08739">
        <ele>66.199996948242</ele>
        <time>2012-06-17T08:20:21.000Z</time>
      </trkpt>
      <trkpt lat="43.90925" lon="5.08735">
        <ele>66.400001525879</ele>
        <time>2012-06-17T08:20:25.000Z</time>
      </trkpt>
      <trkpt lat="43.90929" lon="5.08735">
        <ele>66.199996948242</ele>
        <time>2012-06-17T08:20:29.000Z</time>
      </trkpt>
      <trkpt lat="43.9093" lon="5.08735">
        <ele>66.199996948242</ele>
        <time>2012-06-17T08:20:30.000Z</time>
      </trkpt>
      <trkpt lat="43.90932" lon="5.08739">
        <ele>66</ele>
        <time>2012-06-17T08:20:33.000Z</time>
      </trkpt>
      <trkpt lat="43.90934" lon="5.08741">
        <ele>66</ele>
        <time>2012-06-17T08:20:35.000Z</time>
      </trkpt>
      <trkpt lat="43.90935" lon="5.08741">
        <ele>65.800003051758</ele>
        <time>2012-06-17T08:20:36.000Z</time>
      </trkpt>
      <trkpt lat="43.90938" lon="5.08745">
        <ele>65.800003051758</ele>
        <time>2012-06-17T08:20:40.000Z</time>
      </trkpt>
      <trkpt lat="43.90938" lon="5.08749">
        <ele>65.599998474121</ele>
        <time>2012-06-17T08:20:42.000Z</time>
      </trkpt>
      <trkpt lat="43.90939" lon="5.08752">
        <ele>65.400001525879</ele>
        <time>2012-06-17T08:20:44.000Z</time>
      </trkpt>
      <trkpt lat="43.90942" lon="5.08752">
        <ele>65.400001525879</ele>
        <time>2012-06-17T08:20:47.000Z</time>
      </trkpt>
      <trkpt lat="43.90947" lon="5.08753">
        <ele>65.199996948242</ele>
        <time>2012-06-17T08:20:53.000Z</time>
      </trkpt>
      <trkpt lat="43.90947" lon="5.08752">
        <ele>65.199996948242</ele>
        <time>2012-06-17T08:20:54.000Z</time>
      </trkpt>
      <trkpt lat="43.90949" lon="5.0875">
        <ele>65.199996948242</ele>
        <time>2012-06-17T08:21:00.000Z</time>
      </trkpt>
      <trkpt lat="43.90948" lon="5.08748">
        <ele>65.400001525879</ele>
        <time>2012-06-17T08:21:08.000Z</time>
      </trkpt>
      <trkpt lat="43.90949" lon="5.08746">
        <ele>65.400001525879</ele>
        <time>2012-06-17T08:21:14.000Z</time>
      </trkpt>
      <trkpt lat="43.90946" lon="5.08749">
        <ele>65.400001525879</ele>
        <time>2012-06-17T08:21:25.000Z</time>
      </trkpt>
      <trkpt lat="43.90944" lon="5.08751">
        <ele>65.400001525879</ele>
        <time>2012-06-17T08:21:32.000Z</time>
      </trkpt>
      <trkpt lat="43.90946" lon="5.08748">
        <ele>65.400001525879</ele>
        <time>2012-06-17T08:21:40.000Z</time>
      </trkpt>
      <trkpt lat="43.9095" lon="5.0875">
        <ele>65.199996948242</ele>
        <time>2012-06-17T08:21:46.000Z</time>
      </trkpt>
      <trkpt lat="43.90954" lon="5.08752">
        <ele>65</ele>
        <time>2012-06-17T08:21:50.000Z</time>
      </trkpt>
      <trkpt lat="43.90957" lon="5.08753">
        <ele>65</ele>
        <time>2012-06-17T08:21:52.000Z</time>
      </trkpt>
      <trkpt lat="43.90963" lon="5.08755">
        <ele>64.800003051758</ele>
        <time>2012-06-17T08:21:57.000Z</time>
      </trkpt>
      <trkpt lat="43.90974" lon="5.08751">
        <ele>64.599998474121</ele>
        <time>2012-06-17T08:22:04.000Z</time>
      </trkpt>
      <trkpt lat="43.90982" lon="5.08742">
        <ele>64.800003051758</ele>
        <time>2012-06-17T08:22:10.000Z</time>
      </trkpt>
      <trkpt lat="43.9099" lon="5.08732">
        <ele>65</ele>
        <time>2012-06-17T08:22:16.000Z</time>
      </trkpt>
      <trkpt lat="43.90997" lon="5.08719">
        <ele>65.599998474121</ele>
        <time>2012-06-17T08:22:22.000Z</time>
      </trkpt>
      <trkpt lat="43.91004" lon="5.08702">
        <ele>66.199996948242</ele>
        <time>2012-06-17T08:22:29.000Z</time>
      </trkpt>
      <trkpt lat="43.91009" lon="5.08695">
        <ele>66.400001525879</ele>
        <time>2012-06-17T08:22:34.000Z</time>
      </trkpt>
      <trkpt lat="43.91013" lon="5.08694">
        <ele>66.199996948242</ele>
        <time>2012-06-17T08:22:40.000Z</time>
      </trkpt>
      <trkpt lat="43.91012" lon="5.08693">
        <ele>66.400001525879</ele>
        <time>2012-06-17T08:22:46.000Z</time>
      </trkpt>
      <trkpt lat="43.91015" lon="5.08694">
        <ele>66.199996948242</ele>
        <time>2012-06-17T08:22:53.000Z</time>
      </trkpt>
      <trkpt lat="43.91014" lon="5.0869">
        <ele>66.400001525879</ele>
        <time>2012-06-17T08:23:00.000Z</time>
      </trkpt>
      <trkpt lat="43.91016" lon="5.08689">
        <ele>66.400001525879</ele>
        <time>2012-06-17T08:23:06.000Z</time>
      </trkpt>
      <trkpt lat="43.91018" lon="5.08688">
        <ele>66.400001525879</ele>
        <time>2012-06-17T08:23:11.000Z</time>
      </trkpt>
      <trkpt lat="43.91019" lon="5.08688">
        <ele>66.199996948242</ele>
        <time>2012-06-17T08:23:12.000Z</time>
      </trkpt>
      <trkpt lat="43.9102" lon="5.0869">
        <ele>66.199996948242</ele>
        <time>2012-06-17T08:23:22.000Z</time>
      </trkpt>
      <trkpt lat="43.91027" lon="5.08692">
        <ele>65.800003051758</ele>
        <time>2012-06-17T08:23:29.000Z</time>
      </trkpt>
      <trkpt lat="43.91032" lon="5.08691">
        <ele>65.599998474121</ele>
        <time>2012-06-17T08:23:33.000Z</time>
      </trkpt>
      <trkpt lat="43.91035" lon="5.08691">
        <ele>65.599998474121</ele>
        <time>2012-06-17T08:23:35.000Z</time>
      </trkpt>
      <trkpt lat="43.91048" lon="5.08693">
        <ele>65</ele>
        <time>2012-06-17T08:23:42.000Z</time>
      </trkpt>
      <trkpt lat="43.9106" lon="5.08688">
        <ele>64.800003051758</ele>
        <time>2012-06-17T08:23:49.000Z</time>
      </trkpt>
      <trkpt lat="43.91066" lon="5.08686">
        <ele>64.800003051758</ele>
        <time>2012-06-17T08:23:52.000Z</time>
      </trkpt>
      <trkpt lat="43.91069" lon="5.08684">
        <ele>64.599998474121</ele>
        <time>2012-06-17T08:23:54.000Z</time>
      </trkpt>
      <trkpt lat="43.91079" lon="5.08679">
        <ele>64.599998474121</ele>
        <time>2012-06-17T08:24:01.000Z</time>
      </trkpt>
      <trkpt lat="43.91089" lon="5.08672">
        <ele>64.599998474121</ele>
        <time>2012-06-17T08:24:07.000Z</time>
      </trkpt>
      <trkpt lat="43.911" lon="5.08664">
        <ele>65</ele>
        <time>2012-06-17T08:24:13.000Z</time>
      </trkpt>
      <trkpt lat="43.91111" lon="5.08654">
        <ele>65.199996948242</ele>
        <time>2012-06-17T08:24:19.000Z</time>
      </trkpt>
      <trkpt lat="43.91124" lon="5.08651">
        <ele>65</ele>
        <time>2012-06-17T08:24:25.000Z</time>
      </trkpt>
      <trkpt lat="43.91138" lon="5.0865">
        <ele>64.800003051758</ele>
        <time>2012-06-17T08:24:32.000Z</time>
      </trkpt>
      <trkpt lat="43.9115" lon="5.08647">
        <ele>64.599998474121</ele>
        <time>2012-06-17T08:24:38.000Z</time>
      </trkpt>
      <trkpt lat="43.91159" lon="5.08642">
        <ele>64.400001525879</ele>
        <time>2012-06-17T08:24:44.000Z</time>
      </trkpt>
      <trkpt lat="43.9117" lon="5.08636">
        <ele>64.400001525879</ele>
        <time>2012-06-17T08:24:51.000Z</time>
      </trkpt>
      <trkpt lat="43.91178" lon="5.08629">
        <ele>64.199996948242</ele>
        <time>2012-06-17T08:24:57.000Z</time>
      </trkpt>
      <trkpt lat="43.91179" lon="5.08628">
        <ele>64.199996948242</ele>
        <time>2012-06-17T08:24:58.000Z</time>
      </trkpt>
      <trkpt lat="43.91189" lon="5.08621">
        <ele>64</ele>
        <time>2012-06-17T08:25:04.000Z</time>
      </trkpt>
      <trkpt lat="43.91191" lon="5.0862">
        <ele>64</ele>
        <time>2012-06-17T08:25:05.000Z</time>
      </trkpt>
      <trkpt lat="43.912" lon="5.08614">
        <ele>63.799999237061</ele>
        <time>2012-06-17T08:25:10.000Z</time>
      </trkpt>
      <trkpt lat="43.91211" lon="5.08609">
        <ele>63.400001525879</ele>
        <time>2012-06-17T08:25:17.000Z</time>
      </trkpt>
      <trkpt lat="43.91221" lon="5.08607">
        <ele>63.200000762939</ele>
        <time>2012-06-17T08:25:22.000Z</time>
      </trkpt>
      <trkpt lat="43.91226" lon="5.08605">
        <ele>63</ele>
        <time>2012-06-17T08:25:25.000Z</time>
      </trkpt>
      <trkpt lat="43.91231" lon="5.08604">
        <ele>62.799999237061</ele>
        <time>2012-06-17T08:25:27.000Z</time>
      </trkpt>
      <trkpt lat="43.91236" lon="5.08602">
        <ele>62.599998474121</ele>
        <time>2012-06-17T08:25:30.000Z</time>
      </trkpt>
      <trkpt lat="43.91239" lon="5.086">
        <ele>62.599998474121</ele>
        <time>2012-06-17T08:25:32.000Z</time>
      </trkpt>
      <trkpt lat="43.91251" lon="5.08589">
        <ele>62</ele>
        <time>2012-06-17T08:25:40.000Z</time>
      </trkpt>
      <trkpt lat="43.91259" lon="5.08579">
        <ele>62.200000762939</ele>
        <time>2012-06-17T08:25:46.000Z</time>
      </trkpt>
      <trkpt lat="43.91263" lon="5.08568">
        <ele>62.200000762939</ele>
        <time>2012-06-17T08:25:51.000Z</time>
      </trkpt>
      <trkpt lat="43.91265" lon="5.08564">
        <ele>62.200000762939</ele>
        <time>2012-06-17T08:25:53.000Z</time>
      </trkpt>
      <trkpt lat="43.91269" lon="5.08559">
        <ele>62.200000762939</ele>
        <time>2012-06-17T08:25:56.000Z</time>
      </trkpt>
      <trkpt lat="43.9127" lon="5.08555">
        <ele>62.200000762939</ele>
        <time>2012-06-17T08:25:58.000Z</time>
      </trkpt>
      <trkpt lat="43.9127" lon="5.08551">
        <ele>62.200000762939</ele>
        <time>2012-06-17T08:26:00.000Z</time>
      </trkpt>
      <trkpt lat="43.91272" lon="5.08547">
        <ele>62</ele>
        <time>2012-06-17T08:26:02.000Z</time>
      </trkpt>
      <trkpt lat="43.91274" lon="5.08539">
        <ele>62</ele>
        <time>2012-06-17T08:26:06.000Z</time>
      </trkpt>
      <trkpt lat="43.91276" lon="5.0853">
        <ele>62</ele>
        <time>2012-06-17T08:26:11.000Z</time>
      </trkpt>
      <trkpt lat="43.9128" lon="5.08524">
        <ele>62</ele>
        <time>2012-06-17T08:26:16.000Z</time>
      </trkpt>
      <trkpt lat="43.91282" lon="5.08523">
        <ele>62</ele>
        <time>2012-06-17T08:26:18.000Z</time>
      </trkpt>
      <trkpt lat="43.91285" lon="5.08521">
        <ele>62</ele>
        <time>2012-06-17T08:26:21.000Z</time>
      </trkpt>
      <trkpt lat="43.91289" lon="5.08518">
        <ele>62.200000762939</ele>
        <time>2012-06-17T08:26:26.000Z</time>
      </trkpt>
      <trkpt lat="43.9129" lon="5.08517">
        <ele>62.200000762939</ele>
        <time>2012-06-17T08:26:27.000Z</time>
      </trkpt>
      <trkpt lat="43.91291" lon="5.08517">
        <ele>62.200000762939</ele>
        <time>2012-06-17T08:26:28.000Z</time>
      </trkpt>
      <trkpt lat="43.91296" lon="5.08515">
        <ele>62.200000762939</ele>
        <time>2012-06-17T08:26:32.000Z</time>
      </trkpt>
      <trkpt lat="43.91301" lon="5.08512">
        <ele>62.400001525879</ele>
        <time>2012-06-17T08:26:36.000Z</time>
      </trkpt>
      <trkpt lat="43.91302" lon="5.08511">
        <ele>62.400001525879</ele>
        <time>2012-06-17T08:26:37.000Z</time>
      </trkpt>
      <trkpt lat="43.91312" lon="5.08504">
        <ele>62.599998474121</ele>
        <time>2012-06-17T08:26:44.000Z</time>
      </trkpt>
      <trkpt lat="43.91319" lon="5.08497">
        <ele>62.599998474121</ele>
        <time>2012-06-17T08:26:49.000Z</time>
      </trkpt>
      <trkpt lat="43.91326" lon="5.08491">
        <ele>62.799999237061</ele>
        <time>2012-06-17T08:26:54.000Z</time>
      </trkpt>
      <trkpt lat="43.91328" lon="5.0849">
        <ele>62.799999237061</ele>
        <time>2012-06-17T08:26:55.000Z</time>
      </trkpt>
      <trkpt lat="43.91333" lon="5.08483">
        <ele>62.799999237061</ele>
        <time>2012-06-17T08:26:59.000Z</time>
      </trkpt>
      <trkpt lat="43.91341" lon="5.08471">
        <ele>62.400001525879</ele>
        <time>2012-06-17T08:27:06.000Z</time>
      </trkpt>
      <trkpt lat="43.91342" lon="5.08469">
        <ele>62.200000762939</ele>
        <time>2012-06-17T08:27:07.000Z</time>
      </trkpt>
      <trkpt lat="43.91343" lon="5.08467">
        <ele>62.200000762939</ele>
        <time>2012-06-17T08:27:08.000Z</time>
      </trkpt>
      <trkpt lat="43.91346" lon="5.08462">
        <ele>62</ele>
        <time>2012-06-17T08:27:11.000Z</time>
      </trkpt>
      <trkpt lat="43.91348" lon="5.08461">
        <ele>62</ele>
        <time>2012-06-17T08:27:12.000Z</time>
      </trkpt>
      <trkpt lat="43.91355" lon="5.08451">
        <ele>61.599998474121</ele>
        <time>2012-06-17T08:27:17.000Z</time>
      </trkpt>
      <trkpt lat="43.91362" lon="5.08443">
        <ele>61.400001525879</ele>
        <time>2012-06-17T08:27:22.000Z</time>
      </trkpt>
      <trkpt lat="43.91365" lon="5.08438">
        <ele>61.400001525879</ele>
        <time>2012-06-17T08:27:25.000Z</time>
      </trkpt>
      <trkpt lat="43.91367" lon="5.08435">
        <ele>61.200000762939</ele>
        <time>2012-06-17T08:27:27.000Z</time>
      </trkpt>
      <trkpt lat="43.91374" lon="5.08426">
        <ele>61</ele>
        <time>2012-06-17T08:27:32.000Z</time>
      </trkpt>
      <trkpt lat="43.91381" lon="5.08417">
        <ele>60.799999237061</ele>
        <time>2012-06-17T08:27:38.000Z</time>
      </trkpt>
      <trkpt lat="43.91386" lon="5.08409">
        <ele>60.799999237061</ele>
        <time>2012-06-17T08:27:43.000Z</time>
      </trkpt>
      <trkpt lat="43.91394" lon="5.08399">
        <ele>60.599998474121</ele>
        <time>2012-06-17T08:27:49.000Z</time>
      </trkpt>
      <trkpt lat="43.914" lon="5.08393">
        <ele>60.400001525879</ele>
        <time>2012-06-17T08:27:54.000Z</time>
      </trkpt>
      <trkpt lat="43.91403" lon="5.08381">
        <ele>60.400001525879</ele>
        <time>2012-06-17T08:28:00.000Z</time>
      </trkpt>
      <trkpt lat="43.91407" lon="5.08371">
        <ele>60.200000762939</ele>
        <time>2012-06-17T08:28:06.000Z</time>
      </trkpt>
      <trkpt lat="43.91408" lon="5.08368">
        <ele>60.200000762939</ele>
        <time>2012-06-17T08:28:08.000Z</time>
      </trkpt>
      <trkpt lat="43.91409" lon="5.08364">
        <ele>60.200000762939</ele>
        <time>2012-06-17T08:28:10.000Z</time>
      </trkpt>
      <trkpt lat="43.91412" lon="5.08363">
        <ele>60.200000762939</ele>
        <time>2012-06-17T08:28:13.000Z</time>
      </trkpt>
      <trkpt lat="43.91412" lon="5.08362">
        <ele>60.200000762939</ele>
        <time>2012-06-17T08:28:14.000Z</time>
      </trkpt>
      <trkpt lat="43.91413" lon="5.08362">
        <ele>60</ele>
        <time>2012-06-17T08:28:15.000Z</time>
      </trkpt>
      <trkpt lat="43.91419" lon="5.08356">
        <ele>60</ele>
        <time>2012-06-17T08:28:21.000Z</time>
      </trkpt>
      <trkpt lat="43.91422" lon="5.08353">
        <ele>60</ele>
        <time>2012-06-17T08:28:25.000Z</time>
      </trkpt>
      <trkpt lat="43.91424" lon="5.08352">
        <ele>60</ele>
        <time>2012-06-17T08:28:27.000Z</time>
      </trkpt>
      <trkpt lat="43.91426" lon="5.0835">
        <ele>60.200000762939</ele>
        <time>2012-06-17T08:28:29.000Z</time>
      </trkpt>
      <trkpt lat="43.91432" lon="5.08345">
        <ele>60.200000762939</ele>
        <time>2012-06-17T08:28:34.000Z</time>
      </trkpt>
      <trkpt lat="43.91433" lon="5.08345">
        <ele>60.200000762939</ele>
        <time>2012-06-17T08:28:35.000Z</time>
      </trkpt>
      <trkpt lat="43.91442" lon="5.08338">
        <ele>60.400001525879</ele>
        <time>2012-06-17T08:28:43.000Z</time>
      </trkpt>
      <trkpt lat="43.91451" lon="5.08333">
        <ele>60.400001525879</ele>
        <time>2012-06-17T08:28:51.000Z</time>
      </trkpt>
      <trkpt lat="43.91457" lon="5.08328">
        <ele>60.599998474121</ele>
        <time>2012-06-17T08:28:57.000Z</time>
      </trkpt>
      <trkpt lat="43.91458" lon="5.08327">
        <ele>60.599998474121</ele>
        <time>2012-06-17T08:28:58.000Z</time>
      </trkpt>
      <trkpt lat="43.91464" lon="5.08322">
        <ele>61</ele>
        <time>2012-06-17T08:29:03.000Z</time>
      </trkpt>
      <trkpt lat="43.91472" lon="5.08312">
        <ele>61.400001525879</ele>
        <time>2012-06-17T08:29:09.000Z</time>
      </trkpt>
      <trkpt lat="43.91481" lon="5.08302">
        <ele>61.799999237061</ele>
        <time>2012-06-17T08:29:15.000Z</time>
      </trkpt>
      <trkpt lat="43.91488" lon="5.08293">
        <ele>62.200000762939</ele>
        <time>2012-06-17T08:29:21.000Z</time>
      </trkpt>
      <trkpt lat="43.91497" lon="5.08287">
        <ele>62.599998474121</ele>
        <time>2012-06-17T08:29:28.000Z</time>
      </trkpt>
      <trkpt lat="43.91503" lon="5.08281">
        <ele>62.799999237061</ele>
        <time>2012-06-17T08:29:34.000Z</time>
      </trkpt>
      <trkpt lat="43.91508" lon="5.08268">
        <ele>63.200000762939</ele>
        <time>2012-06-17T08:29:42.000Z</time>
      </trkpt>
      <trkpt lat="43.91508" lon="5.08266">
        <ele>63.200000762939</ele>
        <time>2012-06-17T08:29:43.000Z</time>
      </trkpt>
      <trkpt lat="43.91509" lon="5.08259">
        <ele>63.400001525879</ele>
        <time>2012-06-17T08:29:47.000Z</time>
      </trkpt>
      <trkpt lat="43.91509" lon="5.08251">
        <ele>63.799999237061</ele>
        <time>2012-06-17T08:29:52.000Z</time>
      </trkpt>
      <trkpt lat="43.91508" lon="5.08242">
        <ele>63.599998474121</ele>
        <time>2012-06-17T08:29:57.000Z</time>
      </trkpt>
      <trkpt lat="43.91508" lon="5.08238">
        <ele>63.599998474121</ele>
        <time>2012-06-17T08:29:59.000Z</time>
      </trkpt>
      <trkpt lat="43.91507" lon="5.08235">
        <ele>63.400001525879</ele>
        <time>2012-06-17T08:30:01.000Z</time>
      </trkpt>
      <trkpt lat="43.91505" lon="5.08228">
        <ele>63.400001525879</ele>
        <time>2012-06-17T08:30:04.000Z</time>
      </trkpt>
      <trkpt lat="43.91503" lon="5.08221">
        <ele>63.200000762939</ele>
        <time>2012-06-17T08:30:07.000Z</time>
      </trkpt>
      <trkpt lat="43.91502" lon="5.08216">
        <ele>63.200000762939</ele>
        <time>2012-06-17T08:30:09.000Z</time>
      </trkpt>
      <trkpt lat="43.91501" lon="5.08202">
        <ele>62.799999237061</ele>
        <time>2012-06-17T08:30:14.000Z</time>
      </trkpt>
      <trkpt lat="43.91499" lon="5.08191">
        <ele>62.599998474121</ele>
        <time>2012-06-17T08:30:18.000Z</time>
      </trkpt>
      <trkpt lat="43.91498" lon="5.08177">
        <ele>62.200000762939</ele>
        <time>2012-06-17T08:30:23.000Z</time>
      </trkpt>
      <trkpt lat="43.91498" lon="5.08175">
        <ele>62.200000762939</ele>
        <time>2012-06-17T08:30:24.000Z</time>
      </trkpt>
      <trkpt lat="43.91495" lon="5.08161">
        <ele>62</ele>
        <time>2012-06-17T08:30:30.000Z</time>
      </trkpt>
      <trkpt lat="43.91491" lon="5.08142">
        <ele>61.799999237061</ele>
        <time>2012-06-17T08:30:38.000Z</time>
      </trkpt>
      <trkpt lat="43.9149" lon="5.08136">
        <ele>61.799999237061</ele>
        <time>2012-06-17T08:30:43.000Z</time>
      </trkpt>
      <trkpt lat="43.91491" lon="5.08133">
        <ele>61.599998474121</ele>
        <time>2012-06-17T08:30:45.000Z</time>
      </trkpt>
      <trkpt lat="43.91491" lon="5.08132">
        <ele>61.599998474121</ele>
        <time>2012-06-17T08:30:47.000Z</time>
      </trkpt>
      <trkpt lat="43.91491" lon="5.0813">
        <ele>61.599998474121</ele>
        <time>2012-06-17T08:30:50.000Z</time>
      </trkpt>
      <trkpt lat="43.91492" lon="5.08125">
        <ele>61.599998474121</ele>
        <time>2012-06-17T08:30:56.000Z</time>
      </trkpt>
      <trkpt lat="43.91493" lon="5.0812">
        <ele>61.599998474121</ele>
        <time>2012-06-17T08:31:00.000Z</time>
      </trkpt>
      <trkpt lat="43.91495" lon="5.08114">
        <ele>61.400001525879</ele>
        <time>2012-06-17T08:31:05.000Z</time>
      </trkpt>
      <trkpt lat="43.91499" lon="5.0811">
        <ele>61.400001525879</ele>
        <time>2012-06-17T08:31:12.000Z</time>
      </trkpt>
      <trkpt lat="43.91501" lon="5.08109">
        <ele>61.200000762939</ele>
        <time>2012-06-17T08:31:18.000Z</time>
      </trkpt>
      <trkpt lat="43.91504" lon="5.08106">
        <ele>61.200000762939</ele>
        <time>2012-06-17T08:31:24.000Z</time>
      </trkpt>
      <trkpt lat="43.91508" lon="5.08102">
        <ele>61.200000762939</ele>
        <time>2012-06-17T08:31:30.000Z</time>
      </trkpt>
      <trkpt lat="43.9151" lon="5.08099">
        <ele>61</ele>
        <time>2012-06-17T08:31:33.000Z</time>
      </trkpt>
      <trkpt lat="43.91513" lon="5.08099">
        <ele>61</ele>
        <time>2012-06-17T08:31:35.000Z</time>
      </trkpt>
      <trkpt lat="43.91516" lon="5.081">
        <ele>61</ele>
        <time>2012-06-17T08:31:39.000Z</time>
      </trkpt>
      <trkpt lat="43.91517" lon="5.081">
        <ele>61</ele>
        <time>2012-06-17T08:31:40.000Z</time>
      </trkpt>
      <trkpt lat="43.91519" lon="5.08098">
        <ele>61</ele>
        <time>2012-06-17T08:31:45.000Z</time>
      </trkpt>
      <trkpt lat="43.91521" lon="5.08093">
        <ele>60.799999237061</ele>
        <time>2012-06-17T08:31:57.000Z</time>
      </trkpt>
      <trkpt lat="43.9152" lon="5.08091">
        <ele>60.799999237061</ele>
        <time>2012-06-17T08:32:05.000Z</time>
      </trkpt>
      <trkpt lat="43.91521" lon="5.08092">
        <ele>60.799999237061</ele>
        <time>2012-06-17T08:32:07.000Z</time>
      </trkpt>
      <trkpt lat="43.91522" lon="5.08093">
        <ele>60.799999237061</ele>
        <time>2012-06-17T08:32:09.000Z</time>
      </trkpt>
      <trkpt lat="43.91524" lon="5.08094">
        <ele>60.799999237061</ele>
        <time>2012-06-17T08:32:14.000Z</time>
      </trkpt>
      <trkpt lat="43.91526" lon="5.08094">
        <ele>60.799999237061</ele>
        <time>2012-06-17T08:32:22.000Z</time>
      </trkpt>
      <trkpt lat="43.91529" lon="5.08095">
        <ele>60.799999237061</ele>
        <time>2012-06-17T08:32:32.000Z</time>
      </trkpt>
      <trkpt lat="43.91531" lon="5.08091">
        <ele>60.599998474121</ele>
        <time>2012-06-17T08:32:37.000Z</time>
      </trkpt>
      <trkpt lat="43.9153" lon="5.08092">
        <ele>60.799999237061</ele>
        <time>2012-06-17T08:32:40.000Z</time>
      </trkpt>
      <trkpt lat="43.9153" lon="5.08093">
        <ele>60.799999237061</ele>
        <time>2012-06-17T08:32:46.000Z</time>
      </trkpt>
      <trkpt lat="43.9153" lon="5.08094">
        <ele>60.799999237061</ele>
        <time>2012-06-17T08:32:53.000Z</time>
      </trkpt>
      <trkpt lat="43.91532" lon="5.0809">
        <ele>60.599998474121</ele>
        <time>2012-06-17T08:32:59.000Z</time>
      </trkpt>
      <trkpt lat="43.91536" lon="5.0809">
        <ele>60.599998474121</ele>
        <time>2012-06-17T08:33:06.000Z</time>
      </trkpt>
      <trkpt lat="43.9154" lon="5.08089">
        <ele>60.599998474121</ele>
        <time>2012-06-17T08:33:11.000Z</time>
      </trkpt>
      <trkpt lat="43.91541" lon="5.08089">
        <ele>60.599998474121</ele>
        <time>2012-06-17T08:33:12.000Z</time>
      </trkpt>
      <trkpt lat="43.91547" lon="5.08091">
        <ele>60.400001525879</ele>
        <time>2012-06-17T08:33:20.000Z</time>
      </trkpt>
      <trkpt lat="43.9155" lon="5.08089">
        <ele>60.400001525879</ele>
        <time>2012-06-17T08:33:24.000Z</time>
      </trkpt>
      <trkpt lat="43.91551" lon="5.08085">
        <ele>60.400001525879</ele>
        <time>2012-06-17T08:33:27.000Z</time>
      </trkpt>
      <trkpt lat="43.91557" lon="5.08083">
        <ele>60.400001525879</ele>
        <time>2012-06-17T08:33:33.000Z</time>
      </trkpt>
      <trkpt lat="43.91562" lon="5.08084">
        <ele>60.200000762939</ele>
        <time>2012-06-17T08:33:38.000Z</time>
      </trkpt>
      <trkpt lat="43.91563" lon="5.0808">
        <ele>60.400001525879</ele>
        <time>2012-06-17T08:33:40.000Z</time>
      </trkpt>
      <trkpt lat="43.91568" lon="5.08081">
        <ele>60.200000762939</ele>
        <time>2012-06-17T08:33:44.000Z</time>
      </trkpt>
      <trkpt lat="43.91572" lon="5.08088">
        <ele>60.200000762939</ele>
        <time>2012-06-17T08:34:12.000Z</time>
      </trkpt>
      <trkpt lat="43.91569" lon="5.08084">
        <ele>60.200000762939</ele>
        <time>2012-06-17T08:34:19.000Z</time>
      </trkpt>
      <trkpt lat="43.91575" lon="5.08084">
        <ele>60</ele>
        <time>2012-06-17T08:36:16.000Z</time>
      </trkpt>
      <trkpt lat="43.91576" lon="5.08087">
        <ele>60</ele>
        <time>2012-06-17T08:36:24.000Z</time>
      </trkpt>
      <trkpt lat="43.91578" lon="5.08088">
        <ele>60</ele>
        <time>2012-06-17T08:36:39.000Z</time>
      </trkpt>
      <trkpt lat="43.91578" lon="5.08088">
        <ele>60</ele>
        <time>2012-06-17T08:36:46.000Z</time>
      </trkpt>
      <trkpt lat="43.91575" lon="5.08088">
        <ele>60</ele>
        <time>2012-06-17T08:37:35.000Z</time>
      </trkpt>
      <trkpt lat="43.91575" lon="5.08085">
        <ele>60.200000762939</ele>
        <time>2012-06-17T08:37:57.000Z</time>
      </trkpt>
      <trkpt lat="43.91575" lon="5.08083">
        <ele>60.200000762939</ele>
        <time>2012-06-17T08:38:03.000Z</time>
      </trkpt>
      <trkpt lat="43.91575" lon="5.08082">
        <ele>60.200000762939</ele>
        <time>2012-06-17T08:38:08.000Z</time>
      </trkpt>
      <trkpt lat="43.91577" lon="5.0808">
        <ele>60.200000762939</ele>
        <time>2012-06-17T08:38:13.000Z</time>
      </trkpt>
      <trkpt lat="43.91579" lon="5.08078">
        <ele>60.200000762939</ele>
        <time>2012-06-17T08:38:23.000Z</time>
      </trkpt>
      <trkpt lat="43.91583" lon="5.08073">
        <ele>60.400001525879</ele>
        <time>2012-06-17T08:38:31.000Z</time>
      </trkpt>
      <trkpt lat="43.91588" lon="5.08069">
        <ele>60.799999237061</ele>
        <time>2012-06-17T08:38:38.000Z</time>
      </trkpt>
      <trkpt lat="43.9159" lon="5.08066">
        <ele>60.799999237061</ele>
        <time>2012-06-17T08:38:43.000Z</time>
      </trkpt>
      <trkpt lat="43.91591" lon="5.08066">
        <ele>61</ele>
        <time>2012-06-17T08:38:44.000Z</time>
      </trkpt>
      <trkpt lat="43.91592" lon="5.08065">
        <ele>61</ele>
        <time>2012-06-17T08:38:45.000Z</time>
      </trkpt>
      <trkpt lat="43.91595" lon="5.08062">
        <ele>61.200000762939</ele>
        <time>2012-06-17T08:38:50.000Z</time>
      </trkpt>
      <trkpt lat="43.91596" lon="5.08062">
        <ele>61.400001525879</ele>
        <time>2012-06-17T08:38:52.000Z</time>
      </trkpt>
      <trkpt lat="43.91597" lon="5.08062">
        <ele>61.400001525879</ele>
        <time>2012-06-17T08:38:54.000Z</time>
      </trkpt>
      <trkpt lat="43.91601" lon="5.08059">
        <ele>61.599998474121</ele>
        <time>2012-06-17T08:39:00.000Z</time>
      </trkpt>
      <trkpt lat="43.91607" lon="5.08056">
        <ele>62</ele>
        <time>2012-06-17T08:39:09.000Z</time>
      </trkpt>
      <trkpt lat="43.91614" lon="5.08052">
        <ele>62.400001525879</ele>
        <time>2012-06-17T08:39:20.000Z</time>
      </trkpt>
      <trkpt lat="43.91618" lon="5.08049">
        <ele>62.599998474121</ele>
        <time>2012-06-17T08:39:26.000Z</time>
      </trkpt>
      <trkpt lat="43.91623" lon="5.08045">
        <ele>62.799999237061</ele>
        <time>2012-06-17T08:39:35.000Z</time>
      </trkpt>
      <trkpt lat="43.91626" lon="5.08042">
        <ele>63</ele>
        <time>2012-06-17T08:39:40.000Z</time>
      </trkpt>
      <trkpt lat="43.91629" lon="5.08039">
        <ele>63.200000762939</ele>
        <time>2012-06-17T08:39:45.000Z</time>
      </trkpt>
      <trkpt lat="43.9163" lon="5.08039">
        <ele>63.200000762939</ele>
        <time>2012-06-17T08:39:46.000Z</time>
      </trkpt>
      <trkpt lat="43.91634" lon="5.08035">
        <ele>63.400001525879</ele>
        <time>2012-06-17T08:39:53.000Z</time>
      </trkpt>
      <trkpt lat="43.9164" lon="5.08032">
        <ele>63.799999237061</ele>
        <time>2012-06-17T08:40:00.000Z</time>
      </trkpt>
      <trkpt lat="43.91645" lon="5.08028">
        <ele>64</ele>
        <time>2012-06-17T08:40:05.000Z</time>
      </trkpt>
      <trkpt lat="43.91646" lon="5.08027">
        <ele>64</ele>
        <time>2012-06-17T08:40:06.000Z</time>
      </trkpt>
      <trkpt lat="43.91653" lon="5.08023">
        <ele>64.199996948242</ele>
        <time>2012-06-17T08:40:13.000Z</time>
      </trkpt>
      <trkpt lat="43.91659" lon="5.08018">
        <ele>64.599998474121</ele>
        <time>2012-06-17T08:40:20.000Z</time>
      </trkpt>
      <trkpt lat="43.91666" lon="5.08013">
        <ele>64.800003051758</ele>
        <time>2012-06-17T08:40:27.000Z</time>
      </trkpt>
      <trkpt lat="43.91669" lon="5.08005">
        <ele>65</ele>
        <time>2012-06-17T08:40:34.000Z</time>
      </trkpt>
      <trkpt lat="43.9167" lon="5.08004">
        <ele>65</ele>
        <time>2012-06-17T08:40:36.000Z</time>
      </trkpt>
      <trkpt lat="43.91671" lon="5.08002">
        <ele>65</ele>
        <time>2012-06-17T08:40:38.000Z</time>
      </trkpt>
      <trkpt lat="43.91673" lon="5.07999">
        <ele>65</ele>
        <time>2012-06-17T08:40:41.000Z</time>
      </trkpt>
      <trkpt lat="43.91676" lon="5.07994">
        <ele>65</ele>
        <time>2012-06-17T08:40:46.000Z</time>
      </trkpt>
      <trkpt lat="43.91678" lon="5.07986">
        <ele>65</ele>
        <time>2012-06-17T08:40:52.000Z</time>
      </trkpt>
      <trkpt lat="43.91678" lon="5.07985">
        <ele>65</ele>
        <time>2012-06-17T08:40:53.000Z</time>
      </trkpt>
      <trkpt lat="43.91678" lon="5.07975">
        <ele>64.800003051758</ele>
        <time>2012-06-17T08:41:01.000Z</time>
      </trkpt>
      <trkpt lat="43.91678" lon="5.07965">
        <ele>64.599998474121</ele>
        <time>2012-06-17T08:41:10.000Z</time>
      </trkpt>
      <trkpt lat="43.91677" lon="5.07962">
        <ele>64.599998474121</ele>
        <time>2012-06-17T08:41:16.000Z</time>
      </trkpt>
      <trkpt lat="43.91676" lon="5.07959">
        <ele>64.599998474121</ele>
        <time>2012-06-17T08:41:22.000Z</time>
      </trkpt>
      <trkpt lat="43.91676" lon="5.07954">
        <ele>64.400001525879</ele>
        <time>2012-06-17T08:41:28.000Z</time>
      </trkpt>
      <trkpt lat="43.91676" lon="5.07946">
        <ele>64.400001525879</ele>
        <time>2012-06-17T08:41:34.000Z</time>
      </trkpt>
      <trkpt lat="43.91676" lon="5.07938">
        <ele>64.199996948242</ele>
        <time>2012-06-17T08:41:41.000Z</time>
      </trkpt>
      <trkpt lat="43.91675" lon="5.07934">
        <ele>64.199996948242</ele>
        <time>2012-06-17T08:41:45.000Z</time>
      </trkpt>
      <trkpt lat="43.91674" lon="5.07929">
        <ele>64</ele>
        <time>2012-06-17T08:41:51.000Z</time>
      </trkpt>
      <trkpt lat="43.91672" lon="5.07921">
        <ele>64</ele>
        <time>2012-06-17T08:41:58.000Z</time>
      </trkpt>
      <trkpt lat="43.91669" lon="5.07916">
        <ele>64</ele>
        <time>2012-06-17T08:42:02.000Z</time>
      </trkpt>
      <trkpt lat="43.91669" lon="5.07912">
        <ele>63.799999237061</ele>
        <time>2012-06-17T08:42:05.000Z</time>
      </trkpt>
      <trkpt lat="43.91667" lon="5.07907">
        <ele>63.799999237061</ele>
        <time>2012-06-17T08:42:08.000Z</time>
      </trkpt>
      <trkpt lat="43.91666" lon="5.07897">
        <ele>63.599998474121</ele>
        <time>2012-06-17T08:42:13.000Z</time>
      </trkpt>
      <trkpt lat="43.91665" lon="5.07877">
        <ele>63</ele>
        <time>2012-06-17T08:42:23.000Z</time>
      </trkpt>
      <trkpt lat="43.91666" lon="5.07875">
        <ele>63</ele>
        <time>2012-06-17T08:42:24.000Z</time>
      </trkpt>
      <trkpt lat="43.91668" lon="5.07865">
        <ele>62.799999237061</ele>
        <time>2012-06-17T08:42:31.000Z</time>
      </trkpt>
      <trkpt lat="43.91668" lon="5.07864">
        <ele>62.799999237061</ele>
        <time>2012-06-17T08:42:32.000Z</time>
      </trkpt>
      <trkpt lat="43.9167" lon="5.0786">
        <ele>62.599998474121</ele>
        <time>2012-06-17T08:42:37.000Z</time>
      </trkpt>
      <trkpt lat="43.91671" lon="5.07858">
        <ele>62.400001525879</ele>
        <time>2012-06-17T08:42:40.000Z</time>
      </trkpt>
      <trkpt lat="43.91673" lon="5.07857">
        <ele>62.400001525879</ele>
        <time>2012-06-17T08:42:42.000Z</time>
      </trkpt>
      <trkpt lat="43.91677" lon="5.07852">
        <ele>62.200000762939</ele>
        <time>2012-06-17T08:42:50.000Z</time>
      </trkpt>
      <trkpt lat="43.9168" lon="5.07847">
        <ele>62</ele>
        <time>2012-06-17T08:42:56.000Z</time>
      </trkpt>
      <trkpt lat="43.91683" lon="5.07841">
        <ele>61.799999237061</ele>
        <time>2012-06-17T08:43:02.000Z</time>
      </trkpt>
      <trkpt lat="43.91686" lon="5.07836">
        <ele>61.599998474121</ele>
        <time>2012-06-17T08:43:09.000Z</time>
      </trkpt>
      <trkpt lat="43.91686" lon="5.07833">
        <ele>61.599998474121</ele>
        <time>2012-06-17T08:43:14.000Z</time>
      </trkpt>
      <trkpt lat="43.91686" lon="5.07826">
        <ele>61.599998474121</ele>
        <time>2012-06-17T08:43:23.000Z</time>
      </trkpt>
      <trkpt lat="43.91685" lon="5.07824">
        <ele>61.599998474121</ele>
        <time>2012-06-17T08:43:29.000Z</time>
      </trkpt>
      <trkpt lat="43.91685" lon="5.07828">
        <ele>61.599998474121</ele>
        <time>2012-06-17T08:43:47.000Z</time>
      </trkpt>
      <trkpt lat="43.91687" lon="5.07829">
        <ele>61.599998474121</ele>
        <time>2012-06-17T08:43:49.000Z</time>
      </trkpt>
      <trkpt lat="43.91688" lon="5.07829">
        <ele>61.400001525879</ele>
        <time>2012-06-17T08:43:55.000Z</time>
      </trkpt>
      <trkpt lat="43.91693" lon="5.07824">
        <ele>61.400001525879</ele>
        <time>2012-06-17T08:44:06.000Z</time>
      </trkpt>
      <trkpt lat="43.917" lon="5.07816">
        <ele>61.200000762939</ele>
        <time>2012-06-17T08:44:16.000Z</time>
      </trkpt>
      <trkpt lat="43.91708" lon="5.07801">
        <ele>61</ele>
        <time>2012-06-17T08:44:27.000Z</time>
      </trkpt>
      <trkpt lat="43.91714" lon="5.07788">
        <ele>60.799999237061</ele>
        <time>2012-06-17T08:44:36.000Z</time>
      </trkpt>
      <trkpt lat="43.91713" lon="5.07784">
        <ele>60.799999237061</ele>
        <time>2012-06-17T08:44:41.000Z</time>
      </trkpt>
      <trkpt lat="43.91712" lon="5.07781">
        <ele>61</ele>
        <time>2012-06-17T08:44:43.000Z</time>
      </trkpt>
      <trkpt lat="43.91712" lon="5.07778">
        <ele>61</ele>
        <time>2012-06-17T08:44:46.000Z</time>
      </trkpt>
      <trkpt lat="43.91711" lon="5.07777">
        <ele>61</ele>
        <time>2012-06-17T08:44:47.000Z</time>
      </trkpt>
      <trkpt lat="43.91711" lon="5.07775">
        <ele>61</ele>
        <time>2012-06-17T08:44:49.000Z</time>
      </trkpt>
      <trkpt lat="43.91711" lon="5.07772">
        <ele>61</ele>
        <time>2012-06-17T08:44:54.000Z</time>
      </trkpt>
      <trkpt lat="43.91712" lon="5.0777">
        <ele>61</ele>
        <time>2012-06-17T08:44:59.000Z</time>
      </trkpt>
      <trkpt lat="43.91715" lon="5.0777">
        <ele>60.799999237061</ele>
        <time>2012-06-17T08:45:08.000Z</time>
      </trkpt>
      <trkpt lat="43.91717" lon="5.0777">
        <ele>60.799999237061</ele>
        <time>2012-06-17T08:45:10.000Z</time>
      </trkpt>
      <trkpt lat="43.91714" lon="5.07767">
        <ele>60.799999237061</ele>
        <time>2012-06-17T08:45:17.000Z</time>
      </trkpt>
      <trkpt lat="43.91713" lon="5.07769">
        <ele>60.799999237061</ele>
        <time>2012-06-17T08:45:22.000Z</time>
      </trkpt>
      <trkpt lat="43.91714" lon="5.07766">
        <ele>60.799999237061</ele>
        <time>2012-06-17T08:45:28.000Z</time>
      </trkpt>
      <trkpt lat="43.91713" lon="5.0776">
        <ele>60.799999237061</ele>
        <time>2012-06-17T08:45:34.000Z</time>
      </trkpt>
      <trkpt lat="43.91713" lon="5.07746">
        <ele>60.799999237061</ele>
        <time>2012-06-17T08:45:43.000Z</time>
      </trkpt>
      <trkpt lat="43.91713" lon="5.07742">
        <ele>60.799999237061</ele>
        <time>2012-06-17T08:45:46.000Z</time>
      </trkpt>
      <trkpt lat="43.91713" lon="5.0774">
        <ele>60.799999237061</ele>
        <time>2012-06-17T08:45:49.000Z</time>
      </trkpt>
      <trkpt lat="43.91712" lon="5.07737">
        <ele>60.799999237061</ele>
        <time>2012-06-17T08:45:55.000Z</time>
      </trkpt>
      <trkpt lat="43.9171" lon="5.07735">
        <ele>60.799999237061</ele>
        <time>2012-06-17T08:46:05.000Z</time>
      </trkpt>
      <trkpt lat="43.91711" lon="5.07739">
        <ele>60.799999237061</ele>
        <time>2012-06-17T08:46:11.000Z</time>
      </trkpt>
      <trkpt lat="43.91712" lon="5.07734">
        <ele>60.799999237061</ele>
        <time>2012-06-17T08:46:19.000Z</time>
      </trkpt>
      <trkpt lat="43.91713" lon="5.07733">
        <ele>60.799999237061</ele>
        <time>2012-06-17T08:46:23.000Z</time>
      </trkpt>
      <trkpt lat="43.91712" lon="5.0773">
        <ele>60.799999237061</ele>
        <time>2012-06-17T08:46:27.000Z</time>
      </trkpt>
      <trkpt lat="43.91713" lon="5.07726">
        <ele>60.799999237061</ele>
        <time>2012-06-17T08:46:53.000Z</time>
      </trkpt>
      <trkpt lat="43.91713" lon="5.07723">
        <ele>60.799999237061</ele>
        <time>2012-06-17T08:46:55.000Z</time>
      </trkpt>
      <trkpt lat="43.91712" lon="5.0772">
        <ele>60.799999237061</ele>
        <time>2012-06-17T08:46:57.000Z</time>
      </trkpt>
      <trkpt lat="43.91713" lon="5.07721">
        <ele>60.799999237061</ele>
        <time>2012-06-17T08:47:03.000Z</time>
      </trkpt>
      <trkpt lat="43.91711" lon="5.07723">
        <ele>60.799999237061</ele>
        <time>2012-06-17T08:47:07.000Z</time>
      </trkpt>
      <trkpt lat="43.91711" lon="5.07723">
        <ele>60.799999237061</ele>
        <time>2012-06-17T08:47:14.000Z</time>
      </trkpt>
      <trkpt lat="43.91709" lon="5.0772">
        <ele>60.799999237061</ele>
        <time>2012-06-17T08:47:22.000Z</time>
      </trkpt>
      <trkpt lat="43.91704" lon="5.0772">
        <ele>61</ele>
        <time>2012-06-17T08:47:42.000Z</time>
      </trkpt>
      <trkpt lat="43.91702" lon="5.07719">
        <ele>61</ele>
        <time>2012-06-17T08:47:44.000Z</time>
      </trkpt>
      <trkpt lat="43.91701" lon="5.07717">
        <ele>61</ele>
        <time>2012-06-17T08:47:47.000Z</time>
      </trkpt>
      <trkpt lat="43.917" lon="5.07708">
        <ele>60.799999237061</ele>
        <time>2012-06-17T08:47:53.000Z</time>
      </trkpt>
      <trkpt lat="43.91701" lon="5.07694">
        <ele>60.799999237061</ele>
        <time>2012-06-17T08:48:01.000Z</time>
      </trkpt>
      <trkpt lat="43.91701" lon="5.07674">
        <ele>60.599998474121</ele>
        <time>2012-06-17T08:48:12.000Z</time>
      </trkpt>
      <trkpt lat="43.91702" lon="5.07657">
        <ele>60.799999237061</ele>
        <time>2012-06-17T08:48:21.000Z</time>
      </trkpt>
      <trkpt lat="43.91701" lon="5.07638">
        <ele>61</ele>
        <time>2012-06-17T08:48:30.000Z</time>
      </trkpt>
      <trkpt lat="43.91702" lon="5.07617">
        <ele>61.200000762939</ele>
        <time>2012-06-17T08:48:40.000Z</time>
      </trkpt>
      <trkpt lat="43.91703" lon="5.07602">
        <ele>61.400001525879</ele>
        <time>2012-06-17T08:48:48.000Z</time>
      </trkpt>
      <trkpt lat="43.91703" lon="5.07594">
        <ele>61.599998474121</ele>
        <time>2012-06-17T08:48:55.000Z</time>
      </trkpt>
      <trkpt lat="43.91702" lon="5.07589">
        <ele>61.599998474121</ele>
        <time>2012-06-17T08:49:02.000Z</time>
      </trkpt>
      <trkpt lat="43.917" lon="5.07578">
        <ele>61.799999237061</ele>
        <time>2012-06-17T08:49:09.000Z</time>
      </trkpt>
      <trkpt lat="43.91695" lon="5.07567">
        <ele>62</ele>
        <time>2012-06-17T08:49:16.000Z</time>
      </trkpt>
      <trkpt lat="43.91689" lon="5.07556">
        <ele>62.200000762939</ele>
        <time>2012-06-17T08:49:23.000Z</time>
      </trkpt>
      <trkpt lat="43.91685" lon="5.07544">
        <ele>62.200000762939</ele>
        <time>2012-06-17T08:49:31.000Z</time>
      </trkpt>
      <trkpt lat="43.91685" lon="5.07542">
        <ele>62.200000762939</ele>
        <time>2012-06-17T08:49:33.000Z</time>
      </trkpt>
      <trkpt lat="43.91684" lon="5.07538">
        <ele>62.200000762939</ele>
        <time>2012-06-17T08:49:36.000Z</time>
      </trkpt>
      <trkpt lat="43.91683" lon="5.07535">
        <ele>62.200000762939</ele>
        <time>2012-06-17T08:49:38.000Z</time>
      </trkpt>
      <trkpt lat="43.91682" lon="5.07526">
        <ele>62.200000762939</ele>
        <time>2012-06-17T08:49:43.000Z</time>
      </trkpt>
      <trkpt lat="43.91681" lon="5.07521">
        <ele>62.200000762939</ele>
        <time>2012-06-17T08:49:49.000Z</time>
      </trkpt>
      <trkpt lat="43.91678" lon="5.07509">
        <ele>62</ele>
        <time>2012-06-17T08:49:59.000Z</time>
      </trkpt>
      <trkpt lat="43.91673" lon="5.07503">
        <ele>62</ele>
        <time>2012-06-17T08:50:06.000Z</time>
      </trkpt>
      <trkpt lat="43.91672" lon="5.07502">
        <ele>62</ele>
        <time>2012-06-17T08:50:07.000Z</time>
      </trkpt>
      <trkpt lat="43.91671" lon="5.07499">
        <ele>62</ele>
        <time>2012-06-17T08:50:11.000Z</time>
      </trkpt>
      <trkpt lat="43.91671" lon="5.07498">
        <ele>62</ele>
        <time>2012-06-17T08:50:12.000Z</time>
      </trkpt>
      <trkpt lat="43.91671" lon="5.07498">
        <ele>62</ele>
        <time>2012-06-17T08:50:13.000Z</time>
      </trkpt>
      <trkpt lat="43.91669" lon="5.07493">
        <ele>62.200000762939</ele>
        <time>2012-06-17T08:50:18.000Z</time>
      </trkpt>
      <trkpt lat="43.91668" lon="5.07488">
        <ele>62.400001525879</ele>
        <time>2012-06-17T08:50:26.000Z</time>
      </trkpt>
      <trkpt lat="43.91668" lon="5.07487">
        <ele>62.400001525879</ele>
        <time>2012-06-17T08:50:27.000Z</time>
      </trkpt>
      <trkpt lat="43.91667" lon="5.07481">
        <ele>62.799999237061</ele>
        <time>2012-06-17T08:50:32.000Z</time>
      </trkpt>
      <trkpt lat="43.91667" lon="5.07477">
        <ele>62.799999237061</ele>
        <time>2012-06-17T08:50:35.000Z</time>
      </trkpt>
      <trkpt lat="43.91667" lon="5.07464">
        <ele>63.200000762939</ele>
        <time>2012-06-17T08:50:43.000Z</time>
      </trkpt>
      <trkpt lat="43.9167" lon="5.07452">
        <ele>63.799999237061</ele>
        <time>2012-06-17T08:50:51.000Z</time>
      </trkpt>
      <trkpt lat="43.9167" lon="5.07451">
        <ele>63.799999237061</ele>
        <time>2012-06-17T08:50:52.000Z</time>
      </trkpt>
      <trkpt lat="43.9167" lon="5.07446">
        <ele>64</ele>
        <time>2012-06-17T08:50:57.000Z</time>
      </trkpt>
      <trkpt lat="43.91671" lon="5.07437">
        <ele>64.199996948242</ele>
        <time>2012-06-17T08:51:06.000Z</time>
      </trkpt>
      <trkpt lat="43.91673" lon="5.07429">
        <ele>64.400001525879</ele>
        <time>2012-06-17T08:51:12.000Z</time>
      </trkpt>
      <trkpt lat="43.91672" lon="5.07421">
        <ele>64.800003051758</ele>
        <time>2012-06-17T08:51:18.000Z</time>
      </trkpt>
      <trkpt lat="43.91672" lon="5.07413">
        <ele>65</ele>
        <time>2012-06-17T08:51:24.000Z</time>
      </trkpt>
      <trkpt lat="43.91672" lon="5.07411">
        <ele>65</ele>
        <time>2012-06-17T08:51:25.000Z</time>
      </trkpt>
      <trkpt lat="43.91671" lon="5.07402">
        <ele>65</ele>
        <time>2012-06-17T08:51:31.000Z</time>
      </trkpt>
      <trkpt lat="43.91671" lon="5.074">
        <ele>65</ele>
        <time>2012-06-17T08:51:32.000Z</time>
      </trkpt>
      <trkpt lat="43.91674" lon="5.07387">
        <ele>64.800003051758</ele>
        <time>2012-06-17T08:51:38.000Z</time>
      </trkpt>
      <trkpt lat="43.91673" lon="5.07376">
        <ele>64.800003051758</ele>
        <time>2012-06-17T08:51:44.000Z</time>
      </trkpt>
      <trkpt lat="43.91673" lon="5.07367">
        <ele>64.800003051758</ele>
        <time>2012-06-17T08:51:49.000Z</time>
      </trkpt>
      <trkpt lat="43.91673" lon="5.07363">
        <ele>64.800003051758</ele>
        <time>2012-06-17T08:51:51.000Z</time>
      </trkpt>
      <trkpt lat="43.91673" lon="5.07356">
        <ele>64.800003051758</ele>
        <time>2012-06-17T08:51:56.000Z</time>
      </trkpt>
      <trkpt lat="43.91671" lon="5.07348">
        <ele>64.800003051758</ele>
        <time>2012-06-17T08:52:01.000Z</time>
      </trkpt>
      <trkpt lat="43.91668" lon="5.07339">
        <ele>65</ele>
        <time>2012-06-17T08:52:07.000Z</time>
      </trkpt>
      <trkpt lat="43.91668" lon="5.07339">
        <ele>65</ele>
        <time>2012-06-17T08:52:08.000Z</time>
      </trkpt>
      <trkpt lat="43.91664" lon="5.07337">
        <ele>65</ele>
        <time>2012-06-17T08:52:13.000Z</time>
      </trkpt>
      <trkpt lat="43.91662" lon="5.07332">
        <ele>65</ele>
        <time>2012-06-17T08:52:22.000Z</time>
      </trkpt>
      <trkpt lat="43.9166" lon="5.07331">
        <ele>64.800003051758</ele>
        <time>2012-06-17T08:52:28.000Z</time>
      </trkpt>
      <trkpt lat="43.91657" lon="5.07332">
        <ele>64.800003051758</ele>
        <time>2012-06-17T08:52:37.000Z</time>
      </trkpt>
      <trkpt lat="43.91654" lon="5.07334">
        <ele>64.800003051758</ele>
        <time>2012-06-17T08:52:43.000Z</time>
      </trkpt>
      <trkpt lat="43.9165" lon="5.0734">
        <ele>64.800003051758</ele>
        <time>2012-06-17T08:52:49.000Z</time>
      </trkpt>
      <trkpt lat="43.91647" lon="5.07347">
        <ele>64.800003051758</ele>
        <time>2012-06-17T08:52:56.000Z</time>
      </trkpt>
      <trkpt lat="43.91645" lon="5.07348">
        <ele>64.800003051758</ele>
        <time>2012-06-17T08:52:57.000Z</time>
      </trkpt>
      <trkpt lat="43.91643" lon="5.0735">
        <ele>64.800003051758</ele>
        <time>2012-06-17T08:53:01.000Z</time>
      </trkpt>
      <trkpt lat="43.91642" lon="5.07351">
        <ele>64.800003051758</ele>
        <time>2012-06-17T08:53:02.000Z</time>
      </trkpt>
      <trkpt lat="43.91637" lon="5.07353">
        <ele>64.800003051758</ele>
        <time>2012-06-17T08:53:08.000Z</time>
      </trkpt>
      <trkpt lat="43.91629" lon="5.07354">
        <ele>64.800003051758</ele>
        <time>2012-06-17T08:53:15.000Z</time>
      </trkpt>
      <trkpt lat="43.91625" lon="5.07354">
        <ele>64.800003051758</ele>
        <time>2012-06-17T08:53:20.000Z</time>
      </trkpt>
      <trkpt lat="43.91621" lon="5.07356">
        <ele>65</ele>
        <time>2012-06-17T08:53:25.000Z</time>
      </trkpt>
      <trkpt lat="43.91617" lon="5.07359">
        <ele>65</ele>
        <time>2012-06-17T08:53:32.000Z</time>
      </trkpt>
      <trkpt lat="43.91612" lon="5.07362">
        <ele>65</ele>
        <time>2012-06-17T08:53:39.000Z</time>
      </trkpt>
      <trkpt lat="43.9161" lon="5.07363">
        <ele>65</ele>
        <time>2012-06-17T08:53:41.000Z</time>
      </trkpt>
      <trkpt lat="43.91608" lon="5.07364">
        <ele>65</ele>
        <time>2012-06-17T08:53:43.000Z</time>
      </trkpt>
      <trkpt lat="43.91605" lon="5.07367">
        <ele>65.199996948242</ele>
        <time>2012-06-17T08:53:46.000Z</time>
      </trkpt>
      <trkpt lat="43.91599" lon="5.07371">
        <ele>65.199996948242</ele>
        <time>2012-06-17T08:53:51.000Z</time>
      </trkpt>
      <trkpt lat="43.91596" lon="5.07375">
        <ele>65.400001525879</ele>
        <time>2012-06-17T08:53:54.000Z</time>
      </trkpt>
      <trkpt lat="43.91594" lon="5.07378">
        <ele>65.599998474121</ele>
        <time>2012-06-17T08:53:58.000Z</time>
      </trkpt>
      <trkpt lat="43.91592" lon="5.07379">
        <ele>65.599998474121</ele>
        <time>2012-06-17T08:54:00.000Z</time>
      </trkpt>
      <trkpt lat="43.91591" lon="5.07379">
        <ele>65.599998474121</ele>
        <time>2012-06-17T08:54:01.000Z</time>
      </trkpt>
      <trkpt lat="43.9159" lon="5.07381">
        <ele>65.599998474121</ele>
        <time>2012-06-17T08:54:04.000Z</time>
      </trkpt>
      <trkpt lat="43.91589" lon="5.07381">
        <ele>65.599998474121</ele>
        <time>2012-06-17T08:54:06.000Z</time>
      </trkpt>
      <trkpt lat="43.91594" lon="5.07377">
        <ele>65.400001525879</ele>
        <time>2012-06-17T08:54:21.000Z</time>
      </trkpt>
      <trkpt lat="43.916" lon="5.07367">
        <ele>65.199996948242</ele>
        <time>2012-06-17T08:54:29.000Z</time>
      </trkpt>
      <trkpt lat="43.91602" lon="5.07365">
        <ele>65.199996948242</ele>
        <time>2012-06-17T08:54:36.000Z</time>
      </trkpt>
      <trkpt lat="43.91608" lon="5.07358">
        <ele>65</ele>
        <time>2012-06-17T08:54:44.000Z</time>
      </trkpt>
      <trkpt lat="43.91611" lon="5.07354">
        <ele>64.800003051758</ele>
        <time>2012-06-17T08:54:48.000Z</time>
      </trkpt>
      <trkpt lat="43.91611" lon="5.0735">
        <ele>64.800003051758</ele>
        <time>2012-06-17T08:54:51.000Z</time>
      </trkpt>
      <trkpt lat="43.91616" lon="5.07349">
        <ele>64.800003051758</ele>
        <time>2012-06-17T08:55:05.000Z</time>
      </trkpt>
      <trkpt lat="43.91619" lon="5.07348">
        <ele>64.800003051758</ele>
        <time>2012-06-17T08:55:14.000Z</time>
      </trkpt>
      <trkpt lat="43.91618" lon="5.07349">
        <ele>64.800003051758</ele>
        <time>2012-06-17T08:55:21.000Z</time>
      </trkpt>
      <trkpt lat="43.91617" lon="5.07349">
        <ele>64.800003051758</ele>
        <time>2012-06-17T08:55:27.000Z</time>
      </trkpt>
      <trkpt lat="43.91614" lon="5.07345">
        <ele>64.599998474121</ele>
        <time>2012-06-17T08:55:50.000Z</time>
      </trkpt>
      <trkpt lat="43.91613" lon="5.0734">
        <ele>64.599998474121</ele>
        <time>2012-06-17T08:55:57.000Z</time>
      </trkpt>
      <trkpt lat="43.91612" lon="5.07333">
        <ele>64.400001525879</ele>
        <time>2012-06-17T08:56:05.000Z</time>
      </trkpt>
      <trkpt lat="43.91611" lon="5.07329">
        <ele>64.199996948242</ele>
        <time>2012-06-17T08:56:17.000Z</time>
      </trkpt>
      <trkpt lat="43.91612" lon="5.07321">
        <ele>64.199996948242</ele>
        <time>2012-06-17T08:56:22.000Z</time>
      </trkpt>
      <trkpt lat="43.91613" lon="5.07311">
        <ele>64</ele>
        <time>2012-06-17T08:56:28.000Z</time>
      </trkpt>
      <trkpt lat="43.91613" lon="5.07309">
        <ele>64</ele>
        <time>2012-06-17T08:56:29.000Z</time>
      </trkpt>
      <trkpt lat="43.91613" lon="5.07301">
        <ele>63.799999237061</ele>
        <time>2012-06-17T08:56:34.000Z</time>
      </trkpt>
      <trkpt lat="43.91609" lon="5.07292">
        <ele>63.599998474121</ele>
        <time>2012-06-17T08:56:40.000Z</time>
      </trkpt>
      <trkpt lat="43.91605" lon="5.07279">
        <ele>63.400001525879</ele>
        <time>2012-06-17T08:56:47.000Z</time>
      </trkpt>
      <trkpt lat="43.91599" lon="5.07272">
        <ele>63.400001525879</ele>
        <time>2012-06-17T08:56:52.000Z</time>
      </trkpt>
      <trkpt lat="43.91596" lon="5.07269">
        <ele>63.200000762939</ele>
        <time>2012-06-17T08:56:54.000Z</time>
      </trkpt>
      <trkpt lat="43.91582" lon="5.07258">
        <ele>63</ele>
        <time>2012-06-17T08:57:01.000Z</time>
      </trkpt>
      <trkpt lat="43.91572" lon="5.07252">
        <ele>62.799999237061</ele>
        <time>2012-06-17T08:57:07.000Z</time>
      </trkpt>
      <trkpt lat="43.91563" lon="5.07246">
        <ele>62.799999237061</ele>
        <time>2012-06-17T08:57:13.000Z</time>
      </trkpt>
      <trkpt lat="43.91549" lon="5.07237">
        <ele>62.599998474121</ele>
        <time>2012-06-17T08:57:20.000Z</time>
      </trkpt>
      <trkpt lat="43.91536" lon="5.07227">
        <ele>62.599998474121</ele>
        <time>2012-06-17T08:57:26.000Z</time>
      </trkpt>
      <trkpt lat="43.91518" lon="5.07213">
        <ele>62.599998474121</ele>
        <time>2012-06-17T08:57:34.000Z</time>
      </trkpt>
      <trkpt lat="43.91513" lon="5.07209">
        <ele>62.599998474121</ele>
        <time>2012-06-17T08:57:38.000Z</time>
      </trkpt>
      <trkpt lat="43.91501" lon="5.07197">
        <ele>62.599998474121</ele>
        <time>2012-06-17T08:57:47.000Z</time>
      </trkpt>
      <trkpt lat="43.9149" lon="5.07185">
        <ele>62.799999237061</ele>
        <time>2012-06-17T08:57:56.000Z</time>
      </trkpt>
      <trkpt lat="43.91479" lon="5.07177">
        <ele>62.799999237061</ele>
        <time>2012-06-17T08:58:04.000Z</time>
      </trkpt>
      <trkpt lat="43.91468" lon="5.07168">
        <ele>62.599998474121</ele>
        <time>2012-06-17T08:58:12.000Z</time>
      </trkpt>
      <trkpt lat="43.91456" lon="5.07164">
        <ele>62.400001525879</ele>
        <time>2012-06-17T08:58:20.000Z</time>
      </trkpt>
      <trkpt lat="43.91445" lon="5.07164">
        <ele>62.400001525879</ele>
        <time>2012-06-17T08:58:26.000Z</time>
      </trkpt>
      <trkpt lat="43.91437" lon="5.07167">
        <ele>62.200000762939</ele>
        <time>2012-06-17T08:58:31.000Z</time>
      </trkpt>
      <trkpt lat="43.91425" lon="5.07168">
        <ele>62.200000762939</ele>
        <time>2012-06-17T08:58:39.000Z</time>
      </trkpt>
      <trkpt lat="43.91414" lon="5.0717">
        <ele>62</ele>
        <time>2012-06-17T08:58:46.000Z</time>
      </trkpt>
      <trkpt lat="43.91401" lon="5.07173">
        <ele>62.200000762939</ele>
        <time>2012-06-17T08:58:53.000Z</time>
      </trkpt>
      <trkpt lat="43.91389" lon="5.07185">
        <ele>62.400001525879</ele>
        <time>2012-06-17T08:58:58.000Z</time>
      </trkpt>
      <trkpt lat="43.91375" lon="5.07202">
        <ele>62.799999237061</ele>
        <time>2012-06-17T08:59:05.000Z</time>
      </trkpt>
      <trkpt lat="43.91366" lon="5.07228">
        <ele>63.400001525879</ele>
        <time>2012-06-17T08:59:12.000Z</time>
      </trkpt>
      <trkpt lat="43.91359" lon="5.07254">
        <ele>64</ele>
        <time>2012-06-17T08:59:19.000Z</time>
      </trkpt>
      <trkpt lat="43.91355" lon="5.07265">
        <ele>64</ele>
        <time>2012-06-17T08:59:22.000Z</time>
      </trkpt>
      <trkpt lat="43.91345" lon="5.07279">
        <ele>64</ele>
        <time>2012-06-17T08:59:27.000Z</time>
      </trkpt>
      <trkpt lat="43.9133" lon="5.07294">
        <ele>64</ele>
        <time>2012-06-17T08:59:34.000Z</time>
      </trkpt>
      <trkpt lat="43.91327" lon="5.07296">
        <ele>64</ele>
        <time>2012-06-17T08:59:35.000Z</time>
      </trkpt>
      <trkpt lat="43.9132" lon="5.07304">
        <ele>64</ele>
        <time>2012-06-17T08:59:40.000Z</time>
      </trkpt>
      <trkpt lat="43.91312" lon="5.07314">
        <ele>64</ele>
        <time>2012-06-17T08:59:46.000Z</time>
      </trkpt>
      <trkpt lat="43.91304" lon="5.07323">
        <ele>64</ele>
        <time>2012-06-17T08:59:54.000Z</time>
      </trkpt>
      <trkpt lat="43.91302" lon="5.07326">
        <ele>64</ele>
        <time>2012-06-17T08:59:58.000Z</time>
      </trkpt>
      <trkpt lat="43.91297" lon="5.07336">
        <ele>64</ele>
        <time>2012-06-17T09:00:04.000Z</time>
      </trkpt>
      <trkpt lat="43.91291" lon="5.07352">
        <ele>64.400001525879</ele>
        <time>2012-06-17T09:00:13.000Z</time>
      </trkpt>
      <trkpt lat="43.91289" lon="5.07352">
        <ele>64.400001525879</ele>
        <time>2012-06-17T09:00:14.000Z</time>
      </trkpt>
      <trkpt lat="43.91287" lon="5.07353">
        <ele>64.400001525879</ele>
        <time>2012-06-17T09:00:17.000Z</time>
      </trkpt>
      <trkpt lat="43.91285" lon="5.07352">
        <ele>64.400001525879</ele>
        <time>2012-06-17T09:00:18.000Z</time>
      </trkpt>
      <trkpt lat="43.9128" lon="5.07346">
        <ele>64.199996948242</ele>
        <time>2012-06-17T09:00:21.000Z</time>
      </trkpt>
      <trkpt lat="43.91277" lon="5.07342">
        <ele>64.199996948242</ele>
        <time>2012-06-17T09:00:23.000Z</time>
      </trkpt>
      <trkpt lat="43.91269" lon="5.07335">
        <ele>64</ele>
        <time>2012-06-17T09:00:30.000Z</time>
      </trkpt>
      <trkpt lat="43.91262" lon="5.07335">
        <ele>64</ele>
        <time>2012-06-17T09:00:37.000Z</time>
      </trkpt>
      <trkpt lat="43.9126" lon="5.07336">
        <ele>64</ele>
        <time>2012-06-17T09:01:12.000Z</time>
      </trkpt>
      <trkpt lat="43.9126" lon="5.07335">
        <ele>64</ele>
        <time>2012-06-17T09:01:27.000Z</time>
      </trkpt>
      <trkpt lat="43.9126" lon="5.07336">
        <ele>64</ele>
        <time>2012-06-17T09:01:33.000Z</time>
      </trkpt>
      <trkpt lat="43.91264" lon="5.07341">
        <ele>64.199996948242</ele>
        <time>2012-06-17T09:01:38.000Z</time>
      </trkpt>
      <trkpt lat="43.91277" lon="5.07349">
        <ele>64.199996948242</ele>
        <time>2012-06-17T09:01:44.000Z</time>
      </trkpt>
      <trkpt lat="43.91287" lon="5.07355">
        <ele>64.400001525879</ele>
        <time>2012-06-17T09:01:50.000Z</time>
      </trkpt>
      <trkpt lat="43.91284" lon="5.07364">
        <ele>64.599998474121</ele>
        <time>2012-06-17T09:01:54.000Z</time>
      </trkpt>
      <trkpt lat="43.91278" lon="5.07377">
        <ele>64.599998474121</ele>
        <time>2012-06-17T09:02:01.000Z</time>
      </trkpt>
      <trkpt lat="43.91277" lon="5.07378">
        <ele>64.800003051758</ele>
        <time>2012-06-17T09:02:02.000Z</time>
      </trkpt>
      <trkpt lat="43.91274" lon="5.07379">
        <ele>64.800003051758</ele>
        <time>2012-06-17T09:02:04.000Z</time>
      </trkpt>
      <trkpt lat="43.91269" lon="5.07378">
        <ele>64.599998474121</ele>
        <time>2012-06-17T09:02:06.000Z</time>
      </trkpt>
      <trkpt lat="43.91262" lon="5.07363">
        <ele>64.400001525879</ele>
        <time>2012-06-17T09:02:11.000Z</time>
      </trkpt>
      <trkpt lat="43.91261" lon="5.07359">
        <ele>64.400001525879</ele>
        <time>2012-06-17T09:02:12.000Z</time>
      </trkpt>
      <trkpt lat="43.91254" lon="5.07332">
        <ele>64</ele>
        <time>2012-06-17T09:02:18.000Z</time>
      </trkpt>
      <trkpt lat="43.91247" lon="5.07303">
        <ele>63.799999237061</ele>
        <time>2012-06-17T09:02:23.000Z</time>
      </trkpt>
      <trkpt lat="43.91244" lon="5.07291">
        <ele>63.799999237061</ele>
        <time>2012-06-17T09:02:25.000Z</time>
      </trkpt>
      <trkpt lat="43.91236" lon="5.07264">
        <ele>63.400001525879</ele>
        <time>2012-06-17T09:02:29.000Z</time>
      </trkpt>
      <trkpt lat="43.91227" lon="5.07236">
        <ele>63.200000762939</ele>
        <time>2012-06-17T09:02:33.000Z</time>
      </trkpt>
      <trkpt lat="43.9122" lon="5.0721">
        <ele>62.799999237061</ele>
        <time>2012-06-17T09:02:37.000Z</time>
      </trkpt>
      <trkpt lat="43.91215" lon="5.0719">
        <ele>62.599998474121</ele>
        <time>2012-06-17T09:02:40.000Z</time>
      </trkpt>
      <trkpt lat="43.91212" lon="5.07176">
        <ele>62.599998474121</ele>
        <time>2012-06-17T09:02:42.000Z</time>
      </trkpt>
      <trkpt lat="43.9121" lon="5.07152">
        <ele>62.400001525879</ele>
        <time>2012-06-17T09:02:45.000Z</time>
      </trkpt>
      <trkpt lat="43.9121" lon="5.07127">
        <ele>62</ele>
        <time>2012-06-17T09:02:48.000Z</time>
      </trkpt>
      <trkpt lat="43.91209" lon="5.07102">
        <ele>61.799999237061</ele>
        <time>2012-06-17T09:02:51.000Z</time>
      </trkpt>
      <trkpt lat="43.91209" lon="5.07085">
        <ele>61.599998474121</ele>
        <time>2012-06-17T09:02:53.000Z</time>
      </trkpt>
      <trkpt lat="43.91208" lon="5.0706">
        <ele>61.799999237061</ele>
        <time>2012-06-17T09:02:56.000Z</time>
      </trkpt>
      <trkpt lat="43.91209" lon="5.07033">
        <ele>62</ele>
        <time>2012-06-17T09:02:59.000Z</time>
      </trkpt>
      <trkpt lat="43.9121" lon="5.07006">
        <ele>62.400001525879</ele>
        <time>2012-06-17T09:03:02.000Z</time>
      </trkpt>
      <trkpt lat="43.9121" lon="5.0698">
        <ele>63</ele>
        <time>2012-06-17T09:03:05.000Z</time>
      </trkpt>
      <trkpt lat="43.9121" lon="5.06972">
        <ele>63.200000762939</ele>
        <time>2012-06-17T09:03:06.000Z</time>
      </trkpt>
      <trkpt lat="43.91209" lon="5.0694">
        <ele>64</ele>
        <time>2012-06-17T09:03:10.000Z</time>
      </trkpt>
      <trkpt lat="43.91208" lon="5.06926">
        <ele>64.199996948242</ele>
        <time>2012-06-17T09:03:12.000Z</time>
      </trkpt>
      <trkpt lat="43.91207" lon="5.069">
        <ele>64.199996948242</ele>
        <time>2012-06-17T09:03:16.000Z</time>
      </trkpt>
      <trkpt lat="43.91206" lon="5.06893">
        <ele>64.199996948242</ele>
        <time>2012-06-17T09:03:17.000Z</time>
      </trkpt>
      <trkpt lat="43.91203" lon="5.0688">
        <ele>63.799999237061</ele>
        <time>2012-06-17T09:03:19.000Z</time>
      </trkpt>
      <trkpt lat="43.91198" lon="5.06851">
        <ele>63.400001525879</ele>
        <time>2012-06-17T09:03:23.000Z</time>
      </trkpt>
      <trkpt lat="43.91195" lon="5.06822">
        <ele>62.599998474121</ele>
        <time>2012-06-17T09:03:27.000Z</time>
      </trkpt>
      <trkpt lat="43.91194" lon="5.06816">
        <ele>62.400001525879</ele>
        <time>2012-06-17T09:03:28.000Z</time>
      </trkpt>
      <trkpt lat="43.91192" lon="5.06799">
        <ele>61.799999237061</ele>
        <time>2012-06-17T09:03:31.000Z</time>
      </trkpt>
      <trkpt lat="43.91181" lon="5.06795">
        <ele>61.599998474121</ele>
        <time>2012-06-17T09:03:34.000Z</time>
      </trkpt>
      <trkpt lat="43.91168" lon="5.068">
        <ele>61.799999237061</ele>
        <time>2012-06-17T09:03:37.000Z</time>
      </trkpt>
      <trkpt lat="43.91158" lon="5.06805">
        <ele>61.799999237061</ele>
        <time>2012-06-17T09:03:39.000Z</time>
      </trkpt>
      <trkpt lat="43.91137" lon="5.06814">
        <ele>61.799999237061</ele>
        <time>2012-06-17T09:03:43.000Z</time>
      </trkpt>
      <trkpt lat="43.91126" lon="5.06819">
        <ele>61.799999237061</ele>
        <time>2012-06-17T09:03:45.000Z</time>
      </trkpt>
      <trkpt lat="43.91108" lon="5.06825">
        <ele>61.599998474121</ele>
        <time>2012-06-17T09:03:48.000Z</time>
      </trkpt>
      <trkpt lat="43.9109" lon="5.06832">
        <ele>61.200000762939</ele>
        <time>2012-06-17T09:03:51.000Z</time>
      </trkpt>
      <trkpt lat="43.91079" lon="5.06837">
        <ele>61.200000762939</ele>
        <time>2012-06-17T09:03:53.000Z</time>
      </trkpt>
      <trkpt lat="43.91061" lon="5.06843">
        <ele>61.599998474121</ele>
        <time>2012-06-17T09:03:56.000Z</time>
      </trkpt>
      <trkpt lat="43.91043" lon="5.06848">
        <ele>62.200000762939</ele>
        <time>2012-06-17T09:03:59.000Z</time>
      </trkpt>
      <trkpt lat="43.91032" lon="5.06853">
        <ele>62.400001525879</ele>
        <time>2012-06-17T09:04:01.000Z</time>
      </trkpt>
      <trkpt lat="43.91009" lon="5.0686">
        <ele>63.200000762939</ele>
        <time>2012-06-17T09:04:05.000Z</time>
      </trkpt>
      <trkpt lat="43.90993" lon="5.06866">
        <ele>63.400001525879</ele>
        <time>2012-06-17T09:04:08.000Z</time>
      </trkpt>
      <trkpt lat="43.90973" lon="5.06873">
        <ele>63.799999237061</ele>
        <time>2012-06-17T09:04:12.000Z</time>
      </trkpt>
      <trkpt lat="43.90953" lon="5.0688">
        <ele>64.199996948242</ele>
        <time>2012-06-17T09:04:16.000Z</time>
      </trkpt>
      <trkpt lat="43.90933" lon="5.06887">
        <ele>64.599998474121</ele>
        <time>2012-06-17T09:04:20.000Z</time>
      </trkpt>
      <trkpt lat="43.90918" lon="5.06893">
        <ele>65.199996948242</ele>
        <time>2012-06-17T09:04:23.000Z</time>
      </trkpt>
      <trkpt lat="43.90899" lon="5.069">
        <ele>66.800003051758</ele>
        <time>2012-06-17T09:04:27.000Z</time>
      </trkpt>
      <trkpt lat="43.90883" lon="5.06906">
        <ele>68.400001525879</ele>
        <time>2012-06-17T09:04:31.000Z</time>
      </trkpt>
      <trkpt lat="43.90876" lon="5.06909">
        <ele>69</ele>
        <time>2012-06-17T09:04:33.000Z</time>
      </trkpt>
      <trkpt lat="43.90873" lon="5.06915">
        <ele>69.599998474121</ele>
        <time>2012-06-17T09:04:36.000Z</time>
      </trkpt>
      <trkpt lat="43.90876" lon="5.06926">
        <ele>69.400001525879</ele>
        <time>2012-06-17T09:04:40.000Z</time>
      </trkpt>
      <trkpt lat="43.90877" lon="5.0693">
        <ele>69.199996948242</ele>
        <time>2012-06-17T09:04:41.000Z</time>
      </trkpt>
      <trkpt lat="43.90885" lon="5.06955">
        <ele>68.400001525879</ele>
        <time>2012-06-17T09:04:48.000Z</time>
      </trkpt>
      <trkpt lat="43.90886" lon="5.06957">
        <ele>68.400001525879</ele>
        <time>2012-06-17T09:04:49.000Z</time>
      </trkpt>
      <trkpt lat="43.90888" lon="5.0696">
        <ele>68.199996948242</ele>
        <time>2012-06-17T09:04:53.000Z</time>
      </trkpt>
      <trkpt lat="43.90891" lon="5.06963">
        <ele>68</ele>
        <time>2012-06-17T09:05:06.000Z</time>
      </trkpt>
      <trkpt lat="43.90889" lon="5.06961">
        <ele>68.199996948242</ele>
        <time>2012-06-17T09:05:13.000Z</time>
      </trkpt>
      <trkpt lat="43.90889" lon="5.06962">
        <ele>68.199996948242</ele>
        <time>2012-06-17T09:05:23.000Z</time>
      </trkpt>
      <trkpt lat="43.9089" lon="5.06971">
        <ele>68</ele>
        <time>2012-06-17T09:05:29.000Z</time>
      </trkpt>
      <trkpt lat="43.90888" lon="5.06973">
        <ele>68.199996948242</ele>
        <time>2012-06-17T09:05:30.000Z</time>
      </trkpt>
      <trkpt lat="43.90885" lon="5.06979">
        <ele>68.400001525879</ele>
        <time>2012-06-17T09:05:33.000Z</time>
      </trkpt>
      <trkpt lat="43.90875" lon="5.06994">
        <ele>69</ele>
        <time>2012-06-17T09:05:38.000Z</time>
      </trkpt>
      <trkpt lat="43.90864" lon="5.07017">
        <ele>69.199996948242</ele>
        <time>2012-06-17T09:05:44.000Z</time>
      </trkpt>
      <trkpt lat="43.90862" lon="5.07022">
        <ele>69.199996948242</ele>
        <time>2012-06-17T09:05:45.000Z</time>
      </trkpt>
      <trkpt lat="43.90851" lon="5.07049">
        <ele>69</ele>
        <time>2012-06-17T09:05:50.000Z</time>
      </trkpt>
      <trkpt lat="43.90845" lon="5.07061">
        <ele>69</ele>
        <time>2012-06-17T09:05:52.000Z</time>
      </trkpt>
      <trkpt lat="43.90841" lon="5.07066">
        <ele>69.199996948242</ele>
        <time>2012-06-17T09:05:53.000Z</time>
      </trkpt>
      <trkpt lat="43.90827" lon="5.07086">
        <ele>69.599998474121</ele>
        <time>2012-06-17T09:05:57.000Z</time>
      </trkpt>
      <trkpt lat="43.90824" lon="5.07089">
        <ele>69.599998474121</ele>
        <time>2012-06-17T09:05:58.000Z</time>
      </trkpt>
      <trkpt lat="43.90819" lon="5.07096">
        <ele>69.800003051758</ele>
        <time>2012-06-17T09:06:00.000Z</time>
      </trkpt>
      <trkpt lat="43.90814" lon="5.07105">
        <ele>70</ele>
        <time>2012-06-17T09:06:02.000Z</time>
      </trkpt>
      <trkpt lat="43.90802" lon="5.07124">
        <ele>70</ele>
        <time>2012-06-17T09:06:06.000Z</time>
      </trkpt>
      <trkpt lat="43.9079" lon="5.07138">
        <ele>70.199996948242</ele>
        <time>2012-06-17T09:06:09.000Z</time>
      </trkpt>
      <trkpt lat="43.90775" lon="5.07158">
        <ele>70.199996948242</ele>
        <time>2012-06-17T09:06:13.000Z</time>
      </trkpt>
      <trkpt lat="43.90758" lon="5.07175">
        <ele>70.400001525879</ele>
        <time>2012-06-17T09:06:17.000Z</time>
      </trkpt>
      <trkpt lat="43.90743" lon="5.07188">
        <ele>70.400001525879</ele>
        <time>2012-06-17T09:06:21.000Z</time>
      </trkpt>
      <trkpt lat="43.90732" lon="5.07196">
        <ele>70.400001525879</ele>
        <time>2012-06-17T09:06:24.000Z</time>
      </trkpt>
      <trkpt lat="43.90715" lon="5.07209">
        <ele>70</ele>
        <time>2012-06-17T09:06:29.000Z</time>
      </trkpt>
      <trkpt lat="43.90712" lon="5.07218">
        <ele>69.599998474121</ele>
        <time>2012-06-17T09:06:31.000Z</time>
      </trkpt>
      <trkpt lat="43.90717" lon="5.07235">
        <ele>68.800003051758</ele>
        <time>2012-06-17T09:06:34.000Z</time>
      </trkpt>
      <trkpt lat="43.90719" lon="5.07241">
        <ele>68.400001525879</ele>
        <time>2012-06-17T09:06:35.000Z</time>
      </trkpt>
      <trkpt lat="43.90725" lon="5.07266">
        <ele>68</ele>
        <time>2012-06-17T09:06:39.000Z</time>
      </trkpt>
      <trkpt lat="43.90728" lon="5.07279">
        <ele>67.800003051758</ele>
        <time>2012-06-17T09:06:41.000Z</time>
      </trkpt>
      <trkpt lat="43.90734" lon="5.07303">
        <ele>67.599998474121</ele>
        <time>2012-06-17T09:06:45.000Z</time>
      </trkpt>
      <trkpt lat="43.90741" lon="5.07325">
        <ele>67.199996948242</ele>
        <time>2012-06-17T09:06:49.000Z</time>
      </trkpt>
      <trkpt lat="43.90746" lon="5.07352">
        <ele>68</ele>
        <time>2012-06-17T09:06:54.000Z</time>
      </trkpt>
      <trkpt lat="43.90748" lon="5.07357">
        <ele>68.199996948242</ele>
        <time>2012-06-17T09:06:55.000Z</time>
      </trkpt>
      <trkpt lat="43.90749" lon="5.07362">
        <ele>68.400001525879</ele>
        <time>2012-06-17T09:06:56.000Z</time>
      </trkpt>
      <trkpt lat="43.90748" lon="5.07377">
        <ele>69.199996948242</ele>
        <time>2012-06-17T09:06:59.000Z</time>
      </trkpt>
      <trkpt lat="43.90738" lon="5.07393">
        <ele>70.199996948242</ele>
        <time>2012-06-17T09:07:03.000Z</time>
      </trkpt>
      <trkpt lat="43.90718" lon="5.07403">
        <ele>71</ele>
        <time>2012-06-17T09:07:08.000Z</time>
      </trkpt>
      <trkpt lat="43.90714" lon="5.07404">
        <ele>71.199996948242</ele>
        <time>2012-06-17T09:07:09.000Z</time>
      </trkpt>
      <trkpt lat="43.90702" lon="5.07407">
        <ele>71.599998474121</ele>
        <time>2012-06-17T09:07:12.000Z</time>
      </trkpt>
      <trkpt lat="43.90693" lon="5.07414">
        <ele>72.199996948242</ele>
        <time>2012-06-17T09:07:15.000Z</time>
      </trkpt>
      <trkpt lat="43.90691" lon="5.07423">
        <ele>72.800003051758</ele>
        <time>2012-06-17T09:07:17.000Z</time>
      </trkpt>
      <trkpt lat="43.90688" lon="5.07426">
        <ele>73.199996948242</ele>
        <time>2012-06-17T09:07:18.000Z</time>
      </trkpt>
      <trkpt lat="43.90685" lon="5.07428">
        <ele>73.400001525879</ele>
        <time>2012-06-17T09:07:19.000Z</time>
      </trkpt>
      <trkpt lat="43.90676" lon="5.07431">
        <ele>73.800003051758</ele>
        <time>2012-06-17T09:07:22.000Z</time>
      </trkpt>
      <trkpt lat="43.90669" lon="5.07432">
        <ele>74</ele>
        <time>2012-06-17T09:07:24.000Z</time>
      </trkpt>
      <trkpt lat="43.90651" lon="5.07438">
        <ele>74.199996948242</ele>
        <time>2012-06-17T09:07:29.000Z</time>
      </trkpt>
      <trkpt lat="43.90648" lon="5.0744">
        <ele>74.199996948242</ele>
        <time>2012-06-17T09:07:30.000Z</time>
      </trkpt>
      <trkpt lat="43.90645" lon="5.07442">
        <ele>74.400001525879</ele>
        <time>2012-06-17T09:07:31.000Z</time>
      </trkpt>
      <trkpt lat="43.90637" lon="5.07449">
        <ele>74.800003051758</ele>
        <time>2012-06-17T09:07:36.000Z</time>
      </trkpt>
      <trkpt lat="43.90625" lon="5.07452">
        <ele>74.800003051758</ele>
        <time>2012-06-17T09:07:41.000Z</time>
      </trkpt>
      <trkpt lat="43.90608" lon="5.07457">
        <ele>75.199996948242</ele>
        <time>2012-06-17T09:07:48.000Z</time>
      </trkpt>
      <trkpt lat="43.9059" lon="5.07463">
        <ele>75.599998474121</ele>
        <time>2012-06-17T09:07:55.000Z</time>
      </trkpt>
      <trkpt lat="43.90572" lon="5.07466">
        <ele>75.599998474121</ele>
        <time>2012-06-17T09:08:01.000Z</time>
      </trkpt>
      <trkpt lat="43.90555" lon="5.0747">
        <ele>75.400001525879</ele>
        <time>2012-06-17T09:08:07.000Z</time>
      </trkpt>
      <trkpt lat="43.90535" lon="5.07477">
        <ele>75.400001525879</ele>
        <time>2012-06-17T09:08:13.000Z</time>
      </trkpt>
      <trkpt lat="43.90528" lon="5.07479">
        <ele>75.400001525879</ele>
        <time>2012-06-17T09:08:15.000Z</time>
      </trkpt>
      <trkpt lat="43.90508" lon="5.07486">
        <ele>75.199996948242</ele>
        <time>2012-06-17T09:08:20.000Z</time>
      </trkpt>
      <trkpt lat="43.905" lon="5.07489">
        <ele>75</ele>
        <time>2012-06-17T09:08:22.000Z</time>
      </trkpt>
      <trkpt lat="43.90481" lon="5.07495">
        <ele>75.599998474121</ele>
        <time>2012-06-17T09:08:27.000Z</time>
      </trkpt>
      <trkpt lat="43.90477" lon="5.07496">
        <ele>75.800003051758</ele>
        <time>2012-06-17T09:08:28.000Z</time>
      </trkpt>
      <trkpt lat="43.90473" lon="5.07497">
        <ele>75.800003051758</ele>
        <time>2012-06-17T09:08:29.000Z</time>
      </trkpt>
      <trkpt lat="43.90454" lon="5.07499">
        <ele>76</ele>
        <time>2012-06-17T09:08:34.000Z</time>
      </trkpt>
      <trkpt lat="43.9045" lon="5.07499">
        <ele>76</ele>
        <time>2012-06-17T09:08:35.000Z</time>
      </trkpt>
      <trkpt lat="43.90431" lon="5.07501">
        <ele>76.199996948242</ele>
        <time>2012-06-17T09:08:40.000Z</time>
      </trkpt>
      <trkpt lat="43.90418" lon="5.07502">
        <ele>76.199996948242</ele>
        <time>2012-06-17T09:08:43.000Z</time>
      </trkpt>
      <trkpt lat="43.904" lon="5.07505">
        <ele>76</ele>
        <time>2012-06-17T09:08:47.000Z</time>
      </trkpt>
      <trkpt lat="43.9039" lon="5.07507">
        <ele>75.800003051758</ele>
        <time>2012-06-17T09:08:49.000Z</time>
      </trkpt>
      <trkpt lat="43.90368" lon="5.07511">
        <ele>75.599998474121</ele>
        <time>2012-06-17T09:08:53.000Z</time>
      </trkpt>
      <trkpt lat="43.90352" lon="5.07515">
        <ele>75.400001525879</ele>
        <time>2012-06-17T09:08:56.000Z</time>
      </trkpt>
      <trkpt lat="43.90329" lon="5.07521">
        <ele>75.199996948242</ele>
        <time>2012-06-17T09:09:00.000Z</time>
      </trkpt>
      <trkpt lat="43.90305" lon="5.07528">
        <ele>75.199996948242</ele>
        <time>2012-06-17T09:09:04.000Z</time>
      </trkpt>
      <trkpt lat="43.90299" lon="5.0753">
        <ele>75.199996948242</ele>
        <time>2012-06-17T09:09:05.000Z</time>
      </trkpt>
      <trkpt lat="43.90283" lon="5.07539">
        <ele>75.400001525879</ele>
        <time>2012-06-17T09:09:08.000Z</time>
      </trkpt>
      <trkpt lat="43.90267" lon="5.07552">
        <ele>75.599998474121</ele>
        <time>2012-06-17T09:09:11.000Z</time>
      </trkpt>
      <trkpt lat="43.90248" lon="5.07571">
        <ele>76</ele>
        <time>2012-06-17T09:09:15.000Z</time>
      </trkpt>
      <trkpt lat="43.90235" lon="5.07585">
        <ele>76.400001525879</ele>
        <time>2012-06-17T09:09:18.000Z</time>
      </trkpt>
      <trkpt lat="43.90219" lon="5.07603">
        <ele>76.400001525879</ele>
        <time>2012-06-17T09:09:22.000Z</time>
      </trkpt>
      <trkpt lat="43.90204" lon="5.07622">
        <ele>76.400001525879</ele>
        <time>2012-06-17T09:09:26.000Z</time>
      </trkpt>
      <trkpt lat="43.9019" lon="5.07639">
        <ele>76</ele>
        <time>2012-06-17T09:09:30.000Z</time>
      </trkpt>
      <trkpt lat="43.9018" lon="5.07648">
        <ele>75.599998474121</ele>
        <time>2012-06-17T09:09:33.000Z</time>
      </trkpt>
      <trkpt lat="43.9017" lon="5.07654">
        <ele>75</ele>
        <time>2012-06-17T09:09:36.000Z</time>
      </trkpt>
      <trkpt lat="43.9016" lon="5.07657">
        <ele>74.800003051758</ele>
        <time>2012-06-17T09:09:39.000Z</time>
      </trkpt>
      <trkpt lat="43.90139" lon="5.07661">
        <ele>74.599998474121</ele>
        <time>2012-06-17T09:09:44.000Z</time>
      </trkpt>
      <trkpt lat="43.90131" lon="5.07663">
        <ele>74.400001525879</ele>
        <time>2012-06-17T09:09:46.000Z</time>
      </trkpt>
      <trkpt lat="43.90122" lon="5.07666">
        <ele>74.400001525879</ele>
        <time>2012-06-17T09:09:50.000Z</time>
      </trkpt>
      <trkpt lat="43.90121" lon="5.07668">
        <ele>74.400001525879</ele>
        <time>2012-06-17T09:09:51.000Z</time>
      </trkpt>
      <trkpt lat="43.90115" lon="5.07669">
        <ele>74.400001525879</ele>
        <time>2012-06-17T09:09:56.000Z</time>
      </trkpt>
      <trkpt lat="43.90114" lon="5.07669">
        <ele>74.400001525879</ele>
        <time>2012-06-17T09:09:57.000Z</time>
      </trkpt>
      <trkpt lat="43.90115" lon="5.07668">
        <ele>74.400001525879</ele>
        <time>2012-06-17T09:10:02.000Z</time>
      </trkpt>
      <trkpt lat="43.90112" lon="5.0767">
        <ele>74.400001525879</ele>
        <time>2012-06-17T09:10:12.000Z</time>
      </trkpt>
      <trkpt lat="43.90113" lon="5.07671">
        <ele>74.400001525879</ele>
        <time>2012-06-17T09:10:20.000Z</time>
      </trkpt>
      <trkpt lat="43.90116" lon="5.07669">
        <ele>74.400001525879</ele>
        <time>2012-06-17T09:10:22.000Z</time>
      </trkpt>
      <trkpt lat="43.90116" lon="5.07671">
        <ele>74.400001525879</ele>
        <time>2012-06-17T09:10:24.000Z</time>
      </trkpt>
      <trkpt lat="43.90115" lon="5.07668">
        <ele>74.400001525879</ele>
        <time>2012-06-17T09:10:34.000Z</time>
      </trkpt>
      <trkpt lat="43.90114" lon="5.07668">
        <ele>74.400001525879</ele>
        <time>2012-06-17T09:10:35.000Z</time>
      </trkpt>
      <trkpt lat="43.90107" lon="5.07675">
        <ele>74.400001525879</ele>
        <time>2012-06-17T09:10:45.000Z</time>
      </trkpt>
      <trkpt lat="43.90098" lon="5.07694">
        <ele>74.400001525879</ele>
        <time>2012-06-17T09:10:50.000Z</time>
      </trkpt>
      <trkpt lat="43.90092" lon="5.07721">
        <ele>74.400001525879</ele>
        <time>2012-06-17T09:10:56.000Z</time>
      </trkpt>
      <trkpt lat="43.90089" lon="5.07749">
        <ele>74.199996948242</ele>
        <time>2012-06-17T09:11:02.000Z</time>
      </trkpt>
      <trkpt lat="43.90086" lon="5.0778">
        <ele>74.199996948242</ele>
        <time>2012-06-17T09:11:07.000Z</time>
      </trkpt>
      <trkpt lat="43.90085" lon="5.07786">
        <ele>74</ele>
        <time>2012-06-17T09:11:08.000Z</time>
      </trkpt>
      <trkpt lat="43.90082" lon="5.07816">
        <ele>74</ele>
        <time>2012-06-17T09:11:13.000Z</time>
      </trkpt>
      <trkpt lat="43.90079" lon="5.07845">
        <ele>74</ele>
        <time>2012-06-17T09:11:18.000Z</time>
      </trkpt>
      <trkpt lat="43.90078" lon="5.07871">
        <ele>74.400001525879</ele>
        <time>2012-06-17T09:11:22.000Z</time>
      </trkpt>
      <trkpt lat="43.90079" lon="5.07893">
        <ele>74.599998474121</ele>
        <time>2012-06-17T09:11:25.000Z</time>
      </trkpt>
      <trkpt lat="43.9008" lon="5.07921">
        <ele>74.800003051758</ele>
        <time>2012-06-17T09:11:29.000Z</time>
      </trkpt>
      <trkpt lat="43.90083" lon="5.07949">
        <ele>74.199996948242</ele>
        <time>2012-06-17T09:11:33.000Z</time>
      </trkpt>
      <trkpt lat="43.90086" lon="5.07979">
        <ele>73.599998474121</ele>
        <time>2012-06-17T09:11:37.000Z</time>
      </trkpt>
      <trkpt lat="43.9009" lon="5.07999">
        <ele>73.400001525879</ele>
        <time>2012-06-17T09:11:40.000Z</time>
      </trkpt>
      <trkpt lat="43.90092" lon="5.08003">
        <ele>73.400001525879</ele>
        <time>2012-06-17T09:11:41.000Z</time>
      </trkpt>
      <trkpt lat="43.90096" lon="5.08021">
        <ele>73.400001525879</ele>
        <time>2012-06-17T09:11:44.000Z</time>
      </trkpt>
      <trkpt lat="43.90098" lon="5.08027">
        <ele>73.400001525879</ele>
        <time>2012-06-17T09:11:45.000Z</time>
      </trkpt>
      <trkpt lat="43.90106" lon="5.08048">
        <ele>73.199996948242</ele>
        <time>2012-06-17T09:11:49.000Z</time>
      </trkpt>
      <trkpt lat="43.90107" lon="5.08054">
        <ele>73</ele>
        <time>2012-06-17T09:11:50.000Z</time>
      </trkpt>
      <trkpt lat="43.90115" lon="5.08076">
        <ele>72.400001525879</ele>
        <time>2012-06-17T09:11:54.000Z</time>
      </trkpt>
      <trkpt lat="43.90125" lon="5.08103">
        <ele>71.400001525879</ele>
        <time>2012-06-17T09:11:58.000Z</time>
      </trkpt>
      <trkpt lat="43.9013" lon="5.08119">
        <ele>70.800003051758</ele>
        <time>2012-06-17T09:12:00.000Z</time>
      </trkpt>
      <trkpt lat="43.90139" lon="5.08142">
        <ele>69.800003051758</ele>
        <time>2012-06-17T09:12:03.000Z</time>
      </trkpt>
      <trkpt lat="43.9015" lon="5.08167">
        <ele>68.599998474121</ele>
        <time>2012-06-17T09:12:06.000Z</time>
      </trkpt>
      <trkpt lat="43.90154" lon="5.08175">
        <ele>68.400001525879</ele>
        <time>2012-06-17T09:12:07.000Z</time>
      </trkpt>
      <trkpt lat="43.90166" lon="5.08199">
        <ele>68.400001525879</ele>
        <time>2012-06-17T09:12:10.000Z</time>
      </trkpt>
      <trkpt lat="43.90178" lon="5.08224">
        <ele>68.599998474121</ele>
        <time>2012-06-17T09:12:13.000Z</time>
      </trkpt>
      <trkpt lat="43.90185" lon="5.08241">
        <ele>68.800003051758</ele>
        <time>2012-06-17T09:12:15.000Z</time>
      </trkpt>
      <trkpt lat="43.90195" lon="5.08263">
        <ele>68.800003051758</ele>
        <time>2012-06-17T09:12:18.000Z</time>
      </trkpt>
      <trkpt lat="43.902" lon="5.08274">
        <ele>68.599998474121</ele>
        <time>2012-06-17T09:12:20.000Z</time>
      </trkpt>
      <trkpt lat="43.90204" lon="5.083">
        <ele>68.599998474121</ele>
        <time>2012-06-17T09:12:24.000Z</time>
      </trkpt>
      <trkpt lat="43.90211" lon="5.08314">
        <ele>68.400001525879</ele>
        <time>2012-06-17T09:12:26.000Z</time>
      </trkpt>
      <trkpt lat="43.90221" lon="5.08336">
        <ele>68</ele>
        <time>2012-06-17T09:12:29.000Z</time>
      </trkpt>
      <trkpt lat="43.90231" lon="5.08358">
        <ele>68</ele>
        <time>2012-06-17T09:12:32.000Z</time>
      </trkpt>
      <trkpt lat="43.90242" lon="5.0838">
        <ele>67.800003051758</ele>
        <time>2012-06-17T09:12:35.000Z</time>
      </trkpt>
      <trkpt lat="43.90245" lon="5.08387">
        <ele>67.800003051758</ele>
        <time>2012-06-17T09:12:36.000Z</time>
      </trkpt>
      <trkpt lat="43.90255" lon="5.08408">
        <ele>67.800003051758</ele>
        <time>2012-06-17T09:12:39.000Z</time>
      </trkpt>
      <trkpt lat="43.90265" lon="5.0843">
        <ele>68</ele>
        <time>2012-06-17T09:12:42.000Z</time>
      </trkpt>
      <trkpt lat="43.90274" lon="5.08452">
        <ele>68.800003051758</ele>
        <time>2012-06-17T09:12:45.000Z</time>
      </trkpt>
      <trkpt lat="43.90281" lon="5.08475">
        <ele>69.400001525879</ele>
        <time>2012-06-17T09:12:48.000Z</time>
      </trkpt>
      <trkpt lat="43.90288" lon="5.08499">
        <ele>70.199996948242</ele>
        <time>2012-06-17T09:12:51.000Z</time>
      </trkpt>
      <trkpt lat="43.9029" lon="5.08506">
        <ele>70</ele>
        <time>2012-06-17T09:12:52.000Z</time>
      </trkpt>
      <trkpt lat="43.90298" lon="5.08536">
        <ele>69.800003051758</ele>
        <time>2012-06-17T09:12:56.000Z</time>
      </trkpt>
      <trkpt lat="43.90303" lon="5.08566">
        <ele>69.800003051758</ele>
        <time>2012-06-17T09:13:00.000Z</time>
      </trkpt>
      <trkpt lat="43.90303" lon="5.08573">
        <ele>69.800003051758</ele>
        <time>2012-06-17T09:13:01.000Z</time>
      </trkpt>
      <trkpt lat="43.90299" lon="5.08603">
        <ele>70</ele>
        <time>2012-06-17T09:13:05.000Z</time>
      </trkpt>
      <trkpt lat="43.90298" lon="5.08617">
        <ele>70</ele>
        <time>2012-06-17T09:13:07.000Z</time>
      </trkpt>
      <trkpt lat="43.903" lon="5.08638">
        <ele>69.800003051758</ele>
        <time>2012-06-17T09:13:10.000Z</time>
      </trkpt>
      <trkpt lat="43.903" lon="5.08645">
        <ele>69.599998474121</ele>
        <time>2012-06-17T09:13:11.000Z</time>
      </trkpt>
      <trkpt lat="43.90304" lon="5.08677">
        <ele>69.599998474121</ele>
        <time>2012-06-17T09:13:15.000Z</time>
      </trkpt>
      <trkpt lat="43.90307" lon="5.08693">
        <ele>69.599998474121</ele>
        <time>2012-06-17T09:13:17.000Z</time>
      </trkpt>
      <trkpt lat="43.90311" lon="5.08726">
        <ele>69.800003051758</ele>
        <time>2012-06-17T09:13:21.000Z</time>
      </trkpt>
      <trkpt lat="43.90314" lon="5.08751">
        <ele>70</ele>
        <time>2012-06-17T09:13:24.000Z</time>
      </trkpt>
      <trkpt lat="43.90315" lon="5.08759">
        <ele>70</ele>
        <time>2012-06-17T09:13:25.000Z</time>
      </trkpt>
      <trkpt lat="43.90318" lon="5.08784">
        <ele>70</ele>
        <time>2012-06-17T09:13:28.000Z</time>
      </trkpt>
      <trkpt lat="43.90321" lon="5.0881">
        <ele>70.199996948242</ele>
        <time>2012-06-17T09:13:31.000Z</time>
      </trkpt>
      <trkpt lat="43.90323" lon="5.08827">
        <ele>70.400001525879</ele>
        <time>2012-06-17T09:13:33.000Z</time>
      </trkpt>
      <trkpt lat="43.90324" lon="5.08854">
        <ele>70.400001525879</ele>
        <time>2012-06-17T09:13:36.000Z</time>
      </trkpt>
      <trkpt lat="43.90326" lon="5.0888">
        <ele>70.199996948242</ele>
        <time>2012-06-17T09:13:39.000Z</time>
      </trkpt>
      <trkpt lat="43.90329" lon="5.08907">
        <ele>70.199996948242</ele>
        <time>2012-06-17T09:13:42.000Z</time>
      </trkpt>
      <trkpt lat="43.90333" lon="5.08934">
        <ele>70.199996948242</ele>
        <time>2012-06-17T09:13:45.000Z</time>
      </trkpt>
      <trkpt lat="43.90336" lon="5.0896">
        <ele>70.599998474121</ele>
        <time>2012-06-17T09:13:48.000Z</time>
      </trkpt>
      <trkpt lat="43.90339" lon="5.08978">
        <ele>71</ele>
        <time>2012-06-17T09:13:50.000Z</time>
      </trkpt>
      <trkpt lat="43.90343" lon="5.09003">
        <ele>71.400001525879</ele>
        <time>2012-06-17T09:13:53.000Z</time>
      </trkpt>
      <trkpt lat="43.90348" lon="5.09028">
        <ele>71.800003051758</ele>
        <time>2012-06-17T09:13:56.000Z</time>
      </trkpt>
      <trkpt lat="43.9035" lon="5.09035">
        <ele>72</ele>
        <time>2012-06-17T09:13:57.000Z</time>
      </trkpt>
      <trkpt lat="43.90352" lon="5.09043">
        <ele>72.199996948242</ele>
        <time>2012-06-17T09:13:58.000Z</time>
      </trkpt>
      <trkpt lat="43.9035" lon="5.09067">
        <ele>72.400001525879</ele>
        <time>2012-06-17T09:14:01.000Z</time>
      </trkpt>
      <trkpt lat="43.90347" lon="5.09098">
        <ele>72.599998474121</ele>
        <time>2012-06-17T09:14:05.000Z</time>
      </trkpt>
      <trkpt lat="43.90346" lon="5.0912">
        <ele>72.800003051758</ele>
        <time>2012-06-17T09:14:08.000Z</time>
      </trkpt>
      <trkpt lat="43.90345" lon="5.09147">
        <ele>73</ele>
        <time>2012-06-17T09:14:12.000Z</time>
      </trkpt>
      <trkpt lat="43.90343" lon="5.09169">
        <ele>73.199996948242</ele>
        <time>2012-06-17T09:14:15.000Z</time>
      </trkpt>
      <trkpt lat="43.90339" lon="5.092">
        <ele>72.800003051758</ele>
        <time>2012-06-17T09:14:19.000Z</time>
      </trkpt>
      <trkpt lat="43.90336" lon="5.09227">
        <ele>72.400001525879</ele>
        <time>2012-06-17T09:14:22.000Z</time>
      </trkpt>
      <trkpt lat="43.90332" lon="5.09255">
        <ele>71.800003051758</ele>
        <time>2012-06-17T09:14:25.000Z</time>
      </trkpt>
      <trkpt lat="43.90328" lon="5.09284">
        <ele>71.199996948242</ele>
        <time>2012-06-17T09:14:28.000Z</time>
      </trkpt>
      <trkpt lat="43.90325" lon="5.09305">
        <ele>70.599998474121</ele>
        <time>2012-06-17T09:14:30.000Z</time>
      </trkpt>
      <trkpt lat="43.90321" lon="5.09336">
        <ele>70</ele>
        <time>2012-06-17T09:14:33.000Z</time>
      </trkpt>
      <trkpt lat="43.90316" lon="5.09366">
        <ele>70</ele>
        <time>2012-06-17T09:14:36.000Z</time>
      </trkpt>
      <trkpt lat="43.90312" lon="5.09386">
        <ele>70</ele>
        <time>2012-06-17T09:14:38.000Z</time>
      </trkpt>
      <trkpt lat="43.90305" lon="5.09415">
        <ele>70</ele>
        <time>2012-06-17T09:14:41.000Z</time>
      </trkpt>
      <trkpt lat="43.90299" lon="5.09443">
        <ele>69.599998474121</ele>
        <time>2012-06-17T09:14:44.000Z</time>
      </trkpt>
      <trkpt lat="43.90294" lon="5.09473">
        <ele>69.400001525879</ele>
        <time>2012-06-17T09:14:47.000Z</time>
      </trkpt>
      <trkpt lat="43.9029" lon="5.09502">
        <ele>69</ele>
        <time>2012-06-17T09:14:50.000Z</time>
      </trkpt>
      <trkpt lat="43.90287" lon="5.09532">
        <ele>68.199996948242</ele>
        <time>2012-06-17T09:14:53.000Z</time>
      </trkpt>
      <trkpt lat="43.90284" lon="5.09562">
        <ele>67.599998474121</ele>
        <time>2012-06-17T09:14:56.000Z</time>
      </trkpt>
      <trkpt lat="43.90282" lon="5.09582">
        <ele>67</ele>
        <time>2012-06-17T09:14:58.000Z</time>
      </trkpt>
      <trkpt lat="43.90279" lon="5.09611">
        <ele>67.400001525879</ele>
        <time>2012-06-17T09:15:01.000Z</time>
      </trkpt>
      <trkpt lat="43.90276" lon="5.09639">
        <ele>67.800003051758</ele>
        <time>2012-06-17T09:15:04.000Z</time>
      </trkpt>
      <trkpt lat="43.90274" lon="5.09668">
        <ele>68.199996948242</ele>
        <time>2012-06-17T09:15:07.000Z</time>
      </trkpt>
      <trkpt lat="43.90271" lon="5.09697">
        <ele>69.199996948242</ele>
        <time>2012-06-17T09:15:10.000Z</time>
      </trkpt>
      <trkpt lat="43.90267" lon="5.09724">
        <ele>70.199996948242</ele>
        <time>2012-06-17T09:15:13.000Z</time>
      </trkpt>
      <trkpt lat="43.90264" lon="5.0974">
        <ele>70.800003051758</ele>
        <time>2012-06-17T09:15:15.000Z</time>
      </trkpt>
      <trkpt lat="43.90261" lon="5.09764">
        <ele>71.199996948242</ele>
        <time>2012-06-17T09:15:18.000Z</time>
      </trkpt>
      <trkpt lat="43.90256" lon="5.09788">
        <ele>71.199996948242</ele>
        <time>2012-06-17T09:15:21.000Z</time>
      </trkpt>
      <trkpt lat="43.90251" lon="5.0982">
        <ele>71.199996948242</ele>
        <time>2012-06-17T09:15:25.000Z</time>
      </trkpt>
      <trkpt lat="43.90246" lon="5.09845">
        <ele>71.199996948242</ele>
        <time>2012-06-17T09:15:28.000Z</time>
      </trkpt>
      <trkpt lat="43.9024" lon="5.09874">
        <ele>71.599998474121</ele>
        <time>2012-06-17T09:15:32.000Z</time>
      </trkpt>
      <trkpt lat="43.90244" lon="5.09887">
        <ele>71.800003051758</ele>
        <time>2012-06-17T09:15:34.000Z</time>
      </trkpt>
      <trkpt lat="43.90257" lon="5.09897">
        <ele>71.599998474121</ele>
        <time>2012-06-17T09:15:37.000Z</time>
      </trkpt>
      <trkpt lat="43.90262" lon="5.09899">
        <ele>71.400001525879</ele>
        <time>2012-06-17T09:15:38.000Z</time>
      </trkpt>
      <trkpt lat="43.90281" lon="5.09907">
        <ele>71</ele>
        <time>2012-06-17T09:15:42.000Z</time>
      </trkpt>
      <trkpt lat="43.903" lon="5.09917">
        <ele>70.800003051758</ele>
        <time>2012-06-17T09:15:46.000Z</time>
      </trkpt>
      <trkpt lat="43.9032" lon="5.09926">
        <ele>70.800003051758</ele>
        <time>2012-06-17T09:15:50.000Z</time>
      </trkpt>
      <trkpt lat="43.90329" lon="5.09933">
        <ele>70.800003051758</ele>
        <time>2012-06-17T09:15:52.000Z</time>
      </trkpt>
      <trkpt lat="43.90349" lon="5.09948">
        <ele>71</ele>
        <time>2012-06-17T09:15:56.000Z</time>
      </trkpt>
      <trkpt lat="43.90358" lon="5.09956">
        <ele>71.199996948242</ele>
        <time>2012-06-17T09:15:58.000Z</time>
      </trkpt>
      <trkpt lat="43.90375" lon="5.09975">
        <ele>71.400001525879</ele>
        <time>2012-06-17T09:16:02.000Z</time>
      </trkpt>
      <trkpt lat="43.90384" lon="5.09983">
        <ele>71.400001525879</ele>
        <time>2012-06-17T09:16:04.000Z</time>
      </trkpt>
      <trkpt lat="43.90399" lon="5.10003">
        <ele>71.800003051758</ele>
        <time>2012-06-17T09:16:08.000Z</time>
      </trkpt>
      <trkpt lat="43.90406" lon="5.10014">
        <ele>71.800003051758</ele>
        <time>2012-06-17T09:16:10.000Z</time>
      </trkpt>
      <trkpt lat="43.90422" lon="5.10036">
        <ele>72.400001525879</ele>
        <time>2012-06-17T09:16:14.000Z</time>
      </trkpt>
      <trkpt lat="43.9043" lon="5.10047">
        <ele>72.800003051758</ele>
        <time>2012-06-17T09:16:16.000Z</time>
      </trkpt>
      <trkpt lat="43.90442" lon="5.10065">
        <ele>73.400001525879</ele>
        <time>2012-06-17T09:16:19.000Z</time>
      </trkpt>
      <trkpt lat="43.90451" lon="5.10086">
        <ele>74</ele>
        <time>2012-06-17T09:16:22.000Z</time>
      </trkpt>
      <trkpt lat="43.90461" lon="5.10115">
        <ele>74.599998474121</ele>
        <time>2012-06-17T09:16:26.000Z</time>
      </trkpt>
      <trkpt lat="43.90466" lon="5.1014">
        <ele>74.800003051758</ele>
        <time>2012-06-17T09:16:29.000Z</time>
      </trkpt>
      <trkpt lat="43.90469" lon="5.10166">
        <ele>75.199996948242</ele>
        <time>2012-06-17T09:16:32.000Z</time>
      </trkpt>
      <trkpt lat="43.90471" lon="5.10182">
        <ele>75</ele>
        <time>2012-06-17T09:16:34.000Z</time>
      </trkpt>
      <trkpt lat="43.90471" lon="5.1019">
        <ele>74.800003051758</ele>
        <time>2012-06-17T09:16:35.000Z</time>
      </trkpt>
      <trkpt lat="43.90472" lon="5.10219">
        <ele>74.599998474121</ele>
        <time>2012-06-17T09:16:39.000Z</time>
      </trkpt>
      <trkpt lat="43.90473" lon="5.1024">
        <ele>74.400001525879</ele>
        <time>2012-06-17T09:16:42.000Z</time>
      </trkpt>
      <trkpt lat="43.90473" lon="5.10246">
        <ele>74.400001525879</ele>
        <time>2012-06-17T09:16:43.000Z</time>
      </trkpt>
      <trkpt lat="43.90475" lon="5.10273">
        <ele>74.400001525879</ele>
        <time>2012-06-17T09:16:47.000Z</time>
      </trkpt>
      <trkpt lat="43.90475" lon="5.10294">
        <ele>74.599998474121</ele>
        <time>2012-06-17T09:16:50.000Z</time>
      </trkpt>
      <trkpt lat="43.90477" lon="5.10321">
        <ele>74.599998474121</ele>
        <time>2012-06-17T09:16:54.000Z</time>
      </trkpt>
      <trkpt lat="43.90478" lon="5.1034">
        <ele>74.800003051758</ele>
        <time>2012-06-17T09:16:57.000Z</time>
      </trkpt>
      <trkpt lat="43.9048" lon="5.1037">
        <ele>75.599998474121</ele>
        <time>2012-06-17T09:17:02.000Z</time>
      </trkpt>
      <trkpt lat="43.9048" lon="5.10376">
        <ele>75.800003051758</ele>
        <time>2012-06-17T09:17:03.000Z</time>
      </trkpt>
      <trkpt lat="43.90482" lon="5.10399">
        <ele>76.400001525879</ele>
        <time>2012-06-17T09:17:07.000Z</time>
      </trkpt>
      <trkpt lat="43.90484" lon="5.1041">
        <ele>76.599998474121</ele>
        <time>2012-06-17T09:17:09.000Z</time>
      </trkpt>
      <trkpt lat="43.90491" lon="5.1044">
        <ele>76.800003051758</ele>
        <time>2012-06-17T09:17:14.000Z</time>
      </trkpt>
      <trkpt lat="43.90496" lon="5.10452">
        <ele>77</ele>
        <time>2012-06-17T09:17:16.000Z</time>
      </trkpt>
      <trkpt lat="43.90505" lon="5.10476">
        <ele>77</ele>
        <time>2012-06-17T09:17:19.000Z</time>
      </trkpt>
      <trkpt lat="43.90512" lon="5.10493">
        <ele>76.800003051758</ele>
        <time>2012-06-17T09:17:21.000Z</time>
      </trkpt>
      <trkpt lat="43.90523" lon="5.10519">
        <ele>76.800003051758</ele>
        <time>2012-06-17T09:17:24.000Z</time>
      </trkpt>
      <trkpt lat="43.90532" lon="5.10541">
        <ele>76.599998474121</ele>
        <time>2012-06-17T09:17:27.000Z</time>
      </trkpt>
      <trkpt lat="43.90541" lon="5.10562">
        <ele>76.599998474121</ele>
        <time>2012-06-17T09:17:30.000Z</time>
      </trkpt>
      <trkpt lat="43.90546" lon="5.10576">
        <ele>76.400001525879</ele>
        <time>2012-06-17T09:17:32.000Z</time>
      </trkpt>
      <trkpt lat="43.90548" lon="5.10581">
        <ele>76.400001525879</ele>
        <time>2012-06-17T09:17:33.000Z</time>
      </trkpt>
      <trkpt lat="43.90557" lon="5.10604">
        <ele>77.199996948242</ele>
        <time>2012-06-17T09:17:37.000Z</time>
      </trkpt>
      <trkpt lat="43.90563" lon="5.10618">
        <ele>77.599998474121</ele>
        <time>2012-06-17T09:17:40.000Z</time>
      </trkpt>
      <trkpt lat="43.90577" lon="5.10641">
        <ele>78.800003051758</ele>
        <time>2012-06-17T09:17:46.000Z</time>
      </trkpt>
      <trkpt lat="43.9058" lon="5.10643">
        <ele>78.800003051758</ele>
        <time>2012-06-17T09:17:47.000Z</time>
      </trkpt>
      <trkpt lat="43.90595" lon="5.10645">
        <ele>79.199996948242</ele>
        <time>2012-06-17T09:17:51.000Z</time>
      </trkpt>
      <trkpt lat="43.90614" lon="5.10641">
        <ele>79.199996948242</ele>
        <time>2012-06-17T09:17:56.000Z</time>
      </trkpt>
      <trkpt lat="43.90618" lon="5.10641">
        <ele>79.199996948242</ele>
        <time>2012-06-17T09:17:57.000Z</time>
      </trkpt>
      <trkpt lat="43.90639" lon="5.1064">
        <ele>79.400001525879</ele>
        <time>2012-06-17T09:18:03.000Z</time>
      </trkpt>
      <trkpt lat="43.90645" lon="5.10639">
        <ele>79.400001525879</ele>
        <time>2012-06-17T09:18:05.000Z</time>
      </trkpt>
      <trkpt lat="43.90656" lon="5.1064">
        <ele>79.599998474121</ele>
        <time>2012-06-17T09:18:10.000Z</time>
      </trkpt>
      <trkpt lat="43.90657" lon="5.10642">
        <ele>79.800003051758</ele>
        <time>2012-06-17T09:18:11.000Z</time>
      </trkpt>
      <trkpt lat="43.90657" lon="5.10645">
        <ele>80</ele>
        <time>2012-06-17T09:18:15.000Z</time>
      </trkpt>
      <trkpt lat="43.90657" lon="5.1065">
        <ele>80.400001525879</ele>
        <time>2012-06-17T09:18:19.000Z</time>
      </trkpt>
      <trkpt lat="43.9066" lon="5.10657">
        <ele>81</ele>
        <time>2012-06-17T09:18:24.000Z</time>
      </trkpt>
      <trkpt lat="43.9066" lon="5.10659">
        <ele>81.199996948242</ele>
        <time>2012-06-17T09:18:25.000Z</time>
      </trkpt>
      <trkpt lat="43.90661" lon="5.10664">
        <ele>81.599998474121</ele>
        <time>2012-06-17T09:18:28.000Z</time>
      </trkpt>
      <trkpt lat="43.90663" lon="5.1067">
        <ele>82.199996948242</ele>
        <time>2012-06-17T09:18:32.000Z</time>
      </trkpt>
      <trkpt lat="43.90664" lon="5.10681">
        <ele>83.400001525879</ele>
        <time>2012-06-17T09:18:39.000Z</time>
      </trkpt>
      <trkpt lat="43.90666" lon="5.10693">
        <ele>84.400001525879</ele>
        <time>2012-06-17T09:18:46.000Z</time>
      </trkpt>
      <trkpt lat="43.90671" lon="5.10705">
        <ele>85.599998474121</ele>
        <time>2012-06-17T09:18:54.000Z</time>
      </trkpt>
      <trkpt lat="43.90677" lon="5.10717">
        <ele>86.599998474121</ele>
        <time>2012-06-17T09:19:03.000Z</time>
      </trkpt>
      <trkpt lat="43.90684" lon="5.10728">
        <ele>87.599998474121</ele>
        <time>2012-06-17T09:19:12.000Z</time>
      </trkpt>
      <trkpt lat="43.90691" lon="5.10739">
        <ele>88.599998474121</ele>
        <time>2012-06-17T09:19:20.000Z</time>
      </trkpt>
      <trkpt lat="43.90697" lon="5.10747">
        <ele>89.400001525879</ele>
        <time>2012-06-17T09:19:27.000Z</time>
      </trkpt>
      <trkpt lat="43.90704" lon="5.10756">
        <ele>90.199996948242</ele>
        <time>2012-06-17T09:19:35.000Z</time>
      </trkpt>
      <trkpt lat="43.90712" lon="5.10767">
        <ele>91.199996948242</ele>
        <time>2012-06-17T09:19:43.000Z</time>
      </trkpt>
      <trkpt lat="43.90717" lon="5.10778">
        <ele>92.400001525879</ele>
        <time>2012-06-17T09:19:51.000Z</time>
      </trkpt>
      <trkpt lat="43.90718" lon="5.10778">
        <ele>92.400001525879</ele>
        <time>2012-06-17T09:19:52.000Z</time>
      </trkpt>
      <trkpt lat="43.90719" lon="5.1078">
        <ele>92.599998474121</ele>
        <time>2012-06-17T09:19:56.000Z</time>
      </trkpt>
      <trkpt lat="43.90721" lon="5.10787">
        <ele>93.400001525879</ele>
        <time>2012-06-17T09:20:01.000Z</time>
      </trkpt>
      <trkpt lat="43.90727" lon="5.10799">
        <ele>94.599998474121</ele>
        <time>2012-06-17T09:20:09.000Z</time>
      </trkpt>
      <trkpt lat="43.90733" lon="5.10811">
        <ele>96</ele>
        <time>2012-06-17T09:20:17.000Z</time>
      </trkpt>
      <trkpt lat="43.90739" lon="5.10823">
        <ele>97.599998474121</ele>
        <time>2012-06-17T09:20:25.000Z</time>
      </trkpt>
      <trkpt lat="43.90745" lon="5.10832">
        <ele>98.800003051758</ele>
        <time>2012-06-17T09:20:32.000Z</time>
      </trkpt>
      <trkpt lat="43.90746" lon="5.10839">
        <ele>99.199996948242</ele>
        <time>2012-06-17T09:20:37.000Z</time>
      </trkpt>
      <trkpt lat="43.90746" lon="5.1084">
        <ele>99.199996948242</ele>
        <time>2012-06-17T09:20:38.000Z</time>
      </trkpt>
      <trkpt lat="43.90746" lon="5.10846">
        <ele>99.599998474121</ele>
        <time>2012-06-17T09:20:43.000Z</time>
      </trkpt>
      <trkpt lat="43.90743" lon="5.1085">
        <ele>99.599998474121</ele>
        <time>2012-06-17T09:20:46.000Z</time>
      </trkpt>
      <trkpt lat="43.90741" lon="5.10855">
        <ele>99.800003051758</ele>
        <time>2012-06-17T09:20:49.000Z</time>
      </trkpt>
      <trkpt lat="43.90741" lon="5.10868">
        <ele>100.59999847412</ele>
        <time>2012-06-17T09:20:57.000Z</time>
      </trkpt>
      <trkpt lat="43.90746" lon="5.10874">
        <ele>100.80000305176</ele>
        <time>2012-06-17T09:21:03.000Z</time>
      </trkpt>
      <trkpt lat="43.90753" lon="5.10882">
        <ele>101.19999694824</ele>
        <time>2012-06-17T09:21:07.000Z</time>
      </trkpt>
      <trkpt lat="43.90756" lon="5.10897">
        <ele>101.80000305176</ele>
        <time>2012-06-17T09:21:11.000Z</time>
      </trkpt>
      <trkpt lat="43.90765" lon="5.10905">
        <ele>101.80000305176</ele>
        <time>2012-06-17T09:21:14.000Z</time>
      </trkpt>
      <trkpt lat="43.90773" lon="5.10907">
        <ele>101.80000305176</ele>
        <time>2012-06-17T09:21:16.000Z</time>
      </trkpt>
      <trkpt lat="43.90787" lon="5.10914">
        <ele>101.59999847412</ele>
        <time>2012-06-17T09:21:20.000Z</time>
      </trkpt>
      <trkpt lat="43.90808" lon="5.10912">
        <ele>100.59999847412</ele>
        <time>2012-06-17T09:21:25.000Z</time>
      </trkpt>
      <trkpt lat="43.90812" lon="5.10912">
        <ele>100.59999847412</ele>
        <time>2012-06-17T09:21:26.000Z</time>
      </trkpt>
      <trkpt lat="43.90824" lon="5.10918">
        <ele>100.40000152588</ele>
        <time>2012-06-17T09:21:29.000Z</time>
      </trkpt>
      <trkpt lat="43.90827" lon="5.10919">
        <ele>100.19999694824</ele>
        <time>2012-06-17T09:21:30.000Z</time>
      </trkpt>
      <trkpt lat="43.9084" lon="5.10924">
        <ele>99.599998474121</ele>
        <time>2012-06-17T09:21:35.000Z</time>
      </trkpt>
      <trkpt lat="43.90847" lon="5.1094">
        <ele>99.400001525879</ele>
        <time>2012-06-17T09:21:41.000Z</time>
      </trkpt>
      <trkpt lat="43.90843" lon="5.10951">
        <ele>99.800003051758</ele>
        <time>2012-06-17T09:21:46.000Z</time>
      </trkpt>
      <trkpt lat="43.90838" lon="5.10962">
        <ele>100.19999694824</ele>
        <time>2012-06-17T09:21:51.000Z</time>
      </trkpt>
      <trkpt lat="43.9083" lon="5.1098">
        <ele>101</ele>
        <time>2012-06-17T09:21:58.000Z</time>
      </trkpt>
      <trkpt lat="43.90823" lon="5.1099">
        <ele>101.40000152588</ele>
        <time>2012-06-17T09:22:03.000Z</time>
      </trkpt>
      <trkpt lat="43.90813" lon="5.11005">
        <ele>102.19999694824</ele>
        <time>2012-06-17T09:22:10.000Z</time>
      </trkpt>
      <trkpt lat="43.90805" lon="5.11013">
        <ele>102.80000305176</ele>
        <time>2012-06-17T09:22:15.000Z</time>
      </trkpt>
      <trkpt lat="43.90798" lon="5.11027">
        <ele>103.59999847412</ele>
        <time>2012-06-17T09:22:21.000Z</time>
      </trkpt>
      <trkpt lat="43.90797" lon="5.11031">
        <ele>103.59999847412</ele>
        <time>2012-06-17T09:22:23.000Z</time>
      </trkpt>
      <trkpt lat="43.90792" lon="5.11038">
        <ele>104.19999694824</ele>
        <time>2012-06-17T09:22:27.000Z</time>
      </trkpt>
      <trkpt lat="43.90786" lon="5.11046">
        <ele>104.80000305176</ele>
        <time>2012-06-17T09:22:33.000Z</time>
      </trkpt>
      <trkpt lat="43.90782" lon="5.1105">
        <ele>105.19999694824</ele>
        <time>2012-06-17T09:22:36.000Z</time>
      </trkpt>
      <trkpt lat="43.90781" lon="5.11053">
        <ele>105.40000152588</ele>
        <time>2012-06-17T09:22:38.000Z</time>
      </trkpt>
      <trkpt lat="43.90775" lon="5.11062">
        <ele>106</ele>
        <time>2012-06-17T09:22:43.000Z</time>
      </trkpt>
      <trkpt lat="43.90771" lon="5.11076">
        <ele>106.80000305176</ele>
        <time>2012-06-17T09:22:49.000Z</time>
      </trkpt>
      <trkpt lat="43.90765" lon="5.11082">
        <ele>107.40000152588</ele>
        <time>2012-06-17T09:22:54.000Z</time>
      </trkpt>
      <trkpt lat="43.90761" lon="5.1109">
        <ele>108</ele>
        <time>2012-06-17T09:22:58.000Z</time>
      </trkpt>
      <trkpt lat="43.90754" lon="5.111">
        <ele>108.40000152588</ele>
        <time>2012-06-17T09:23:05.000Z</time>
      </trkpt>
      <trkpt lat="43.90753" lon="5.11103">
        <ele>108.40000152588</ele>
        <time>2012-06-17T09:23:07.000Z</time>
      </trkpt>
      <trkpt lat="43.90752" lon="5.11111">
        <ele>108.59999847412</ele>
        <time>2012-06-17T09:23:11.000Z</time>
      </trkpt>
      <trkpt lat="43.90747" lon="5.11119">
        <ele>108.59999847412</ele>
        <time>2012-06-17T09:23:16.000Z</time>
      </trkpt>
      <trkpt lat="43.90746" lon="5.1112">
        <ele>108.59999847412</ele>
        <time>2012-06-17T09:23:18.000Z</time>
      </trkpt>
      <trkpt lat="43.90747" lon="5.11122">
        <ele>108.59999847412</ele>
        <time>2012-06-17T09:23:20.000Z</time>
      </trkpt>
      <trkpt lat="43.90745" lon="5.11127">
        <ele>108.80000305176</ele>
        <time>2012-06-17T09:23:23.000Z</time>
      </trkpt>
      <trkpt lat="43.90741" lon="5.11131">
        <ele>108.80000305176</ele>
        <time>2012-06-17T09:23:26.000Z</time>
      </trkpt>
      <trkpt lat="43.90734" lon="5.11137">
        <ele>109.19999694824</ele>
        <time>2012-06-17T09:23:32.000Z</time>
      </trkpt>
      <trkpt lat="43.90729" lon="5.11144">
        <ele>109.40000152588</ele>
        <time>2012-06-17T09:23:38.000Z</time>
      </trkpt>
      <trkpt lat="43.90725" lon="5.1115">
        <ele>109.80000305176</ele>
        <time>2012-06-17T09:23:44.000Z</time>
      </trkpt>
      <trkpt lat="43.90717" lon="5.11156">
        <ele>110.19999694824</ele>
        <time>2012-06-17T09:23:50.000Z</time>
      </trkpt>
      <trkpt lat="43.90713" lon="5.11158">
        <ele>110.59999847412</ele>
        <time>2012-06-17T09:23:54.000Z</time>
      </trkpt>
      <trkpt lat="43.90712" lon="5.11157">
        <ele>110.59999847412</ele>
        <time>2012-06-17T09:23:56.000Z</time>
      </trkpt>
      <trkpt lat="43.90707" lon="5.11166">
        <ele>111</ele>
        <time>2012-06-17T09:24:02.000Z</time>
      </trkpt>
      <trkpt lat="43.907" lon="5.11182">
        <ele>111.80000305176</ele>
        <time>2012-06-17T09:24:08.000Z</time>
      </trkpt>
      <trkpt lat="43.90697" lon="5.11184">
        <ele>112</ele>
        <time>2012-06-17T09:24:09.000Z</time>
      </trkpt>
      <trkpt lat="43.90692" lon="5.11191">
        <ele>112.59999847412</ele>
        <time>2012-06-17T09:24:12.000Z</time>
      </trkpt>
      <trkpt lat="43.90687" lon="5.11206">
        <ele>113.19999694824</ele>
        <time>2012-06-17T09:24:17.000Z</time>
      </trkpt>
      <trkpt lat="43.90679" lon="5.11223">
        <ele>113.80000305176</ele>
        <time>2012-06-17T09:24:23.000Z</time>
      </trkpt>
      <trkpt lat="43.90676" lon="5.11236">
        <ele>114.19999694824</ele>
        <time>2012-06-17T09:24:27.000Z</time>
      </trkpt>
      <trkpt lat="43.90674" lon="5.11239">
        <ele>114.40000152588</ele>
        <time>2012-06-17T09:24:28.000Z</time>
      </trkpt>
      <trkpt lat="43.90668" lon="5.11245">
        <ele>114.80000305176</ele>
        <time>2012-06-17T09:24:31.000Z</time>
      </trkpt>
      <trkpt lat="43.90668" lon="5.11252">
        <ele>115</ele>
        <time>2012-06-17T09:24:34.000Z</time>
      </trkpt>
      <trkpt lat="43.90667" lon="5.11255">
        <ele>115.19999694824</ele>
        <time>2012-06-17T09:24:35.000Z</time>
      </trkpt>
      <trkpt lat="43.90662" lon="5.11274">
        <ele>116</ele>
        <time>2012-06-17T09:24:42.000Z</time>
      </trkpt>
      <trkpt lat="43.90661" lon="5.11288">
        <ele>116.40000152588</ele>
        <time>2012-06-17T09:24:47.000Z</time>
      </trkpt>
      <trkpt lat="43.90654" lon="5.11305">
        <ele>117.40000152588</ele>
        <time>2012-06-17T09:24:54.000Z</time>
      </trkpt>
      <trkpt lat="43.9065" lon="5.1131">
        <ele>117.80000305176</ele>
        <time>2012-06-17T09:25:00.000Z</time>
      </trkpt>
      <trkpt lat="43.90647" lon="5.11316">
        <ele>118.19999694824</ele>
        <time>2012-06-17T09:25:05.000Z</time>
      </trkpt>
      <trkpt lat="43.90644" lon="5.11326">
        <ele>119</ele>
        <time>2012-06-17T09:25:13.000Z</time>
      </trkpt>
      <trkpt lat="43.90638" lon="5.11333">
        <ele>119.59999847412</ele>
        <time>2012-06-17T09:25:18.000Z</time>
      </trkpt>
      <trkpt lat="43.90637" lon="5.11333">
        <ele>119.80000305176</ele>
        <time>2012-06-17T09:25:19.000Z</time>
      </trkpt>
      <trkpt lat="43.90636" lon="5.11332">
        <ele>119.80000305176</ele>
        <time>2012-06-17T09:25:20.000Z</time>
      </trkpt>
      <trkpt lat="43.90633" lon="5.1133">
        <ele>119.80000305176</ele>
        <time>2012-06-17T09:25:23.000Z</time>
      </trkpt>
      <trkpt lat="43.90632" lon="5.11329">
        <ele>119.80000305176</ele>
        <time>2012-06-17T09:25:24.000Z</time>
      </trkpt>
      <trkpt lat="43.90622" lon="5.11327">
        <ele>120.19999694824</ele>
        <time>2012-06-17T09:25:30.000Z</time>
      </trkpt>
      <trkpt lat="43.90615" lon="5.11334">
        <ele>121.19999694824</ele>
        <time>2012-06-17T09:25:35.000Z</time>
      </trkpt>
      <trkpt lat="43.90609" lon="5.11344">
        <ele>122</ele>
        <time>2012-06-17T09:25:42.000Z</time>
      </trkpt>
      <trkpt lat="43.90604" lon="5.11356">
        <ele>123</ele>
        <time>2012-06-17T09:25:50.000Z</time>
      </trkpt>
      <trkpt lat="43.90602" lon="5.1136">
        <ele>123.40000152588</ele>
        <time>2012-06-17T09:25:54.000Z</time>
      </trkpt>
      <trkpt lat="43.90602" lon="5.11362">
        <ele>123.59999847412</ele>
        <time>2012-06-17T09:25:55.000Z</time>
      </trkpt>
      <trkpt lat="43.906" lon="5.11367">
        <ele>124</ele>
        <time>2012-06-17T09:25:58.000Z</time>
      </trkpt>
      <trkpt lat="43.90595" lon="5.11374">
        <ele>124.59999847412</ele>
        <time>2012-06-17T09:26:02.000Z</time>
      </trkpt>
      <trkpt lat="43.90588" lon="5.11382">
        <ele>125.59999847412</ele>
        <time>2012-06-17T09:26:08.000Z</time>
      </trkpt>
      <trkpt lat="43.90584" lon="5.11385">
        <ele>126</ele>
        <time>2012-06-17T09:26:11.000Z</time>
      </trkpt>
      <trkpt lat="43.90584" lon="5.11386">
        <ele>126.19999694824</ele>
        <time>2012-06-17T09:26:14.000Z</time>
      </trkpt>
      <trkpt lat="43.90582" lon="5.11394">
        <ele>126.59999847412</ele>
        <time>2012-06-17T09:26:19.000Z</time>
      </trkpt>
      <trkpt lat="43.9058" lon="5.11404">
        <ele>127.19999694824</ele>
        <time>2012-06-17T09:26:24.000Z</time>
      </trkpt>
      <trkpt lat="43.90576" lon="5.11425">
        <ele>128.39999389648</ele>
        <time>2012-06-17T09:26:32.000Z</time>
      </trkpt>
      <trkpt lat="43.90571" lon="5.11444">
        <ele>129.19999694824</ele>
        <time>2012-06-17T09:26:39.000Z</time>
      </trkpt>
      <trkpt lat="43.90566" lon="5.11463">
        <ele>130.39999389648</ele>
        <time>2012-06-17T09:26:46.000Z</time>
      </trkpt>
      <trkpt lat="43.90562" lon="5.1147">
        <ele>131</ele>
        <time>2012-06-17T09:26:50.000Z</time>
      </trkpt>
      <trkpt lat="43.90561" lon="5.1147">
        <ele>131</ele>
        <time>2012-06-17T09:26:51.000Z</time>
      </trkpt>
      <trkpt lat="43.90559" lon="5.11473">
        <ele>131.19999694824</ele>
        <time>2012-06-17T09:26:57.000Z</time>
      </trkpt>
      <trkpt lat="43.90555" lon="5.11476">
        <ele>131.60000610352</ele>
        <time>2012-06-17T09:26:59.000Z</time>
      </trkpt>
      <trkpt lat="43.90549" lon="5.11477">
        <ele>132</ele>
        <time>2012-06-17T09:27:01.000Z</time>
      </trkpt>
      <trkpt lat="43.90533" lon="5.11481">
        <ele>133.19999694824</ele>
        <time>2012-06-17T09:27:06.000Z</time>
      </trkpt>
      <trkpt lat="43.9053" lon="5.11481">
        <ele>133.19999694824</ele>
        <time>2012-06-17T09:27:07.000Z</time>
      </trkpt>
      <trkpt lat="43.90524" lon="5.11485">
        <ele>134</ele>
        <time>2012-06-17T09:27:10.000Z</time>
      </trkpt>
      <trkpt lat="43.90518" lon="5.11496">
        <ele>135.39999389648</ele>
        <time>2012-06-17T09:27:14.000Z</time>
      </trkpt>
      <trkpt lat="43.90518" lon="5.11498">
        <ele>135.39999389648</ele>
        <time>2012-06-17T09:27:15.000Z</time>
      </trkpt>
      <trkpt lat="43.90518" lon="5.11498">
        <ele>135.60000610352</ele>
        <time>2012-06-17T09:27:18.000Z</time>
      </trkpt>
      <trkpt lat="43.9052" lon="5.11503">
        <ele>136</ele>
        <time>2012-06-17T09:27:22.000Z</time>
      </trkpt>
      <trkpt lat="43.90518" lon="5.11505">
        <ele>136.39999389648</ele>
        <time>2012-06-17T09:27:27.000Z</time>
      </trkpt>
      <trkpt lat="43.90512" lon="5.11507">
        <ele>137</ele>
        <time>2012-06-17T09:27:33.000Z</time>
      </trkpt>
      <trkpt lat="43.90504" lon="5.11513">
        <ele>138.39999389648</ele>
        <time>2012-06-17T09:27:39.000Z</time>
      </trkpt>
      <trkpt lat="43.90501" lon="5.11514">
        <ele>138.80000305176</ele>
        <time>2012-06-17T09:27:44.000Z</time>
      </trkpt>
      <trkpt lat="43.90499" lon="5.11513">
        <ele>139</ele>
        <time>2012-06-17T09:27:50.000Z</time>
      </trkpt>
      <trkpt lat="43.90493" lon="5.11508">
        <ele>139</ele>
        <time>2012-06-17T09:27:53.000Z</time>
      </trkpt>
      <trkpt lat="43.90487" lon="5.11503">
        <ele>138.80000305176</ele>
        <time>2012-06-17T09:27:56.000Z</time>
      </trkpt>
      <trkpt lat="43.90482" lon="5.11505">
        <ele>139.60000610352</ele>
        <time>2012-06-17T09:27:58.000Z</time>
      </trkpt>
      <trkpt lat="43.90481" lon="5.11505">
        <ele>139.80000305176</ele>
        <time>2012-06-17T09:28:02.000Z</time>
      </trkpt>
      <trkpt lat="43.90475" lon="5.11501">
        <ele>139.80000305176</ele>
        <time>2012-06-17T09:28:09.000Z</time>
      </trkpt>
      <trkpt lat="43.90474" lon="5.11501">
        <ele>140</ele>
        <time>2012-06-17T09:28:10.000Z</time>
      </trkpt>
      <trkpt lat="43.90471" lon="5.11502">
        <ele>140.60000610352</ele>
        <time>2012-06-17T09:28:15.000Z</time>
      </trkpt>
      <trkpt lat="43.90467" lon="5.11505">
        <ele>141.39999389648</ele>
        <time>2012-06-17T09:28:22.000Z</time>
      </trkpt>
      <trkpt lat="43.90461" lon="5.11507">
        <ele>142.39999389648</ele>
        <time>2012-06-17T09:28:30.000Z</time>
      </trkpt>
      <trkpt lat="43.90459" lon="5.11507">
        <ele>142.80000305176</ele>
        <time>2012-06-17T09:28:35.000Z</time>
      </trkpt>
      <trkpt lat="43.90453" lon="5.11509">
        <ele>143.80000305176</ele>
        <time>2012-06-17T09:28:41.000Z</time>
      </trkpt>
      <trkpt lat="43.90444" lon="5.11511">
        <ele>145.19999694824</ele>
        <time>2012-06-17T09:28:47.000Z</time>
      </trkpt>
      <trkpt lat="43.90437" lon="5.11511">
        <ele>146</ele>
        <time>2012-06-17T09:28:54.000Z</time>
      </trkpt>
      <trkpt lat="43.90434" lon="5.11512">
        <ele>146.60000610352</ele>
        <time>2012-06-17T09:28:59.000Z</time>
      </trkpt>
      <trkpt lat="43.90432" lon="5.11513">
        <ele>147</ele>
        <time>2012-06-17T09:29:01.000Z</time>
      </trkpt>
      <trkpt lat="43.9043" lon="5.11513">
        <ele>147.19999694824</ele>
        <time>2012-06-17T09:29:03.000Z</time>
      </trkpt>
      <trkpt lat="43.90429" lon="5.11513">
        <ele>147.39999389648</ele>
        <time>2012-06-17T09:29:04.000Z</time>
      </trkpt>
      <trkpt lat="43.90424" lon="5.11514">
        <ele>148.19999694824</ele>
        <time>2012-06-17T09:29:08.000Z</time>
      </trkpt>
      <trkpt lat="43.90421" lon="5.11514">
        <ele>148.39999389648</ele>
        <time>2012-06-17T09:29:11.000Z</time>
      </trkpt>
      <trkpt lat="43.9042" lon="5.11513">
        <ele>148.39999389648</ele>
        <time>2012-06-17T09:29:13.000Z</time>
      </trkpt>
      <trkpt lat="43.90416" lon="5.11508">
        <ele>147.80000305176</ele>
        <time>2012-06-17T09:29:18.000Z</time>
      </trkpt>
      <trkpt lat="43.90404" lon="5.11505">
        <ele>148.19999694824</ele>
        <time>2012-06-17T09:29:23.000Z</time>
      </trkpt>
      <trkpt lat="43.90394" lon="5.11506">
        <ele>149.19999694824</ele>
        <time>2012-06-17T09:29:28.000Z</time>
      </trkpt>
      <trkpt lat="43.9039" lon="5.11506">
        <ele>149.39999389648</ele>
        <time>2012-06-17T09:29:33.000Z</time>
      </trkpt>
      <trkpt lat="43.90387" lon="5.11504">
        <ele>149.19999694824</ele>
        <time>2012-06-17T09:29:38.000Z</time>
      </trkpt>
      <trkpt lat="43.9038" lon="5.115">
        <ele>149.19999694824</ele>
        <time>2012-06-17T09:29:42.000Z</time>
      </trkpt>
      <trkpt lat="43.90371" lon="5.11498">
        <ele>149.39999389648</ele>
        <time>2012-06-17T09:29:46.000Z</time>
      </trkpt>
      <trkpt lat="43.90369" lon="5.11499">
        <ele>149.80000305176</ele>
        <time>2012-06-17T09:29:47.000Z</time>
      </trkpt>
      <trkpt lat="43.90361" lon="5.11497">
        <ele>149.80000305176</ele>
        <time>2012-06-17T09:29:51.000Z</time>
      </trkpt>
      <trkpt lat="43.90354" lon="5.11494">
        <ele>149.60000610352</ele>
        <time>2012-06-17T09:29:54.000Z</time>
      </trkpt>
      <trkpt lat="43.90346" lon="5.11493">
        <ele>150.19999694824</ele>
        <time>2012-06-17T09:29:58.000Z</time>
      </trkpt>
      <trkpt lat="43.90331" lon="5.1149">
        <ele>150.19999694824</ele>
        <time>2012-06-17T09:30:06.000Z</time>
      </trkpt>
      <trkpt lat="43.90324" lon="5.11488">
        <ele>149.60000610352</ele>
        <time>2012-06-17T09:30:11.000Z</time>
      </trkpt>
      <trkpt lat="43.90316" lon="5.11488">
        <ele>149.39999389648</ele>
        <time>2012-06-17T09:30:18.000Z</time>
      </trkpt>
      <trkpt lat="43.90308" lon="5.11496">
        <ele>151.19999694824</ele>
        <time>2012-06-17T09:30:24.000Z</time>
      </trkpt>
      <trkpt lat="43.90309" lon="5.11494">
        <ele>150.80000305176</ele>
        <time>2012-06-17T09:30:27.000Z</time>
      </trkpt>
      <trkpt lat="43.90305" lon="5.11499">
        <ele>152</ele>
        <time>2012-06-17T09:30:31.000Z</time>
      </trkpt>
      <trkpt lat="43.90302" lon="5.11501">
        <ele>152.39999389648</ele>
        <time>2012-06-17T09:30:35.000Z</time>
      </trkpt>
      <trkpt lat="43.90299" lon="5.11503">
        <ele>152.80000305176</ele>
        <time>2012-06-17T09:30:40.000Z</time>
      </trkpt>
      <trkpt lat="43.90297" lon="5.11508">
        <ele>153.39999389648</ele>
        <time>2012-06-17T09:30:43.000Z</time>
      </trkpt>
      <trkpt lat="43.90294" lon="5.11515">
        <ele>154.39999389648</ele>
        <time>2012-06-17T09:30:47.000Z</time>
      </trkpt>
      <trkpt lat="43.9029" lon="5.11518">
        <ele>154.80000305176</ele>
        <time>2012-06-17T09:30:51.000Z</time>
      </trkpt>
      <trkpt lat="43.90289" lon="5.11515">
        <ele>154.19999694824</ele>
        <time>2012-06-17T09:30:55.000Z</time>
      </trkpt>
      <trkpt lat="43.90284" lon="5.11511">
        <ele>153.60000610352</ele>
        <time>2012-06-17T09:30:59.000Z</time>
      </trkpt>
      <trkpt lat="43.90272" lon="5.11505">
        <ele>152.39999389648</ele>
        <time>2012-06-17T09:31:05.000Z</time>
      </trkpt>
      <trkpt lat="43.90271" lon="5.11503">
        <ele>152</ele>
        <time>2012-06-17T09:31:06.000Z</time>
      </trkpt>
      <trkpt lat="43.90267" lon="5.11498">
        <ele>150.80000305176</ele>
        <time>2012-06-17T09:31:09.000Z</time>
      </trkpt>
      <trkpt lat="43.90257" lon="5.11488">
        <ele>148.39999389648</ele>
        <time>2012-06-17T09:31:14.000Z</time>
      </trkpt>
      <trkpt lat="43.90254" lon="5.11486">
        <ele>147.80000305176</ele>
        <time>2012-06-17T09:31:18.000Z</time>
      </trkpt>
      <trkpt lat="43.90253" lon="5.11485">
        <ele>147.39999389648</ele>
        <time>2012-06-17T09:31:20.000Z</time>
      </trkpt>
      <trkpt lat="43.90247" lon="5.1148">
        <ele>146</ele>
        <time>2012-06-17T09:31:24.000Z</time>
      </trkpt>
      <trkpt lat="43.90246" lon="5.11479">
        <ele>145.60000610352</ele>
        <time>2012-06-17T09:31:29.000Z</time>
      </trkpt>
      <trkpt lat="43.90242" lon="5.11481">
        <ele>145.60000610352</ele>
        <time>2012-06-17T09:31:38.000Z</time>
      </trkpt>
      <trkpt lat="43.9024" lon="5.11483">
        <ele>145.80000305176</ele>
        <time>2012-06-17T09:31:45.000Z</time>
      </trkpt>
      <trkpt lat="43.90231" lon="5.11487">
        <ele>146</ele>
        <time>2012-06-17T09:31:53.000Z</time>
      </trkpt>
      <trkpt lat="43.90223" lon="5.11494">
        <ele>146.39999389648</ele>
        <time>2012-06-17T09:32:00.000Z</time>
      </trkpt>
      <trkpt lat="43.90219" lon="5.11504">
        <ele>147.80000305176</ele>
        <time>2012-06-17T09:32:06.000Z</time>
      </trkpt>
      <trkpt lat="43.90217" lon="5.11507">
        <ele>148</ele>
        <time>2012-06-17T09:32:11.000Z</time>
      </trkpt>
      <trkpt lat="43.90216" lon="5.11522">
        <ele>149.60000610352</ele>
        <time>2012-06-17T09:32:18.000Z</time>
      </trkpt>
      <trkpt lat="43.90216" lon="5.11525">
        <ele>150.19999694824</ele>
        <time>2012-06-17T09:32:23.000Z</time>
      </trkpt>
      <trkpt lat="43.90216" lon="5.1153">
        <ele>150.80000305176</ele>
        <time>2012-06-17T09:32:28.000Z</time>
      </trkpt>
      <trkpt lat="43.90218" lon="5.11535">
        <ele>151.60000610352</ele>
        <time>2012-06-17T09:32:33.000Z</time>
      </trkpt>
      <trkpt lat="43.90218" lon="5.11544">
        <ele>152.80000305176</ele>
        <time>2012-06-17T09:32:40.000Z</time>
      </trkpt>
      <trkpt lat="43.90219" lon="5.11558">
        <ele>154.80000305176</ele>
        <time>2012-06-17T09:32:45.000Z</time>
      </trkpt>
      <trkpt lat="43.9022" lon="5.11576">
        <ele>157.19999694824</ele>
        <time>2012-06-17T09:32:50.000Z</time>
      </trkpt>
      <trkpt lat="43.90225" lon="5.11596">
        <ele>159</ele>
        <time>2012-06-17T09:32:55.000Z</time>
      </trkpt>
      <trkpt lat="43.9023" lon="5.11606">
        <ele>160</ele>
        <time>2012-06-17T09:33:00.000Z</time>
      </trkpt>
      <trkpt lat="43.90235" lon="5.11615">
        <ele>160.80000305176</ele>
        <time>2012-06-17T09:33:06.000Z</time>
      </trkpt>
      <trkpt lat="43.90236" lon="5.11619">
        <ele>161</ele>
        <time>2012-06-17T09:33:12.000Z</time>
      </trkpt>
      <trkpt lat="43.90236" lon="5.11623">
        <ele>161.19999694824</ele>
        <time>2012-06-17T09:33:17.000Z</time>
      </trkpt>
      <trkpt lat="43.90234" lon="5.11626">
        <ele>161</ele>
        <time>2012-06-17T09:33:21.000Z</time>
      </trkpt>
      <trkpt lat="43.9023" lon="5.11627">
        <ele>160.60000610352</ele>
        <time>2012-06-17T09:33:27.000Z</time>
      </trkpt>
      <trkpt lat="43.90226" lon="5.11629">
        <ele>160.19999694824</ele>
        <time>2012-06-17T09:33:32.000Z</time>
      </trkpt>
      <trkpt lat="43.90216" lon="5.11639">
        <ele>159.80000305176</ele>
        <time>2012-06-17T09:33:37.000Z</time>
      </trkpt>
      <trkpt lat="43.90204" lon="5.11645">
        <ele>159</ele>
        <time>2012-06-17T09:33:41.000Z</time>
      </trkpt>
      <trkpt lat="43.90183" lon="5.11655">
        <ele>158.19999694824</ele>
        <time>2012-06-17T09:33:47.000Z</time>
      </trkpt>
      <trkpt lat="43.90163" lon="5.11657">
        <ele>157.39999389648</ele>
        <time>2012-06-17T09:33:53.000Z</time>
      </trkpt>
      <trkpt lat="43.90151" lon="5.1165">
        <ele>157.19999694824</ele>
        <time>2012-06-17T09:33:59.000Z</time>
      </trkpt>
      <trkpt lat="43.90142" lon="5.11648">
        <ele>157.39999389648</ele>
        <time>2012-06-17T09:34:03.000Z</time>
      </trkpt>
      <trkpt lat="43.9014" lon="5.11648">
        <ele>157.39999389648</ele>
        <time>2012-06-17T09:34:04.000Z</time>
      </trkpt>
      <trkpt lat="43.90129" lon="5.11653">
        <ele>158.19999694824</ele>
        <time>2012-06-17T09:34:10.000Z</time>
      </trkpt>
      <trkpt lat="43.90123" lon="5.11662">
        <ele>159.19999694824</ele>
        <time>2012-06-17T09:34:16.000Z</time>
      </trkpt>
      <trkpt lat="43.90128" lon="5.1167">
        <ele>159.60000610352</ele>
        <time>2012-06-17T09:34:20.000Z</time>
      </trkpt>
      <trkpt lat="43.9014" lon="5.1168">
        <ele>159.60000610352</ele>
        <time>2012-06-17T09:34:26.000Z</time>
      </trkpt>
      <trkpt lat="43.90157" lon="5.11691">
        <ele>159.80000305176</ele>
        <time>2012-06-17T09:34:32.000Z</time>
      </trkpt>
      <trkpt lat="43.90163" lon="5.11694">
        <ele>159.80000305176</ele>
        <time>2012-06-17T09:34:34.000Z</time>
      </trkpt>
      <trkpt lat="43.90178" lon="5.1171">
        <ele>161.19999694824</ele>
        <time>2012-06-17T09:34:40.000Z</time>
      </trkpt>
      <trkpt lat="43.90193" lon="5.11729">
        <ele>163</ele>
        <time>2012-06-17T09:34:46.000Z</time>
      </trkpt>
      <trkpt lat="43.90206" lon="5.1175">
        <ele>164.80000305176</ele>
        <time>2012-06-17T09:34:52.000Z</time>
      </trkpt>
      <trkpt lat="43.90208" lon="5.11752">
        <ele>165.19999694824</ele>
        <time>2012-06-17T09:34:53.000Z</time>
      </trkpt>
      <trkpt lat="43.90222" lon="5.11763">
        <ele>166.39999389648</ele>
        <time>2012-06-17T09:34:58.000Z</time>
      </trkpt>
      <trkpt lat="43.90233" lon="5.11771">
        <ele>167.19999694824</ele>
        <time>2012-06-17T09:35:03.000Z</time>
      </trkpt>
      <trkpt lat="43.90233" lon="5.11775">
        <ele>167.39999389648</ele>
        <time>2012-06-17T09:35:04.000Z</time>
      </trkpt>
      <trkpt lat="43.90234" lon="5.11785">
        <ele>167.80000305176</ele>
        <time>2012-06-17T09:35:07.000Z</time>
      </trkpt>
      <trkpt lat="43.90237" lon="5.11805">
        <ele>168.80000305176</ele>
        <time>2012-06-17T09:35:14.000Z</time>
      </trkpt>
      <trkpt lat="43.90243" lon="5.1182">
        <ele>169.39999389648</ele>
        <time>2012-06-17T09:35:20.000Z</time>
      </trkpt>
      <trkpt lat="43.90242" lon="5.11834">
        <ele>170</ele>
        <time>2012-06-17T09:35:27.000Z</time>
      </trkpt>
      <trkpt lat="43.90241" lon="5.11838">
        <ele>170.39999389648</ele>
        <time>2012-06-17T09:35:33.000Z</time>
      </trkpt>
      <trkpt lat="43.90242" lon="5.11845">
        <ele>171</ele>
        <time>2012-06-17T09:35:39.000Z</time>
      </trkpt>
      <trkpt lat="43.90243" lon="5.11846">
        <ele>171.19999694824</ele>
        <time>2012-06-17T09:35:41.000Z</time>
      </trkpt>
      <trkpt lat="43.90242" lon="5.11853">
        <ele>171.80000305176</ele>
        <time>2012-06-17T09:35:46.000Z</time>
      </trkpt>
      <trkpt lat="43.90244" lon="5.11858">
        <ele>172.19999694824</ele>
        <time>2012-06-17T09:35:49.000Z</time>
      </trkpt>
      <trkpt lat="43.90248" lon="5.11863">
        <ele>172.80000305176</ele>
        <time>2012-06-17T09:35:53.000Z</time>
      </trkpt>
      <trkpt lat="43.90249" lon="5.11866">
        <ele>173.19999694824</ele>
        <time>2012-06-17T09:35:57.000Z</time>
      </trkpt>
      <trkpt lat="43.90248" lon="5.11871">
        <ele>173.60000610352</ele>
        <time>2012-06-17T09:36:02.000Z</time>
      </trkpt>
      <trkpt lat="43.90243" lon="5.11883">
        <ele>174.60000610352</ele>
        <time>2012-06-17T09:36:07.000Z</time>
      </trkpt>
      <trkpt lat="43.90243" lon="5.11898">
        <ele>176</ele>
        <time>2012-06-17T09:36:13.000Z</time>
      </trkpt>
      <trkpt lat="43.90244" lon="5.11908">
        <ele>177</ele>
        <time>2012-06-17T09:36:19.000Z</time>
      </trkpt>
      <trkpt lat="43.90242" lon="5.11911">
        <ele>177.19999694824</ele>
        <time>2012-06-17T09:36:23.000Z</time>
      </trkpt>
      <trkpt lat="43.90242" lon="5.11912">
        <ele>177.19999694824</ele>
        <time>2012-06-17T09:36:24.000Z</time>
      </trkpt>
      <trkpt lat="43.90242" lon="5.11914">
        <ele>177.39999389648</ele>
        <time>2012-06-17T09:36:30.000Z</time>
      </trkpt>
      <trkpt lat="43.90242" lon="5.1192">
        <ele>178</ele>
        <time>2012-06-17T09:36:36.000Z</time>
      </trkpt>
      <trkpt lat="43.9024" lon="5.11923">
        <ele>178.19999694824</ele>
        <time>2012-06-17T09:36:39.000Z</time>
      </trkpt>
      <trkpt lat="43.90237" lon="5.11922">
        <ele>177.80000305176</ele>
        <time>2012-06-17T09:36:42.000Z</time>
      </trkpt>
      <trkpt lat="43.90232" lon="5.11924">
        <ele>178</ele>
        <time>2012-06-17T09:36:47.000Z</time>
      </trkpt>
      <trkpt lat="43.90229" lon="5.11926">
        <ele>178</ele>
        <time>2012-06-17T09:36:50.000Z</time>
      </trkpt>
      <trkpt lat="43.90224" lon="5.11932">
        <ele>178.19999694824</ele>
        <time>2012-06-17T09:36:55.000Z</time>
      </trkpt>
      <trkpt lat="43.90219" lon="5.11943">
        <ele>179</ele>
        <time>2012-06-17T09:37:02.000Z</time>
      </trkpt>
      <trkpt lat="43.90216" lon="5.11948">
        <ele>179.19999694824</ele>
        <time>2012-06-17T09:37:08.000Z</time>
      </trkpt>
      <trkpt lat="43.90213" lon="5.1195">
        <ele>179.19999694824</ele>
        <time>2012-06-17T09:37:13.000Z</time>
      </trkpt>
      <trkpt lat="43.90205" lon="5.11959">
        <ele>179.60000610352</ele>
        <time>2012-06-17T09:37:18.000Z</time>
      </trkpt>
      <trkpt lat="43.90202" lon="5.1196">
        <ele>179.39999389648</ele>
        <time>2012-06-17T09:37:19.000Z</time>
      </trkpt>
      <trkpt lat="43.90193" lon="5.11958">
        <ele>178.80000305176</ele>
        <time>2012-06-17T09:37:22.000Z</time>
      </trkpt>
      <trkpt lat="43.90186" lon="5.11954">
        <ele>178</ele>
        <time>2012-06-17T09:37:24.000Z</time>
      </trkpt>
      <trkpt lat="43.90169" lon="5.11948">
        <ele>176.39999389648</ele>
        <time>2012-06-17T09:37:28.000Z</time>
      </trkpt>
      <trkpt lat="43.90152" lon="5.1194">
        <ele>175</ele>
        <time>2012-06-17T09:37:33.000Z</time>
      </trkpt>
      <trkpt lat="43.90134" lon="5.1194">
        <ele>174.19999694824</ele>
        <time>2012-06-17T09:37:38.000Z</time>
      </trkpt>
      <trkpt lat="43.9013" lon="5.11941">
        <ele>174.19999694824</ele>
        <time>2012-06-17T09:37:39.000Z</time>
      </trkpt>
      <trkpt lat="43.90111" lon="5.11949">
        <ele>174.19999694824</ele>
        <time>2012-06-17T09:37:44.000Z</time>
      </trkpt>
      <trkpt lat="43.90107" lon="5.11949">
        <ele>174</ele>
        <time>2012-06-17T09:37:45.000Z</time>
      </trkpt>
      <trkpt lat="43.90101" lon="5.11943">
        <ele>173.19999694824</ele>
        <time>2012-06-17T09:37:47.000Z</time>
      </trkpt>
      <trkpt lat="43.901" lon="5.11939">
        <ele>172.80000305176</ele>
        <time>2012-06-17T09:37:48.000Z</time>
      </trkpt>
      <trkpt lat="43.90098" lon="5.11936">
        <ele>172.39999389648</ele>
        <time>2012-06-17T09:37:50.000Z</time>
      </trkpt>
      <trkpt lat="43.90093" lon="5.11937">
        <ele>172.39999389648</ele>
        <time>2012-06-17T09:37:52.000Z</time>
      </trkpt>
      <trkpt lat="43.90089" lon="5.11947">
        <ele>173</ele>
        <time>2012-06-17T09:37:55.000Z</time>
      </trkpt>
      <trkpt lat="43.9008" lon="5.11948">
        <ele>173</ele>
        <time>2012-06-17T09:37:58.000Z</time>
      </trkpt>
      <trkpt lat="43.90071" lon="5.11959">
        <ele>174</ele>
        <time>2012-06-17T09:38:01.000Z</time>
      </trkpt>
      <trkpt lat="43.90067" lon="5.11961">
        <ele>174</ele>
        <time>2012-06-17T09:38:02.000Z</time>
      </trkpt>
      <trkpt lat="43.90062" lon="5.11968">
        <ele>174.60000610352</ele>
        <time>2012-06-17T09:38:04.000Z</time>
      </trkpt>
      <trkpt lat="43.90056" lon="5.11974">
        <ele>175.19999694824</ele>
        <time>2012-06-17T09:38:06.000Z</time>
      </trkpt>
      <trkpt lat="43.90047" lon="5.11987">
        <ele>176.39999389648</ele>
        <time>2012-06-17T09:38:11.000Z</time>
      </trkpt>
      <trkpt lat="43.90037" lon="5.11993">
        <ele>176.80000305176</ele>
        <time>2012-06-17T09:38:16.000Z</time>
      </trkpt>
      <trkpt lat="43.90027" lon="5.11988">
        <ele>176.19999694824</ele>
        <time>2012-06-17T09:38:21.000Z</time>
      </trkpt>
      <trkpt lat="43.90024" lon="5.11988">
        <ele>176.19999694824</ele>
        <time>2012-06-17T09:38:23.000Z</time>
      </trkpt>
      <trkpt lat="43.90024" lon="5.11988">
        <ele>176.19999694824</ele>
        <time>2012-06-17T09:38:25.000Z</time>
      </trkpt>
      <trkpt lat="43.9002" lon="5.11985">
        <ele>175.80000305176</ele>
        <time>2012-06-17T09:38:30.000Z</time>
      </trkpt>
      <trkpt lat="43.90017" lon="5.11985">
        <ele>175.80000305176</ele>
        <time>2012-06-17T09:38:33.000Z</time>
      </trkpt>
      <trkpt lat="43.90016" lon="5.11988">
        <ele>176</ele>
        <time>2012-06-17T09:38:35.000Z</time>
      </trkpt>
      <trkpt lat="43.90013" lon="5.11991">
        <ele>176.39999389648</ele>
        <time>2012-06-17T09:38:39.000Z</time>
      </trkpt>
      <trkpt lat="43.90011" lon="5.11991">
        <ele>176.19999694824</ele>
        <time>2012-06-17T09:38:42.000Z</time>
      </trkpt>
      <trkpt lat="43.90008" lon="5.11994">
        <ele>176.60000610352</ele>
        <time>2012-06-17T09:38:47.000Z</time>
      </trkpt>
      <trkpt lat="43.90003" lon="5.11997">
        <ele>176.80000305176</ele>
        <time>2012-06-17T09:38:54.000Z</time>
      </trkpt>
      <trkpt lat="43.90001" lon="5.11996">
        <ele>176.60000610352</ele>
        <time>2012-06-17T09:38:55.000Z</time>
      </trkpt>
      <trkpt lat="43.89998" lon="5.11992">
        <ele>176</ele>
        <time>2012-06-17T09:38:58.000Z</time>
      </trkpt>
      <trkpt lat="43.89997" lon="5.11988">
        <ele>175.60000610352</ele>
        <time>2012-06-17T09:39:01.000Z</time>
      </trkpt>
      <trkpt lat="43.89997" lon="5.11988">
        <ele>175.60000610352</ele>
        <time>2012-06-17T09:39:02.000Z</time>
      </trkpt>
      <trkpt lat="43.89995" lon="5.11984">
        <ele>175.19999694824</ele>
        <time>2012-06-17T09:39:09.000Z</time>
      </trkpt>
      <trkpt lat="43.8999" lon="5.11983">
        <ele>174.80000305176</ele>
        <time>2012-06-17T09:39:14.000Z</time>
      </trkpt>
      <trkpt lat="43.89985" lon="5.11979">
        <ele>174.19999694824</ele>
        <time>2012-06-17T09:39:20.000Z</time>
      </trkpt>
      <trkpt lat="43.89977" lon="5.11969">
        <ele>172.80000305176</ele>
        <time>2012-06-17T09:39:26.000Z</time>
      </trkpt>
      <trkpt lat="43.8997" lon="5.11961">
        <ele>171.80000305176</ele>
        <time>2012-06-17T09:39:30.000Z</time>
      </trkpt>
      <trkpt lat="43.89968" lon="5.11959">
        <ele>171.60000610352</ele>
        <time>2012-06-17T09:39:31.000Z</time>
      </trkpt>
      <trkpt lat="43.89959" lon="5.11958">
        <ele>171</ele>
        <time>2012-06-17T09:39:36.000Z</time>
      </trkpt>
      <trkpt lat="43.89953" lon="5.11956">
        <ele>170.60000610352</ele>
        <time>2012-06-17T09:39:41.000Z</time>
      </trkpt>
      <trkpt lat="43.89948" lon="5.11957">
        <ele>170.39999389648</ele>
        <time>2012-06-17T09:39:46.000Z</time>
      </trkpt>
      <trkpt lat="43.89945" lon="5.11956">
        <ele>170.19999694824</ele>
        <time>2012-06-17T09:39:48.000Z</time>
      </trkpt>
      <trkpt lat="43.89944" lon="5.11956">
        <ele>170.19999694824</ele>
        <time>2012-06-17T09:39:51.000Z</time>
      </trkpt>
      <trkpt lat="43.89937" lon="5.11957">
        <ele>170</ele>
        <time>2012-06-17T09:39:56.000Z</time>
      </trkpt>
      <trkpt lat="43.89929" lon="5.1195">
        <ele>169.19999694824</ele>
        <time>2012-06-17T09:40:00.000Z</time>
      </trkpt>
      <trkpt lat="43.89929" lon="5.11951">
        <ele>169.19999694824</ele>
        <time>2012-06-17T09:40:04.000Z</time>
      </trkpt>
      <trkpt lat="43.89926" lon="5.1195">
        <ele>169</ele>
        <time>2012-06-17T09:40:09.000Z</time>
      </trkpt>
      <trkpt lat="43.89919" lon="5.11941">
        <ele>168.19999694824</ele>
        <time>2012-06-17T09:40:13.000Z</time>
      </trkpt>
      <trkpt lat="43.89918" lon="5.11939">
        <ele>168.19999694824</ele>
        <time>2012-06-17T09:40:17.000Z</time>
      </trkpt>
      <trkpt lat="43.89915" lon="5.11935">
        <ele>167.60000610352</ele>
        <time>2012-06-17T09:40:22.000Z</time>
      </trkpt>
      <trkpt lat="43.89914" lon="5.11935">
        <ele>167.60000610352</ele>
        <time>2012-06-17T09:40:23.000Z</time>
      </trkpt>
      <trkpt lat="43.89908" lon="5.11937">
        <ele>167.19999694824</ele>
        <time>2012-06-17T09:40:29.000Z</time>
      </trkpt>
      <trkpt lat="43.89906" lon="5.11937">
        <ele>167</ele>
        <time>2012-06-17T09:40:31.000Z</time>
      </trkpt>
      <trkpt lat="43.89905" lon="5.11937">
        <ele>166.80000305176</ele>
        <time>2012-06-17T09:40:33.000Z</time>
      </trkpt>
      <trkpt lat="43.89896" lon="5.11938">
        <ele>166</ele>
        <time>2012-06-17T09:40:39.000Z</time>
      </trkpt>
      <trkpt lat="43.89892" lon="5.11943">
        <ele>165.60000610352</ele>
        <time>2012-06-17T09:40:44.000Z</time>
      </trkpt>
      <trkpt lat="43.89891" lon="5.11943">
        <ele>165.60000610352</ele>
        <time>2012-06-17T09:40:45.000Z</time>
      </trkpt>
      <trkpt lat="43.89885" lon="5.11949">
        <ele>165.19999694824</ele>
        <time>2012-06-17T09:40:50.000Z</time>
      </trkpt>
      <trkpt lat="43.89883" lon="5.1195">
        <ele>165</ele>
        <time>2012-06-17T09:40:52.000Z</time>
      </trkpt>
      <trkpt lat="43.89878" lon="5.1195">
        <ele>164.60000610352</ele>
        <time>2012-06-17T09:40:56.000Z</time>
      </trkpt>
      <trkpt lat="43.89876" lon="5.11948">
        <ele>164.19999694824</ele>
        <time>2012-06-17T09:40:58.000Z</time>
      </trkpt>
      <trkpt lat="43.8987" lon="5.11943">
        <ele>163.39999389648</ele>
        <time>2012-06-17T09:41:01.000Z</time>
      </trkpt>
      <trkpt lat="43.89866" lon="5.11941">
        <ele>163</ele>
        <time>2012-06-17T09:41:04.000Z</time>
      </trkpt>
      <trkpt lat="43.89862" lon="5.1194">
        <ele>162.39999389648</ele>
        <time>2012-06-17T09:41:06.000Z</time>
      </trkpt>
      <trkpt lat="43.89853" lon="5.11936">
        <ele>161.39999389648</ele>
        <time>2012-06-17T09:41:11.000Z</time>
      </trkpt>
      <trkpt lat="43.89851" lon="5.11941">
        <ele>161.39999389648</ele>
        <time>2012-06-17T09:41:16.000Z</time>
      </trkpt>
      <trkpt lat="43.89846" lon="5.11946">
        <ele>161</ele>
        <time>2012-06-17T09:41:20.000Z</time>
      </trkpt>
      <trkpt lat="43.89843" lon="5.1194">
        <ele>160.60000610352</ele>
        <time>2012-06-17T09:41:23.000Z</time>
      </trkpt>
      <trkpt lat="43.89841" lon="5.11937">
        <ele>160.19999694824</ele>
        <time>2012-06-17T09:41:24.000Z</time>
      </trkpt>
      <trkpt lat="43.89836" lon="5.11932">
        <ele>159.60000610352</ele>
        <time>2012-06-17T09:41:27.000Z</time>
      </trkpt>
      <trkpt lat="43.89834" lon="5.11931">
        <ele>159.39999389648</ele>
        <time>2012-06-17T09:41:28.000Z</time>
      </trkpt>
      <trkpt lat="43.89825" lon="5.11928">
        <ele>158.60000610352</ele>
        <time>2012-06-17T09:41:32.000Z</time>
      </trkpt>
      <trkpt lat="43.89824" lon="5.1192">
        <ele>158.19999694824</ele>
        <time>2012-06-17T09:41:34.000Z</time>
      </trkpt>
      <trkpt lat="43.89822" lon="5.11911">
        <ele>157.39999389648</ele>
        <time>2012-06-17T09:41:36.000Z</time>
      </trkpt>
      <trkpt lat="43.89818" lon="5.11903">
        <ele>156.19999694824</ele>
        <time>2012-06-17T09:41:39.000Z</time>
      </trkpt>
      <trkpt lat="43.89815" lon="5.11902">
        <ele>156</ele>
        <time>2012-06-17T09:41:40.000Z</time>
      </trkpt>
      <trkpt lat="43.89811" lon="5.119">
        <ele>155.39999389648</ele>
        <time>2012-06-17T09:41:44.000Z</time>
      </trkpt>
      <trkpt lat="43.89807" lon="5.11898">
        <ele>155</ele>
        <time>2012-06-17T09:41:46.000Z</time>
      </trkpt>
      <trkpt lat="43.89802" lon="5.11897">
        <ele>154.60000610352</ele>
        <time>2012-06-17T09:41:49.000Z</time>
      </trkpt>
      <trkpt lat="43.89795" lon="5.119">
        <ele>154.19999694824</ele>
        <time>2012-06-17T09:41:53.000Z</time>
      </trkpt>
      <trkpt lat="43.89793" lon="5.11911">
        <ele>154.80000305176</ele>
        <time>2012-06-17T09:41:58.000Z</time>
      </trkpt>
      <trkpt lat="43.89791" lon="5.11916">
        <ele>154.80000305176</ele>
        <time>2012-06-17T09:42:01.000Z</time>
      </trkpt>
      <trkpt lat="43.89791" lon="5.11916">
        <ele>155</ele>
        <time>2012-06-17T09:42:03.000Z</time>
      </trkpt>
      <trkpt lat="43.89786" lon="5.11919">
        <ele>154.60000610352</ele>
        <time>2012-06-17T09:42:09.000Z</time>
      </trkpt>
      <trkpt lat="43.89784" lon="5.11921">
        <ele>154.39999389648</ele>
        <time>2012-06-17T09:42:13.000Z</time>
      </trkpt>
      <trkpt lat="43.89784" lon="5.11921">
        <ele>154.39999389648</ele>
        <time>2012-06-17T09:42:14.000Z</time>
      </trkpt>
      <trkpt lat="43.89784" lon="5.11921">
        <ele>154.39999389648</ele>
        <time>2012-06-17T09:42:26.000Z</time>
      </trkpt>
      <trkpt lat="43.89785" lon="5.11924">
        <ele>154.60000610352</ele>
        <time>2012-06-17T09:42:30.000Z</time>
      </trkpt>
      <trkpt lat="43.89781" lon="5.11924">
        <ele>154.19999694824</ele>
        <time>2012-06-17T09:42:34.000Z</time>
      </trkpt>
      <trkpt lat="43.89779" lon="5.11924">
        <ele>154</ele>
        <time>2012-06-17T09:42:36.000Z</time>
      </trkpt>
      <trkpt lat="43.89779" lon="5.11925">
        <ele>154</ele>
        <time>2012-06-17T09:42:38.000Z</time>
      </trkpt>
      <trkpt lat="43.89781" lon="5.11924">
        <ele>154.19999694824</ele>
        <time>2012-06-17T09:42:41.000Z</time>
      </trkpt>
      <trkpt lat="43.89784" lon="5.1192">
        <ele>154.39999389648</ele>
        <time>2012-06-17T09:42:46.000Z</time>
      </trkpt>
      <trkpt lat="43.89784" lon="5.11922">
        <ele>154.39999389648</ele>
        <time>2012-06-17T09:42:54.000Z</time>
      </trkpt>
      <trkpt lat="43.89782" lon="5.11923">
        <ele>154.19999694824</ele>
        <time>2012-06-17T09:42:55.000Z</time>
      </trkpt>
      <trkpt lat="43.8978" lon="5.11924">
        <ele>154</ele>
        <time>2012-06-17T09:42:58.000Z</time>
      </trkpt>
      <trkpt lat="43.89773" lon="5.11922">
        <ele>153.39999389648</ele>
        <time>2012-06-17T09:43:07.000Z</time>
      </trkpt>
      <trkpt lat="43.89771" lon="5.11922">
        <ele>153.19999694824</ele>
        <time>2012-06-17T09:43:13.000Z</time>
      </trkpt>
      <trkpt lat="43.89769" lon="5.1192">
        <ele>152.80000305176</ele>
        <time>2012-06-17T09:43:17.000Z</time>
      </trkpt>
      <trkpt lat="43.89767" lon="5.11918">
        <ele>152.60000610352</ele>
        <time>2012-06-17T09:43:19.000Z</time>
      </trkpt>
      <trkpt lat="43.89757" lon="5.11905">
        <ele>151.39999389648</ele>
        <time>2012-06-17T09:43:25.000Z</time>
      </trkpt>
      <trkpt lat="43.89747" lon="5.11889">
        <ele>150.60000610352</ele>
        <time>2012-06-17T09:43:32.000Z</time>
      </trkpt>
      <trkpt lat="43.89744" lon="5.11886">
        <ele>150.39999389648</ele>
        <time>2012-06-17T09:43:34.000Z</time>
      </trkpt>
      <trkpt lat="43.89741" lon="5.1189">
        <ele>150.39999389648</ele>
        <time>2012-06-17T09:43:37.000Z</time>
      </trkpt>
      <trkpt lat="43.89745" lon="5.119">
        <ele>150.60000610352</ele>
        <time>2012-06-17T09:43:40.000Z</time>
      </trkpt>
      <trkpt lat="43.89747" lon="5.11903">
        <ele>150.80000305176</ele>
        <time>2012-06-17T09:43:41.000Z</time>
      </trkpt>
      <trkpt lat="43.89758" lon="5.11925">
        <ele>152</ele>
        <time>2012-06-17T09:43:48.000Z</time>
      </trkpt>
      <trkpt lat="43.89752" lon="5.1194">
        <ele>152</ele>
        <time>2012-06-17T09:43:52.000Z</time>
      </trkpt>
      <trkpt lat="43.89744" lon="5.11965">
        <ele>152.60000610352</ele>
        <time>2012-06-17T09:43:58.000Z</time>
      </trkpt>
      <trkpt lat="43.89741" lon="5.11972">
        <ele>152.80000305176</ele>
        <time>2012-06-17T09:44:00.000Z</time>
      </trkpt>
      <trkpt lat="43.89732" lon="5.11996">
        <ele>153.80000305176</ele>
        <time>2012-06-17T09:44:07.000Z</time>
      </trkpt>
      <trkpt lat="43.89726" lon="5.12015">
        <ele>155.19999694824</ele>
        <time>2012-06-17T09:44:14.000Z</time>
      </trkpt>
      <trkpt lat="43.89722" lon="5.12026">
        <ele>156.19999694824</ele>
        <time>2012-06-17T09:44:20.000Z</time>
      </trkpt>
      <trkpt lat="43.89719" lon="5.12032">
        <ele>156.80000305176</ele>
        <time>2012-06-17T09:44:25.000Z</time>
      </trkpt>
      <trkpt lat="43.89714" lon="5.12042">
        <ele>157.60000610352</ele>
        <time>2012-06-17T09:44:33.000Z</time>
      </trkpt>
      <trkpt lat="43.89712" lon="5.12048">
        <ele>158.19999694824</ele>
        <time>2012-06-17T09:44:39.000Z</time>
      </trkpt>
      <trkpt lat="43.8971" lon="5.12053">
        <ele>158.80000305176</ele>
        <time>2012-06-17T09:44:54.000Z</time>
      </trkpt>
      <trkpt lat="43.89705" lon="5.12064">
        <ele>160</ele>
        <time>2012-06-17T09:45:02.000Z</time>
      </trkpt>
      <trkpt lat="43.89703" lon="5.12071">
        <ele>160.60000610352</ele>
        <time>2012-06-17T09:45:07.000Z</time>
      </trkpt>
      <trkpt lat="43.89702" lon="5.12073">
        <ele>160.80000305176</ele>
        <time>2012-06-17T09:45:08.000Z</time>
      </trkpt>
      <trkpt lat="43.89697" lon="5.12085">
        <ele>162</ele>
        <time>2012-06-17T09:45:15.000Z</time>
      </trkpt>
      <trkpt lat="43.89696" lon="5.12098">
        <ele>162.80000305176</ele>
        <time>2012-06-17T09:45:22.000Z</time>
      </trkpt>
      <trkpt lat="43.89694" lon="5.12111">
        <ele>163.80000305176</ele>
        <time>2012-06-17T09:45:27.000Z</time>
      </trkpt>
      <trkpt lat="43.89692" lon="5.12124">
        <ele>164.80000305176</ele>
        <time>2012-06-17T09:45:35.000Z</time>
      </trkpt>
      <trkpt lat="43.89693" lon="5.12137">
        <ele>165.39999389648</ele>
        <time>2012-06-17T09:45:42.000Z</time>
      </trkpt>
      <trkpt lat="43.89693" lon="5.12146">
        <ele>166</ele>
        <time>2012-06-17T09:45:48.000Z</time>
      </trkpt>
      <trkpt lat="43.89692" lon="5.12165">
        <ele>167.39999389648</ele>
        <time>2012-06-17T09:45:55.000Z</time>
      </trkpt>
      <trkpt lat="43.89696" lon="5.12179">
        <ele>168.80000305176</ele>
        <time>2012-06-17T09:46:01.000Z</time>
      </trkpt>
      <trkpt lat="43.89702" lon="5.12194">
        <ele>170.39999389648</ele>
        <time>2012-06-17T09:46:08.000Z</time>
      </trkpt>
      <trkpt lat="43.89701" lon="5.12197">
        <ele>171</ele>
        <time>2012-06-17T09:46:09.000Z</time>
      </trkpt>
      <trkpt lat="43.89697" lon="5.12201">
        <ele>171.80000305176</ele>
        <time>2012-06-17T09:46:12.000Z</time>
      </trkpt>
      <trkpt lat="43.89694" lon="5.12201">
        <ele>172</ele>
        <time>2012-06-17T09:46:14.000Z</time>
      </trkpt>
      <trkpt lat="43.89688" lon="5.122">
        <ele>172.39999389648</ele>
        <time>2012-06-17T09:46:17.000Z</time>
      </trkpt>
      <trkpt lat="43.89679" lon="5.12197">
        <ele>172.60000610352</ele>
        <time>2012-06-17T09:46:22.000Z</time>
      </trkpt>
      <trkpt lat="43.89668" lon="5.12194">
        <ele>173</ele>
        <time>2012-06-17T09:46:28.000Z</time>
      </trkpt>
      <trkpt lat="43.89658" lon="5.1219">
        <ele>173.19999694824</ele>
        <time>2012-06-17T09:46:33.000Z</time>
      </trkpt>
      <trkpt lat="43.89643" lon="5.12186">
        <ele>173.60000610352</ele>
        <time>2012-06-17T09:46:40.000Z</time>
      </trkpt>
      <trkpt lat="43.89625" lon="5.12182">
        <ele>174</ele>
        <time>2012-06-17T09:46:48.000Z</time>
      </trkpt>
      <trkpt lat="43.89611" lon="5.1218">
        <ele>174.60000610352</ele>
        <time>2012-06-17T09:46:54.000Z</time>
      </trkpt>
      <trkpt lat="43.89597" lon="5.12178">
        <ele>175.19999694824</ele>
        <time>2012-06-17T09:47:00.000Z</time>
      </trkpt>
      <trkpt lat="43.89589" lon="5.12184">
        <ele>176.39999389648</ele>
        <time>2012-06-17T09:47:06.000Z</time>
      </trkpt>
      <trkpt lat="43.8958" lon="5.12188">
        <ele>177.60000610352</ele>
        <time>2012-06-17T09:47:13.000Z</time>
      </trkpt>
      <trkpt lat="43.89569" lon="5.12193">
        <ele>178.39999389648</ele>
        <time>2012-06-17T09:47:22.000Z</time>
      </trkpt>
      <trkpt lat="43.89558" lon="5.12202">
        <ele>179.60000610352</ele>
        <time>2012-06-17T09:47:31.000Z</time>
      </trkpt>
      <trkpt lat="43.89554" lon="5.12208">
        <ele>180.39999389648</ele>
        <time>2012-06-17T09:47:38.000Z</time>
      </trkpt>
      <trkpt lat="43.89552" lon="5.1221">
        <ele>180.60000610352</ele>
        <time>2012-06-17T09:47:45.000Z</time>
      </trkpt>
      <trkpt lat="43.89549" lon="5.12211">
        <ele>180.60000610352</ele>
        <time>2012-06-17T09:47:51.000Z</time>
      </trkpt>
      <trkpt lat="43.89544" lon="5.12208">
        <ele>180.19999694824</ele>
        <time>2012-06-17T09:47:58.000Z</time>
      </trkpt>
      <trkpt lat="43.89542" lon="5.12211">
        <ele>180.60000610352</ele>
        <time>2012-06-17T09:48:04.000Z</time>
      </trkpt>
      <trkpt lat="43.89545" lon="5.12221">
        <ele>181.80000305176</ele>
        <time>2012-06-17T09:48:12.000Z</time>
      </trkpt>
      <trkpt lat="43.89547" lon="5.12233">
        <ele>183.39999389648</ele>
        <time>2012-06-17T09:48:21.000Z</time>
      </trkpt>
      <trkpt lat="43.89547" lon="5.12234">
        <ele>183.39999389648</ele>
        <time>2012-06-17T09:48:22.000Z</time>
      </trkpt>
      <trkpt lat="43.89546" lon="5.12234">
        <ele>183.39999389648</ele>
        <time>2012-06-17T09:48:26.000Z</time>
      </trkpt>
      <trkpt lat="43.89548" lon="5.12236">
        <ele>183.60000610352</ele>
        <time>2012-06-17T09:48:44.000Z</time>
      </trkpt>
      <trkpt lat="43.89551" lon="5.12242">
        <ele>184.60000610352</ele>
        <time>2012-06-17T09:48:58.000Z</time>
      </trkpt>
      <trkpt lat="43.89553" lon="5.12248">
        <ele>185.60000610352</ele>
        <time>2012-06-17T09:49:05.000Z</time>
      </trkpt>
      <trkpt lat="43.89557" lon="5.12255">
        <ele>186.60000610352</ele>
        <time>2012-06-17T09:49:18.000Z</time>
      </trkpt>
      <trkpt lat="43.89563" lon="5.12262">
        <ele>187.60000610352</ele>
        <time>2012-06-17T09:49:25.000Z</time>
      </trkpt>
      <trkpt lat="43.89571" lon="5.12266">
        <ele>188.80000305176</ele>
        <time>2012-06-17T09:49:32.000Z</time>
      </trkpt>
      <trkpt lat="43.8958" lon="5.12271">
        <ele>190</ele>
        <time>2012-06-17T09:49:39.000Z</time>
      </trkpt>
      <trkpt lat="43.89591" lon="5.12274">
        <ele>190.39999389648</ele>
        <time>2012-06-17T09:49:47.000Z</time>
      </trkpt>
      <trkpt lat="43.896" lon="5.12282">
        <ele>191</ele>
        <time>2012-06-17T09:49:55.000Z</time>
      </trkpt>
      <trkpt lat="43.89608" lon="5.12288">
        <ele>191.80000305176</ele>
        <time>2012-06-17T09:50:02.000Z</time>
      </trkpt>
      <trkpt lat="43.89612" lon="5.12295">
        <ele>192.80000305176</ele>
        <time>2012-06-17T09:50:09.000Z</time>
      </trkpt>
      <trkpt lat="43.89619" lon="5.12302">
        <ele>194</ele>
        <time>2012-06-17T09:50:15.000Z</time>
      </trkpt>
      <trkpt lat="43.89624" lon="5.12308">
        <ele>195</ele>
        <time>2012-06-17T09:50:21.000Z</time>
      </trkpt>
      <trkpt lat="43.89627" lon="5.1231">
        <ele>195.60000610352</ele>
        <time>2012-06-17T09:50:24.000Z</time>
      </trkpt>
      <trkpt lat="43.89632" lon="5.12316">
        <ele>196.60000610352</ele>
        <time>2012-06-17T09:50:29.000Z</time>
      </trkpt>
      <trkpt lat="43.89639" lon="5.12323">
        <ele>198.39999389648</ele>
        <time>2012-06-17T09:50:36.000Z</time>
      </trkpt>
      <trkpt lat="43.89647" lon="5.12333">
        <ele>200.80000305176</ele>
        <time>2012-06-17T09:50:45.000Z</time>
      </trkpt>
      <trkpt lat="43.89657" lon="5.12341">
        <ele>202.60000610352</ele>
        <time>2012-06-17T09:50:54.000Z</time>
      </trkpt>
      <trkpt lat="43.89665" lon="5.12343">
        <ele>203.60000610352</ele>
        <time>2012-06-17T09:51:02.000Z</time>
      </trkpt>
      <trkpt lat="43.89668" lon="5.12346">
        <ele>204</ele>
        <time>2012-06-17T09:51:06.000Z</time>
      </trkpt>
      <trkpt lat="43.89671" lon="5.12348">
        <ele>204</ele>
        <time>2012-06-17T09:51:08.000Z</time>
      </trkpt>
      <trkpt lat="43.89683" lon="5.12354">
        <ele>204</ele>
        <time>2012-06-17T09:51:15.000Z</time>
      </trkpt>
      <trkpt lat="43.89695" lon="5.12363">
        <ele>204.60000610352</ele>
        <time>2012-06-17T09:51:23.000Z</time>
      </trkpt>
      <trkpt lat="43.89704" lon="5.12369">
        <ele>205</ele>
        <time>2012-06-17T09:51:30.000Z</time>
      </trkpt>
      <trkpt lat="43.89708" lon="5.12372">
        <ele>205.39999389648</ele>
        <time>2012-06-17T09:51:36.000Z</time>
      </trkpt>
      <trkpt lat="43.89713" lon="5.12377">
        <ele>206.19999694824</ele>
        <time>2012-06-17T09:51:41.000Z</time>
      </trkpt>
      <trkpt lat="43.89722" lon="5.12386">
        <ele>207.60000610352</ele>
        <time>2012-06-17T09:51:50.000Z</time>
      </trkpt>
      <trkpt lat="43.89727" lon="5.12391">
        <ele>208.39999389648</ele>
        <time>2012-06-17T09:51:55.000Z</time>
      </trkpt>
      <trkpt lat="43.89727" lon="5.12391">
        <ele>208.60000610352</ele>
        <time>2012-06-17T09:51:56.000Z</time>
      </trkpt>
      <trkpt lat="43.89735" lon="5.12399">
        <ele>210</ele>
        <time>2012-06-17T09:52:02.000Z</time>
      </trkpt>
      <trkpt lat="43.89745" lon="5.12413">
        <ele>213.19999694824</ele>
        <time>2012-06-17T09:52:11.000Z</time>
      </trkpt>
      <trkpt lat="43.89754" lon="5.12425">
        <ele>214.60000610352</ele>
        <time>2012-06-17T09:52:20.000Z</time>
      </trkpt>
      <trkpt lat="43.89761" lon="5.12435">
        <ele>214.80000305176</ele>
        <time>2012-06-17T09:52:27.000Z</time>
      </trkpt>
      <trkpt lat="43.89766" lon="5.12443">
        <ele>214.80000305176</ele>
        <time>2012-06-17T09:52:33.000Z</time>
      </trkpt>
      <trkpt lat="43.89769" lon="5.12448">
        <ele>214.80000305176</ele>
        <time>2012-06-17T09:52:38.000Z</time>
      </trkpt>
      <trkpt lat="43.89769" lon="5.12448">
        <ele>214.80000305176</ele>
        <time>2012-06-17T09:52:39.000Z</time>
      </trkpt>
      <trkpt lat="43.89774" lon="5.12454">
        <ele>214.60000610352</ele>
        <time>2012-06-17T09:52:44.000Z</time>
      </trkpt>
      <trkpt lat="43.8978" lon="5.12463">
        <ele>214.19999694824</ele>
        <time>2012-06-17T09:52:52.000Z</time>
      </trkpt>
      <trkpt lat="43.89783" lon="5.1247">
        <ele>214.39999389648</ele>
        <time>2012-06-17T09:52:57.000Z</time>
      </trkpt>
      <trkpt lat="43.89784" lon="5.12471">
        <ele>214.60000610352</ele>
        <time>2012-06-17T09:52:58.000Z</time>
      </trkpt>
      <trkpt lat="43.89788" lon="5.12486">
        <ele>215.60000610352</ele>
        <time>2012-06-17T09:53:07.000Z</time>
      </trkpt>
      <trkpt lat="43.89787" lon="5.12492">
        <ele>216.60000610352</ele>
        <time>2012-06-17T09:53:12.000Z</time>
      </trkpt>
      <trkpt lat="43.89786" lon="5.12494">
        <ele>217.19999694824</ele>
        <time>2012-06-17T09:53:14.000Z</time>
      </trkpt>
      <trkpt lat="43.89784" lon="5.12495">
        <ele>217.80000305176</ele>
        <time>2012-06-17T09:53:17.000Z</time>
      </trkpt>
      <trkpt lat="43.8978" lon="5.12495">
        <ele>219.19999694824</ele>
        <time>2012-06-17T09:53:21.000Z</time>
      </trkpt>
      <trkpt lat="43.89779" lon="5.12494">
        <ele>219.39999389648</ele>
        <time>2012-06-17T09:53:22.000Z</time>
      </trkpt>
      <trkpt lat="43.89774" lon="5.1249">
        <ele>220.19999694824</ele>
        <time>2012-06-17T09:53:28.000Z</time>
      </trkpt>
      <trkpt lat="43.89768" lon="5.12485">
        <ele>221</ele>
        <time>2012-06-17T09:53:34.000Z</time>
      </trkpt>
      <trkpt lat="43.89757" lon="5.12478">
        <ele>223.19999694824</ele>
        <time>2012-06-17T09:53:40.000Z</time>
      </trkpt>
      <trkpt lat="43.89738" lon="5.12467">
        <ele>223.39999389648</ele>
        <time>2012-06-17T09:53:48.000Z</time>
      </trkpt>
      <trkpt lat="43.89723" lon="5.12461">
        <ele>222.39999389648</ele>
        <time>2012-06-17T09:53:55.000Z</time>
      </trkpt>
      <trkpt lat="43.89716" lon="5.12461">
        <ele>222.60000610352</ele>
        <time>2012-06-17T09:54:01.000Z</time>
      </trkpt>
      <trkpt lat="43.89711" lon="5.12465">
        <ele>223.19999694824</ele>
        <time>2012-06-17T09:54:07.000Z</time>
      </trkpt>
      <trkpt lat="43.89711" lon="5.1247">
        <ele>224</ele>
        <time>2012-06-17T09:54:11.000Z</time>
      </trkpt>
      <trkpt lat="43.89712" lon="5.12472">
        <ele>224.39999389648</ele>
        <time>2012-06-17T09:54:13.000Z</time>
      </trkpt>
      <trkpt lat="43.89714" lon="5.12475">
        <ele>224.80000305176</ele>
        <time>2012-06-17T09:54:19.000Z</time>
      </trkpt>
      <trkpt lat="43.8972" lon="5.12482">
        <ele>226</ele>
        <time>2012-06-17T09:54:27.000Z</time>
      </trkpt>
      <trkpt lat="43.89723" lon="5.12487">
        <ele>226.80000305176</ele>
        <time>2012-06-17T09:54:31.000Z</time>
      </trkpt>
      <trkpt lat="43.89725" lon="5.1249">
        <ele>227.19999694824</ele>
        <time>2012-06-17T09:54:33.000Z</time>
      </trkpt>
      <trkpt lat="43.89731" lon="5.12498">
        <ele>228.60000610352</ele>
        <time>2012-06-17T09:54:40.000Z</time>
      </trkpt>
      <trkpt lat="43.89738" lon="5.12505">
        <ele>229.39999389648</ele>
        <time>2012-06-17T09:54:47.000Z</time>
      </trkpt>
      <trkpt lat="43.89742" lon="5.12517">
        <ele>230</ele>
        <time>2012-06-17T09:54:55.000Z</time>
      </trkpt>
      <trkpt lat="43.89744" lon="5.12528">
        <ele>230.80000305176</ele>
        <time>2012-06-17T09:55:03.000Z</time>
      </trkpt>
      <trkpt lat="43.89742" lon="5.12541">
        <ele>231.60000610352</ele>
        <time>2012-06-17T09:55:11.000Z</time>
      </trkpt>
      <trkpt lat="43.89738" lon="5.12547">
        <ele>232.19999694824</ele>
        <time>2012-06-17T09:55:17.000Z</time>
      </trkpt>
      <trkpt lat="43.89738" lon="5.12548">
        <ele>232.39999389648</ele>
        <time>2012-06-17T09:55:18.000Z</time>
      </trkpt>
      <trkpt lat="43.89735" lon="5.12551">
        <ele>232.60000610352</ele>
        <time>2012-06-17T09:55:21.000Z</time>
      </trkpt>
      <trkpt lat="43.89732" lon="5.12557">
        <ele>233.19999694824</ele>
        <time>2012-06-17T09:55:25.000Z</time>
      </trkpt>
      <trkpt lat="43.89729" lon="5.12563">
        <ele>233.80000305176</ele>
        <time>2012-06-17T09:55:30.000Z</time>
      </trkpt>
      <trkpt lat="43.89722" lon="5.12576">
        <ele>235</ele>
        <time>2012-06-17T09:55:38.000Z</time>
      </trkpt>
      <trkpt lat="43.89716" lon="5.12593">
        <ele>237</ele>
        <time>2012-06-17T09:55:48.000Z</time>
      </trkpt>
      <trkpt lat="43.89712" lon="5.12606">
        <ele>238.60000610352</ele>
        <time>2012-06-17T09:55:57.000Z</time>
      </trkpt>
      <trkpt lat="43.89708" lon="5.12616">
        <ele>239.80000305176</ele>
        <time>2012-06-17T09:56:05.000Z</time>
      </trkpt>
      <trkpt lat="43.89706" lon="5.12626">
        <ele>241</ele>
        <time>2012-06-17T09:56:13.000Z</time>
      </trkpt>
      <trkpt lat="43.89704" lon="5.1263">
        <ele>241.60000610352</ele>
        <time>2012-06-17T09:56:20.000Z</time>
      </trkpt>
      <trkpt lat="43.89703" lon="5.12636">
        <ele>242.19999694824</ele>
        <time>2012-06-17T09:56:27.000Z</time>
      </trkpt>
      <trkpt lat="43.89704" lon="5.12634">
        <ele>242</ele>
        <time>2012-06-17T09:56:36.000Z</time>
      </trkpt>
      <trkpt lat="43.89702" lon="5.12632">
        <ele>242</ele>
        <time>2012-06-17T09:56:50.000Z</time>
      </trkpt>
      <trkpt lat="43.89699" lon="5.12634">
        <ele>242.39999389648</ele>
        <time>2012-06-17T09:56:53.000Z</time>
      </trkpt>
      <trkpt lat="43.89698" lon="5.12636">
        <ele>242.60000610352</ele>
        <time>2012-06-17T09:56:56.000Z</time>
      </trkpt>
      <trkpt lat="43.89698" lon="5.12637">
        <ele>242.80000305176</ele>
        <time>2012-06-17T09:57:02.000Z</time>
      </trkpt>
      <trkpt lat="43.89703" lon="5.1264">
        <ele>242.80000305176</ele>
        <time>2012-06-17T09:57:06.000Z</time>
      </trkpt>
      <trkpt lat="43.89707" lon="5.12641">
        <ele>242.39999389648</ele>
        <time>2012-06-17T09:57:11.000Z</time>
      </trkpt>
      <trkpt lat="43.8971" lon="5.12644">
        <ele>242.60000610352</ele>
        <time>2012-06-17T09:57:13.000Z</time>
      </trkpt>
      <trkpt lat="43.89714" lon="5.12648">
        <ele>242.80000305176</ele>
        <time>2012-06-17T09:57:16.000Z</time>
      </trkpt>
      <trkpt lat="43.89721" lon="5.12655">
        <ele>242.80000305176</ele>
        <time>2012-06-17T09:57:20.000Z</time>
      </trkpt>
      <trkpt lat="43.89723" lon="5.12657">
        <ele>243</ele>
        <time>2012-06-17T09:57:21.000Z</time>
      </trkpt>
      <trkpt lat="43.89727" lon="5.12663">
        <ele>243.39999389648</ele>
        <time>2012-06-17T09:57:24.000Z</time>
      </trkpt>
      <trkpt lat="43.8973" lon="5.12669">
        <ele>243.60000610352</ele>
        <time>2012-06-17T09:57:26.000Z</time>
      </trkpt>
      <trkpt lat="43.89733" lon="5.12674">
        <ele>244</ele>
        <time>2012-06-17T09:57:28.000Z</time>
      </trkpt>
      <trkpt lat="43.89732" lon="5.12676">
        <ele>244.19999694824</ele>
        <time>2012-06-17T09:57:30.000Z</time>
      </trkpt>
      <trkpt lat="43.89733" lon="5.12677">
        <ele>244.39999389648</ele>
        <time>2012-06-17T09:57:32.000Z</time>
      </trkpt>
      <trkpt lat="43.89735" lon="5.1268">
        <ele>244.39999389648</ele>
        <time>2012-06-17T09:57:35.000Z</time>
      </trkpt>
      <trkpt lat="43.89741" lon="5.12693">
        <ele>245.39999389648</ele>
        <time>2012-06-17T09:57:41.000Z</time>
      </trkpt>
      <trkpt lat="43.89741" lon="5.12704">
        <ele>246.60000610352</ele>
        <time>2012-06-17T09:57:46.000Z</time>
      </trkpt>
      <trkpt lat="43.89741" lon="5.1271">
        <ele>247.19999694824</ele>
        <time>2012-06-17T09:57:49.000Z</time>
      </trkpt>
      <trkpt lat="43.89744" lon="5.12714">
        <ele>247.39999389648</ele>
        <time>2012-06-17T09:57:51.000Z</time>
      </trkpt>
      <trkpt lat="43.89751" lon="5.12723">
        <ele>247.80000305176</ele>
        <time>2012-06-17T09:57:55.000Z</time>
      </trkpt>
      <trkpt lat="43.89752" lon="5.12724">
        <ele>247.80000305176</ele>
        <time>2012-06-17T09:57:56.000Z</time>
      </trkpt>
      <trkpt lat="43.89757" lon="5.12731">
        <ele>247.39999389648</ele>
        <time>2012-06-17T09:58:01.000Z</time>
      </trkpt>
      <trkpt lat="43.89762" lon="5.12734">
        <ele>246.80000305176</ele>
        <time>2012-06-17T09:58:03.000Z</time>
      </trkpt>
      <trkpt lat="43.89765" lon="5.12745">
        <ele>247.39999389648</ele>
        <time>2012-06-17T09:58:07.000Z</time>
      </trkpt>
      <trkpt lat="43.89764" lon="5.12756">
        <ele>248.60000610352</ele>
        <time>2012-06-17T09:58:12.000Z</time>
      </trkpt>
      <trkpt lat="43.89763" lon="5.12759">
        <ele>248.80000305176</ele>
        <time>2012-06-17T09:58:13.000Z</time>
      </trkpt>
      <trkpt lat="43.89764" lon="5.12778">
        <ele>250.19999694824</ele>
        <time>2012-06-17T09:58:19.000Z</time>
      </trkpt>
      <trkpt lat="43.89764" lon="5.128">
        <ele>251.60000610352</ele>
        <time>2012-06-17T09:58:24.000Z</time>
      </trkpt>
      <trkpt lat="43.89769" lon="5.12821">
        <ele>252.60000610352</ele>
        <time>2012-06-17T09:58:29.000Z</time>
      </trkpt>
      <trkpt lat="43.89772" lon="5.12841">
        <ele>253.60000610352</ele>
        <time>2012-06-17T09:58:35.000Z</time>
      </trkpt>
      <trkpt lat="43.89775" lon="5.12858">
        <ele>254.39999389648</ele>
        <time>2012-06-17T09:58:40.000Z</time>
      </trkpt>
      <trkpt lat="43.8978" lon="5.12871">
        <ele>254.80000305176</ele>
        <time>2012-06-17T09:58:44.000Z</time>
      </trkpt>
      <trkpt lat="43.8979" lon="5.12881">
        <ele>254.60000610352</ele>
        <time>2012-06-17T09:58:49.000Z</time>
      </trkpt>
      <trkpt lat="43.89801" lon="5.1289">
        <ele>254.39999389648</ele>
        <time>2012-06-17T09:58:55.000Z</time>
      </trkpt>
      <trkpt lat="43.89807" lon="5.12893">
        <ele>254.19999694824</ele>
        <time>2012-06-17T09:58:59.000Z</time>
      </trkpt>
      <trkpt lat="43.89809" lon="5.12895">
        <ele>254.39999389648</ele>
        <time>2012-06-17T09:59:00.000Z</time>
      </trkpt>
      <trkpt lat="43.89812" lon="5.12897">
        <ele>254.19999694824</ele>
        <time>2012-06-17T09:59:06.000Z</time>
      </trkpt>
      <trkpt lat="43.89816" lon="5.12887">
        <ele>253</ele>
        <time>2012-06-17T09:59:28.000Z</time>
      </trkpt>
      <trkpt lat="43.89816" lon="5.12877">
        <ele>251.80000305176</ele>
        <time>2012-06-17T09:59:35.000Z</time>
      </trkpt>
      <trkpt lat="43.89811" lon="5.12859">
        <ele>250.39999389648</ele>
        <time>2012-06-17T09:59:40.000Z</time>
      </trkpt>
      <trkpt lat="43.89809" lon="5.12838">
        <ele>248.80000305176</ele>
        <time>2012-06-17T09:59:46.000Z</time>
      </trkpt>
      <trkpt lat="43.8981" lon="5.12821">
        <ele>246.80000305176</ele>
        <time>2012-06-17T09:59:52.000Z</time>
      </trkpt>
      <trkpt lat="43.89814" lon="5.12804">
        <ele>244.19999694824</ele>
        <time>2012-06-17T09:59:58.000Z</time>
      </trkpt>
      <trkpt lat="43.89814" lon="5.12802">
        <ele>244</ele>
        <time>2012-06-17T10:00:01.000Z</time>
      </trkpt>
      <trkpt lat="43.89812" lon="5.12798">
        <ele>243.80000305176</ele>
        <time>2012-06-17T10:00:03.000Z</time>
      </trkpt>
      <trkpt lat="43.89816" lon="5.12782">
        <ele>241.19999694824</ele>
        <time>2012-06-17T10:00:11.000Z</time>
      </trkpt>
      <trkpt lat="43.89818" lon="5.12759">
        <ele>238.19999694824</ele>
        <time>2012-06-17T10:00:18.000Z</time>
      </trkpt>
      <trkpt lat="43.89819" lon="5.12735">
        <ele>234.60000610352</ele>
        <time>2012-06-17T10:00:24.000Z</time>
      </trkpt>
      <trkpt lat="43.89819" lon="5.12723">
        <ele>233</ele>
        <time>2012-06-17T10:00:28.000Z</time>
      </trkpt>
      <trkpt lat="43.89816" lon="5.12704">
        <ele>230.60000610352</ele>
        <time>2012-06-17T10:00:33.000Z</time>
      </trkpt>
      <trkpt lat="43.89819" lon="5.12694">
        <ele>228.60000610352</ele>
        <time>2012-06-17T10:00:38.000Z</time>
      </trkpt>
      <trkpt lat="43.89821" lon="5.12688">
        <ele>227.39999389648</ele>
        <time>2012-06-17T10:00:44.000Z</time>
      </trkpt>
      <trkpt lat="43.8982" lon="5.12686">
        <ele>227.19999694824</ele>
        <time>2012-06-17T10:00:45.000Z</time>
      </trkpt>
      <trkpt lat="43.89818" lon="5.12681">
        <ele>227</ele>
        <time>2012-06-17T10:00:49.000Z</time>
      </trkpt>
      <trkpt lat="43.89818" lon="5.12679">
        <ele>226.60000610352</ele>
        <time>2012-06-17T10:00:51.000Z</time>
      </trkpt>
      <trkpt lat="43.8982" lon="5.12671">
        <ele>225.19999694824</ele>
        <time>2012-06-17T10:00:57.000Z</time>
      </trkpt>
      <trkpt lat="43.8982" lon="5.12671">
        <ele>225</ele>
        <time>2012-06-17T10:00:58.000Z</time>
      </trkpt>
      <trkpt lat="43.89823" lon="5.12666">
        <ele>223.39999389648</ele>
        <time>2012-06-17T10:01:02.000Z</time>
      </trkpt>
      <trkpt lat="43.89824" lon="5.12665">
        <ele>223.19999694824</ele>
        <time>2012-06-17T10:01:03.000Z</time>
      </trkpt>
      <trkpt lat="43.89828" lon="5.12663">
        <ele>222</ele>
        <time>2012-06-17T10:01:06.000Z</time>
      </trkpt>
      <trkpt lat="43.89828" lon="5.12662">
        <ele>221.60000610352</ele>
        <time>2012-06-17T10:01:07.000Z</time>
      </trkpt>
      <trkpt lat="43.89835" lon="5.12662">
        <ele>220.39999389648</ele>
        <time>2012-06-17T10:01:19.000Z</time>
      </trkpt>
      <trkpt lat="43.89839" lon="5.12666">
        <ele>221.60000610352</ele>
        <time>2012-06-17T10:01:22.000Z</time>
      </trkpt>
      <trkpt lat="43.89832" lon="5.12671">
        <ele>222</ele>
        <time>2012-06-17T10:01:25.000Z</time>
      </trkpt>
      <trkpt lat="43.89834" lon="5.12668">
        <ele>221.39999389648</ele>
        <time>2012-06-17T10:01:27.000Z</time>
      </trkpt>
      <trkpt lat="43.89833" lon="5.12666">
        <ele>220.80000305176</ele>
        <time>2012-06-17T10:01:28.000Z</time>
      </trkpt>
      <trkpt lat="43.89832" lon="5.12661">
        <ele>220.60000610352</ele>
        <time>2012-06-17T10:01:31.000Z</time>
      </trkpt>
      <trkpt lat="43.89832" lon="5.12661">
        <ele>220.60000610352</ele>
        <time>2012-06-17T10:01:32.000Z</time>
      </trkpt>
      <trkpt lat="43.8983" lon="5.12648">
        <ele>219</ele>
        <time>2012-06-17T10:01:37.000Z</time>
      </trkpt>
      <trkpt lat="43.89829" lon="5.12626">
        <ele>215.80000305176</ele>
        <time>2012-06-17T10:01:42.000Z</time>
      </trkpt>
      <trkpt lat="43.89828" lon="5.12612">
        <ele>214.19999694824</ele>
        <time>2012-06-17T10:01:46.000Z</time>
      </trkpt>
      <trkpt lat="43.89828" lon="5.1261">
        <ele>213.60000610352</ele>
        <time>2012-06-17T10:01:47.000Z</time>
      </trkpt>
      <trkpt lat="43.89828" lon="5.12591">
        <ele>210.80000305176</ele>
        <time>2012-06-17T10:01:53.000Z</time>
      </trkpt>
      <trkpt lat="43.89828" lon="5.12577">
        <ele>209.19999694824</ele>
        <time>2012-06-17T10:01:57.000Z</time>
      </trkpt>
      <trkpt lat="43.89832" lon="5.12563">
        <ele>207.19999694824</ele>
        <time>2012-06-17T10:02:03.000Z</time>
      </trkpt>
      <trkpt lat="43.89838" lon="5.12548">
        <ele>206.39999389648</ele>
        <time>2012-06-17T10:02:08.000Z</time>
      </trkpt>
      <trkpt lat="43.89848" lon="5.12525">
        <ele>204.80000305176</ele>
        <time>2012-06-17T10:02:14.000Z</time>
      </trkpt>
      <trkpt lat="43.89851" lon="5.12518">
        <ele>204.39999389648</ele>
        <time>2012-06-17T10:02:16.000Z</time>
      </trkpt>
      <trkpt lat="43.89863" lon="5.12507">
        <ele>202.80000305176</ele>
        <time>2012-06-17T10:02:21.000Z</time>
      </trkpt>
      <trkpt lat="43.89863" lon="5.12501">
        <ele>202.39999389648</ele>
        <time>2012-06-17T10:02:23.000Z</time>
      </trkpt>
      <trkpt lat="43.89865" lon="5.12493">
        <ele>201.39999389648</ele>
        <time>2012-06-17T10:02:25.000Z</time>
      </trkpt>
      <trkpt lat="43.89872" lon="5.12482">
        <ele>199.80000305176</ele>
        <time>2012-06-17T10:02:30.000Z</time>
      </trkpt>
      <trkpt lat="43.89873" lon="5.12481">
        <ele>199.60000610352</ele>
        <time>2012-06-17T10:02:32.000Z</time>
      </trkpt>
      <trkpt lat="43.89871" lon="5.12477">
        <ele>199.19999694824</ele>
        <time>2012-06-17T10:02:35.000Z</time>
      </trkpt>
      <trkpt lat="43.89871" lon="5.12474">
        <ele>199</ele>
        <time>2012-06-17T10:02:36.000Z</time>
      </trkpt>
      <trkpt lat="43.89874" lon="5.12466">
        <ele>198</ele>
        <time>2012-06-17T10:02:39.000Z</time>
      </trkpt>
      <trkpt lat="43.89877" lon="5.12459">
        <ele>197</ele>
        <time>2012-06-17T10:02:41.000Z</time>
      </trkpt>
      <trkpt lat="43.8988" lon="5.12448">
        <ele>195.60000610352</ele>
        <time>2012-06-17T10:02:44.000Z</time>
      </trkpt>
      <trkpt lat="43.89882" lon="5.12447">
        <ele>195.39999389648</ele>
        <time>2012-06-17T10:02:45.000Z</time>
      </trkpt>
      <trkpt lat="43.89886" lon="5.12447">
        <ele>195</ele>
        <time>2012-06-17T10:02:47.000Z</time>
      </trkpt>
      <trkpt lat="43.89895" lon="5.12446">
        <ele>194.60000610352</ele>
        <time>2012-06-17T10:02:52.000Z</time>
      </trkpt>
      <trkpt lat="43.89903" lon="5.12448">
        <ele>194.19999694824</ele>
        <time>2012-06-17T10:02:57.000Z</time>
      </trkpt>
      <trkpt lat="43.89911" lon="5.12444">
        <ele>193.39999389648</ele>
        <time>2012-06-17T10:03:00.000Z</time>
      </trkpt>
      <trkpt lat="43.89914" lon="5.12443">
        <ele>193</ele>
        <time>2012-06-17T10:03:01.000Z</time>
      </trkpt>
      <trkpt lat="43.89933" lon="5.12439">
        <ele>193</ele>
        <time>2012-06-17T10:03:07.000Z</time>
      </trkpt>
      <trkpt lat="43.89946" lon="5.12431">
        <ele>192.60000610352</ele>
        <time>2012-06-17T10:03:13.000Z</time>
      </trkpt>
      <trkpt lat="43.89954" lon="5.12417">
        <ele>191.39999389648</ele>
        <time>2012-06-17T10:03:18.000Z</time>
      </trkpt>
      <trkpt lat="43.89955" lon="5.12411">
        <ele>191</ele>
        <time>2012-06-17T10:03:19.000Z</time>
      </trkpt>
      <trkpt lat="43.89954" lon="5.12391">
        <ele>189.39999389648</ele>
        <time>2012-06-17T10:03:22.000Z</time>
      </trkpt>
      <trkpt lat="43.89952" lon="5.12377">
        <ele>188</ele>
        <time>2012-06-17T10:03:24.000Z</time>
      </trkpt>
      <trkpt lat="43.89948" lon="5.12361">
        <ele>186.60000610352</ele>
        <time>2012-06-17T10:03:27.000Z</time>
      </trkpt>
      <trkpt lat="43.89942" lon="5.12349">
        <ele>185.19999694824</ele>
        <time>2012-06-17T10:03:29.000Z</time>
      </trkpt>
      <trkpt lat="43.89931" lon="5.12326">
        <ele>182.60000610352</ele>
        <time>2012-06-17T10:03:33.000Z</time>
      </trkpt>
      <trkpt lat="43.89925" lon="5.1231">
        <ele>181.19999694824</ele>
        <time>2012-06-17T10:03:36.000Z</time>
      </trkpt>
      <trkpt lat="43.89923" lon="5.12302">
        <ele>180.60000610352</ele>
        <time>2012-06-17T10:03:38.000Z</time>
      </trkpt>
      <trkpt lat="43.89921" lon="5.12294">
        <ele>180</ele>
        <time>2012-06-17T10:03:40.000Z</time>
      </trkpt>
      <trkpt lat="43.8992" lon="5.12285">
        <ele>179.19999694824</ele>
        <time>2012-06-17T10:03:43.000Z</time>
      </trkpt>
      <trkpt lat="43.8992" lon="5.12285">
        <ele>179.19999694824</ele>
        <time>2012-06-17T10:03:45.000Z</time>
      </trkpt>
      <trkpt lat="43.89921" lon="5.12286">
        <ele>179.39999389648</ele>
        <time>2012-06-17T10:03:52.000Z</time>
      </trkpt>
      <trkpt lat="43.89923" lon="5.12288">
        <ele>179.60000610352</ele>
        <time>2012-06-17T10:03:53.000Z</time>
      </trkpt>
      <trkpt lat="43.8993" lon="5.12291">
        <ele>180.19999694824</ele>
        <time>2012-06-17T10:03:57.000Z</time>
      </trkpt>
      <trkpt lat="43.8993" lon="5.1229">
        <ele>180.19999694824</ele>
        <time>2012-06-17T10:03:59.000Z</time>
      </trkpt>
      <trkpt lat="43.8993" lon="5.1229">
        <ele>180.19999694824</ele>
        <time>2012-06-17T10:04:02.000Z</time>
      </trkpt>
      <trkpt lat="43.89935" lon="5.12293">
        <ele>180.60000610352</ele>
        <time>2012-06-17T10:04:07.000Z</time>
      </trkpt>
      <trkpt lat="43.89937" lon="5.12297">
        <ele>181.19999694824</ele>
        <time>2012-06-17T10:04:10.000Z</time>
      </trkpt>
      <trkpt lat="43.89939" lon="5.12301">
        <ele>181.39999389648</ele>
        <time>2012-06-17T10:04:12.000Z</time>
      </trkpt>
      <trkpt lat="43.89941" lon="5.12304">
        <ele>181.80000305176</ele>
        <time>2012-06-17T10:04:15.000Z</time>
      </trkpt>
      <trkpt lat="43.89941" lon="5.12304">
        <ele>181.80000305176</ele>
        <time>2012-06-17T10:04:17.000Z</time>
      </trkpt>
      <trkpt lat="43.89949" lon="5.12312">
        <ele>182.80000305176</ele>
        <time>2012-06-17T10:04:30.000Z</time>
      </trkpt>
      <trkpt lat="43.89961" lon="5.12319">
        <ele>184.19999694824</ele>
        <time>2012-06-17T10:04:36.000Z</time>
      </trkpt>
      <trkpt lat="43.89971" lon="5.12324">
        <ele>185.19999694824</ele>
        <time>2012-06-17T10:04:42.000Z</time>
      </trkpt>
      <trkpt lat="43.89989" lon="5.12328">
        <ele>186.80000305176</ele>
        <time>2012-06-17T10:04:49.000Z</time>
      </trkpt>
      <trkpt lat="43.89994" lon="5.12329">
        <ele>187.19999694824</ele>
        <time>2012-06-17T10:04:51.000Z</time>
      </trkpt>
      <trkpt lat="43.9001" lon="5.12336">
        <ele>188</ele>
        <time>2012-06-17T10:04:58.000Z</time>
      </trkpt>
      <trkpt lat="43.9002" lon="5.12343">
        <ele>188.39999389648</ele>
        <time>2012-06-17T10:05:04.000Z</time>
      </trkpt>
      <trkpt lat="43.90035" lon="5.12355">
        <ele>189.19999694824</ele>
        <time>2012-06-17T10:05:12.000Z</time>
      </trkpt>
      <trkpt lat="43.90052" lon="5.12368">
        <ele>190</ele>
        <time>2012-06-17T10:05:21.000Z</time>
      </trkpt>
      <trkpt lat="43.90068" lon="5.12376">
        <ele>190.60000610352</ele>
        <time>2012-06-17T10:05:29.000Z</time>
      </trkpt>
      <trkpt lat="43.90083" lon="5.12381">
        <ele>191</ele>
        <time>2012-06-17T10:05:36.000Z</time>
      </trkpt>
      <trkpt lat="43.90098" lon="5.12383">
        <ele>191</ele>
        <time>2012-06-17T10:05:44.000Z</time>
      </trkpt>
      <trkpt lat="43.90119" lon="5.12385">
        <ele>191</ele>
        <time>2012-06-17T10:05:52.000Z</time>
      </trkpt>
      <trkpt lat="43.90134" lon="5.1239">
        <ele>191.19999694824</ele>
        <time>2012-06-17T10:05:58.000Z</time>
      </trkpt>
      <trkpt lat="43.90135" lon="5.1239">
        <ele>191.19999694824</ele>
        <time>2012-06-17T10:06:03.000Z</time>
      </trkpt>
      <trkpt lat="43.90137" lon="5.1239">
        <ele>191.19999694824</ele>
        <time>2012-06-17T10:06:10.000Z</time>
      </trkpt>
      <trkpt lat="43.90139" lon="5.12392">
        <ele>191.19999694824</ele>
        <time>2012-06-17T10:06:30.000Z</time>
      </trkpt>
      <trkpt lat="43.90144" lon="5.12394">
        <ele>191.19999694824</ele>
        <time>2012-06-17T10:06:34.000Z</time>
      </trkpt>
      <trkpt lat="43.90161" lon="5.12403">
        <ele>191.39999389648</ele>
        <time>2012-06-17T10:06:40.000Z</time>
      </trkpt>
      <trkpt lat="43.90179" lon="5.12414">
        <ele>191.39999389648</ele>
        <time>2012-06-17T10:06:46.000Z</time>
      </trkpt>
      <trkpt lat="43.90195" lon="5.12426">
        <ele>191.39999389648</ele>
        <time>2012-06-17T10:06:52.000Z</time>
      </trkpt>
      <trkpt lat="43.90198" lon="5.12427">
        <ele>191.39999389648</ele>
        <time>2012-06-17T10:06:53.000Z</time>
      </trkpt>
      <trkpt lat="43.90218" lon="5.12439">
        <ele>191.39999389648</ele>
        <time>2012-06-17T10:06:59.000Z</time>
      </trkpt>
      <trkpt lat="43.90236" lon="5.12448">
        <ele>191</ele>
        <time>2012-06-17T10:07:03.000Z</time>
      </trkpt>
      <trkpt lat="43.9025" lon="5.12452">
        <ele>190.60000610352</ele>
        <time>2012-06-17T10:07:06.000Z</time>
      </trkpt>
      <trkpt lat="43.90271" lon="5.1246">
        <ele>190.60000610352</ele>
        <time>2012-06-17T10:07:11.000Z</time>
      </trkpt>
      <trkpt lat="43.90278" lon="5.12464">
        <ele>190.80000305176</ele>
        <time>2012-06-17T10:07:13.000Z</time>
      </trkpt>
      <trkpt lat="43.90298" lon="5.12473">
        <ele>190.60000610352</ele>
        <time>2012-06-17T10:07:18.000Z</time>
      </trkpt>
      <trkpt lat="43.90314" lon="5.1248">
        <ele>190.60000610352</ele>
        <time>2012-06-17T10:07:22.000Z</time>
      </trkpt>
      <trkpt lat="43.90332" lon="5.1249">
        <ele>190.60000610352</ele>
        <time>2012-06-17T10:07:27.000Z</time>
      </trkpt>
      <trkpt lat="43.9034" lon="5.12497">
        <ele>190.80000305176</ele>
        <time>2012-06-17T10:07:30.000Z</time>
      </trkpt>
      <trkpt lat="43.90354" lon="5.12503">
        <ele>191.39999389648</ele>
        <time>2012-06-17T10:07:35.000Z</time>
      </trkpt>
      <trkpt lat="43.90374" lon="5.12508">
        <ele>192.19999694824</ele>
        <time>2012-06-17T10:07:41.000Z</time>
      </trkpt>
      <trkpt lat="43.90384" lon="5.12511">
        <ele>192.39999389648</ele>
        <time>2012-06-17T10:07:44.000Z</time>
      </trkpt>
      <trkpt lat="43.90404" lon="5.12515">
        <ele>193</ele>
        <time>2012-06-17T10:07:50.000Z</time>
      </trkpt>
      <trkpt lat="43.90414" lon="5.12517">
        <ele>193.19999694824</ele>
        <time>2012-06-17T10:07:53.000Z</time>
      </trkpt>
      <trkpt lat="43.90431" lon="5.12522">
        <ele>194.19999694824</ele>
        <time>2012-06-17T10:07:59.000Z</time>
      </trkpt>
      <trkpt lat="43.90434" lon="5.12523">
        <ele>194.39999389648</ele>
        <time>2012-06-17T10:08:00.000Z</time>
      </trkpt>
      <trkpt lat="43.90453" lon="5.12527">
        <ele>195.19999694824</ele>
        <time>2012-06-17T10:08:06.000Z</time>
      </trkpt>
      <trkpt lat="43.90469" lon="5.1253">
        <ele>195.80000305176</ele>
        <time>2012-06-17T10:08:11.000Z</time>
      </trkpt>
      <trkpt lat="43.90489" lon="5.12534">
        <ele>196.39999389648</ele>
        <time>2012-06-17T10:08:18.000Z</time>
      </trkpt>
      <trkpt lat="43.90495" lon="5.12536">
        <ele>196.80000305176</ele>
        <time>2012-06-17T10:08:20.000Z</time>
      </trkpt>
      <trkpt lat="43.90512" lon="5.12543">
        <ele>197.39999389648</ele>
        <time>2012-06-17T10:08:27.000Z</time>
      </trkpt>
      <trkpt lat="43.90515" lon="5.12544">
        <ele>197.39999389648</ele>
        <time>2012-06-17T10:08:28.000Z</time>
      </trkpt>
      <trkpt lat="43.90532" lon="5.12551">
        <ele>197.80000305176</ele>
        <time>2012-06-17T10:08:36.000Z</time>
      </trkpt>
      <trkpt lat="43.90534" lon="5.12552">
        <ele>198</ele>
        <time>2012-06-17T10:08:37.000Z</time>
      </trkpt>
      <trkpt lat="43.90537" lon="5.12553">
        <ele>198</ele>
        <time>2012-06-17T10:08:40.000Z</time>
      </trkpt>
      <trkpt lat="43.90541" lon="5.12553">
        <ele>197.80000305176</ele>
        <time>2012-06-17T10:08:42.000Z</time>
      </trkpt>
      <trkpt lat="43.90557" lon="5.12557">
        <ele>197.80000305176</ele>
        <time>2012-06-17T10:08:48.000Z</time>
      </trkpt>
      <trkpt lat="43.90575" lon="5.12563">
        <ele>197.60000610352</ele>
        <time>2012-06-17T10:08:54.000Z</time>
      </trkpt>
      <trkpt lat="43.90578" lon="5.12565">
        <ele>197.60000610352</ele>
        <time>2012-06-17T10:08:55.000Z</time>
      </trkpt>
      <trkpt lat="43.90595" lon="5.12574">
        <ele>197.60000610352</ele>
        <time>2012-06-17T10:09:01.000Z</time>
      </trkpt>
      <trkpt lat="43.90608" lon="5.12585">
        <ele>197.80000305176</ele>
        <time>2012-06-17T10:09:05.000Z</time>
      </trkpt>
      <trkpt lat="43.90619" lon="5.12604">
        <ele>197.60000610352</ele>
        <time>2012-06-17T10:09:09.000Z</time>
      </trkpt>
      <trkpt lat="43.90627" lon="5.12615">
        <ele>197.19999694824</ele>
        <time>2012-06-17T10:09:11.000Z</time>
      </trkpt>
      <trkpt lat="43.90643" lon="5.1264">
        <ele>195.60000610352</ele>
        <time>2012-06-17T10:09:15.000Z</time>
      </trkpt>
      <trkpt lat="43.90653" lon="5.12649">
        <ele>194.39999389648</ele>
        <time>2012-06-17T10:09:17.000Z</time>
      </trkpt>
      <trkpt lat="43.90658" lon="5.12653">
        <ele>193.60000610352</ele>
        <time>2012-06-17T10:09:18.000Z</time>
      </trkpt>
      <trkpt lat="43.90673" lon="5.12661">
        <ele>191.39999389648</ele>
        <time>2012-06-17T10:09:21.000Z</time>
      </trkpt>
      <trkpt lat="43.90682" lon="5.12669">
        <ele>189.60000610352</ele>
        <time>2012-06-17T10:09:25.000Z</time>
      </trkpt>
      <trkpt lat="43.90691" lon="5.12662">
        <ele>189</ele>
        <time>2012-06-17T10:09:29.000Z</time>
      </trkpt>
      <trkpt lat="43.90693" lon="5.12655">
        <ele>189.19999694824</ele>
        <time>2012-06-17T10:09:31.000Z</time>
      </trkpt>
      <trkpt lat="43.90698" lon="5.12639">
        <ele>190.19999694824</ele>
        <time>2012-06-17T10:09:35.000Z</time>
      </trkpt>
      <trkpt lat="43.9071" lon="5.12614">
        <ele>191.80000305176</ele>
        <time>2012-06-17T10:09:41.000Z</time>
      </trkpt>
      <trkpt lat="43.90711" lon="5.12611">
        <ele>192.19999694824</ele>
        <time>2012-06-17T10:09:42.000Z</time>
      </trkpt>
      <trkpt lat="43.90721" lon="5.12588">
        <ele>194.39999389648</ele>
        <time>2012-06-17T10:09:48.000Z</time>
      </trkpt>
      <trkpt lat="43.90723" lon="5.12584">
        <ele>194.80000305176</ele>
        <time>2012-06-17T10:09:49.000Z</time>
      </trkpt>
      <trkpt lat="43.90733" lon="5.12573">
        <ele>195.80000305176</ele>
        <time>2012-06-17T10:09:54.000Z</time>
      </trkpt>
      <trkpt lat="43.90747" lon="5.12559">
        <ele>197</ele>
        <time>2012-06-17T10:10:01.000Z</time>
      </trkpt>
      <trkpt lat="43.90766" lon="5.12548">
        <ele>197.80000305176</ele>
        <time>2012-06-17T10:10:09.000Z</time>
      </trkpt>
      <trkpt lat="43.90769" lon="5.12546">
        <ele>198</ele>
        <time>2012-06-17T10:10:10.000Z</time>
      </trkpt>
      <trkpt lat="43.90784" lon="5.12537">
        <ele>198.80000305176</ele>
        <time>2012-06-17T10:10:17.000Z</time>
      </trkpt>
      <trkpt lat="43.90796" lon="5.12529">
        <ele>199.60000610352</ele>
        <time>2012-06-17T10:10:24.000Z</time>
      </trkpt>
      <trkpt lat="43.90806" lon="5.12519">
        <ele>200.80000305176</ele>
        <time>2012-06-17T10:10:31.000Z</time>
      </trkpt>
      <trkpt lat="43.90817" lon="5.12501">
        <ele>203</ele>
        <time>2012-06-17T10:10:40.000Z</time>
      </trkpt>
      <trkpt lat="43.90821" lon="5.12485">
        <ele>203.80000305176</ele>
        <time>2012-06-17T10:10:45.000Z</time>
      </trkpt>
      <trkpt lat="43.90824" lon="5.1246">
        <ele>205</ele>
        <time>2012-06-17T10:10:51.000Z</time>
      </trkpt>
      <trkpt lat="43.90825" lon="5.12452">
        <ele>205.19999694824</ele>
        <time>2012-06-17T10:10:53.000Z</time>
      </trkpt>
      <trkpt lat="43.90831" lon="5.12426">
        <ele>206.60000610352</ele>
        <time>2012-06-17T10:11:00.000Z</time>
      </trkpt>
      <trkpt lat="43.90832" lon="5.12418">
        <ele>207</ele>
        <time>2012-06-17T10:11:02.000Z</time>
      </trkpt>
      <trkpt lat="43.90837" lon="5.1239">
        <ele>205.80000305176</ele>
        <time>2012-06-17T10:11:09.000Z</time>
      </trkpt>
      <trkpt lat="43.90838" lon="5.12386">
        <ele>205.39999389648</ele>
        <time>2012-06-17T10:11:10.000Z</time>
      </trkpt>
      <trkpt lat="43.90843" lon="5.12373">
        <ele>204.80000305176</ele>
        <time>2012-06-17T10:11:13.000Z</time>
      </trkpt>
      <trkpt lat="43.90847" lon="5.12371">
        <ele>204.80000305176</ele>
        <time>2012-06-17T10:11:14.000Z</time>
      </trkpt>
      <trkpt lat="43.90866" lon="5.12372">
        <ele>204.60000610352</ele>
        <time>2012-06-17T10:11:19.000Z</time>
      </trkpt>
      <trkpt lat="43.90878" lon="5.12372">
        <ele>204.60000610352</ele>
        <time>2012-06-17T10:11:22.000Z</time>
      </trkpt>
      <trkpt lat="43.90897" lon="5.12374">
        <ele>204.60000610352</ele>
        <time>2012-06-17T10:11:27.000Z</time>
      </trkpt>
      <trkpt lat="43.90906" lon="5.12374">
        <ele>204.39999389648</ele>
        <time>2012-06-17T10:11:29.000Z</time>
      </trkpt>
      <trkpt lat="43.90925" lon="5.12373">
        <ele>204.39999389648</ele>
        <time>2012-06-17T10:11:34.000Z</time>
      </trkpt>
      <trkpt lat="43.90928" lon="5.12373">
        <ele>204.39999389648</ele>
        <time>2012-06-17T10:11:35.000Z</time>
      </trkpt>
      <trkpt lat="43.90931" lon="5.12372">
        <ele>204.39999389648</ele>
        <time>2012-06-17T10:11:36.000Z</time>
      </trkpt>
      <trkpt lat="43.90934" lon="5.12364">
        <ele>204.19999694824</ele>
        <time>2012-06-17T10:11:38.000Z</time>
      </trkpt>
      <trkpt lat="43.9093" lon="5.12344">
        <ele>203</ele>
        <time>2012-06-17T10:11:41.000Z</time>
      </trkpt>
      <trkpt lat="43.9093" lon="5.12314">
        <ele>200</ele>
        <time>2012-06-17T10:11:45.000Z</time>
      </trkpt>
      <trkpt lat="43.90937" lon="5.12298">
        <ele>198.80000305176</ele>
        <time>2012-06-17T10:11:47.000Z</time>
      </trkpt>
      <trkpt lat="43.90946" lon="5.1228">
        <ele>197.39999389648</ele>
        <time>2012-06-17T10:11:49.000Z</time>
      </trkpt>
      <trkpt lat="43.90957" lon="5.12248">
        <ele>195.19999694824</ele>
        <time>2012-06-17T10:11:52.000Z</time>
      </trkpt>
      <trkpt lat="43.90963" lon="5.12225">
        <ele>193.39999389648</ele>
        <time>2012-06-17T10:11:54.000Z</time>
      </trkpt>
      <trkpt lat="43.90967" lon="5.12197">
        <ele>190.80000305176</ele>
        <time>2012-06-17T10:11:57.000Z</time>
      </trkpt>
      <trkpt lat="43.90967" lon="5.1219">
        <ele>190</ele>
        <time>2012-06-17T10:11:58.000Z</time>
      </trkpt>
      <trkpt lat="43.90966" lon="5.12178">
        <ele>188.80000305176</ele>
        <time>2012-06-17T10:12:01.000Z</time>
      </trkpt>
      <trkpt lat="43.90966" lon="5.12177">
        <ele>188.60000610352</ele>
        <time>2012-06-17T10:12:02.000Z</time>
      </trkpt>
      <trkpt lat="43.90964" lon="5.12176">
        <ele>188.19999694824</ele>
        <time>2012-06-17T10:12:07.000Z</time>
      </trkpt>
      <trkpt lat="43.90958" lon="5.12176">
        <ele>187.39999389648</ele>
        <time>2012-06-17T10:12:14.000Z</time>
      </trkpt>
      <trkpt lat="43.90957" lon="5.12177">
        <ele>187.39999389648</ele>
        <time>2012-06-17T10:12:15.000Z</time>
      </trkpt>
      <trkpt lat="43.90952" lon="5.12179">
        <ele>187</ele>
        <time>2012-06-17T10:12:19.000Z</time>
      </trkpt>
      <trkpt lat="43.90952" lon="5.12179">
        <ele>187</ele>
        <time>2012-06-17T10:12:20.000Z</time>
      </trkpt>
      <trkpt lat="43.90951" lon="5.1218">
        <ele>187</ele>
        <time>2012-06-17T10:12:23.000Z</time>
      </trkpt>
      <trkpt lat="43.90948" lon="5.12183">
        <ele>187</ele>
        <time>2012-06-17T10:12:27.000Z</time>
      </trkpt>
      <trkpt lat="43.9094" lon="5.12184">
        <ele>186</ele>
        <time>2012-06-17T10:12:33.000Z</time>
      </trkpt>
      <trkpt lat="43.90939" lon="5.12183">
        <ele>185.80000305176</ele>
        <time>2012-06-17T10:12:34.000Z</time>
      </trkpt>
      <trkpt lat="43.90938" lon="5.12181">
        <ele>185.39999389648</ele>
        <time>2012-06-17T10:12:35.000Z</time>
      </trkpt>
      <trkpt lat="43.90934" lon="5.12171">
        <ele>183.80000305176</ele>
        <time>2012-06-17T10:12:38.000Z</time>
      </trkpt>
      <trkpt lat="43.90924" lon="5.12157">
        <ele>182</ele>
        <time>2012-06-17T10:12:43.000Z</time>
      </trkpt>
      <trkpt lat="43.90907" lon="5.12153">
        <ele>180.19999694824</ele>
        <time>2012-06-17T10:12:49.000Z</time>
      </trkpt>
      <trkpt lat="43.90901" lon="5.12151">
        <ele>179.80000305176</ele>
        <time>2012-06-17T10:12:51.000Z</time>
      </trkpt>
      <trkpt lat="43.90896" lon="5.12144">
        <ele>179.19999694824</ele>
        <time>2012-06-17T10:12:53.000Z</time>
      </trkpt>
      <trkpt lat="43.90885" lon="5.12127">
        <ele>177.39999389648</ele>
        <time>2012-06-17T10:12:57.000Z</time>
      </trkpt>
      <trkpt lat="43.90877" lon="5.12114">
        <ele>175.80000305176</ele>
        <time>2012-06-17T10:13:00.000Z</time>
      </trkpt>
      <trkpt lat="43.90868" lon="5.12101">
        <ele>173.60000610352</ele>
        <time>2012-06-17T10:13:03.000Z</time>
      </trkpt>
      <trkpt lat="43.90865" lon="5.12096">
        <ele>172.80000305176</ele>
        <time>2012-06-17T10:13:04.000Z</time>
      </trkpt>
      <trkpt lat="43.90861" lon="5.12082">
        <ele>171.39999389648</ele>
        <time>2012-06-17T10:13:07.000Z</time>
      </trkpt>
      <trkpt lat="43.90858" lon="5.12075">
        <ele>171.39999389648</ele>
        <time>2012-06-17T10:13:10.000Z</time>
      </trkpt>
      <trkpt lat="43.90858" lon="5.12075">
        <ele>171.39999389648</ele>
        <time>2012-06-17T10:13:11.000Z</time>
      </trkpt>
      <trkpt lat="43.9086" lon="5.12072">
        <ele>172</ele>
        <time>2012-06-17T10:13:16.000Z</time>
      </trkpt>
      <trkpt lat="43.90861" lon="5.12069">
        <ele>172.39999389648</ele>
        <time>2012-06-17T10:13:23.000Z</time>
      </trkpt>
      <trkpt lat="43.90861" lon="5.12067">
        <ele>172.60000610352</ele>
        <time>2012-06-17T10:13:30.000Z</time>
      </trkpt>
      <trkpt lat="43.90862" lon="5.12066">
        <ele>172.80000305176</ele>
        <time>2012-06-17T10:13:43.000Z</time>
      </trkpt>
      <trkpt lat="43.90866" lon="5.12069">
        <ele>173.19999694824</ele>
        <time>2012-06-17T10:13:48.000Z</time>
      </trkpt>
      <trkpt lat="43.90868" lon="5.1207">
        <ele>173.60000610352</ele>
        <time>2012-06-17T10:13:50.000Z</time>
      </trkpt>
      <trkpt lat="43.90868" lon="5.1207">
        <ele>173.80000305176</ele>
        <time>2012-06-17T10:13:51.000Z</time>
      </trkpt>
      <trkpt lat="43.9087" lon="5.1207">
        <ele>174.19999694824</ele>
        <time>2012-06-17T10:13:56.000Z</time>
      </trkpt>
      <trkpt lat="43.90876" lon="5.12071">
        <ele>175.19999694824</ele>
        <time>2012-06-17T10:14:03.000Z</time>
      </trkpt>
      <trkpt lat="43.90881" lon="5.12072">
        <ele>176</ele>
        <time>2012-06-17T10:14:11.000Z</time>
      </trkpt>
      <trkpt lat="43.90885" lon="5.12071">
        <ele>176.80000305176</ele>
        <time>2012-06-17T10:14:18.000Z</time>
      </trkpt>
      <trkpt lat="43.90885" lon="5.12069">
        <ele>177.19999694824</ele>
        <time>2012-06-17T10:14:26.000Z</time>
      </trkpt>
      <trkpt lat="43.90885" lon="5.12062">
        <ele>177.60000610352</ele>
        <time>2012-06-17T10:14:35.000Z</time>
      </trkpt>
      <trkpt lat="43.90884" lon="5.12056">
        <ele>178</ele>
        <time>2012-06-17T10:14:44.000Z</time>
      </trkpt>
      <trkpt lat="43.90883" lon="5.12049">
        <ele>178.19999694824</ele>
        <time>2012-06-17T10:14:56.000Z</time>
      </trkpt>
      <trkpt lat="43.90877" lon="5.12039">
        <ele>178</ele>
        <time>2012-06-17T10:15:02.000Z</time>
      </trkpt>
      <trkpt lat="43.90862" lon="5.12023">
        <ele>176</ele>
        <time>2012-06-17T10:15:08.000Z</time>
      </trkpt>
      <trkpt lat="43.90846" lon="5.12005">
        <ele>174.19999694824</ele>
        <time>2012-06-17T10:15:13.000Z</time>
      </trkpt>
      <trkpt lat="43.90841" lon="5.11997">
        <ele>173.80000305176</ele>
        <time>2012-06-17T10:15:15.000Z</time>
      </trkpt>
      <trkpt lat="43.90838" lon="5.11994">
        <ele>173.39999389648</ele>
        <time>2012-06-17T10:15:16.000Z</time>
      </trkpt>
      <trkpt lat="43.90831" lon="5.11984">
        <ele>172.80000305176</ele>
        <time>2012-06-17T10:15:19.000Z</time>
      </trkpt>
      <trkpt lat="43.90818" lon="5.11966">
        <ele>171</ele>
        <time>2012-06-17T10:15:24.000Z</time>
      </trkpt>
      <trkpt lat="43.90813" lon="5.11958">
        <ele>170.19999694824</ele>
        <time>2012-06-17T10:15:26.000Z</time>
      </trkpt>
      <trkpt lat="43.90798" lon="5.11936">
        <ele>168</ele>
        <time>2012-06-17T10:15:31.000Z</time>
      </trkpt>
      <trkpt lat="43.90796" lon="5.11932">
        <ele>167.60000610352</ele>
        <time>2012-06-17T10:15:32.000Z</time>
      </trkpt>
      <trkpt lat="43.90785" lon="5.1191">
        <ele>165.60000610352</ele>
        <time>2012-06-17T10:15:38.000Z</time>
      </trkpt>
      <trkpt lat="43.90785" lon="5.11907">
        <ele>165.39999389648</ele>
        <time>2012-06-17T10:15:39.000Z</time>
      </trkpt>
      <trkpt lat="43.90782" lon="5.11904">
        <ele>164.39999389648</ele>
        <time>2012-06-17T10:15:40.000Z</time>
      </trkpt>
      <trkpt lat="43.90777" lon="5.11897">
        <ele>163</ele>
        <time>2012-06-17T10:15:42.000Z</time>
      </trkpt>
      <trkpt lat="43.90774" lon="5.11883">
        <ele>161.80000305176</ele>
        <time>2012-06-17T10:15:45.000Z</time>
      </trkpt>
      <trkpt lat="43.90775" lon="5.1188">
        <ele>162</ele>
        <time>2012-06-17T10:15:46.000Z</time>
      </trkpt>
      <trkpt lat="43.90774" lon="5.11868">
        <ele>161.60000610352</ele>
        <time>2012-06-17T10:15:50.000Z</time>
      </trkpt>
      <trkpt lat="43.9077" lon="5.11839">
        <ele>159.80000305176</ele>
        <time>2012-06-17T10:15:56.000Z</time>
      </trkpt>
      <trkpt lat="43.90772" lon="5.11829">
        <ele>160.19999694824</ele>
        <time>2012-06-17T10:15:58.000Z</time>
      </trkpt>
      <trkpt lat="43.90773" lon="5.11822">
        <ele>160.19999694824</ele>
        <time>2012-06-17T10:16:00.000Z</time>
      </trkpt>
      <trkpt lat="43.90773" lon="5.11804">
        <ele>159.39999389648</ele>
        <time>2012-06-17T10:16:04.000Z</time>
      </trkpt>
      <trkpt lat="43.90776" lon="5.11789">
        <ele>159.39999389648</ele>
        <time>2012-06-17T10:16:08.000Z</time>
      </trkpt>
      <trkpt lat="43.90776" lon="5.1178">
        <ele>159.19999694824</ele>
        <time>2012-06-17T10:16:10.000Z</time>
      </trkpt>
      <trkpt lat="43.90777" lon="5.11773">
        <ele>159.19999694824</ele>
        <time>2012-06-17T10:16:12.000Z</time>
      </trkpt>
      <trkpt lat="43.90777" lon="5.11771">
        <ele>159</ele>
        <time>2012-06-17T10:16:14.000Z</time>
      </trkpt>
      <trkpt lat="43.90777" lon="5.11771">
        <ele>159</ele>
        <time>2012-06-17T10:16:16.000Z</time>
      </trkpt>
      <trkpt lat="43.90774" lon="5.11768">
        <ele>158.39999389648</ele>
        <time>2012-06-17T10:16:22.000Z</time>
      </trkpt>
      <trkpt lat="43.90773" lon="5.11758">
        <ele>157.80000305176</ele>
        <time>2012-06-17T10:16:28.000Z</time>
      </trkpt>
      <trkpt lat="43.90774" lon="5.11754">
        <ele>157.80000305176</ele>
        <time>2012-06-17T10:16:33.000Z</time>
      </trkpt>
      <trkpt lat="43.90775" lon="5.11746">
        <ele>157.60000610352</ele>
        <time>2012-06-17T10:16:36.000Z</time>
      </trkpt>
      <trkpt lat="43.90777" lon="5.11739">
        <ele>157.80000305176</ele>
        <time>2012-06-17T10:16:40.000Z</time>
      </trkpt>
      <trkpt lat="43.90774" lon="5.11736">
        <ele>157.19999694824</ele>
        <time>2012-06-17T10:16:45.000Z</time>
      </trkpt>
      <trkpt lat="43.90771" lon="5.11733">
        <ele>156.39999389648</ele>
        <time>2012-06-17T10:16:52.000Z</time>
      </trkpt>
      <trkpt lat="43.90768" lon="5.11731">
        <ele>155.80000305176</ele>
        <time>2012-06-17T10:16:57.000Z</time>
      </trkpt>
      <trkpt lat="43.90767" lon="5.11728">
        <ele>155.39999389648</ele>
        <time>2012-06-17T10:17:04.000Z</time>
      </trkpt>
      <trkpt lat="43.90761" lon="5.11721">
        <ele>154.19999694824</ele>
        <time>2012-06-17T10:17:17.000Z</time>
      </trkpt>
      <trkpt lat="43.90758" lon="5.11719">
        <ele>153.60000610352</ele>
        <time>2012-06-17T10:17:22.000Z</time>
      </trkpt>
      <trkpt lat="43.9076" lon="5.1172">
        <ele>154</ele>
        <time>2012-06-17T10:17:27.000Z</time>
      </trkpt>
      <trkpt lat="43.90764" lon="5.11724">
        <ele>154.80000305176</ele>
        <time>2012-06-17T10:17:32.000Z</time>
      </trkpt>
      <trkpt lat="43.90759" lon="5.11719">
        <ele>153.80000305176</ele>
        <time>2012-06-17T10:17:38.000Z</time>
      </trkpt>
      <trkpt lat="43.90758" lon="5.11717">
        <ele>153.60000610352</ele>
        <time>2012-06-17T10:17:41.000Z</time>
      </trkpt>
      <trkpt lat="43.90757" lon="5.11715">
        <ele>153.39999389648</ele>
        <time>2012-06-17T10:17:46.000Z</time>
      </trkpt>
      <trkpt lat="43.90756" lon="5.11711">
        <ele>153</ele>
        <time>2012-06-17T10:17:51.000Z</time>
      </trkpt>
      <trkpt lat="43.90758" lon="5.11702">
        <ele>153</ele>
        <time>2012-06-17T10:17:55.000Z</time>
      </trkpt>
      <trkpt lat="43.90758" lon="5.117">
        <ele>153</ele>
        <time>2012-06-17T10:17:57.000Z</time>
      </trkpt>
      <trkpt lat="43.90758" lon="5.11698">
        <ele>153</ele>
        <time>2012-06-17T10:18:00.000Z</time>
      </trkpt>
      <trkpt lat="43.90752" lon="5.11692">
        <ele>152</ele>
        <time>2012-06-17T10:18:06.000Z</time>
      </trkpt>
      <trkpt lat="43.90751" lon="5.11686">
        <ele>151.60000610352</ele>
        <time>2012-06-17T10:18:12.000Z</time>
      </trkpt>
      <trkpt lat="43.90749" lon="5.11684">
        <ele>151.19999694824</ele>
        <time>2012-06-17T10:18:14.000Z</time>
      </trkpt>
      <trkpt lat="43.9075" lon="5.11679">
        <ele>151.39999389648</ele>
        <time>2012-06-17T10:18:16.000Z</time>
      </trkpt>
      <trkpt lat="43.90751" lon="5.11671">
        <ele>151.19999694824</ele>
        <time>2012-06-17T10:18:20.000Z</time>
      </trkpt>
      <trkpt lat="43.90742" lon="5.1167">
        <ele>149.60000610352</ele>
        <time>2012-06-17T10:18:26.000Z</time>
      </trkpt>
      <trkpt lat="43.9074" lon="5.11669">
        <ele>149.19999694824</ele>
        <time>2012-06-17T10:18:27.000Z</time>
      </trkpt>
      <trkpt lat="43.90737" lon="5.11666">
        <ele>148.60000610352</ele>
        <time>2012-06-17T10:18:29.000Z</time>
      </trkpt>
      <trkpt lat="43.90734" lon="5.11662">
        <ele>147.80000305176</ele>
        <time>2012-06-17T10:18:31.000Z</time>
      </trkpt>
      <trkpt lat="43.90734" lon="5.11659">
        <ele>147.60000610352</ele>
        <time>2012-06-17T10:18:33.000Z</time>
      </trkpt>
      <trkpt lat="43.90732" lon="5.11651">
        <ele>146.60000610352</ele>
        <time>2012-06-17T10:18:36.000Z</time>
      </trkpt>
      <trkpt lat="43.90723" lon="5.11639">
        <ele>144.19999694824</ele>
        <time>2012-06-17T10:18:41.000Z</time>
      </trkpt>
      <trkpt lat="43.90722" lon="5.11632">
        <ele>143.39999389648</ele>
        <time>2012-06-17T10:18:43.000Z</time>
      </trkpt>
      <trkpt lat="43.90723" lon="5.11626">
        <ele>143.39999389648</ele>
        <time>2012-06-17T10:18:45.000Z</time>
      </trkpt>
      <trkpt lat="43.90724" lon="5.1162">
        <ele>143</ele>
        <time>2012-06-17T10:18:48.000Z</time>
      </trkpt>
      <trkpt lat="43.90723" lon="5.11619">
        <ele>142.80000305176</ele>
        <time>2012-06-17T10:18:49.000Z</time>
      </trkpt>
      <trkpt lat="43.90723" lon="5.11613">
        <ele>142.39999389648</ele>
        <time>2012-06-17T10:18:54.000Z</time>
      </trkpt>
      <trkpt lat="43.90719" lon="5.11603">
        <ele>140.80000305176</ele>
        <time>2012-06-17T10:18:58.000Z</time>
      </trkpt>
      <trkpt lat="43.90719" lon="5.11601">
        <ele>140.80000305176</ele>
        <time>2012-06-17T10:19:00.000Z</time>
      </trkpt>
      <trkpt lat="43.90718" lon="5.11601">
        <ele>140.39999389648</ele>
        <time>2012-06-17T10:19:02.000Z</time>
      </trkpt>
      <trkpt lat="43.90718" lon="5.116">
        <ele>140.19999694824</ele>
        <time>2012-06-17T10:19:03.000Z</time>
      </trkpt>
      <trkpt lat="43.90716" lon="5.116">
        <ele>139.80000305176</ele>
        <time>2012-06-17T10:19:06.000Z</time>
      </trkpt>
      <trkpt lat="43.90713" lon="5.11597">
        <ele>139</ele>
        <time>2012-06-17T10:19:09.000Z</time>
      </trkpt>
      <trkpt lat="43.90708" lon="5.11593">
        <ele>137.80000305176</ele>
        <time>2012-06-17T10:19:13.000Z</time>
      </trkpt>
      <trkpt lat="43.90705" lon="5.11591">
        <ele>137</ele>
        <time>2012-06-17T10:19:16.000Z</time>
      </trkpt>
      <trkpt lat="43.90701" lon="5.11585">
        <ele>135.60000610352</ele>
        <time>2012-06-17T10:19:21.000Z</time>
      </trkpt>
      <trkpt lat="43.90698" lon="5.1158">
        <ele>134.60000610352</ele>
        <time>2012-06-17T10:19:25.000Z</time>
      </trkpt>
      <trkpt lat="43.90696" lon="5.11579">
        <ele>134</ele>
        <time>2012-06-17T10:19:27.000Z</time>
      </trkpt>
      <trkpt lat="43.90692" lon="5.11576">
        <ele>133</ele>
        <time>2012-06-17T10:19:29.000Z</time>
      </trkpt>
      <trkpt lat="43.90689" lon="5.11574">
        <ele>132.19999694824</ele>
        <time>2012-06-17T10:19:31.000Z</time>
      </trkpt>
      <trkpt lat="43.90686" lon="5.11573">
        <ele>131.39999389648</ele>
        <time>2012-06-17T10:19:34.000Z</time>
      </trkpt>
      <trkpt lat="43.90685" lon="5.11571">
        <ele>131.19999694824</ele>
        <time>2012-06-17T10:19:36.000Z</time>
      </trkpt>
      <trkpt lat="43.90685" lon="5.11569">
        <ele>131</ele>
        <time>2012-06-17T10:19:38.000Z</time>
      </trkpt>
      <trkpt lat="43.90683" lon="5.11568">
        <ele>130.60000610352</ele>
        <time>2012-06-17T10:19:40.000Z</time>
      </trkpt>
      <trkpt lat="43.90682" lon="5.11567">
        <ele>130.19999694824</ele>
        <time>2012-06-17T10:19:41.000Z</time>
      </trkpt>
      <trkpt lat="43.90675" lon="5.11562">
        <ele>128.39999389648</ele>
        <time>2012-06-17T10:19:46.000Z</time>
      </trkpt>
      <trkpt lat="43.9067" lon="5.11556">
        <ele>127</ele>
        <time>2012-06-17T10:19:50.000Z</time>
      </trkpt>
      <trkpt lat="43.90669" lon="5.11551">
        <ele>126.59999847412</ele>
        <time>2012-06-17T10:19:52.000Z</time>
      </trkpt>
      <trkpt lat="43.9067" lon="5.11547">
        <ele>126.59999847412</ele>
        <time>2012-06-17T10:19:54.000Z</time>
      </trkpt>
      <trkpt lat="43.90672" lon="5.11543">
        <ele>126.59999847412</ele>
        <time>2012-06-17T10:20:01.000Z</time>
      </trkpt>
      <trkpt lat="43.9067" lon="5.11538">
        <ele>126</ele>
        <time>2012-06-17T10:20:05.000Z</time>
      </trkpt>
      <trkpt lat="43.90669" lon="5.11536">
        <ele>125.59999847412</ele>
        <time>2012-06-17T10:20:06.000Z</time>
      </trkpt>
      <trkpt lat="43.90668" lon="5.11529">
        <ele>125</ele>
        <time>2012-06-17T10:20:09.000Z</time>
      </trkpt>
      <trkpt lat="43.90667" lon="5.11525">
        <ele>124.59999847412</ele>
        <time>2012-06-17T10:20:11.000Z</time>
      </trkpt>
      <trkpt lat="43.90668" lon="5.11522">
        <ele>124.59999847412</ele>
        <time>2012-06-17T10:20:12.000Z</time>
      </trkpt>
      <trkpt lat="43.90673" lon="5.11511">
        <ele>124.80000305176</ele>
        <time>2012-06-17T10:20:16.000Z</time>
      </trkpt>
      <trkpt lat="43.90677" lon="5.11491">
        <ele>124.80000305176</ele>
        <time>2012-06-17T10:20:22.000Z</time>
      </trkpt>
      <trkpt lat="43.90681" lon="5.11477">
        <ele>125.19999694824</ele>
        <time>2012-06-17T10:20:26.000Z</time>
      </trkpt>
      <trkpt lat="43.90687" lon="5.11452">
        <ele>125.40000152588</ele>
        <time>2012-06-17T10:20:33.000Z</time>
      </trkpt>
      <trkpt lat="43.90689" lon="5.11442">
        <ele>125.59999847412</ele>
        <time>2012-06-17T10:20:37.000Z</time>
      </trkpt>
      <trkpt lat="43.90691" lon="5.11437">
        <ele>125.59999847412</ele>
        <time>2012-06-17T10:20:40.000Z</time>
      </trkpt>
      <trkpt lat="43.90691" lon="5.11436">
        <ele>125.59999847412</ele>
        <time>2012-06-17T10:20:42.000Z</time>
      </trkpt>
      <trkpt lat="43.90692" lon="5.11429">
        <ele>125.59999847412</ele>
        <time>2012-06-17T10:20:48.000Z</time>
      </trkpt>
      <trkpt lat="43.90693" lon="5.11428">
        <ele>125.59999847412</ele>
        <time>2012-06-17T10:20:49.000Z</time>
      </trkpt>
      <trkpt lat="43.90697" lon="5.11426">
        <ele>126</ele>
        <time>2012-06-17T10:20:51.000Z</time>
      </trkpt>
      <trkpt lat="43.90698" lon="5.11426">
        <ele>126</ele>
        <time>2012-06-17T10:20:53.000Z</time>
      </trkpt>
      <trkpt lat="43.90697" lon="5.11425">
        <ele>126</ele>
        <time>2012-06-17T10:20:54.000Z</time>
      </trkpt>
      <trkpt lat="43.90698" lon="5.1142">
        <ele>125.80000305176</ele>
        <time>2012-06-17T10:20:58.000Z</time>
      </trkpt>
      <trkpt lat="43.907" lon="5.11418">
        <ele>126</ele>
        <time>2012-06-17T10:21:02.000Z</time>
      </trkpt>
      <trkpt lat="43.90703" lon="5.11416">
        <ele>126.40000152588</ele>
        <time>2012-06-17T10:21:05.000Z</time>
      </trkpt>
      <trkpt lat="43.90704" lon="5.11415">
        <ele>126.19999694824</ele>
        <time>2012-06-17T10:21:06.000Z</time>
      </trkpt>
      <trkpt lat="43.90702" lon="5.11408">
        <ele>125.59999847412</ele>
        <time>2012-06-17T10:21:11.000Z</time>
      </trkpt>
      <trkpt lat="43.90701" lon="5.11403">
        <ele>125</ele>
        <time>2012-06-17T10:21:13.000Z</time>
      </trkpt>
      <trkpt lat="43.90703" lon="5.11394">
        <ele>124.40000152588</ele>
        <time>2012-06-17T10:21:16.000Z</time>
      </trkpt>
      <trkpt lat="43.90699" lon="5.11377">
        <ele>122.80000305176</ele>
        <time>2012-06-17T10:21:21.000Z</time>
      </trkpt>
      <trkpt lat="43.90694" lon="5.11358">
        <ele>120.80000305176</ele>
        <time>2012-06-17T10:21:27.000Z</time>
      </trkpt>
      <trkpt lat="43.90695" lon="5.11342">
        <ele>119.59999847412</ele>
        <time>2012-06-17T10:21:33.000Z</time>
      </trkpt>
      <trkpt lat="43.90694" lon="5.11328">
        <ele>118.59999847412</ele>
        <time>2012-06-17T10:21:39.000Z</time>
      </trkpt>
      <trkpt lat="43.90695" lon="5.11313">
        <ele>117.59999847412</ele>
        <time>2012-06-17T10:21:46.000Z</time>
      </trkpt>
      <trkpt lat="43.90701" lon="5.11306">
        <ele>117.19999694824</ele>
        <time>2012-06-17T10:21:50.000Z</time>
      </trkpt>
      <trkpt lat="43.90703" lon="5.11305">
        <ele>117</ele>
        <time>2012-06-17T10:21:51.000Z</time>
      </trkpt>
      <trkpt lat="43.9071" lon="5.11292">
        <ele>116</ele>
        <time>2012-06-17T10:21:56.000Z</time>
      </trkpt>
      <trkpt lat="43.90719" lon="5.11279">
        <ele>114.59999847412</ele>
        <time>2012-06-17T10:22:02.000Z</time>
      </trkpt>
      <trkpt lat="43.90725" lon="5.1126">
        <ele>112.59999847412</ele>
        <time>2012-06-17T10:22:07.000Z</time>
      </trkpt>
      <trkpt lat="43.90733" lon="5.11247">
        <ele>111</ele>
        <time>2012-06-17T10:22:12.000Z</time>
      </trkpt>
      <trkpt lat="43.90741" lon="5.11236">
        <ele>110.19999694824</ele>
        <time>2012-06-17T10:22:17.000Z</time>
      </trkpt>
      <trkpt lat="43.9075" lon="5.11228">
        <ele>109.40000152588</ele>
        <time>2012-06-17T10:22:22.000Z</time>
      </trkpt>
      <trkpt lat="43.90766" lon="5.11218">
        <ele>110</ele>
        <time>2012-06-17T10:22:28.000Z</time>
      </trkpt>
      <trkpt lat="43.90778" lon="5.11206">
        <ele>109.80000305176</ele>
        <time>2012-06-17T10:22:34.000Z</time>
      </trkpt>
      <trkpt lat="43.90786" lon="5.11193">
        <ele>109.19999694824</ele>
        <time>2012-06-17T10:22:40.000Z</time>
      </trkpt>
      <trkpt lat="43.90789" lon="5.11177">
        <ele>107.80000305176</ele>
        <time>2012-06-17T10:22:45.000Z</time>
      </trkpt>
      <trkpt lat="43.90794" lon="5.11167">
        <ele>107</ele>
        <time>2012-06-17T10:22:50.000Z</time>
      </trkpt>
      <trkpt lat="43.90795" lon="5.11166">
        <ele>107</ele>
        <time>2012-06-17T10:22:51.000Z</time>
      </trkpt>
      <trkpt lat="43.90797" lon="5.11163">
        <ele>106.80000305176</ele>
        <time>2012-06-17T10:22:54.000Z</time>
      </trkpt>
      <trkpt lat="43.90801" lon="5.11159">
        <ele>106.59999847412</ele>
        <time>2012-06-17T10:23:00.000Z</time>
      </trkpt>
      <trkpt lat="43.90807" lon="5.11151">
        <ele>106</ele>
        <time>2012-06-17T10:23:04.000Z</time>
      </trkpt>
      <trkpt lat="43.90814" lon="5.11142">
        <ele>105.40000152588</ele>
        <time>2012-06-17T10:23:09.000Z</time>
      </trkpt>
      <trkpt lat="43.90822" lon="5.11126">
        <ele>104.19999694824</ele>
        <time>2012-06-17T10:23:14.000Z</time>
      </trkpt>
      <trkpt lat="43.90832" lon="5.11111">
        <ele>102.80000305176</ele>
        <time>2012-06-17T10:23:20.000Z</time>
      </trkpt>
      <trkpt lat="43.90837" lon="5.11103">
        <ele>102.40000152588</ele>
        <time>2012-06-17T10:23:25.000Z</time>
      </trkpt>
      <trkpt lat="43.90837" lon="5.11098">
        <ele>102</ele>
        <time>2012-06-17T10:23:27.000Z</time>
      </trkpt>
      <trkpt lat="43.90839" lon="5.11093">
        <ele>101.80000305176</ele>
        <time>2012-06-17T10:23:29.000Z</time>
      </trkpt>
      <trkpt lat="43.90842" lon="5.11084">
        <ele>101.40000152588</ele>
        <time>2012-06-17T10:23:33.000Z</time>
      </trkpt>
      <trkpt lat="43.90843" lon="5.11063">
        <ele>101</ele>
        <time>2012-06-17T10:23:39.000Z</time>
      </trkpt>
      <trkpt lat="43.90848" lon="5.11052">
        <ele>100.80000305176</ele>
        <time>2012-06-17T10:23:43.000Z</time>
      </trkpt>
      <trkpt lat="43.90848" lon="5.11052">
        <ele>100.80000305176</ele>
        <time>2012-06-17T10:23:44.000Z</time>
      </trkpt>
      <trkpt lat="43.90851" lon="5.1105">
        <ele>100.80000305176</ele>
        <time>2012-06-17T10:23:50.000Z</time>
      </trkpt>
      <trkpt lat="43.90855" lon="5.11048">
        <ele>100.59999847412</ele>
        <time>2012-06-17T10:24:07.000Z</time>
      </trkpt>
      <trkpt lat="43.90857" lon="5.11051">
        <ele>100.80000305176</ele>
        <time>2012-06-17T10:24:12.000Z</time>
      </trkpt>
      <trkpt lat="43.9086" lon="5.11054">
        <ele>100.80000305176</ele>
        <time>2012-06-17T10:24:22.000Z</time>
      </trkpt>
      <trkpt lat="43.90863" lon="5.11059">
        <ele>101</ele>
        <time>2012-06-17T10:24:34.000Z</time>
      </trkpt>
      <trkpt lat="43.90865" lon="5.1106">
        <ele>101</ele>
        <time>2012-06-17T10:24:37.000Z</time>
      </trkpt>
      <trkpt lat="43.90866" lon="5.11061">
        <ele>101.19999694824</ele>
        <time>2012-06-17T10:24:39.000Z</time>
      </trkpt>
      <trkpt lat="43.90866" lon="5.11062">
        <ele>101.19999694824</ele>
        <time>2012-06-17T10:24:49.000Z</time>
      </trkpt>
      <trkpt lat="43.90868" lon="5.11062">
        <ele>101.19999694824</ele>
        <time>2012-06-17T10:24:55.000Z</time>
      </trkpt>
      <trkpt lat="43.90871" lon="5.11065">
        <ele>101.40000152588</ele>
        <time>2012-06-17T10:25:01.000Z</time>
      </trkpt>
      <trkpt lat="43.90872" lon="5.11068">
        <ele>101.59999847412</ele>
        <time>2012-06-17T10:25:07.000Z</time>
      </trkpt>
      <trkpt lat="43.90873" lon="5.1107">
        <ele>101.59999847412</ele>
        <time>2012-06-17T10:25:13.000Z</time>
      </trkpt>
      <trkpt lat="43.90877" lon="5.11071">
        <ele>101.80000305176</ele>
        <time>2012-06-17T10:25:18.000Z</time>
      </trkpt>
      <trkpt lat="43.9088" lon="5.11071">
        <ele>101.80000305176</ele>
        <time>2012-06-17T10:25:26.000Z</time>
      </trkpt>
      <trkpt lat="43.90887" lon="5.1107">
        <ele>102</ele>
        <time>2012-06-17T10:25:32.000Z</time>
      </trkpt>
      <trkpt lat="43.90895" lon="5.11071">
        <ele>102.19999694824</ele>
        <time>2012-06-17T10:25:39.000Z</time>
      </trkpt>
      <trkpt lat="43.90899" lon="5.11071">
        <ele>102.19999694824</ele>
        <time>2012-06-17T10:25:44.000Z</time>
      </trkpt>
      <trkpt lat="43.90899" lon="5.11071">
        <ele>102.19999694824</ele>
        <time>2012-06-17T10:25:45.000Z</time>
      </trkpt>
      <trkpt lat="43.90901" lon="5.11068">
        <ele>102</ele>
        <time>2012-06-17T10:25:54.000Z</time>
      </trkpt>
      <trkpt lat="43.90904" lon="5.11064">
        <ele>101.59999847412</ele>
        <time>2012-06-17T10:25:56.000Z</time>
      </trkpt>
      <trkpt lat="43.90906" lon="5.11064">
        <ele>101.59999847412</ele>
        <time>2012-06-17T10:25:58.000Z</time>
      </trkpt>
      <trkpt lat="43.90907" lon="5.11063">
        <ele>101.59999847412</ele>
        <time>2012-06-17T10:26:00.000Z</time>
      </trkpt>
      <trkpt lat="43.90911" lon="5.11058">
        <ele>101</ele>
        <time>2012-06-17T10:26:16.000Z</time>
      </trkpt>
      <trkpt lat="43.9092" lon="5.11048">
        <ele>100</ele>
        <time>2012-06-17T10:26:21.000Z</time>
      </trkpt>
      <trkpt lat="43.90928" lon="5.11041">
        <ele>99.599998474121</ele>
        <time>2012-06-17T10:26:27.000Z</time>
      </trkpt>
      <trkpt lat="43.90937" lon="5.11032">
        <ele>98.800003051758</ele>
        <time>2012-06-17T10:26:33.000Z</time>
      </trkpt>
      <trkpt lat="43.90947" lon="5.11022">
        <ele>97.800003051758</ele>
        <time>2012-06-17T10:26:39.000Z</time>
      </trkpt>
      <trkpt lat="43.90959" lon="5.11022">
        <ele>98.400001525879</ele>
        <time>2012-06-17T10:26:44.000Z</time>
      </trkpt>
      <trkpt lat="43.90971" lon="5.11026">
        <ele>99.400001525879</ele>
        <time>2012-06-17T10:26:49.000Z</time>
      </trkpt>
      <trkpt lat="43.90974" lon="5.11027">
        <ele>99.800003051758</ele>
        <time>2012-06-17T10:26:53.000Z</time>
      </trkpt>
      <trkpt lat="43.9098" lon="5.11032">
        <ele>100.80000305176</ele>
        <time>2012-06-17T10:26:59.000Z</time>
      </trkpt>
      <trkpt lat="43.90983" lon="5.11033">
        <ele>101</ele>
        <time>2012-06-17T10:27:05.000Z</time>
      </trkpt>
      <trkpt lat="43.90996" lon="5.11032">
        <ele>101.59999847412</ele>
        <time>2012-06-17T10:27:10.000Z</time>
      </trkpt>
      <trkpt lat="43.91011" lon="5.11029">
        <ele>101</ele>
        <time>2012-06-17T10:27:16.000Z</time>
      </trkpt>
      <trkpt lat="43.91028" lon="5.11024">
        <ele>99.599998474121</ele>
        <time>2012-06-17T10:27:24.000Z</time>
      </trkpt>
      <trkpt lat="43.91043" lon="5.11018">
        <ele>98.199996948242</ele>
        <time>2012-06-17T10:27:31.000Z</time>
      </trkpt>
      <trkpt lat="43.9106" lon="5.11018">
        <ele>97.599998474121</ele>
        <time>2012-06-17T10:27:37.000Z</time>
      </trkpt>
      <trkpt lat="43.91071" lon="5.11031">
        <ele>99.599998474121</ele>
        <time>2012-06-17T10:27:42.000Z</time>
      </trkpt>
      <trkpt lat="43.91079" lon="5.11048">
        <ele>102.19999694824</ele>
        <time>2012-06-17T10:27:48.000Z</time>
      </trkpt>
      <trkpt lat="43.91082" lon="5.11059">
        <ele>104</ele>
        <time>2012-06-17T10:27:54.000Z</time>
      </trkpt>
      <trkpt lat="43.91084" lon="5.11067">
        <ele>105</ele>
        <time>2012-06-17T10:28:00.000Z</time>
      </trkpt>
      <trkpt lat="43.91085" lon="5.11067">
        <ele>104.80000305176</ele>
        <time>2012-06-17T10:28:01.000Z</time>
      </trkpt>
      <trkpt lat="43.91089" lon="5.1107">
        <ele>104.80000305176</ele>
        <time>2012-06-17T10:28:04.000Z</time>
      </trkpt>
      <trkpt lat="43.91091" lon="5.11075">
        <ele>105</ele>
        <time>2012-06-17T10:28:07.000Z</time>
      </trkpt>
      <trkpt lat="43.91093" lon="5.11082">
        <ele>105.80000305176</ele>
        <time>2012-06-17T10:28:12.000Z</time>
      </trkpt>
      <trkpt lat="43.91099" lon="5.11091">
        <ele>105.80000305176</ele>
        <time>2012-06-17T10:28:19.000Z</time>
      </trkpt>
      <trkpt lat="43.91103" lon="5.111">
        <ele>106</ele>
        <time>2012-06-17T10:28:25.000Z</time>
      </trkpt>
      <trkpt lat="43.91112" lon="5.11119">
        <ele>107</ele>
        <time>2012-06-17T10:28:33.000Z</time>
      </trkpt>
      <trkpt lat="43.91122" lon="5.11134">
        <ele>107.40000152588</ele>
        <time>2012-06-17T10:28:41.000Z</time>
      </trkpt>
      <trkpt lat="43.91129" lon="5.11144">
        <ele>107.40000152588</ele>
        <time>2012-06-17T10:28:47.000Z</time>
      </trkpt>
      <trkpt lat="43.91135" lon="5.11152">
        <ele>107.59999847412</ele>
        <time>2012-06-17T10:28:53.000Z</time>
      </trkpt>
      <trkpt lat="43.91143" lon="5.11165">
        <ele>108.40000152588</ele>
        <time>2012-06-17T10:29:01.000Z</time>
      </trkpt>
      <trkpt lat="43.91146" lon="5.1117">
        <ele>108.80000305176</ele>
        <time>2012-06-17T10:29:06.000Z</time>
      </trkpt>
      <trkpt lat="43.91149" lon="5.11176">
        <ele>109.40000152588</ele>
        <time>2012-06-17T10:29:12.000Z</time>
      </trkpt>
      <trkpt lat="43.91151" lon="5.11189">
        <ele>111.19999694824</ele>
        <time>2012-06-17T10:29:19.000Z</time>
      </trkpt>
      <trkpt lat="43.91159" lon="5.11198">
        <ele>111.59999847412</ele>
        <time>2012-06-17T10:29:28.000Z</time>
      </trkpt>
      <trkpt lat="43.9116" lon="5.11198">
        <ele>111.59999847412</ele>
        <time>2012-06-17T10:29:29.000Z</time>
      </trkpt>
      <trkpt lat="43.91161" lon="5.11203">
        <ele>112.40000152588</ele>
        <time>2012-06-17T10:29:32.000Z</time>
      </trkpt>
      <trkpt lat="43.91161" lon="5.11211">
        <ele>113.59999847412</ele>
        <time>2012-06-17T10:29:38.000Z</time>
      </trkpt>
      <trkpt lat="43.91163" lon="5.11212">
        <ele>113.59999847412</ele>
        <time>2012-06-17T10:29:40.000Z</time>
      </trkpt>
      <trkpt lat="43.91164" lon="5.11212">
        <ele>113.40000152588</ele>
        <time>2012-06-17T10:29:42.000Z</time>
      </trkpt>
      <trkpt lat="43.91166" lon="5.11212">
        <ele>113.19999694824</ele>
        <time>2012-06-17T10:29:43.000Z</time>
      </trkpt>
      <trkpt lat="43.91172" lon="5.11217">
        <ele>112.80000305176</ele>
        <time>2012-06-17T10:29:47.000Z</time>
      </trkpt>
      <trkpt lat="43.9118" lon="5.11222">
        <ele>112.19999694824</ele>
        <time>2012-06-17T10:29:51.000Z</time>
      </trkpt>
      <trkpt lat="43.91183" lon="5.11227">
        <ele>112.19999694824</ele>
        <time>2012-06-17T10:29:53.000Z</time>
      </trkpt>
      <trkpt lat="43.91189" lon="5.11238">
        <ele>113.19999694824</ele>
        <time>2012-06-17T10:29:58.000Z</time>
      </trkpt>
      <trkpt lat="43.9119" lon="5.11241">
        <ele>113.59999847412</ele>
        <time>2012-06-17T10:30:02.000Z</time>
      </trkpt>
      <trkpt lat="43.91188" lon="5.11245">
        <ele>114.59999847412</ele>
        <time>2012-06-17T10:30:08.000Z</time>
      </trkpt>
      <trkpt lat="43.91186" lon="5.11246">
        <ele>115.40000152588</ele>
        <time>2012-06-17T10:30:31.000Z</time>
      </trkpt>
      <trkpt lat="43.91178" lon="5.11247">
        <ele>117</ele>
        <time>2012-06-17T10:30:38.000Z</time>
      </trkpt>
      <trkpt lat="43.91173" lon="5.1125">
        <ele>118.80000305176</ele>
        <time>2012-06-17T10:30:44.000Z</time>
      </trkpt>
      <trkpt lat="43.91172" lon="5.11254">
        <ele>119.40000152588</ele>
        <time>2012-06-17T10:30:47.000Z</time>
      </trkpt>
      <trkpt lat="43.9117" lon="5.11259">
        <ele>120.19999694824</ele>
        <time>2012-06-17T10:30:50.000Z</time>
      </trkpt>
      <trkpt lat="43.91167" lon="5.11263">
        <ele>121.40000152588</ele>
        <time>2012-06-17T10:30:54.000Z</time>
      </trkpt>
      <trkpt lat="43.91166" lon="5.11264">
        <ele>121.40000152588</ele>
        <time>2012-06-17T10:30:55.000Z</time>
      </trkpt>
      <trkpt lat="43.91164" lon="5.11271">
        <ele>122.59999847412</ele>
        <time>2012-06-17T10:31:00.000Z</time>
      </trkpt>
      <trkpt lat="43.91162" lon="5.11272">
        <ele>122.80000305176</ele>
        <time>2012-06-17T10:31:01.000Z</time>
      </trkpt>
      <trkpt lat="43.9116" lon="5.11273">
        <ele>123</ele>
        <time>2012-06-17T10:31:04.000Z</time>
      </trkpt>
      <trkpt lat="43.91158" lon="5.11272">
        <ele>123.19999694824</ele>
        <time>2012-06-17T10:31:06.000Z</time>
      </trkpt>
      <trkpt lat="43.91155" lon="5.11272">
        <ele>123.40000152588</ele>
        <time>2012-06-17T10:31:11.000Z</time>
      </trkpt>
      <trkpt lat="43.91148" lon="5.11273">
        <ele>124.19999694824</ele>
        <time>2012-06-17T10:31:19.000Z</time>
      </trkpt>
      <trkpt lat="43.91142" lon="5.11279">
        <ele>125.19999694824</ele>
        <time>2012-06-17T10:31:25.000Z</time>
      </trkpt>
      <trkpt lat="43.91139" lon="5.11286">
        <ele>126.19999694824</ele>
        <time>2012-06-17T10:31:31.000Z</time>
      </trkpt>
      <trkpt lat="43.91131" lon="5.11292">
        <ele>127.40000152588</ele>
        <time>2012-06-17T10:31:36.000Z</time>
      </trkpt>
      <trkpt lat="43.91129" lon="5.11294">
        <ele>127.59999847412</ele>
        <time>2012-06-17T10:31:38.000Z</time>
      </trkpt>
      <trkpt lat="43.91126" lon="5.11302">
        <ele>128.60000610352</ele>
        <time>2012-06-17T10:31:42.000Z</time>
      </trkpt>
      <trkpt lat="43.91125" lon="5.11305">
        <ele>129</ele>
        <time>2012-06-17T10:31:47.000Z</time>
      </trkpt>
      <trkpt lat="43.91122" lon="5.1131">
        <ele>129.60000610352</ele>
        <time>2012-06-17T10:31:55.000Z</time>
      </trkpt>
      <trkpt lat="43.91121" lon="5.11311">
        <ele>129.80000305176</ele>
        <time>2012-06-17T10:31:56.000Z</time>
      </trkpt>
      <trkpt lat="43.91117" lon="5.11314">
        <ele>130.19999694824</ele>
        <time>2012-06-17T10:32:00.000Z</time>
      </trkpt>
      <trkpt lat="43.91116" lon="5.11314">
        <ele>130.39999389648</ele>
        <time>2012-06-17T10:32:01.000Z</time>
      </trkpt>
      <trkpt lat="43.91113" lon="5.11316">
        <ele>130.80000305176</ele>
        <time>2012-06-17T10:32:04.000Z</time>
      </trkpt>
      <trkpt lat="43.91109" lon="5.1132">
        <ele>131.39999389648</ele>
        <time>2012-06-17T10:32:09.000Z</time>
      </trkpt>
      <trkpt lat="43.91102" lon="5.11321">
        <ele>131.80000305176</ele>
        <time>2012-06-17T10:32:17.000Z</time>
      </trkpt>
      <trkpt lat="43.911" lon="5.11316">
        <ele>131.60000610352</ele>
        <time>2012-06-17T10:32:21.000Z</time>
      </trkpt>
      <trkpt lat="43.91099" lon="5.11313">
        <ele>131.39999389648</ele>
        <time>2012-06-17T10:32:24.000Z</time>
      </trkpt>
      <trkpt lat="43.91094" lon="5.11303">
        <ele>131</ele>
        <time>2012-06-17T10:32:31.000Z</time>
      </trkpt>
      <trkpt lat="43.91089" lon="5.11303">
        <ele>131.39999389648</ele>
        <time>2012-06-17T10:32:35.000Z</time>
      </trkpt>
      <trkpt lat="43.91087" lon="5.11304">
        <ele>131.60000610352</ele>
        <time>2012-06-17T10:32:37.000Z</time>
      </trkpt>
      <trkpt lat="43.91079" lon="5.11312">
        <ele>132.39999389648</ele>
        <time>2012-06-17T10:32:45.000Z</time>
      </trkpt>
      <trkpt lat="43.91074" lon="5.11324">
        <ele>133.39999389648</ele>
        <time>2012-06-17T10:32:54.000Z</time>
      </trkpt>
      <trkpt lat="43.9107" lon="5.11335">
        <ele>134</ele>
        <time>2012-06-17T10:33:02.000Z</time>
      </trkpt>
      <trkpt lat="43.91067" lon="5.11338">
        <ele>134.19999694824</ele>
        <time>2012-06-17T10:33:05.000Z</time>
      </trkpt>
      <trkpt lat="43.91064" lon="5.1134">
        <ele>134.19999694824</ele>
        <time>2012-06-17T10:33:09.000Z</time>
      </trkpt>
      <trkpt lat="43.91058" lon="5.11343">
        <ele>134.39999389648</ele>
        <time>2012-06-17T10:33:15.000Z</time>
      </trkpt>
      <trkpt lat="43.91057" lon="5.11343">
        <ele>134.39999389648</ele>
        <time>2012-06-17T10:33:17.000Z</time>
      </trkpt>
      <trkpt lat="43.91052" lon="5.11348">
        <ele>134.60000610352</ele>
        <time>2012-06-17T10:33:36.000Z</time>
      </trkpt>
      <trkpt lat="43.91047" lon="5.11357">
        <ele>135</ele>
        <time>2012-06-17T10:33:43.000Z</time>
      </trkpt>
      <trkpt lat="43.91045" lon="5.11367">
        <ele>135.39999389648</ele>
        <time>2012-06-17T10:33:50.000Z</time>
      </trkpt>
      <trkpt lat="43.91042" lon="5.11378">
        <ele>135.80000305176</ele>
        <time>2012-06-17T10:33:58.000Z</time>
      </trkpt>
      <trkpt lat="43.91036" lon="5.11393">
        <ele>136.60000610352</ele>
        <time>2012-06-17T10:34:08.000Z</time>
      </trkpt>
      <trkpt lat="43.91031" lon="5.11404">
        <ele>137.19999694824</ele>
        <time>2012-06-17T10:34:15.000Z</time>
      </trkpt>
      <trkpt lat="43.91023" lon="5.11415">
        <ele>138</ele>
        <time>2012-06-17T10:34:24.000Z</time>
      </trkpt>
      <trkpt lat="43.91023" lon="5.11414">
        <ele>138</ele>
        <time>2012-06-17T10:34:29.000Z</time>
      </trkpt>
      <trkpt lat="43.91031" lon="5.11403">
        <ele>137.19999694824</ele>
        <time>2012-06-17T10:34:34.000Z</time>
      </trkpt>
      <trkpt lat="43.91036" lon="5.11397">
        <ele>136.80000305176</ele>
        <time>2012-06-17T10:34:37.000Z</time>
      </trkpt>
      <trkpt lat="43.91036" lon="5.11397">
        <ele>136.80000305176</ele>
        <time>2012-06-17T10:34:39.000Z</time>
      </trkpt>
      <trkpt lat="43.91032" lon="5.11401">
        <ele>137.19999694824</ele>
        <time>2012-06-17T10:34:53.000Z</time>
      </trkpt>
      <trkpt lat="43.91023" lon="5.11413">
        <ele>138</ele>
        <time>2012-06-17T10:35:02.000Z</time>
      </trkpt>
      <trkpt lat="43.91022" lon="5.11416">
        <ele>138.19999694824</ele>
        <time>2012-06-17T10:35:08.000Z</time>
      </trkpt>
      <trkpt lat="43.91017" lon="5.11423">
        <ele>138.80000305176</ele>
        <time>2012-06-17T10:35:15.000Z</time>
      </trkpt>
      <trkpt lat="43.91013" lon="5.11434">
        <ele>139.80000305176</ele>
        <time>2012-06-17T10:35:23.000Z</time>
      </trkpt>
      <trkpt lat="43.9101" lon="5.11444">
        <ele>140.80000305176</ele>
        <time>2012-06-17T10:35:30.000Z</time>
      </trkpt>
      <trkpt lat="43.91005" lon="5.11455">
        <ele>142</ele>
        <time>2012-06-17T10:35:38.000Z</time>
      </trkpt>
      <trkpt lat="43.91005" lon="5.11456">
        <ele>142</ele>
        <time>2012-06-17T10:35:39.000Z</time>
      </trkpt>
      <trkpt lat="43.91005" lon="5.11463">
        <ele>142.60000610352</ele>
        <time>2012-06-17T10:35:44.000Z</time>
      </trkpt>
      <trkpt lat="43.91008" lon="5.11466">
        <ele>142.60000610352</ele>
        <time>2012-06-17T10:35:51.000Z</time>
      </trkpt>
      <trkpt lat="43.9101" lon="5.11468">
        <ele>142.60000610352</ele>
        <time>2012-06-17T10:35:55.000Z</time>
      </trkpt>
      <trkpt lat="43.91012" lon="5.11472">
        <ele>142.80000305176</ele>
        <time>2012-06-17T10:35:57.000Z</time>
      </trkpt>
      <trkpt lat="43.91018" lon="5.11477">
        <ele>142.80000305176</ele>
        <time>2012-06-17T10:36:00.000Z</time>
      </trkpt>
      <trkpt lat="43.91023" lon="5.11483">
        <ele>142.80000305176</ele>
        <time>2012-06-17T10:36:02.000Z</time>
      </trkpt>
      <trkpt lat="43.91038" lon="5.11498">
        <ele>142.60000610352</ele>
        <time>2012-06-17T10:36:08.000Z</time>
      </trkpt>
      <trkpt lat="43.91041" lon="5.11501">
        <ele>142.60000610352</ele>
        <time>2012-06-17T10:36:09.000Z</time>
      </trkpt>
      <trkpt lat="43.91057" lon="5.11518">
        <ele>143.19999694824</ele>
        <time>2012-06-17T10:36:16.000Z</time>
      </trkpt>
      <trkpt lat="43.91064" lon="5.11525">
        <ele>143.39999389648</ele>
        <time>2012-06-17T10:36:19.000Z</time>
      </trkpt>
      <trkpt lat="43.9108" lon="5.11543">
        <ele>144.39999389648</ele>
        <time>2012-06-17T10:36:25.000Z</time>
      </trkpt>
      <trkpt lat="43.91089" lon="5.11565">
        <ele>146.80000305176</ele>
        <time>2012-06-17T10:36:30.000Z</time>
      </trkpt>
      <trkpt lat="43.91102" lon="5.11587">
        <ele>149.19999694824</ele>
        <time>2012-06-17T10:36:37.000Z</time>
      </trkpt>
      <trkpt lat="43.91117" lon="5.11595">
        <ele>150.19999694824</ele>
        <time>2012-06-17T10:36:43.000Z</time>
      </trkpt>
      <trkpt lat="43.91135" lon="5.11605">
        <ele>151.19999694824</ele>
        <time>2012-06-17T10:36:50.000Z</time>
      </trkpt>
      <trkpt lat="43.91149" lon="5.11613">
        <ele>151.80000305176</ele>
        <time>2012-06-17T10:36:56.000Z</time>
      </trkpt>
      <trkpt lat="43.91159" lon="5.11621">
        <ele>152.39999389648</ele>
        <time>2012-06-17T10:37:02.000Z</time>
      </trkpt>
      <trkpt lat="43.91168" lon="5.11629">
        <ele>153</ele>
        <time>2012-06-17T10:37:09.000Z</time>
      </trkpt>
      <trkpt lat="43.91168" lon="5.11629">
        <ele>153</ele>
        <time>2012-06-17T10:37:10.000Z</time>
      </trkpt>
      <trkpt lat="43.91174" lon="5.11631">
        <ele>153.39999389648</ele>
        <time>2012-06-17T10:37:15.000Z</time>
      </trkpt>
      <trkpt lat="43.91183" lon="5.11633">
        <ele>153.60000610352</ele>
        <time>2012-06-17T10:37:22.000Z</time>
      </trkpt>
      <trkpt lat="43.91189" lon="5.11635">
        <ele>153.60000610352</ele>
        <time>2012-06-17T10:37:27.000Z</time>
      </trkpt>
      <trkpt lat="43.91195" lon="5.11639">
        <ele>154.19999694824</ele>
        <time>2012-06-17T10:37:32.000Z</time>
      </trkpt>
      <trkpt lat="43.91199" lon="5.11643">
        <ele>154.60000610352</ele>
        <time>2012-06-17T10:37:37.000Z</time>
      </trkpt>
      <trkpt lat="43.91209" lon="5.11654">
        <ele>155.39999389648</ele>
        <time>2012-06-17T10:37:46.000Z</time>
      </trkpt>
      <trkpt lat="43.91219" lon="5.11664">
        <ele>155.80000305176</ele>
        <time>2012-06-17T10:37:55.000Z</time>
      </trkpt>
      <trkpt lat="43.91227" lon="5.11671">
        <ele>156.39999389648</ele>
        <time>2012-06-17T10:38:02.000Z</time>
      </trkpt>
      <trkpt lat="43.91235" lon="5.11678">
        <ele>157</ele>
        <time>2012-06-17T10:38:10.000Z</time>
      </trkpt>
      <trkpt lat="43.91244" lon="5.11681">
        <ele>156.80000305176</ele>
        <time>2012-06-17T10:38:18.000Z</time>
      </trkpt>
      <trkpt lat="43.91251" lon="5.11681">
        <ele>156.39999389648</ele>
        <time>2012-06-17T10:38:23.000Z</time>
      </trkpt>
      <trkpt lat="43.91269" lon="5.11687">
        <ele>155.39999389648</ele>
        <time>2012-06-17T10:38:30.000Z</time>
      </trkpt>
      <trkpt lat="43.91286" lon="5.11695">
        <ele>154.60000610352</ele>
        <time>2012-06-17T10:38:36.000Z</time>
      </trkpt>
      <trkpt lat="43.91289" lon="5.11696">
        <ele>154.39999389648</ele>
        <time>2012-06-17T10:38:37.000Z</time>
      </trkpt>
      <trkpt lat="43.91303" lon="5.11703">
        <ele>153.60000610352</ele>
        <time>2012-06-17T10:38:43.000Z</time>
      </trkpt>
      <trkpt lat="43.91319" lon="5.11722">
        <ele>153.60000610352</ele>
        <time>2012-06-17T10:38:49.000Z</time>
      </trkpt>
      <trkpt lat="43.91332" lon="5.11736">
        <ele>153.19999694824</ele>
        <time>2012-06-17T10:38:54.000Z</time>
      </trkpt>
      <trkpt lat="43.91344" lon="5.11754">
        <ele>152.39999389648</ele>
        <time>2012-06-17T10:38:58.000Z</time>
      </trkpt>
      <trkpt lat="43.91359" lon="5.11772">
        <ele>151</ele>
        <time>2012-06-17T10:39:02.000Z</time>
      </trkpt>
      <trkpt lat="43.91362" lon="5.11775">
        <ele>150.60000610352</ele>
        <time>2012-06-17T10:39:03.000Z</time>
      </trkpt>
      <trkpt lat="43.91369" lon="5.11782">
        <ele>149.80000305176</ele>
        <time>2012-06-17T10:39:05.000Z</time>
      </trkpt>
      <trkpt lat="43.91381" lon="5.11787">
        <ele>148</ele>
        <time>2012-06-17T10:39:08.000Z</time>
      </trkpt>
      <trkpt lat="43.91389" lon="5.11787">
        <ele>147</ele>
        <time>2012-06-17T10:39:10.000Z</time>
      </trkpt>
      <trkpt lat="43.91397" lon="5.11788">
        <ele>145.80000305176</ele>
        <time>2012-06-17T10:39:12.000Z</time>
      </trkpt>
      <trkpt lat="43.914" lon="5.1179">
        <ele>145.39999389648</ele>
        <time>2012-06-17T10:39:13.000Z</time>
      </trkpt>
      <trkpt lat="43.91417" lon="5.11802">
        <ele>143.39999389648</ele>
        <time>2012-06-17T10:39:18.000Z</time>
      </trkpt>
      <trkpt lat="43.91433" lon="5.11818">
        <ele>141</ele>
        <time>2012-06-17T10:39:23.000Z</time>
      </trkpt>
      <trkpt lat="43.91435" lon="5.11821">
        <ele>140.80000305176</ele>
        <time>2012-06-17T10:39:24.000Z</time>
      </trkpt>
      <trkpt lat="43.91433" lon="5.11832">
        <ele>141.80000305176</ele>
        <time>2012-06-17T10:39:27.000Z</time>
      </trkpt>
      <trkpt lat="43.91427" lon="5.11842">
        <ele>144</ele>
        <time>2012-06-17T10:39:30.000Z</time>
      </trkpt>
      <trkpt lat="43.91422" lon="5.11851">
        <ele>146</ele>
        <time>2012-06-17T10:39:33.000Z</time>
      </trkpt>
      <trkpt lat="43.91419" lon="5.11856">
        <ele>147</ele>
        <time>2012-06-17T10:39:36.000Z</time>
      </trkpt>
      <trkpt lat="43.9142" lon="5.11853">
        <ele>146.60000610352</ele>
        <time>2012-06-17T10:39:38.000Z</time>
      </trkpt>
      <trkpt lat="43.9142" lon="5.11852">
        <ele>146.39999389648</ele>
        <time>2012-06-17T10:39:40.000Z</time>
      </trkpt>
      <trkpt lat="43.9142" lon="5.11854">
        <ele>146.60000610352</ele>
        <time>2012-06-17T10:39:44.000Z</time>
      </trkpt>
      <trkpt lat="43.91418" lon="5.11862">
        <ele>147.80000305176</ele>
        <time>2012-06-17T10:39:49.000Z</time>
      </trkpt>
      <trkpt lat="43.91422" lon="5.11879">
        <ele>149</ele>
        <time>2012-06-17T10:39:54.000Z</time>
      </trkpt>
      <trkpt lat="43.91425" lon="5.11885">
        <ele>149.19999694824</ele>
        <time>2012-06-17T10:39:56.000Z</time>
      </trkpt>
      <trkpt lat="43.9143" lon="5.11895">
        <ele>149.60000610352</ele>
        <time>2012-06-17T10:39:59.000Z</time>
      </trkpt>
      <trkpt lat="43.91439" lon="5.1192">
        <ele>151.39999389648</ele>
        <time>2012-06-17T10:40:05.000Z</time>
      </trkpt>
      <trkpt lat="43.91444" lon="5.11943">
        <ele>154.60000610352</ele>
        <time>2012-06-17T10:40:10.000Z</time>
      </trkpt>
      <trkpt lat="43.91445" lon="5.11945">
        <ele>154.80000305176</ele>
        <time>2012-06-17T10:40:11.000Z</time>
      </trkpt>
      <trkpt lat="43.91454" lon="5.11947">
        <ele>154</ele>
        <time>2012-06-17T10:40:14.000Z</time>
      </trkpt>
      <trkpt lat="43.91463" lon="5.11936">
        <ele>151</ele>
        <time>2012-06-17T10:40:18.000Z</time>
      </trkpt>
      <trkpt lat="43.91468" lon="5.11932">
        <ele>149.60000610352</ele>
        <time>2012-06-17T10:40:20.000Z</time>
      </trkpt>
      <trkpt lat="43.91476" lon="5.11927">
        <ele>147.60000610352</ele>
        <time>2012-06-17T10:40:23.000Z</time>
      </trkpt>
      <trkpt lat="43.91492" lon="5.11926">
        <ele>145.19999694824</ele>
        <time>2012-06-17T10:40:28.000Z</time>
      </trkpt>
      <trkpt lat="43.91511" lon="5.11931">
        <ele>144</ele>
        <time>2012-06-17T10:40:34.000Z</time>
      </trkpt>
      <trkpt lat="43.91528" lon="5.11943">
        <ele>144.60000610352</ele>
        <time>2012-06-17T10:40:40.000Z</time>
      </trkpt>
      <trkpt lat="43.91535" lon="5.11948">
        <ele>144.39999389648</ele>
        <time>2012-06-17T10:40:42.000Z</time>
      </trkpt>
      <trkpt lat="43.91553" lon="5.11958">
        <ele>143.80000305176</ele>
        <time>2012-06-17T10:40:47.000Z</time>
      </trkpt>
      <trkpt lat="43.91557" lon="5.11961">
        <ele>143.60000610352</ele>
        <time>2012-06-17T10:40:48.000Z</time>
      </trkpt>
      <trkpt lat="43.91574" lon="5.11978">
        <ele>143.80000305176</ele>
        <time>2012-06-17T10:40:53.000Z</time>
      </trkpt>
      <trkpt lat="43.91579" lon="5.11985">
        <ele>143.80000305176</ele>
        <time>2012-06-17T10:40:55.000Z</time>
      </trkpt>
      <trkpt lat="43.91592" lon="5.12001">
        <ele>143.39999389648</ele>
        <time>2012-06-17T10:41:00.000Z</time>
      </trkpt>
      <trkpt lat="43.91611" lon="5.12013">
        <ele>141</ele>
        <time>2012-06-17T10:41:06.000Z</time>
      </trkpt>
      <trkpt lat="43.91631" lon="5.1202">
        <ele>138.39999389648</ele>
        <time>2012-06-17T10:41:11.000Z</time>
      </trkpt>
      <trkpt lat="43.91635" lon="5.12023">
        <ele>138</ele>
        <time>2012-06-17T10:41:12.000Z</time>
      </trkpt>
      <trkpt lat="43.91647" lon="5.1204">
        <ele>138</ele>
        <time>2012-06-17T10:41:16.000Z</time>
      </trkpt>
      <trkpt lat="43.9165" lon="5.12045">
        <ele>138.19999694824</ele>
        <time>2012-06-17T10:41:17.000Z</time>
      </trkpt>
      <trkpt lat="43.91664" lon="5.12068">
        <ele>139.19999694824</ele>
        <time>2012-06-17T10:41:21.000Z</time>
      </trkpt>
      <trkpt lat="43.91673" lon="5.12084">
        <ele>139.80000305176</ele>
        <time>2012-06-17T10:41:24.000Z</time>
      </trkpt>
      <trkpt lat="43.91681" lon="5.12096">
        <ele>139.39999389648</ele>
        <time>2012-06-17T10:41:27.000Z</time>
      </trkpt>
      <trkpt lat="43.91683" lon="5.12099">
        <ele>139.19999694824</ele>
        <time>2012-06-17T10:41:28.000Z</time>
      </trkpt>
      <trkpt lat="43.91694" lon="5.12122">
        <ele>138.39999389648</ele>
        <time>2012-06-17T10:41:35.000Z</time>
      </trkpt>
      <trkpt lat="43.91698" lon="5.1215">
        <ele>139.19999694824</ele>
        <time>2012-06-17T10:41:40.000Z</time>
      </trkpt>
      <trkpt lat="43.91703" lon="5.12178">
        <ele>139.60000610352</ele>
        <time>2012-06-17T10:41:45.000Z</time>
      </trkpt>
      <trkpt lat="43.91704" lon="5.12182">
        <ele>139.80000305176</ele>
        <time>2012-06-17T10:41:46.000Z</time>
      </trkpt>
      <trkpt lat="43.91711" lon="5.12208">
        <ele>139.19999694824</ele>
        <time>2012-06-17T10:41:53.000Z</time>
      </trkpt>
      <trkpt lat="43.9172" lon="5.12231">
        <ele>138</ele>
        <time>2012-06-17T10:41:59.000Z</time>
      </trkpt>
      <trkpt lat="43.91722" lon="5.12234">
        <ele>137.80000305176</ele>
        <time>2012-06-17T10:42:00.000Z</time>
      </trkpt>
      <trkpt lat="43.9173" lon="5.12254">
        <ele>136.39999389648</ele>
        <time>2012-06-17T10:42:07.000Z</time>
      </trkpt>
      <trkpt lat="43.91742" lon="5.12273">
        <ele>133.80000305176</ele>
        <time>2012-06-17T10:42:15.000Z</time>
      </trkpt>
      <trkpt lat="43.91754" lon="5.12283">
        <ele>131</ele>
        <time>2012-06-17T10:42:20.000Z</time>
      </trkpt>
      <trkpt lat="43.91768" lon="5.12294">
        <ele>128</ele>
        <time>2012-06-17T10:42:26.000Z</time>
      </trkpt>
      <trkpt lat="43.91781" lon="5.12311">
        <ele>125.19999694824</ele>
        <time>2012-06-17T10:42:32.000Z</time>
      </trkpt>
      <trkpt lat="43.91793" lon="5.12335">
        <ele>122.59999847412</ele>
        <time>2012-06-17T10:42:38.000Z</time>
      </trkpt>
      <trkpt lat="43.91795" lon="5.12337">
        <ele>121.59999847412</ele>
        <time>2012-06-17T10:42:39.000Z</time>
      </trkpt>
      <trkpt lat="43.91809" lon="5.12357">
        <ele>115.59999847412</ele>
        <time>2012-06-17T10:42:46.000Z</time>
      </trkpt>
      <trkpt lat="43.91815" lon="5.12375">
        <ele>111.80000305176</ele>
        <time>2012-06-17T10:42:51.000Z</time>
      </trkpt>
      <trkpt lat="43.91815" lon="5.12392">
        <ele>109.19999694824</ele>
        <time>2012-06-17T10:42:56.000Z</time>
      </trkpt>
      <trkpt lat="43.91814" lon="5.12397">
        <ele>108.59999847412</ele>
        <time>2012-06-17T10:43:01.000Z</time>
      </trkpt>
      <trkpt lat="43.91817" lon="5.12406">
        <ele>106.59999847412</ele>
        <time>2012-06-17T10:43:07.000Z</time>
      </trkpt>
      <trkpt lat="43.91822" lon="5.12415">
        <ele>104.80000305176</ele>
        <time>2012-06-17T10:43:15.000Z</time>
      </trkpt>
      <trkpt lat="43.91832" lon="5.12419">
        <ele>102.80000305176</ele>
        <time>2012-06-17T10:43:24.000Z</time>
      </trkpt>
      <trkpt lat="43.91837" lon="5.12423">
        <ele>101.80000305176</ele>
        <time>2012-06-17T10:43:31.000Z</time>
      </trkpt>
      <trkpt lat="43.91845" lon="5.12428">
        <ele>100.59999847412</ele>
        <time>2012-06-17T10:43:37.000Z</time>
      </trkpt>
      <trkpt lat="43.91851" lon="5.12437">
        <ele>99</ele>
        <time>2012-06-17T10:43:44.000Z</time>
      </trkpt>
      <trkpt lat="43.91853" lon="5.12438">
        <ele>98.800003051758</ele>
        <time>2012-06-17T10:43:52.000Z</time>
      </trkpt>
      <trkpt lat="43.9186" lon="5.12441">
        <ele>98</ele>
        <time>2012-06-17T10:43:59.000Z</time>
      </trkpt>
      <trkpt lat="43.91862" lon="5.12443">
        <ele>97.599998474121</ele>
        <time>2012-06-17T10:44:01.000Z</time>
      </trkpt>
      <trkpt lat="43.91865" lon="5.12445">
        <ele>97.400001525879</ele>
        <time>2012-06-17T10:44:03.000Z</time>
      </trkpt>
      <trkpt lat="43.91871" lon="5.12451">
        <ele>96.199996948242</ele>
        <time>2012-06-17T10:44:09.000Z</time>
      </trkpt>
      <trkpt lat="43.91872" lon="5.12453">
        <ele>96</ele>
        <time>2012-06-17T10:44:10.000Z</time>
      </trkpt>
      <trkpt lat="43.9188" lon="5.12461">
        <ele>94.800003051758</ele>
        <time>2012-06-17T10:44:17.000Z</time>
      </trkpt>
      <trkpt lat="43.91886" lon="5.12472">
        <ele>93.400001525879</ele>
        <time>2012-06-17T10:44:24.000Z</time>
      </trkpt>
      <trkpt lat="43.91888" lon="5.12475">
        <ele>93</ele>
        <time>2012-06-17T10:44:29.000Z</time>
      </trkpt>
      <trkpt lat="43.91893" lon="5.12479">
        <ele>92.400001525879</ele>
        <time>2012-06-17T10:44:34.000Z</time>
      </trkpt>
      <trkpt lat="43.91899" lon="5.12482">
        <ele>92</ele>
        <time>2012-06-17T10:44:40.000Z</time>
      </trkpt>
      <trkpt lat="43.91904" lon="5.12492">
        <ele>90.800003051758</ele>
        <time>2012-06-17T10:44:46.000Z</time>
      </trkpt>
      <trkpt lat="43.91914" lon="5.12507">
        <ele>89.599998474121</ele>
        <time>2012-06-17T10:44:53.000Z</time>
      </trkpt>
      <trkpt lat="43.91917" lon="5.12514">
        <ele>89.400001525879</ele>
        <time>2012-06-17T10:44:57.000Z</time>
      </trkpt>
      <trkpt lat="43.91916" lon="5.12518">
        <ele>89.199996948242</ele>
        <time>2012-06-17T10:44:59.000Z</time>
      </trkpt>
      <trkpt lat="43.91916" lon="5.1252">
        <ele>89</ele>
        <time>2012-06-17T10:45:01.000Z</time>
      </trkpt>
      <trkpt lat="43.91919" lon="5.12525">
        <ele>88.599998474121</ele>
        <time>2012-06-17T10:45:04.000Z</time>
      </trkpt>
      <trkpt lat="43.91924" lon="5.12534">
        <ele>87.800003051758</ele>
        <time>2012-06-17T10:45:08.000Z</time>
      </trkpt>
      <trkpt lat="43.91925" lon="5.12537">
        <ele>87.599998474121</ele>
        <time>2012-06-17T10:45:09.000Z</time>
      </trkpt>
      <trkpt lat="43.91934" lon="5.12543">
        <ele>86.800003051758</ele>
        <time>2012-06-17T10:45:13.000Z</time>
      </trkpt>
      <trkpt lat="43.91948" lon="5.12548">
        <ele>85.599998474121</ele>
        <time>2012-06-17T10:45:18.000Z</time>
      </trkpt>
      <trkpt lat="43.91952" lon="5.1255">
        <ele>85.199996948242</ele>
        <time>2012-06-17T10:45:19.000Z</time>
      </trkpt>
      <trkpt lat="43.91966" lon="5.12553">
        <ele>84.199996948242</ele>
        <time>2012-06-17T10:45:24.000Z</time>
      </trkpt>
      <trkpt lat="43.91969" lon="5.12551">
        <ele>84</ele>
        <time>2012-06-17T10:45:25.000Z</time>
      </trkpt>
      <trkpt lat="43.91977" lon="5.1254">
        <ele>84</ele>
        <time>2012-06-17T10:45:28.000Z</time>
      </trkpt>
      <trkpt lat="43.91981" lon="5.12535">
        <ele>84.199996948242</ele>
        <time>2012-06-17T10:45:29.000Z</time>
      </trkpt>
      <trkpt lat="43.91994" lon="5.12518">
        <ele>84.400001525879</ele>
        <time>2012-06-17T10:45:33.000Z</time>
      </trkpt>
      <trkpt lat="43.92001" lon="5.1251">
        <ele>84.400001525879</ele>
        <time>2012-06-17T10:45:35.000Z</time>
      </trkpt>
      <trkpt lat="43.92004" lon="5.12506">
        <ele>84.599998474121</ele>
        <time>2012-06-17T10:45:36.000Z</time>
      </trkpt>
      <trkpt lat="43.92012" lon="5.12493">
        <ele>85.199996948242</ele>
        <time>2012-06-17T10:45:39.000Z</time>
      </trkpt>
      <trkpt lat="43.92016" lon="5.12482">
        <ele>85.800003051758</ele>
        <time>2012-06-17T10:45:41.000Z</time>
      </trkpt>
      <trkpt lat="43.92023" lon="5.12466">
        <ele>86</ele>
        <time>2012-06-17T10:45:44.000Z</time>
      </trkpt>
      <trkpt lat="43.92025" lon="5.1246">
        <ele>86.199996948242</ele>
        <time>2012-06-17T10:45:45.000Z</time>
      </trkpt>
      <trkpt lat="43.92026" lon="5.12455">
        <ele>86.199996948242</ele>
        <time>2012-06-17T10:45:46.000Z</time>
      </trkpt>
      <trkpt lat="43.92031" lon="5.12429">
        <ele>86.599998474121</ele>
        <time>2012-06-17T10:45:50.000Z</time>
      </trkpt>
      <trkpt lat="43.92031" lon="5.12423">
        <ele>86.599998474121</ele>
        <time>2012-06-17T10:45:51.000Z</time>
      </trkpt>
      <trkpt lat="43.92032" lon="5.12416">
        <ele>86.800003051758</ele>
        <time>2012-06-17T10:45:52.000Z</time>
      </trkpt>
      <trkpt lat="43.92032" lon="5.1241">
        <ele>86.400001525879</ele>
        <time>2012-06-17T10:45:53.000Z</time>
      </trkpt>
      <trkpt lat="43.92032" lon="5.124">
        <ele>86</ele>
        <time>2012-06-17T10:45:55.000Z</time>
      </trkpt>
      <trkpt lat="43.92034" lon="5.12393">
        <ele>85.400001525879</ele>
        <time>2012-06-17T10:45:57.000Z</time>
      </trkpt>
      <trkpt lat="43.92045" lon="5.12384">
        <ele>83.800003051758</ele>
        <time>2012-06-17T10:46:01.000Z</time>
      </trkpt>
      <trkpt lat="43.92063" lon="5.12373">
        <ele>81.400001525879</ele>
        <time>2012-06-17T10:46:06.000Z</time>
      </trkpt>
      <trkpt lat="43.92067" lon="5.12368">
        <ele>81</ele>
        <time>2012-06-17T10:46:08.000Z</time>
      </trkpt>
      <trkpt lat="43.92067" lon="5.12365">
        <ele>80.800003051758</ele>
        <time>2012-06-17T10:46:09.000Z</time>
      </trkpt>
      <trkpt lat="43.92067" lon="5.12361">
        <ele>80.800003051758</ele>
        <time>2012-06-17T10:46:10.000Z</time>
      </trkpt>
      <trkpt lat="43.92059" lon="5.12341">
        <ele>81</ele>
        <time>2012-06-17T10:46:14.000Z</time>
      </trkpt>
      <trkpt lat="43.92052" lon="5.12314">
        <ele>80.800003051758</ele>
        <time>2012-06-17T10:46:19.000Z</time>
      </trkpt>
      <trkpt lat="43.9205" lon="5.1231">
        <ele>80.800003051758</ele>
        <time>2012-06-17T10:46:20.000Z</time>
      </trkpt>
      <trkpt lat="43.92038" lon="5.12286">
        <ele>80.400001525879</ele>
        <time>2012-06-17T10:46:26.000Z</time>
      </trkpt>
      <trkpt lat="43.9203" lon="5.12265">
        <ele>79.800003051758</ele>
        <time>2012-06-17T10:46:31.000Z</time>
      </trkpt>
      <trkpt lat="43.92021" lon="5.12239">
        <ele>78.800003051758</ele>
        <time>2012-06-17T10:46:36.000Z</time>
      </trkpt>
      <trkpt lat="43.92018" lon="5.1223">
        <ele>78.400001525879</ele>
        <time>2012-06-17T10:46:40.000Z</time>
      </trkpt>
      <trkpt lat="43.92016" lon="5.12226">
        <ele>78.400001525879</ele>
        <time>2012-06-17T10:46:46.000Z</time>
      </trkpt>
      <trkpt lat="43.92014" lon="5.12216">
        <ele>78</ele>
        <time>2012-06-17T10:46:51.000Z</time>
      </trkpt>
      <trkpt lat="43.92014" lon="5.12212">
        <ele>78</ele>
        <time>2012-06-17T10:46:53.000Z</time>
      </trkpt>
      <trkpt lat="43.92015" lon="5.12206">
        <ele>77.800003051758</ele>
        <time>2012-06-17T10:46:56.000Z</time>
      </trkpt>
      <trkpt lat="43.92016" lon="5.12205">
        <ele>77.800003051758</ele>
        <time>2012-06-17T10:46:57.000Z</time>
      </trkpt>
      <trkpt lat="43.92022" lon="5.12198">
        <ele>77.800003051758</ele>
        <time>2012-06-17T10:47:03.000Z</time>
      </trkpt>
      <trkpt lat="43.92027" lon="5.12195">
        <ele>77.800003051758</ele>
        <time>2012-06-17T10:47:08.000Z</time>
      </trkpt>
      <trkpt lat="43.92028" lon="5.12194">
        <ele>78</ele>
        <time>2012-06-17T10:47:09.000Z</time>
      </trkpt>
      <trkpt lat="43.92032" lon="5.12195">
        <ele>78</ele>
        <time>2012-06-17T10:47:12.000Z</time>
      </trkpt>
      <trkpt lat="43.92033" lon="5.12195">
        <ele>78</ele>
        <time>2012-06-17T10:47:13.000Z</time>
      </trkpt>
      <trkpt lat="43.92034" lon="5.12195">
        <ele>78</ele>
        <time>2012-06-17T10:47:14.000Z</time>
      </trkpt>
      <trkpt lat="43.92038" lon="5.12194">
        <ele>78.199996948242</ele>
        <time>2012-06-17T10:47:18.000Z</time>
      </trkpt>
      <trkpt lat="43.92039" lon="5.12195">
        <ele>78.199996948242</ele>
        <time>2012-06-17T10:47:20.000Z</time>
      </trkpt>
      <trkpt lat="43.92042" lon="5.12192">
        <ele>78.400001525879</ele>
        <time>2012-06-17T10:47:28.000Z</time>
      </trkpt>
      <trkpt lat="43.92044" lon="5.12192">
        <ele>78.400001525879</ele>
        <time>2012-06-17T10:47:30.000Z</time>
      </trkpt>
      <trkpt lat="43.92046" lon="5.12192">
        <ele>78.400001525879</ele>
        <time>2012-06-17T10:47:34.000Z</time>
      </trkpt>
      <trkpt lat="43.92044" lon="5.1219">
        <ele>78.400001525879</ele>
        <time>2012-06-17T10:47:55.000Z</time>
      </trkpt>
      <trkpt lat="43.92042" lon="5.12192">
        <ele>78.400001525879</ele>
        <time>2012-06-17T10:48:01.000Z</time>
      </trkpt>
      <trkpt lat="43.92039" lon="5.12195">
        <ele>78.199996948242</ele>
        <time>2012-06-17T10:48:09.000Z</time>
      </trkpt>
      <trkpt lat="43.92038" lon="5.12195">
        <ele>78.199996948242</ele>
        <time>2012-06-17T10:48:16.000Z</time>
      </trkpt>
      <trkpt lat="43.92037" lon="5.12194">
        <ele>78.199996948242</ele>
        <time>2012-06-17T10:48:23.000Z</time>
      </trkpt>
      <trkpt lat="43.92039" lon="5.12192">
        <ele>78.199996948242</ele>
        <time>2012-06-17T10:48:36.000Z</time>
      </trkpt>
      <trkpt lat="43.92037" lon="5.12193">
        <ele>78.199996948242</ele>
        <time>2012-06-17T10:48:56.000Z</time>
      </trkpt>
      <trkpt lat="43.92039" lon="5.12196">
        <ele>78.199996948242</ele>
        <time>2012-06-17T10:49:11.000Z</time>
      </trkpt>
      <trkpt lat="43.92038" lon="5.12196">
        <ele>78.199996948242</ele>
        <time>2012-06-17T10:49:38.000Z</time>
      </trkpt>
      <trkpt lat="43.92034" lon="5.12192">
        <ele>78</ele>
        <time>2012-06-17T10:49:53.000Z</time>
      </trkpt>
      <trkpt lat="43.92037" lon="5.12188">
        <ele>78</ele>
        <time>2012-06-17T10:49:56.000Z</time>
      </trkpt>
      <trkpt lat="43.92037" lon="5.12187">
        <ele>78</ele>
        <time>2012-06-17T10:49:57.000Z</time>
      </trkpt>
      <trkpt lat="43.92037" lon="5.12183">
        <ele>78</ele>
        <time>2012-06-17T10:50:01.000Z</time>
      </trkpt>
      <trkpt lat="43.92037" lon="5.12175">
        <ele>78</ele>
        <time>2012-06-17T10:50:08.000Z</time>
      </trkpt>
      <trkpt lat="43.92034" lon="5.12172">
        <ele>77.800003051758</ele>
        <time>2012-06-17T10:50:12.000Z</time>
      </trkpt>
      <trkpt lat="43.92032" lon="5.12169">
        <ele>77.599998474121</ele>
        <time>2012-06-17T10:50:15.000Z</time>
      </trkpt>
      <trkpt lat="43.92024" lon="5.12153">
        <ele>77.800003051758</ele>
        <time>2012-06-17T10:50:24.000Z</time>
      </trkpt>
      <trkpt lat="43.92015" lon="5.12135">
        <ele>77.599998474121</ele>
        <time>2012-06-17T10:50:34.000Z</time>
      </trkpt>
      <trkpt lat="43.92008" lon="5.12124">
        <ele>77.400001525879</ele>
        <time>2012-06-17T10:50:42.000Z</time>
      </trkpt>
      <trkpt lat="43.92001" lon="5.12118">
        <ele>76.599998474121</ele>
        <time>2012-06-17T10:50:48.000Z</time>
      </trkpt>
      <trkpt lat="43.91999" lon="5.12118">
        <ele>76.800003051758</ele>
        <time>2012-06-17T10:50:50.000Z</time>
      </trkpt>
      <trkpt lat="43.91989" lon="5.12121">
        <ele>77.599998474121</ele>
        <time>2012-06-17T10:50:58.000Z</time>
      </trkpt>
      <trkpt lat="43.91983" lon="5.12119">
        <ele>78</ele>
        <time>2012-06-17T10:51:05.000Z</time>
      </trkpt>
      <trkpt lat="43.91982" lon="5.12116">
        <ele>78.199996948242</ele>
        <time>2012-06-17T10:51:09.000Z</time>
      </trkpt>
      <trkpt lat="43.91982" lon="5.12115">
        <ele>78.199996948242</ele>
        <time>2012-06-17T10:51:10.000Z</time>
      </trkpt>
      <trkpt lat="43.91982" lon="5.1211">
        <ele>78.199996948242</ele>
        <time>2012-06-17T10:51:15.000Z</time>
      </trkpt>
      <trkpt lat="43.91989" lon="5.12103">
        <ele>77.599998474121</ele>
        <time>2012-06-17T10:51:21.000Z</time>
      </trkpt>
      <trkpt lat="43.91994" lon="5.12098">
        <ele>77.199996948242</ele>
        <time>2012-06-17T10:51:28.000Z</time>
      </trkpt>
      <trkpt lat="43.91997" lon="5.12095">
        <ele>77</ele>
        <time>2012-06-17T10:51:34.000Z</time>
      </trkpt>
      <trkpt lat="43.91998" lon="5.12096">
        <ele>77</ele>
        <time>2012-06-17T10:51:39.000Z</time>
      </trkpt>
      <trkpt lat="43.92002" lon="5.12098">
        <ele>77</ele>
        <time>2012-06-17T10:51:58.000Z</time>
      </trkpt>
      <trkpt lat="43.92001" lon="5.12089">
        <ele>77</ele>
        <time>2012-06-17T10:52:15.000Z</time>
      </trkpt>
      <trkpt lat="43.92001" lon="5.12086">
        <ele>77.199996948242</ele>
        <time>2012-06-17T10:52:21.000Z</time>
      </trkpt>
      <trkpt lat="43.92002" lon="5.12081">
        <ele>77.400001525879</ele>
        <time>2012-06-17T10:52:26.000Z</time>
      </trkpt>
      <trkpt lat="43.92003" lon="5.12078">
        <ele>77.599998474121</ele>
        <time>2012-06-17T10:52:32.000Z</time>
      </trkpt>
      <trkpt lat="43.92004" lon="5.12077">
        <ele>77.800003051758</ele>
        <time>2012-06-17T10:52:36.000Z</time>
      </trkpt>
      <trkpt lat="43.92005" lon="5.12075">
        <ele>78</ele>
        <time>2012-06-17T10:52:41.000Z</time>
      </trkpt>
      <trkpt lat="43.92006" lon="5.12072">
        <ele>78.199996948242</ele>
        <time>2012-06-17T10:52:46.000Z</time>
      </trkpt>
      <trkpt lat="43.92008" lon="5.1207">
        <ele>78.400001525879</ele>
        <time>2012-06-17T10:52:51.000Z</time>
      </trkpt>
      <trkpt lat="43.92011" lon="5.12067">
        <ele>79</ele>
        <time>2012-06-17T10:52:56.000Z</time>
      </trkpt>
      <trkpt lat="43.92012" lon="5.12064">
        <ele>79.199996948242</ele>
        <time>2012-06-17T10:53:00.000Z</time>
      </trkpt>
      <trkpt lat="43.92012" lon="5.1206">
        <ele>79.400001525879</ele>
        <time>2012-06-17T10:53:05.000Z</time>
      </trkpt>
      <trkpt lat="43.92015" lon="5.12061">
        <ele>79.800003051758</ele>
        <time>2012-06-17T10:53:13.000Z</time>
      </trkpt>
      <trkpt lat="43.92016" lon="5.12059">
        <ele>80</ele>
        <time>2012-06-17T10:53:17.000Z</time>
      </trkpt>
      <trkpt lat="43.92015" lon="5.12064">
        <ele>79.800003051758</ele>
        <time>2012-06-17T10:53:41.000Z</time>
      </trkpt>
      <trkpt lat="43.92013" lon="5.12062">
        <ele>79.599998474121</ele>
        <time>2012-06-17T10:54:20.000Z</time>
      </trkpt>
      <trkpt lat="43.92009" lon="5.1206">
        <ele>78.800003051758</ele>
        <time>2012-06-17T10:54:23.000Z</time>
      </trkpt>
      <trkpt lat="43.92005" lon="5.12057">
        <ele>78.199996948242</ele>
        <time>2012-06-17T10:54:25.000Z</time>
      </trkpt>
      <trkpt lat="43.91999" lon="5.12045">
        <ele>77.599998474121</ele>
        <time>2012-06-17T10:54:31.000Z</time>
      </trkpt>
      <trkpt lat="43.91994" lon="5.1203">
        <ele>77.800003051758</ele>
        <time>2012-06-17T10:54:36.000Z</time>
      </trkpt>
      <trkpt lat="43.91987" lon="5.12021">
        <ele>78</ele>
        <time>2012-06-17T10:54:39.000Z</time>
      </trkpt>
      <trkpt lat="43.91981" lon="5.12011">
        <ele>78.199996948242</ele>
        <time>2012-06-17T10:54:42.000Z</time>
      </trkpt>
      <trkpt lat="43.91973" lon="5.11995">
        <ele>78.599998474121</ele>
        <time>2012-06-17T10:54:47.000Z</time>
      </trkpt>
      <trkpt lat="43.91971" lon="5.11984">
        <ele>79.199996948242</ele>
        <time>2012-06-17T10:54:50.000Z</time>
      </trkpt>
      <trkpt lat="43.91969" lon="5.11981">
        <ele>79.400001525879</ele>
        <time>2012-06-17T10:54:51.000Z</time>
      </trkpt>
      <trkpt lat="43.9196" lon="5.11955">
        <ele>80.400001525879</ele>
        <time>2012-06-17T10:54:57.000Z</time>
      </trkpt>
      <trkpt lat="43.91959" lon="5.11949">
        <ele>80.599998474121</ele>
        <time>2012-06-17T10:54:59.000Z</time>
      </trkpt>
      <trkpt lat="43.91958" lon="5.1194">
        <ele>81</ele>
        <time>2012-06-17T10:55:01.000Z</time>
      </trkpt>
      <trkpt lat="43.91958" lon="5.11929">
        <ele>81.400001525879</ele>
        <time>2012-06-17T10:55:05.000Z</time>
      </trkpt>
      <trkpt lat="43.91954" lon="5.11919">
        <ele>81.800003051758</ele>
        <time>2012-06-17T10:55:09.000Z</time>
      </trkpt>
      <trkpt lat="43.91954" lon="5.11906">
        <ele>82</ele>
        <time>2012-06-17T10:55:13.000Z</time>
      </trkpt>
      <trkpt lat="43.91953" lon="5.11903">
        <ele>82.199996948242</ele>
        <time>2012-06-17T10:55:14.000Z</time>
      </trkpt>
      <trkpt lat="43.91951" lon="5.11895">
        <ele>82.199996948242</ele>
        <time>2012-06-17T10:55:17.000Z</time>
      </trkpt>
      <trkpt lat="43.9195" lon="5.11891">
        <ele>82.199996948242</ele>
        <time>2012-06-17T10:55:18.000Z</time>
      </trkpt>
      <trkpt lat="43.91949" lon="5.11884">
        <ele>82.400001525879</ele>
        <time>2012-06-17T10:55:21.000Z</time>
      </trkpt>
      <trkpt lat="43.91942" lon="5.11869">
        <ele>82</ele>
        <time>2012-06-17T10:55:28.000Z</time>
      </trkpt>
      <trkpt lat="43.91944" lon="5.11858">
        <ele>82.400001525879</ele>
        <time>2012-06-17T10:55:34.000Z</time>
      </trkpt>
      <trkpt lat="43.91943" lon="5.11856">
        <ele>82.400001525879</ele>
        <time>2012-06-17T10:55:35.000Z</time>
      </trkpt>
      <trkpt lat="43.91942" lon="5.11852">
        <ele>82.400001525879</ele>
        <time>2012-06-17T10:55:37.000Z</time>
      </trkpt>
      <trkpt lat="43.91941" lon="5.11846">
        <ele>82.400001525879</ele>
        <time>2012-06-17T10:55:40.000Z</time>
      </trkpt>
      <trkpt lat="43.91939" lon="5.11838">
        <ele>82.400001525879</ele>
        <time>2012-06-17T10:55:44.000Z</time>
      </trkpt>
      <trkpt lat="43.91939" lon="5.11837">
        <ele>82.400001525879</ele>
        <time>2012-06-17T10:55:45.000Z</time>
      </trkpt>
      <trkpt lat="43.91936" lon="5.11824">
        <ele>82.400001525879</ele>
        <time>2012-06-17T10:55:50.000Z</time>
      </trkpt>
      <trkpt lat="43.9193" lon="5.11806">
        <ele>82.400001525879</ele>
        <time>2012-06-17T10:55:56.000Z</time>
      </trkpt>
      <trkpt lat="43.91931" lon="5.11794">
        <ele>83</ele>
        <time>2012-06-17T10:56:00.000Z</time>
      </trkpt>
      <trkpt lat="43.91933" lon="5.1179">
        <ele>83.400001525879</ele>
        <time>2012-06-17T10:56:02.000Z</time>
      </trkpt>
      <trkpt lat="43.91936" lon="5.11785">
        <ele>84</ele>
        <time>2012-06-17T10:56:05.000Z</time>
      </trkpt>
      <trkpt lat="43.91939" lon="5.11774">
        <ele>84.800003051758</ele>
        <time>2012-06-17T10:56:11.000Z</time>
      </trkpt>
      <trkpt lat="43.91939" lon="5.11772">
        <ele>84.800003051758</ele>
        <time>2012-06-17T10:56:13.000Z</time>
      </trkpt>
      <trkpt lat="43.91939" lon="5.11768">
        <ele>85</ele>
        <time>2012-06-17T10:56:15.000Z</time>
      </trkpt>
      <trkpt lat="43.91939" lon="5.11761">
        <ele>85.199996948242</ele>
        <time>2012-06-17T10:56:18.000Z</time>
      </trkpt>
      <trkpt lat="43.9194" lon="5.11751">
        <ele>85.800003051758</ele>
        <time>2012-06-17T10:56:22.000Z</time>
      </trkpt>
      <trkpt lat="43.91946" lon="5.11743">
        <ele>86.800003051758</ele>
        <time>2012-06-17T10:56:27.000Z</time>
      </trkpt>
      <trkpt lat="43.91947" lon="5.11742">
        <ele>87.199996948242</ele>
        <time>2012-06-17T10:56:28.000Z</time>
      </trkpt>
      <trkpt lat="43.91952" lon="5.11739">
        <ele>87.800003051758</ele>
        <time>2012-06-17T10:56:32.000Z</time>
      </trkpt>
      <trkpt lat="43.91954" lon="5.11738">
        <ele>88.199996948242</ele>
        <time>2012-06-17T10:56:35.000Z</time>
      </trkpt>
      <trkpt lat="43.91951" lon="5.11746">
        <ele>87.400001525879</ele>
        <time>2012-06-17T10:56:58.000Z</time>
      </trkpt>
      <trkpt lat="43.91953" lon="5.11748">
        <ele>87.400001525879</ele>
        <time>2012-06-17T10:57:04.000Z</time>
      </trkpt>
      <trkpt lat="43.91955" lon="5.11744">
        <ele>88</ele>
        <time>2012-06-17T10:57:12.000Z</time>
      </trkpt>
      <trkpt lat="43.91954" lon="5.11739">
        <ele>88.199996948242</ele>
        <time>2012-06-17T10:57:15.000Z</time>
      </trkpt>
      <trkpt lat="43.9195" lon="5.11728">
        <ele>88.199996948242</ele>
        <time>2012-06-17T10:57:20.000Z</time>
      </trkpt>
      <trkpt lat="43.91948" lon="5.11726">
        <ele>88.199996948242</ele>
        <time>2012-06-17T10:57:21.000Z</time>
      </trkpt>
      <trkpt lat="43.91941" lon="5.11707">
        <ele>88</ele>
        <time>2012-06-17T10:57:27.000Z</time>
      </trkpt>
      <trkpt lat="43.91939" lon="5.1169">
        <ele>88.199996948242</ele>
        <time>2012-06-17T10:57:32.000Z</time>
      </trkpt>
      <trkpt lat="43.91936" lon="5.11675">
        <ele>88.400001525879</ele>
        <time>2012-06-17T10:57:37.000Z</time>
      </trkpt>
      <trkpt lat="43.9193" lon="5.11653">
        <ele>86.599998474121</ele>
        <time>2012-06-17T10:57:43.000Z</time>
      </trkpt>
      <trkpt lat="43.91927" lon="5.11638">
        <ele>85</ele>
        <time>2012-06-17T10:57:48.000Z</time>
      </trkpt>
      <trkpt lat="43.9192" lon="5.11623">
        <ele>82.400001525879</ele>
        <time>2012-06-17T10:57:53.000Z</time>
      </trkpt>
      <trkpt lat="43.91909" lon="5.11602">
        <ele>80.199996948242</ele>
        <time>2012-06-17T10:58:00.000Z</time>
      </trkpt>
      <trkpt lat="43.91902" lon="5.11589">
        <ele>79.400001525879</ele>
        <time>2012-06-17T10:58:04.000Z</time>
      </trkpt>
      <trkpt lat="43.91897" lon="5.11578">
        <ele>79.400001525879</ele>
        <time>2012-06-17T10:58:08.000Z</time>
      </trkpt>
      <trkpt lat="43.91891" lon="5.11567">
        <ele>80.199996948242</ele>
        <time>2012-06-17T10:58:12.000Z</time>
      </trkpt>
      <trkpt lat="43.91889" lon="5.11555">
        <ele>81.199996948242</ele>
        <time>2012-06-17T10:58:16.000Z</time>
      </trkpt>
      <trkpt lat="43.91889" lon="5.11547">
        <ele>81.800003051758</ele>
        <time>2012-06-17T10:58:19.000Z</time>
      </trkpt>
      <trkpt lat="43.9189" lon="5.11545">
        <ele>81.800003051758</ele>
        <time>2012-06-17T10:58:20.000Z</time>
      </trkpt>
      <trkpt lat="43.91896" lon="5.11539">
        <ele>82.400001525879</ele>
        <time>2012-06-17T10:58:26.000Z</time>
      </trkpt>
      <trkpt lat="43.91904" lon="5.11532">
        <ele>82.800003051758</ele>
        <time>2012-06-17T10:58:32.000Z</time>
      </trkpt>
      <trkpt lat="43.91911" lon="5.11522">
        <ele>83.400001525879</ele>
        <time>2012-06-17T10:58:39.000Z</time>
      </trkpt>
      <trkpt lat="43.91915" lon="5.11519">
        <ele>83.599998474121</ele>
        <time>2012-06-17T10:58:42.000Z</time>
      </trkpt>
      <trkpt lat="43.91918" lon="5.11517">
        <ele>84</ele>
        <time>2012-06-17T10:58:44.000Z</time>
      </trkpt>
      <trkpt lat="43.91921" lon="5.11514">
        <ele>84.599998474121</ele>
        <time>2012-06-17T10:58:46.000Z</time>
      </trkpt>
      <trkpt lat="43.91926" lon="5.11507">
        <ele>86</ele>
        <time>2012-06-17T10:58:50.000Z</time>
      </trkpt>
      <trkpt lat="43.91929" lon="5.11504">
        <ele>86.599998474121</ele>
        <time>2012-06-17T10:58:51.000Z</time>
      </trkpt>
      <trkpt lat="43.91933" lon="5.11496">
        <ele>88.599998474121</ele>
        <time>2012-06-17T10:58:54.000Z</time>
      </trkpt>
      <trkpt lat="43.91935" lon="5.11495">
        <ele>89.400001525879</ele>
        <time>2012-06-17T10:58:55.000Z</time>
      </trkpt>
      <trkpt lat="43.9194" lon="5.1149">
        <ele>91.199996948242</ele>
        <time>2012-06-17T10:58:58.000Z</time>
      </trkpt>
      <trkpt lat="43.91944" lon="5.1148">
        <ele>94.599998474121</ele>
        <time>2012-06-17T10:59:04.000Z</time>
      </trkpt>
      <trkpt lat="43.91947" lon="5.11473">
        <ele>96.599998474121</ele>
        <time>2012-06-17T10:59:09.000Z</time>
      </trkpt>
      <trkpt lat="43.91953" lon="5.11467">
        <ele>98.599998474121</ele>
        <time>2012-06-17T10:59:14.000Z</time>
      </trkpt>
      <trkpt lat="43.9196" lon="5.11461">
        <ele>100.40000152588</ele>
        <time>2012-06-17T10:59:20.000Z</time>
      </trkpt>
      <trkpt lat="43.91966" lon="5.11458">
        <ele>101.19999694824</ele>
        <time>2012-06-17T10:59:26.000Z</time>
      </trkpt>
      <trkpt lat="43.91966" lon="5.11456">
        <ele>101.80000305176</ele>
        <time>2012-06-17T10:59:32.000Z</time>
      </trkpt>
      <trkpt lat="43.91971" lon="5.11454">
        <ele>102.19999694824</ele>
        <time>2012-06-17T10:59:36.000Z</time>
      </trkpt>
      <trkpt lat="43.91979" lon="5.11452">
        <ele>102.59999847412</ele>
        <time>2012-06-17T10:59:41.000Z</time>
      </trkpt>
      <trkpt lat="43.91982" lon="5.1145">
        <ele>103</ele>
        <time>2012-06-17T10:59:46.000Z</time>
      </trkpt>
      <trkpt lat="43.91983" lon="5.11451">
        <ele>102.80000305176</ele>
        <time>2012-06-17T10:59:54.000Z</time>
      </trkpt>
      <trkpt lat="43.91983" lon="5.11454">
        <ele>102.40000152588</ele>
        <time>2012-06-17T10:59:55.000Z</time>
      </trkpt>
      <trkpt lat="43.91986" lon="5.11459">
        <ele>101.59999847412</ele>
        <time>2012-06-17T10:59:58.000Z</time>
      </trkpt>
      <trkpt lat="43.91986" lon="5.11459">
        <ele>101.59999847412</ele>
        <time>2012-06-17T11:00:03.000Z</time>
      </trkpt>
      <trkpt lat="43.91993" lon="5.11455">
        <ele>102.40000152588</ele>
        <time>2012-06-17T11:00:11.000Z</time>
      </trkpt>
      <trkpt lat="43.92003" lon="5.11452">
        <ele>103</ele>
        <time>2012-06-17T11:00:16.000Z</time>
      </trkpt>
      <trkpt lat="43.92006" lon="5.11455">
        <ele>103</ele>
        <time>2012-06-17T11:00:17.000Z</time>
      </trkpt>
      <trkpt lat="43.9201" lon="5.11451">
        <ele>103.80000305176</ele>
        <time>2012-06-17T11:00:22.000Z</time>
      </trkpt>
      <trkpt lat="43.92014" lon="5.11446">
        <ele>104.40000152588</ele>
        <time>2012-06-17T11:00:26.000Z</time>
      </trkpt>
      <trkpt lat="43.92019" lon="5.11441">
        <ele>105</ele>
        <time>2012-06-17T11:00:29.000Z</time>
      </trkpt>
      <trkpt lat="43.92022" lon="5.11437">
        <ele>105.19999694824</ele>
        <time>2012-06-17T11:00:31.000Z</time>
      </trkpt>
      <trkpt lat="43.92028" lon="5.11433">
        <ele>105.59999847412</ele>
        <time>2012-06-17T11:00:35.000Z</time>
      </trkpt>
      <trkpt lat="43.92037" lon="5.11429">
        <ele>105.80000305176</ele>
        <time>2012-06-17T11:00:40.000Z</time>
      </trkpt>
      <trkpt lat="43.92044" lon="5.11429">
        <ele>105.80000305176</ele>
        <time>2012-06-17T11:00:46.000Z</time>
      </trkpt>
      <trkpt lat="43.9205" lon="5.11431">
        <ele>106</ele>
        <time>2012-06-17T11:00:50.000Z</time>
      </trkpt>
      <trkpt lat="43.92059" lon="5.11433">
        <ele>106.19999694824</ele>
        <time>2012-06-17T11:00:56.000Z</time>
      </trkpt>
      <trkpt lat="43.92066" lon="5.11433">
        <ele>106.40000152588</ele>
        <time>2012-06-17T11:01:01.000Z</time>
      </trkpt>
      <trkpt lat="43.92066" lon="5.11431">
        <ele>106.19999694824</ele>
        <time>2012-06-17T11:01:02.000Z</time>
      </trkpt>
      <trkpt lat="43.92069" lon="5.1143">
        <ele>106</ele>
        <time>2012-06-17T11:01:05.000Z</time>
      </trkpt>
      <trkpt lat="43.92068" lon="5.11421">
        <ele>105</ele>
        <time>2012-06-17T11:01:15.000Z</time>
      </trkpt>
      <trkpt lat="43.92066" lon="5.11423">
        <ele>105.40000152588</ele>
        <time>2012-06-17T11:01:23.000Z</time>
      </trkpt>
      <trkpt lat="43.92065" lon="5.11426">
        <ele>105.59999847412</ele>
        <time>2012-06-17T11:01:28.000Z</time>
      </trkpt>
      <trkpt lat="43.92065" lon="5.11427">
        <ele>105.80000305176</ele>
        <time>2012-06-17T11:01:54.000Z</time>
      </trkpt>
      <trkpt lat="43.92066" lon="5.11428">
        <ele>105.80000305176</ele>
        <time>2012-06-17T11:01:55.000Z</time>
      </trkpt>
      <trkpt lat="43.92071" lon="5.1143">
        <ele>106</ele>
        <time>2012-06-17T11:02:00.000Z</time>
      </trkpt>
      <trkpt lat="43.92072" lon="5.11428">
        <ele>106</ele>
        <time>2012-06-17T11:02:02.000Z</time>
      </trkpt>
      <trkpt lat="43.92076" lon="5.11428">
        <ele>106</ele>
        <time>2012-06-17T11:02:05.000Z</time>
      </trkpt>
      <trkpt lat="43.92083" lon="5.11428">
        <ele>105.80000305176</ele>
        <time>2012-06-17T11:02:10.000Z</time>
      </trkpt>
      <trkpt lat="43.92087" lon="5.11422">
        <ele>105.19999694824</ele>
        <time>2012-06-17T11:02:16.000Z</time>
      </trkpt>
      <trkpt lat="43.9209" lon="5.11421">
        <ele>105.40000152588</ele>
        <time>2012-06-17T11:02:20.000Z</time>
      </trkpt>
      <trkpt lat="43.92094" lon="5.11416">
        <ele>104.80000305176</ele>
        <time>2012-06-17T11:02:25.000Z</time>
      </trkpt>
      <trkpt lat="43.92094" lon="5.11413">
        <ele>105.59999847412</ele>
        <time>2012-06-17T11:02:27.000Z</time>
      </trkpt>
      <trkpt lat="43.92095" lon="5.1141">
        <ele>106.40000152588</ele>
        <time>2012-06-17T11:02:30.000Z</time>
      </trkpt>
      <trkpt lat="43.92099" lon="5.11405">
        <ele>107.59999847412</ele>
        <time>2012-06-17T11:02:35.000Z</time>
      </trkpt>
      <trkpt lat="43.921" lon="5.11404">
        <ele>108</ele>
        <time>2012-06-17T11:02:36.000Z</time>
      </trkpt>
      <trkpt lat="43.92105" lon="5.11403">
        <ele>108.59999847412</ele>
        <time>2012-06-17T11:02:40.000Z</time>
      </trkpt>
      <trkpt lat="43.92108" lon="5.11401">
        <ele>109</ele>
        <time>2012-06-17T11:02:42.000Z</time>
      </trkpt>
      <trkpt lat="43.92111" lon="5.11396">
        <ele>110.19999694824</ele>
        <time>2012-06-17T11:02:47.000Z</time>
      </trkpt>
      <trkpt lat="43.92114" lon="5.11396">
        <ele>110.40000152588</ele>
        <time>2012-06-17T11:02:48.000Z</time>
      </trkpt>
      <trkpt lat="43.92114" lon="5.11392">
        <ele>111.19999694824</ele>
        <time>2012-06-17T11:02:53.000Z</time>
      </trkpt>
      <trkpt lat="43.92121" lon="5.11394">
        <ele>111.19999694824</ele>
        <time>2012-06-17T11:02:58.000Z</time>
      </trkpt>
      <trkpt lat="43.92124" lon="5.11395">
        <ele>111.19999694824</ele>
        <time>2012-06-17T11:02:59.000Z</time>
      </trkpt>
      <trkpt lat="43.92136" lon="5.11401">
        <ele>110.59999847412</ele>
        <time>2012-06-17T11:03:03.000Z</time>
      </trkpt>
      <trkpt lat="43.92143" lon="5.11403">
        <ele>110.59999847412</ele>
        <time>2012-06-17T11:03:06.000Z</time>
      </trkpt>
      <trkpt lat="43.92149" lon="5.11403">
        <ele>111</ele>
        <time>2012-06-17T11:03:10.000Z</time>
      </trkpt>
      <trkpt lat="43.92151" lon="5.11402">
        <ele>111.19999694824</ele>
        <time>2012-06-17T11:03:12.000Z</time>
      </trkpt>
      <trkpt lat="43.92164" lon="5.11401">
        <ele>112.19999694824</ele>
        <time>2012-06-17T11:03:18.000Z</time>
      </trkpt>
      <trkpt lat="43.9217" lon="5.11403">
        <ele>112.40000152588</ele>
        <time>2012-06-17T11:03:22.000Z</time>
      </trkpt>
      <trkpt lat="43.92174" lon="5.11405">
        <ele>112.40000152588</ele>
        <time>2012-06-17T11:03:25.000Z</time>
      </trkpt>
      <trkpt lat="43.92175" lon="5.11403">
        <ele>112.80000305176</ele>
        <time>2012-06-17T11:03:27.000Z</time>
      </trkpt>
      <trkpt lat="43.92177" lon="5.11402">
        <ele>113.19999694824</ele>
        <time>2012-06-17T11:03:30.000Z</time>
      </trkpt>
      <trkpt lat="43.9218" lon="5.11404">
        <ele>113.19999694824</ele>
        <time>2012-06-17T11:03:32.000Z</time>
      </trkpt>
      <trkpt lat="43.92186" lon="5.11406">
        <ele>113.40000152588</ele>
        <time>2012-06-17T11:03:37.000Z</time>
      </trkpt>
      <trkpt lat="43.92189" lon="5.11405">
        <ele>114</ele>
        <time>2012-06-17T11:03:41.000Z</time>
      </trkpt>
      <trkpt lat="43.9219" lon="5.11406">
        <ele>114</ele>
        <time>2012-06-17T11:03:43.000Z</time>
      </trkpt>
      <trkpt lat="43.92191" lon="5.11404">
        <ele>114.40000152588</ele>
        <time>2012-06-17T11:03:49.000Z</time>
      </trkpt>
      <trkpt lat="43.9219" lon="5.11404">
        <ele>114.19999694824</ele>
        <time>2012-06-17T11:04:06.000Z</time>
      </trkpt>
      <trkpt lat="43.9219" lon="5.11404">
        <ele>114.19999694824</ele>
        <time>2012-06-17T11:04:07.000Z</time>
      </trkpt>
      <trkpt lat="43.92196" lon="5.11418">
        <ele>113.59999847412</ele>
        <time>2012-06-17T11:04:28.000Z</time>
      </trkpt>
      <trkpt lat="43.92189" lon="5.11408">
        <ele>113.59999847412</ele>
        <time>2012-06-17T11:04:42.000Z</time>
      </trkpt>
      <trkpt lat="43.92187" lon="5.11407">
        <ele>113.59999847412</ele>
        <time>2012-06-17T11:04:46.000Z</time>
      </trkpt>
      <trkpt lat="43.92177" lon="5.11398">
        <ele>113.80000305176</ele>
        <time>2012-06-17T11:04:52.000Z</time>
      </trkpt>
      <trkpt lat="43.92174" lon="5.11395">
        <ele>114</ele>
        <time>2012-06-17T11:04:56.000Z</time>
      </trkpt>
      <trkpt lat="43.92181" lon="5.11399">
        <ele>114</ele>
        <time>2012-06-17T11:05:00.000Z</time>
      </trkpt>
      <trkpt lat="43.92183" lon="5.114">
        <ele>114</ele>
        <time>2012-06-17T11:05:01.000Z</time>
      </trkpt>
      <trkpt lat="43.92191" lon="5.11403">
        <ele>114.40000152588</ele>
        <time>2012-06-17T11:05:05.000Z</time>
      </trkpt>
      <trkpt lat="43.92195" lon="5.11406">
        <ele>114.40000152588</ele>
        <time>2012-06-17T11:05:07.000Z</time>
      </trkpt>
      <trkpt lat="43.92206" lon="5.11414">
        <ele>114.59999847412</ele>
        <time>2012-06-17T11:05:12.000Z</time>
      </trkpt>
      <trkpt lat="43.92212" lon="5.11414">
        <ele>115.19999694824</ele>
        <time>2012-06-17T11:05:17.000Z</time>
      </trkpt>
      <trkpt lat="43.92213" lon="5.11411">
        <ele>115.80000305176</ele>
        <time>2012-06-17T11:05:21.000Z</time>
      </trkpt>
      <trkpt lat="43.92212" lon="5.11409">
        <ele>115.80000305176</ele>
        <time>2012-06-17T11:05:22.000Z</time>
      </trkpt>
      <trkpt lat="43.92214" lon="5.11405">
        <ele>116.59999847412</ele>
        <time>2012-06-17T11:05:26.000Z</time>
      </trkpt>
      <trkpt lat="43.92218" lon="5.11404">
        <ele>117.19999694824</ele>
        <time>2012-06-17T11:05:30.000Z</time>
      </trkpt>
      <trkpt lat="43.9222" lon="5.11405">
        <ele>117.19999694824</ele>
        <time>2012-06-17T11:05:31.000Z</time>
      </trkpt>
      <trkpt lat="43.92226" lon="5.11407">
        <ele>117.59999847412</ele>
        <time>2012-06-17T11:05:35.000Z</time>
      </trkpt>
      <trkpt lat="43.92227" lon="5.11406">
        <ele>117.80000305176</ele>
        <time>2012-06-17T11:05:37.000Z</time>
      </trkpt>
      <trkpt lat="43.9223" lon="5.11405">
        <ele>118.19999694824</ele>
        <time>2012-06-17T11:05:40.000Z</time>
      </trkpt>
      <trkpt lat="43.92231" lon="5.11405">
        <ele>118.40000152588</ele>
        <time>2012-06-17T11:05:43.000Z</time>
      </trkpt>
      <trkpt lat="43.92233" lon="5.11404">
        <ele>118.80000305176</ele>
        <time>2012-06-17T11:05:46.000Z</time>
      </trkpt>
      <trkpt lat="43.92236" lon="5.11403">
        <ele>119.19999694824</ele>
        <time>2012-06-17T11:05:49.000Z</time>
      </trkpt>
      <trkpt lat="43.92241" lon="5.11403">
        <ele>119.80000305176</ele>
        <time>2012-06-17T11:05:57.000Z</time>
      </trkpt>
      <trkpt lat="43.92247" lon="5.11405">
        <ele>120</ele>
        <time>2012-06-17T11:06:13.000Z</time>
      </trkpt>
      <trkpt lat="43.92248" lon="5.11404">
        <ele>120.19999694824</ele>
        <time>2012-06-17T11:06:16.000Z</time>
      </trkpt>
      <trkpt lat="43.92249" lon="5.11406">
        <ele>120.19999694824</ele>
        <time>2012-06-17T11:06:17.000Z</time>
      </trkpt>
      <trkpt lat="43.92252" lon="5.11406">
        <ele>120.40000152588</ele>
        <time>2012-06-17T11:06:22.000Z</time>
      </trkpt>
      <trkpt lat="43.92255" lon="5.114">
        <ele>121.19999694824</ele>
        <time>2012-06-17T11:06:26.000Z</time>
      </trkpt>
      <trkpt lat="43.92256" lon="5.11398">
        <ele>121.40000152588</ele>
        <time>2012-06-17T11:06:27.000Z</time>
      </trkpt>
      <trkpt lat="43.92257" lon="5.11396">
        <ele>121.80000305176</ele>
        <time>2012-06-17T11:06:29.000Z</time>
      </trkpt>
      <trkpt lat="43.92261" lon="5.11397">
        <ele>121.80000305176</ele>
        <time>2012-06-17T11:06:32.000Z</time>
      </trkpt>
      <trkpt lat="43.9227" lon="5.11398">
        <ele>122</ele>
        <time>2012-06-17T11:06:37.000Z</time>
      </trkpt>
      <trkpt lat="43.9227" lon="5.11397">
        <ele>122.19999694824</ele>
        <time>2012-06-17T11:06:38.000Z</time>
      </trkpt>
      <trkpt lat="43.92271" lon="5.11393">
        <ele>122.80000305176</ele>
        <time>2012-06-17T11:06:41.000Z</time>
      </trkpt>
      <trkpt lat="43.9228" lon="5.11394">
        <ele>123</ele>
        <time>2012-06-17T11:06:47.000Z</time>
      </trkpt>
      <trkpt lat="43.92281" lon="5.11394">
        <ele>123.19999694824</ele>
        <time>2012-06-17T11:06:49.000Z</time>
      </trkpt>
      <trkpt lat="43.92287" lon="5.11397">
        <ele>123</ele>
        <time>2012-06-17T11:06:58.000Z</time>
      </trkpt>
      <trkpt lat="43.92288" lon="5.11393">
        <ele>123.59999847412</ele>
        <time>2012-06-17T11:07:17.000Z</time>
      </trkpt>
      <trkpt lat="43.92292" lon="5.11392">
        <ele>123.80000305176</ele>
        <time>2012-06-17T11:07:19.000Z</time>
      </trkpt>
      <trkpt lat="43.92303" lon="5.11394">
        <ele>124</ele>
        <time>2012-06-17T11:07:26.000Z</time>
      </trkpt>
      <trkpt lat="43.92305" lon="5.11395">
        <ele>124</ele>
        <time>2012-06-17T11:07:27.000Z</time>
      </trkpt>
      <trkpt lat="43.92309" lon="5.11396">
        <ele>124.19999694824</ele>
        <time>2012-06-17T11:07:31.000Z</time>
      </trkpt>
      <trkpt lat="43.92315" lon="5.11399">
        <ele>124.19999694824</ele>
        <time>2012-06-17T11:07:36.000Z</time>
      </trkpt>
      <trkpt lat="43.92318" lon="5.11401">
        <ele>124</ele>
        <time>2012-06-17T11:07:40.000Z</time>
      </trkpt>
      <trkpt lat="43.92318" lon="5.114">
        <ele>124.19999694824</ele>
        <time>2012-06-17T11:07:42.000Z</time>
      </trkpt>
      <trkpt lat="43.9232" lon="5.11399">
        <ele>124.19999694824</ele>
        <time>2012-06-17T11:07:43.000Z</time>
      </trkpt>
      <trkpt lat="43.9232" lon="5.114">
        <ele>124.19999694824</ele>
        <time>2012-06-17T11:07:48.000Z</time>
      </trkpt>
      <trkpt lat="43.92323" lon="5.11395">
        <ele>124.80000305176</ele>
        <time>2012-06-17T11:07:56.000Z</time>
      </trkpt>
      <trkpt lat="43.92326" lon="5.11395">
        <ele>125</ele>
        <time>2012-06-17T11:07:59.000Z</time>
      </trkpt>
      <trkpt lat="43.92331" lon="5.11393">
        <ele>125.40000152588</ele>
        <time>2012-06-17T11:08:07.000Z</time>
      </trkpt>
      <trkpt lat="43.92332" lon="5.11393">
        <ele>125.40000152588</ele>
        <time>2012-06-17T11:08:08.000Z</time>
      </trkpt>
      <trkpt lat="43.92335" lon="5.11397">
        <ele>125.40000152588</ele>
        <time>2012-06-17T11:08:12.000Z</time>
      </trkpt>
      <trkpt lat="43.92336" lon="5.11399">
        <ele>125.19999694824</ele>
        <time>2012-06-17T11:08:13.000Z</time>
      </trkpt>
      <trkpt lat="43.92336" lon="5.11405">
        <ele>124.59999847412</ele>
        <time>2012-06-17T11:08:16.000Z</time>
      </trkpt>
      <trkpt lat="43.92337" lon="5.11408">
        <ele>124.40000152588</ele>
        <time>2012-06-17T11:08:18.000Z</time>
      </trkpt>
      <trkpt lat="43.92338" lon="5.11413">
        <ele>124.19999694824</ele>
        <time>2012-06-17T11:08:20.000Z</time>
      </trkpt>
      <trkpt lat="43.92338" lon="5.11421">
        <ele>125</ele>
        <time>2012-06-17T11:08:25.000Z</time>
      </trkpt>
      <trkpt lat="43.92338" lon="5.11422">
        <ele>125</ele>
        <time>2012-06-17T11:08:26.000Z</time>
      </trkpt>
      <trkpt lat="43.92338" lon="5.11423">
        <ele>125.40000152588</ele>
        <time>2012-06-17T11:08:28.000Z</time>
      </trkpt>
      <trkpt lat="43.92336" lon="5.11421">
        <ele>124.40000152588</ele>
        <time>2012-06-17T11:08:30.000Z</time>
      </trkpt>
      <trkpt lat="43.92334" lon="5.11412">
        <ele>123.59999847412</ele>
        <time>2012-06-17T11:08:35.000Z</time>
      </trkpt>
      <trkpt lat="43.92334" lon="5.11406">
        <ele>124.19999694824</ele>
        <time>2012-06-17T11:08:40.000Z</time>
      </trkpt>
      <trkpt lat="43.92334" lon="5.11406">
        <ele>124.40000152588</ele>
        <time>2012-06-17T11:08:41.000Z</time>
      </trkpt>
      <trkpt lat="43.92334" lon="5.114">
        <ele>125</ele>
        <time>2012-06-17T11:08:45.000Z</time>
      </trkpt>
      <trkpt lat="43.92335" lon="5.11397">
        <ele>125.40000152588</ele>
        <time>2012-06-17T11:08:48.000Z</time>
      </trkpt>
      <trkpt lat="43.92334" lon="5.11393">
        <ele>125.59999847412</ele>
        <time>2012-06-17T11:08:50.000Z</time>
      </trkpt>
      <trkpt lat="43.92335" lon="5.11392">
        <ele>126</ele>
        <time>2012-06-17T11:08:51.000Z</time>
      </trkpt>
      <trkpt lat="43.92339" lon="5.11387">
        <ele>126.80000305176</ele>
        <time>2012-06-17T11:08:54.000Z</time>
      </trkpt>
      <trkpt lat="43.9234" lon="5.11387">
        <ele>127</ele>
        <time>2012-06-17T11:08:55.000Z</time>
      </trkpt>
      <trkpt lat="43.92344" lon="5.11386">
        <ele>127.59999847412</ele>
        <time>2012-06-17T11:08:58.000Z</time>
      </trkpt>
      <trkpt lat="43.92346" lon="5.11387">
        <ele>127.80000305176</ele>
        <time>2012-06-17T11:09:00.000Z</time>
      </trkpt>
      <trkpt lat="43.92351" lon="5.11394">
        <ele>127.80000305176</ele>
        <time>2012-06-17T11:09:06.000Z</time>
      </trkpt>
      <trkpt lat="43.92351" lon="5.11395">
        <ele>127.80000305176</ele>
        <time>2012-06-17T11:09:07.000Z</time>
      </trkpt>
      <trkpt lat="43.92353" lon="5.11395">
        <ele>128</ele>
        <time>2012-06-17T11:09:13.000Z</time>
      </trkpt>
      <trkpt lat="43.92354" lon="5.11397">
        <ele>128</ele>
        <time>2012-06-17T11:09:19.000Z</time>
      </trkpt>
      <trkpt lat="43.92353" lon="5.11401">
        <ele>127.80000305176</ele>
        <time>2012-06-17T11:09:22.000Z</time>
      </trkpt>
      <trkpt lat="43.92352" lon="5.11404">
        <ele>127.40000152588</ele>
        <time>2012-06-17T11:09:24.000Z</time>
      </trkpt>
      <trkpt lat="43.92352" lon="5.11409">
        <ele>126.80000305176</ele>
        <time>2012-06-17T11:09:28.000Z</time>
      </trkpt>
      <trkpt lat="43.92352" lon="5.11413">
        <ele>126.59999847412</ele>
        <time>2012-06-17T11:09:30.000Z</time>
      </trkpt>
      <trkpt lat="43.92352" lon="5.11416">
        <ele>126.40000152588</ele>
        <time>2012-06-17T11:09:33.000Z</time>
      </trkpt>
      <trkpt lat="43.92353" lon="5.11417">
        <ele>126.59999847412</ele>
        <time>2012-06-17T11:09:35.000Z</time>
      </trkpt>
      <trkpt lat="43.92354" lon="5.1142">
        <ele>127.40000152588</ele>
        <time>2012-06-17T11:09:40.000Z</time>
      </trkpt>
      <trkpt lat="43.92352" lon="5.11424">
        <ele>127.80000305176</ele>
        <time>2012-06-17T11:09:46.000Z</time>
      </trkpt>
      <trkpt lat="43.92351" lon="5.11428">
        <ele>128.80000305176</ele>
        <time>2012-06-17T11:09:50.000Z</time>
      </trkpt>
      <trkpt lat="43.92354" lon="5.1143">
        <ele>129.60000610352</ele>
        <time>2012-06-17T11:09:56.000Z</time>
      </trkpt>
      <trkpt lat="43.92358" lon="5.11434">
        <ele>131</ele>
        <time>2012-06-17T11:10:02.000Z</time>
      </trkpt>
      <trkpt lat="43.92356" lon="5.11429">
        <ele>129.80000305176</ele>
        <time>2012-06-17T11:10:12.000Z</time>
      </trkpt>
      <trkpt lat="43.92356" lon="5.11426">
        <ele>129.19999694824</ele>
        <time>2012-06-17T11:10:16.000Z</time>
      </trkpt>
      <trkpt lat="43.92356" lon="5.11425">
        <ele>129</ele>
        <time>2012-06-17T11:10:17.000Z</time>
      </trkpt>
      <trkpt lat="43.92357" lon="5.11424">
        <ele>128.80000305176</ele>
        <time>2012-06-17T11:10:18.000Z</time>
      </trkpt>
      <trkpt lat="43.92358" lon="5.11422">
        <ele>128.39999389648</ele>
        <time>2012-06-17T11:10:22.000Z</time>
      </trkpt>
      <trkpt lat="43.92356" lon="5.11421">
        <ele>128</ele>
        <time>2012-06-17T11:10:27.000Z</time>
      </trkpt>
      <trkpt lat="43.92354" lon="5.1142">
        <ele>127.59999847412</ele>
        <time>2012-06-17T11:10:29.000Z</time>
      </trkpt>
      <trkpt lat="43.92354" lon="5.11417">
        <ele>126.80000305176</ele>
        <time>2012-06-17T11:10:33.000Z</time>
      </trkpt>
      <trkpt lat="43.92356" lon="5.11414">
        <ele>127.19999694824</ele>
        <time>2012-06-17T11:10:35.000Z</time>
      </trkpt>
      <trkpt lat="43.92359" lon="5.11411">
        <ele>128</ele>
        <time>2012-06-17T11:10:38.000Z</time>
      </trkpt>
      <trkpt lat="43.92361" lon="5.11409">
        <ele>128.39999389648</ele>
        <time>2012-06-17T11:10:40.000Z</time>
      </trkpt>
      <trkpt lat="43.92363" lon="5.11407">
        <ele>128.80000305176</ele>
        <time>2012-06-17T11:10:43.000Z</time>
      </trkpt>
      <trkpt lat="43.92361" lon="5.11402">
        <ele>128.80000305176</ele>
        <time>2012-06-17T11:10:45.000Z</time>
      </trkpt>
      <trkpt lat="43.92356" lon="5.11389">
        <ele>128.80000305176</ele>
        <time>2012-06-17T11:10:49.000Z</time>
      </trkpt>
      <trkpt lat="43.92352" lon="5.11382">
        <ele>128.80000305176</ele>
        <time>2012-06-17T11:10:53.000Z</time>
      </trkpt>
      <trkpt lat="43.92355" lon="5.11377">
        <ele>129.60000610352</ele>
        <time>2012-06-17T11:10:57.000Z</time>
      </trkpt>
      <trkpt lat="43.92358" lon="5.11375">
        <ele>130</ele>
        <time>2012-06-17T11:10:59.000Z</time>
      </trkpt>
      <trkpt lat="43.92359" lon="5.11374">
        <ele>130.19999694824</ele>
        <time>2012-06-17T11:11:00.000Z</time>
      </trkpt>
      <trkpt lat="43.92361" lon="5.11372">
        <ele>130.39999389648</ele>
        <time>2012-06-17T11:11:05.000Z</time>
      </trkpt>
      <trkpt lat="43.92368" lon="5.11379">
        <ele>130.80000305176</ele>
        <time>2012-06-17T11:11:14.000Z</time>
      </trkpt>
      <trkpt lat="43.9237" lon="5.11386">
        <ele>130.80000305176</ele>
        <time>2012-06-17T11:11:18.000Z</time>
      </trkpt>
      <trkpt lat="43.92372" lon="5.11387">
        <ele>131</ele>
        <time>2012-06-17T11:11:28.000Z</time>
      </trkpt>
      <trkpt lat="43.92367" lon="5.11372">
        <ele>131.19999694824</ele>
        <time>2012-06-17T11:11:47.000Z</time>
      </trkpt>
      <trkpt lat="43.92372" lon="5.11365">
        <ele>131.80000305176</ele>
        <time>2012-06-17T11:11:53.000Z</time>
      </trkpt>
      <trkpt lat="43.92379" lon="5.11363">
        <ele>132.39999389648</ele>
        <time>2012-06-17T11:11:58.000Z</time>
      </trkpt>
      <trkpt lat="43.92383" lon="5.11364">
        <ele>132.80000305176</ele>
        <time>2012-06-17T11:12:00.000Z</time>
      </trkpt>
      <trkpt lat="43.92394" lon="5.11366">
        <ele>133.60000610352</ele>
        <time>2012-06-17T11:12:08.000Z</time>
      </trkpt>
      <trkpt lat="43.92393" lon="5.11371">
        <ele>133.60000610352</ele>
        <time>2012-06-17T11:12:12.000Z</time>
      </trkpt>
      <trkpt lat="43.92388" lon="5.11374">
        <ele>133</ele>
        <time>2012-06-17T11:12:17.000Z</time>
      </trkpt>
      <trkpt lat="43.92388" lon="5.11375">
        <ele>133</ele>
        <time>2012-06-17T11:12:18.000Z</time>
      </trkpt>
      <trkpt lat="43.92385" lon="5.11375">
        <ele>132.80000305176</ele>
        <time>2012-06-17T11:12:21.000Z</time>
      </trkpt>
      <trkpt lat="43.92383" lon="5.11376">
        <ele>132.60000610352</ele>
        <time>2012-06-17T11:12:23.000Z</time>
      </trkpt>
      <trkpt lat="43.92382" lon="5.11378">
        <ele>132.39999389648</ele>
        <time>2012-06-17T11:12:26.000Z</time>
      </trkpt>
      <trkpt lat="43.92378" lon="5.11377">
        <ele>132</ele>
        <time>2012-06-17T11:12:29.000Z</time>
      </trkpt>
      <trkpt lat="43.92376" lon="5.11373">
        <ele>132</ele>
        <time>2012-06-17T11:12:31.000Z</time>
      </trkpt>
      <trkpt lat="43.92377" lon="5.11371">
        <ele>132</ele>
        <time>2012-06-17T11:12:33.000Z</time>
      </trkpt>
      <trkpt lat="43.92376" lon="5.11369">
        <ele>132</ele>
        <time>2012-06-17T11:12:34.000Z</time>
      </trkpt>
      <trkpt lat="43.92378" lon="5.1137">
        <ele>132.19999694824</ele>
        <time>2012-06-17T11:12:40.000Z</time>
      </trkpt>
      <trkpt lat="43.92384" lon="5.11369">
        <ele>132.80000305176</ele>
        <time>2012-06-17T11:12:44.000Z</time>
      </trkpt>
      <trkpt lat="43.92384" lon="5.11376">
        <ele>132.60000610352</ele>
        <time>2012-06-17T11:12:57.000Z</time>
      </trkpt>
      <trkpt lat="43.92384" lon="5.11378">
        <ele>132.60000610352</ele>
        <time>2012-06-17T11:13:00.000Z</time>
      </trkpt>
      <trkpt lat="43.92385" lon="5.11374">
        <ele>132.80000305176</ele>
        <time>2012-06-17T11:13:04.000Z</time>
      </trkpt>
      <trkpt lat="43.92385" lon="5.11368">
        <ele>132.80000305176</ele>
        <time>2012-06-17T11:13:08.000Z</time>
      </trkpt>
      <trkpt lat="43.92382" lon="5.11362">
        <ele>132.80000305176</ele>
        <time>2012-06-17T11:13:15.000Z</time>
      </trkpt>
      <trkpt lat="43.92376" lon="5.11356">
        <ele>132.39999389648</ele>
        <time>2012-06-17T11:13:33.000Z</time>
      </trkpt>
      <trkpt lat="43.92377" lon="5.11356">
        <ele>132.39999389648</ele>
        <time>2012-06-17T11:13:37.000Z</time>
      </trkpt>
      <trkpt lat="43.92377" lon="5.11356">
        <ele>132.39999389648</ele>
        <time>2012-06-17T11:13:38.000Z</time>
      </trkpt>
      <trkpt lat="43.92374" lon="5.11355">
        <ele>132.19999694824</ele>
        <time>2012-06-17T11:13:43.000Z</time>
      </trkpt>
      <trkpt lat="43.92379" lon="5.11362">
        <ele>132.39999389648</ele>
        <time>2012-06-17T11:13:47.000Z</time>
      </trkpt>
      <trkpt lat="43.92382" lon="5.11365">
        <ele>132.60000610352</ele>
        <time>2012-06-17T11:13:51.000Z</time>
      </trkpt>
      <trkpt lat="43.92389" lon="5.1137">
        <ele>133.19999694824</ele>
        <time>2012-06-17T11:13:58.000Z</time>
      </trkpt>
      <trkpt lat="43.92389" lon="5.11369">
        <ele>133.19999694824</ele>
        <time>2012-06-17T11:14:02.000Z</time>
      </trkpt>
      <trkpt lat="43.92391" lon="5.11371">
        <ele>133.39999389648</ele>
        <time>2012-06-17T11:14:04.000Z</time>
      </trkpt>
      <trkpt lat="43.92391" lon="5.11371">
        <ele>133.39999389648</ele>
        <time>2012-06-17T11:14:07.000Z</time>
      </trkpt>
      <trkpt lat="43.92396" lon="5.11369">
        <ele>133.80000305176</ele>
        <time>2012-06-17T11:14:27.000Z</time>
      </trkpt>
      <trkpt lat="43.92398" lon="5.1137">
        <ele>134</ele>
        <time>2012-06-17T11:14:31.000Z</time>
      </trkpt>
      <trkpt lat="43.92386" lon="5.11362">
        <ele>133</ele>
        <time>2012-06-17T11:14:41.000Z</time>
      </trkpt>
      <trkpt lat="43.92381" lon="5.11357">
        <ele>132.80000305176</ele>
        <time>2012-06-17T11:14:45.000Z</time>
      </trkpt>
      <trkpt lat="43.92378" lon="5.11354">
        <ele>132.60000610352</ele>
        <time>2012-06-17T11:14:50.000Z</time>
      </trkpt>
      <trkpt lat="43.92381" lon="5.11352">
        <ele>132.80000305176</ele>
        <time>2012-06-17T11:14:54.000Z</time>
      </trkpt>
      <trkpt lat="43.92382" lon="5.11351">
        <ele>132.80000305176</ele>
        <time>2012-06-17T11:14:56.000Z</time>
      </trkpt>
      <trkpt lat="43.92386" lon="5.1136">
        <ele>133</ele>
        <time>2012-06-17T11:15:07.000Z</time>
      </trkpt>
      <trkpt lat="43.92395" lon="5.11362">
        <ele>133.60000610352</ele>
        <time>2012-06-17T11:15:10.000Z</time>
      </trkpt>
      <trkpt lat="43.92404" lon="5.1136">
        <ele>134.39999389648</ele>
        <time>2012-06-17T11:15:16.000Z</time>
      </trkpt>
      <trkpt lat="43.92405" lon="5.11351">
        <ele>134.19999694824</ele>
        <time>2012-06-17T11:15:28.000Z</time>
      </trkpt>
      <trkpt lat="43.92406" lon="5.11355">
        <ele>134.39999389648</ele>
        <time>2012-06-17T11:15:33.000Z</time>
      </trkpt>
      <trkpt lat="43.92405" lon="5.11355">
        <ele>134.19999694824</ele>
        <time>2012-06-17T11:15:51.000Z</time>
      </trkpt>
      <trkpt lat="43.92406" lon="5.11354">
        <ele>134.39999389648</ele>
        <time>2012-06-17T11:15:52.000Z</time>
      </trkpt>
      <trkpt lat="43.92412" lon="5.11353">
        <ele>134.60000610352</ele>
        <time>2012-06-17T11:15:57.000Z</time>
      </trkpt>
      <trkpt lat="43.92415" lon="5.11353">
        <ele>134.80000305176</ele>
        <time>2012-06-17T11:16:07.000Z</time>
      </trkpt>
      <trkpt lat="43.92422" lon="5.11357">
        <ele>135.60000610352</ele>
        <time>2012-06-17T11:16:11.000Z</time>
      </trkpt>
      <trkpt lat="43.92421" lon="5.11366">
        <ele>136</ele>
        <time>2012-06-17T11:16:17.000Z</time>
      </trkpt>
      <trkpt lat="43.92424" lon="5.1137">
        <ele>136.39999389648</ele>
        <time>2012-06-17T11:16:20.000Z</time>
      </trkpt>
      <trkpt lat="43.92425" lon="5.11376">
        <ele>137</ele>
        <time>2012-06-17T11:16:23.000Z</time>
      </trkpt>
      <trkpt lat="43.92439" lon="5.1139">
        <ele>139.39999389648</ele>
        <time>2012-06-17T11:16:29.000Z</time>
      </trkpt>
      <trkpt lat="43.92443" lon="5.11395">
        <ele>140.19999694824</ele>
        <time>2012-06-17T11:16:35.000Z</time>
      </trkpt>
      <trkpt lat="43.92441" lon="5.11391">
        <ele>139.60000610352</ele>
        <time>2012-06-17T11:16:41.000Z</time>
      </trkpt>
      <trkpt lat="43.92442" lon="5.11387">
        <ele>139.39999389648</ele>
        <time>2012-06-17T11:17:08.000Z</time>
      </trkpt>
      <trkpt lat="43.92436" lon="5.11391">
        <ele>139</ele>
        <time>2012-06-17T11:17:14.000Z</time>
      </trkpt>
      <trkpt lat="43.92432" lon="5.11393">
        <ele>138.60000610352</ele>
        <time>2012-06-17T11:17:19.000Z</time>
      </trkpt>
      <trkpt lat="43.92427" lon="5.11393">
        <ele>138.19999694824</ele>
        <time>2012-06-17T11:17:25.000Z</time>
      </trkpt>
      <trkpt lat="43.92423" lon="5.11397">
        <ele>137.80000305176</ele>
        <time>2012-06-17T11:17:30.000Z</time>
      </trkpt>
      <trkpt lat="43.92423" lon="5.11399">
        <ele>138</ele>
        <time>2012-06-17T11:17:31.000Z</time>
      </trkpt>
      <trkpt lat="43.92418" lon="5.11401">
        <ele>137.39999389648</ele>
        <time>2012-06-17T11:17:36.000Z</time>
      </trkpt>
      <trkpt lat="43.92414" lon="5.11403">
        <ele>137</ele>
        <time>2012-06-17T11:17:42.000Z</time>
      </trkpt>
      <trkpt lat="43.92406" lon="5.11408">
        <ele>135.80000305176</ele>
        <time>2012-06-17T11:17:49.000Z</time>
      </trkpt>
      <trkpt lat="43.924" lon="5.11414">
        <ele>135</ele>
        <time>2012-06-17T11:17:56.000Z</time>
      </trkpt>
      <trkpt lat="43.92398" lon="5.11419">
        <ele>135</ele>
        <time>2012-06-17T11:18:00.000Z</time>
      </trkpt>
      <trkpt lat="43.92392" lon="5.11423">
        <ele>134.39999389648</ele>
        <time>2012-06-17T11:18:04.000Z</time>
      </trkpt>
      <trkpt lat="43.9239" lon="5.11424">
        <ele>134.19999694824</ele>
        <time>2012-06-17T11:18:06.000Z</time>
      </trkpt>
      <trkpt lat="43.92385" lon="5.11426">
        <ele>133.80000305176</ele>
        <time>2012-06-17T11:18:10.000Z</time>
      </trkpt>
      <trkpt lat="43.92384" lon="5.11426">
        <ele>133.80000305176</ele>
        <time>2012-06-17T11:18:11.000Z</time>
      </trkpt>
      <trkpt lat="43.92383" lon="5.11426">
        <ele>133.60000610352</ele>
        <time>2012-06-17T11:18:13.000Z</time>
      </trkpt>
      <trkpt lat="43.92385" lon="5.11426">
        <ele>133.80000305176</ele>
        <time>2012-06-17T11:18:18.000Z</time>
      </trkpt>
      <trkpt lat="43.92388" lon="5.11424">
        <ele>134</ele>
        <time>2012-06-17T11:18:22.000Z</time>
      </trkpt>
      <trkpt lat="43.92388" lon="5.11422">
        <ele>133.80000305176</ele>
        <time>2012-06-17T11:18:25.000Z</time>
      </trkpt>
      <trkpt lat="43.92389" lon="5.11421">
        <ele>133.80000305176</ele>
        <time>2012-06-17T11:18:26.000Z</time>
      </trkpt>
      <trkpt lat="43.92391" lon="5.11421">
        <ele>134.19999694824</ele>
        <time>2012-06-17T11:18:30.000Z</time>
      </trkpt>
      <trkpt lat="43.92392" lon="5.11421">
        <ele>134.39999389648</ele>
        <time>2012-06-17T11:18:35.000Z</time>
      </trkpt>
      <trkpt lat="43.92394" lon="5.11424">
        <ele>135</ele>
        <time>2012-06-17T11:18:50.000Z</time>
      </trkpt>
      <trkpt lat="43.92393" lon="5.11425">
        <ele>135</ele>
        <time>2012-06-17T11:18:52.000Z</time>
      </trkpt>
      <trkpt lat="43.92391" lon="5.11432">
        <ele>135.80000305176</ele>
        <time>2012-06-17T11:18:57.000Z</time>
      </trkpt>
      <trkpt lat="43.92387" lon="5.11442">
        <ele>137</ele>
        <time>2012-06-17T11:19:03.000Z</time>
      </trkpt>
      <trkpt lat="43.92386" lon="5.11451">
        <ele>138.19999694824</ele>
        <time>2012-06-17T11:19:09.000Z</time>
      </trkpt>
      <trkpt lat="43.92387" lon="5.11453">
        <ele>138.60000610352</ele>
        <time>2012-06-17T11:19:10.000Z</time>
      </trkpt>
      <trkpt lat="43.92392" lon="5.11461">
        <ele>140.60000610352</ele>
        <time>2012-06-17T11:19:17.000Z</time>
      </trkpt>
      <trkpt lat="43.92392" lon="5.11463">
        <ele>141</ele>
        <time>2012-06-17T11:19:19.000Z</time>
      </trkpt>
      <trkpt lat="43.92394" lon="5.11467">
        <ele>141.80000305176</ele>
        <time>2012-06-17T11:19:22.000Z</time>
      </trkpt>
      <trkpt lat="43.92394" lon="5.11469">
        <ele>142.19999694824</ele>
        <time>2012-06-17T11:19:24.000Z</time>
      </trkpt>
      <trkpt lat="43.92398" lon="5.11476">
        <ele>143.39999389648</ele>
        <time>2012-06-17T11:19:31.000Z</time>
      </trkpt>
      <trkpt lat="43.92399" lon="5.11478">
        <ele>143.80000305176</ele>
        <time>2012-06-17T11:19:33.000Z</time>
      </trkpt>
      <trkpt lat="43.92401" lon="5.11483">
        <ele>144.80000305176</ele>
        <time>2012-06-17T11:19:37.000Z</time>
      </trkpt>
      <trkpt lat="43.92405" lon="5.11489">
        <ele>146</ele>
        <time>2012-06-17T11:19:41.000Z</time>
      </trkpt>
      <trkpt lat="43.92409" lon="5.11496">
        <ele>147</ele>
        <time>2012-06-17T11:19:45.000Z</time>
      </trkpt>
      <trkpt lat="43.92411" lon="5.11499">
        <ele>147.60000610352</ele>
        <time>2012-06-17T11:19:47.000Z</time>
      </trkpt>
      <trkpt lat="43.92414" lon="5.11502">
        <ele>148</ele>
        <time>2012-06-17T11:19:50.000Z</time>
      </trkpt>
      <trkpt lat="43.92419" lon="5.11511">
        <ele>149.39999389648</ele>
        <time>2012-06-17T11:19:57.000Z</time>
      </trkpt>
      <trkpt lat="43.92419" lon="5.11512">
        <ele>149.60000610352</ele>
        <time>2012-06-17T11:19:58.000Z</time>
      </trkpt>
      <trkpt lat="43.92422" lon="5.11514">
        <ele>150.39999389648</ele>
        <time>2012-06-17T11:20:03.000Z</time>
      </trkpt>
      <trkpt lat="43.92423" lon="5.11515">
        <ele>150.80000305176</ele>
        <time>2012-06-17T11:20:04.000Z</time>
      </trkpt>
      <trkpt lat="43.92427" lon="5.11519">
        <ele>152.39999389648</ele>
        <time>2012-06-17T11:20:09.000Z</time>
      </trkpt>
      <trkpt lat="43.92429" lon="5.11522">
        <ele>153.19999694824</ele>
        <time>2012-06-17T11:20:11.000Z</time>
      </trkpt>
      <trkpt lat="43.92434" lon="5.11531">
        <ele>155.19999694824</ele>
        <time>2012-06-17T11:20:18.000Z</time>
      </trkpt>
      <trkpt lat="43.92434" lon="5.11532">
        <ele>155.60000610352</ele>
        <time>2012-06-17T11:20:19.000Z</time>
      </trkpt>
      <trkpt lat="43.92436" lon="5.11535">
        <ele>156.39999389648</ele>
        <time>2012-06-17T11:20:23.000Z</time>
      </trkpt>
      <trkpt lat="43.92437" lon="5.11536">
        <ele>156.80000305176</ele>
        <time>2012-06-17T11:20:24.000Z</time>
      </trkpt>
      <trkpt lat="43.92439" lon="5.11538">
        <ele>157.39999389648</ele>
        <time>2012-06-17T11:20:26.000Z</time>
      </trkpt>
      <trkpt lat="43.9244" lon="5.1154">
        <ele>158</ele>
        <time>2012-06-17T11:20:28.000Z</time>
      </trkpt>
      <trkpt lat="43.92442" lon="5.11548">
        <ele>159.19999694824</ele>
        <time>2012-06-17T11:20:33.000Z</time>
      </trkpt>
      <trkpt lat="43.92443" lon="5.11549">
        <ele>159.80000305176</ele>
        <time>2012-06-17T11:20:34.000Z</time>
      </trkpt>
      <trkpt lat="43.92444" lon="5.11552">
        <ele>160</ele>
        <time>2012-06-17T11:20:38.000Z</time>
      </trkpt>
      <trkpt lat="43.92442" lon="5.11556">
        <ele>159.60000610352</ele>
        <time>2012-06-17T11:20:43.000Z</time>
      </trkpt>
      <trkpt lat="43.92442" lon="5.11565">
        <ele>160.39999389648</ele>
        <time>2012-06-17T11:20:50.000Z</time>
      </trkpt>
      <trkpt lat="43.9244" lon="5.11575">
        <ele>160.60000610352</ele>
        <time>2012-06-17T11:20:57.000Z</time>
      </trkpt>
      <trkpt lat="43.92435" lon="5.11586">
        <ele>159.60000610352</ele>
        <time>2012-06-17T11:21:04.000Z</time>
      </trkpt>
      <trkpt lat="43.92434" lon="5.11598">
        <ele>160.19999694824</ele>
        <time>2012-06-17T11:21:09.000Z</time>
      </trkpt>
      <trkpt lat="43.92433" lon="5.11614">
        <ele>161</ele>
        <time>2012-06-17T11:21:16.000Z</time>
      </trkpt>
      <trkpt lat="43.92432" lon="5.11624">
        <ele>161.39999389648</ele>
        <time>2012-06-17T11:21:21.000Z</time>
      </trkpt>
      <trkpt lat="43.92432" lon="5.11626">
        <ele>161.39999389648</ele>
        <time>2012-06-17T11:21:22.000Z</time>
      </trkpt>
      <trkpt lat="43.92433" lon="5.11636">
        <ele>162.39999389648</ele>
        <time>2012-06-17T11:21:28.000Z</time>
      </trkpt>
      <trkpt lat="43.92433" lon="5.11638">
        <ele>162.60000610352</ele>
        <time>2012-06-17T11:21:29.000Z</time>
      </trkpt>
      <trkpt lat="43.92436" lon="5.11647">
        <ele>164.19999694824</ele>
        <time>2012-06-17T11:21:36.000Z</time>
      </trkpt>
      <trkpt lat="43.92439" lon="5.11649">
        <ele>165.19999694824</ele>
        <time>2012-06-17T11:21:40.000Z</time>
      </trkpt>
      <trkpt lat="43.9244" lon="5.11649">
        <ele>165.60000610352</ele>
        <time>2012-06-17T11:21:41.000Z</time>
      </trkpt>
      <trkpt lat="43.92444" lon="5.11653">
        <ele>167</ele>
        <time>2012-06-17T11:21:46.000Z</time>
      </trkpt>
      <trkpt lat="43.92445" lon="5.11654">
        <ele>167.39999389648</ele>
        <time>2012-06-17T11:21:47.000Z</time>
      </trkpt>
      <trkpt lat="43.92453" lon="5.11663">
        <ele>170.19999694824</ele>
        <time>2012-06-17T11:21:54.000Z</time>
      </trkpt>
      <trkpt lat="43.92459" lon="5.11674">
        <ele>172.80000305176</ele>
        <time>2012-06-17T11:22:01.000Z</time>
      </trkpt>
      <trkpt lat="43.92462" lon="5.11677">
        <ele>173.60000610352</ele>
        <time>2012-06-17T11:22:04.000Z</time>
      </trkpt>
      <trkpt lat="43.92464" lon="5.11678">
        <ele>174.39999389648</ele>
        <time>2012-06-17T11:22:07.000Z</time>
      </trkpt>
      <trkpt lat="43.92468" lon="5.11682">
        <ele>175.60000610352</ele>
        <time>2012-06-17T11:22:12.000Z</time>
      </trkpt>
      <trkpt lat="43.92469" lon="5.11685">
        <ele>175.80000305176</ele>
        <time>2012-06-17T11:22:14.000Z</time>
      </trkpt>
      <trkpt lat="43.92469" lon="5.11691">
        <ele>176.19999694824</ele>
        <time>2012-06-17T11:22:17.000Z</time>
      </trkpt>
      <trkpt lat="43.92471" lon="5.11696">
        <ele>176.80000305176</ele>
        <time>2012-06-17T11:22:20.000Z</time>
      </trkpt>
      <trkpt lat="43.92471" lon="5.11698">
        <ele>176.80000305176</ele>
        <time>2012-06-17T11:22:21.000Z</time>
      </trkpt>
      <trkpt lat="43.92475" lon="5.11707">
        <ele>178</ele>
        <time>2012-06-17T11:22:28.000Z</time>
      </trkpt>
      <trkpt lat="43.9248" lon="5.11711">
        <ele>179</ele>
        <time>2012-06-17T11:22:33.000Z</time>
      </trkpt>
      <trkpt lat="43.92481" lon="5.11712">
        <ele>179</ele>
        <time>2012-06-17T11:22:34.000Z</time>
      </trkpt>
      <trkpt lat="43.92489" lon="5.11716">
        <ele>180.39999389648</ele>
        <time>2012-06-17T11:22:41.000Z</time>
      </trkpt>
      <trkpt lat="43.92492" lon="5.11718">
        <ele>181</ele>
        <time>2012-06-17T11:22:45.000Z</time>
      </trkpt>
      <trkpt lat="43.92493" lon="5.11723">
        <ele>181</ele>
        <time>2012-06-17T11:22:48.000Z</time>
      </trkpt>
      <trkpt lat="43.92494" lon="5.11733">
        <ele>181</ele>
        <time>2012-06-17T11:22:52.000Z</time>
      </trkpt>
      <trkpt lat="43.92498" lon="5.11743">
        <ele>181</ele>
        <time>2012-06-17T11:22:57.000Z</time>
      </trkpt>
      <trkpt lat="43.92503" lon="5.11746">
        <ele>181.80000305176</ele>
        <time>2012-06-17T11:23:01.000Z</time>
      </trkpt>
      <trkpt lat="43.92507" lon="5.11752">
        <ele>182.80000305176</ele>
        <time>2012-06-17T11:23:07.000Z</time>
      </trkpt>
      <trkpt lat="43.92508" lon="5.11753">
        <ele>183.19999694824</ele>
        <time>2012-06-17T11:23:08.000Z</time>
      </trkpt>
      <trkpt lat="43.92509" lon="5.11756">
        <ele>184</ele>
        <time>2012-06-17T11:23:10.000Z</time>
      </trkpt>
      <trkpt lat="43.92512" lon="5.11762">
        <ele>185.60000610352</ele>
        <time>2012-06-17T11:23:14.000Z</time>
      </trkpt>
      <trkpt lat="43.92517" lon="5.11764">
        <ele>186.80000305176</ele>
        <time>2012-06-17T11:23:20.000Z</time>
      </trkpt>
      <trkpt lat="43.92518" lon="5.11765">
        <ele>187</ele>
        <time>2012-06-17T11:23:22.000Z</time>
      </trkpt>
      <trkpt lat="43.92523" lon="5.1177">
        <ele>188.60000610352</ele>
        <time>2012-06-17T11:23:26.000Z</time>
      </trkpt>
      <trkpt lat="43.92528" lon="5.11777">
        <ele>190.19999694824</ele>
        <time>2012-06-17T11:23:33.000Z</time>
      </trkpt>
      <trkpt lat="43.92531" lon="5.1178">
        <ele>191</ele>
        <time>2012-06-17T11:23:37.000Z</time>
      </trkpt>
      <trkpt lat="43.92533" lon="5.1178">
        <ele>191.39999389648</ele>
        <time>2012-06-17T11:23:40.000Z</time>
      </trkpt>
      <trkpt lat="43.92535" lon="5.1178">
        <ele>191.60000610352</ele>
        <time>2012-06-17T11:23:43.000Z</time>
      </trkpt>
      <trkpt lat="43.92536" lon="5.11781">
        <ele>191.80000305176</ele>
        <time>2012-06-17T11:23:44.000Z</time>
      </trkpt>
      <trkpt lat="43.9254" lon="5.11785">
        <ele>192.60000610352</ele>
        <time>2012-06-17T11:23:48.000Z</time>
      </trkpt>
      <trkpt lat="43.92541" lon="5.11785">
        <ele>193</ele>
        <time>2012-06-17T11:23:49.000Z</time>
      </trkpt>
      <trkpt lat="43.92544" lon="5.11786">
        <ele>193.39999389648</ele>
        <time>2012-06-17T11:23:52.000Z</time>
      </trkpt>
      <trkpt lat="43.92546" lon="5.11789">
        <ele>193.80000305176</ele>
        <time>2012-06-17T11:23:55.000Z</time>
      </trkpt>
      <trkpt lat="43.92553" lon="5.11794">
        <ele>194.80000305176</ele>
        <time>2012-06-17T11:24:03.000Z</time>
      </trkpt>
      <trkpt lat="43.92557" lon="5.11796">
        <ele>195.39999389648</ele>
        <time>2012-06-17T11:24:08.000Z</time>
      </trkpt>
      <trkpt lat="43.92559" lon="5.11796">
        <ele>195.60000610352</ele>
        <time>2012-06-17T11:24:09.000Z</time>
      </trkpt>
      <trkpt lat="43.92561" lon="5.11798">
        <ele>195.80000305176</ele>
        <time>2012-06-17T11:24:13.000Z</time>
      </trkpt>
      <trkpt lat="43.92562" lon="5.11798">
        <ele>195.80000305176</ele>
        <time>2012-06-17T11:24:14.000Z</time>
      </trkpt>
      <trkpt lat="43.92563" lon="5.11799">
        <ele>196</ele>
        <time>2012-06-17T11:24:17.000Z</time>
      </trkpt>
      <trkpt lat="43.92565" lon="5.11802">
        <ele>196.19999694824</ele>
        <time>2012-06-17T11:24:19.000Z</time>
      </trkpt>
      <trkpt lat="43.9257" lon="5.11806">
        <ele>196.60000610352</ele>
        <time>2012-06-17T11:24:23.000Z</time>
      </trkpt>
      <trkpt lat="43.92571" lon="5.11808">
        <ele>196.80000305176</ele>
        <time>2012-06-17T11:24:25.000Z</time>
      </trkpt>
      <trkpt lat="43.92572" lon="5.11809">
        <ele>196.80000305176</ele>
        <time>2012-06-17T11:24:26.000Z</time>
      </trkpt>
      <trkpt lat="43.92576" lon="5.11813">
        <ele>197</ele>
        <time>2012-06-17T11:24:30.000Z</time>
      </trkpt>
      <trkpt lat="43.92577" lon="5.11814">
        <ele>197.19999694824</ele>
        <time>2012-06-17T11:24:31.000Z</time>
      </trkpt>
      <trkpt lat="43.92579" lon="5.11815">
        <ele>197.19999694824</ele>
        <time>2012-06-17T11:24:33.000Z</time>
      </trkpt>
      <trkpt lat="43.92583" lon="5.1182">
        <ele>197.19999694824</ele>
        <time>2012-06-17T11:24:37.000Z</time>
      </trkpt>
      <trkpt lat="43.92589" lon="5.11828">
        <ele>198</ele>
        <time>2012-06-17T11:24:43.000Z</time>
      </trkpt>
      <trkpt lat="43.92595" lon="5.11832">
        <ele>198.80000305176</ele>
        <time>2012-06-17T11:24:49.000Z</time>
      </trkpt>
      <trkpt lat="43.92599" lon="5.11834">
        <ele>199.39999389648</ele>
        <time>2012-06-17T11:24:52.000Z</time>
      </trkpt>
      <trkpt lat="43.92601" lon="5.11836">
        <ele>200</ele>
        <time>2012-06-17T11:24:54.000Z</time>
      </trkpt>
      <trkpt lat="43.92605" lon="5.1184">
        <ele>201.19999694824</ele>
        <time>2012-06-17T11:24:59.000Z</time>
      </trkpt>
      <trkpt lat="43.92605" lon="5.11839">
        <ele>201</ele>
        <time>2012-06-17T11:25:01.000Z</time>
      </trkpt>
      <trkpt lat="43.92609" lon="5.1184">
        <ele>201.80000305176</ele>
        <time>2012-06-17T11:25:06.000Z</time>
      </trkpt>
      <trkpt lat="43.92609" lon="5.11841">
        <ele>202</ele>
        <time>2012-06-17T11:25:07.000Z</time>
      </trkpt>
      <trkpt lat="43.92616" lon="5.11849">
        <ele>203.60000610352</ele>
        <time>2012-06-17T11:25:14.000Z</time>
      </trkpt>
      <trkpt lat="43.92623" lon="5.11854">
        <ele>204.80000305176</ele>
        <time>2012-06-17T11:25:19.000Z</time>
      </trkpt>
      <trkpt lat="43.92625" lon="5.11855">
        <ele>205.19999694824</ele>
        <time>2012-06-17T11:25:21.000Z</time>
      </trkpt>
      <trkpt lat="43.92628" lon="5.11855">
        <ele>205.60000610352</ele>
        <time>2012-06-17T11:25:24.000Z</time>
      </trkpt>
      <trkpt lat="43.92631" lon="5.11855">
        <ele>205.80000305176</ele>
        <time>2012-06-17T11:25:26.000Z</time>
      </trkpt>
      <trkpt lat="43.92633" lon="5.11856">
        <ele>206</ele>
        <time>2012-06-17T11:25:29.000Z</time>
      </trkpt>
      <trkpt lat="43.92633" lon="5.11857">
        <ele>206.19999694824</ele>
        <time>2012-06-17T11:25:30.000Z</time>
      </trkpt>
      <trkpt lat="43.92632" lon="5.11861">
        <ele>206.39999389648</ele>
        <time>2012-06-17T11:25:35.000Z</time>
      </trkpt>
      <trkpt lat="43.92635" lon="5.11866">
        <ele>207</ele>
        <time>2012-06-17T11:25:49.000Z</time>
      </trkpt>
      <trkpt lat="43.92636" lon="5.11865">
        <ele>207</ele>
        <time>2012-06-17T11:25:51.000Z</time>
      </trkpt>
      <trkpt lat="43.92641" lon="5.11872">
        <ele>207.60000610352</ele>
        <time>2012-06-17T11:25:57.000Z</time>
      </trkpt>
      <trkpt lat="43.92648" lon="5.11876">
        <ele>208.19999694824</ele>
        <time>2012-06-17T11:26:02.000Z</time>
      </trkpt>
      <trkpt lat="43.92649" lon="5.11877">
        <ele>208.39999389648</ele>
        <time>2012-06-17T11:26:03.000Z</time>
      </trkpt>
      <trkpt lat="43.9265" lon="5.11879">
        <ele>208.60000610352</ele>
        <time>2012-06-17T11:26:05.000Z</time>
      </trkpt>
      <trkpt lat="43.92654" lon="5.11884">
        <ele>208.80000305176</ele>
        <time>2012-06-17T11:26:08.000Z</time>
      </trkpt>
      <trkpt lat="43.92656" lon="5.11887">
        <ele>209</ele>
        <time>2012-06-17T11:26:10.000Z</time>
      </trkpt>
      <trkpt lat="43.92659" lon="5.11891">
        <ele>209</ele>
        <time>2012-06-17T11:26:13.000Z</time>
      </trkpt>
      <trkpt lat="43.9266" lon="5.11892">
        <ele>209</ele>
        <time>2012-06-17T11:26:14.000Z</time>
      </trkpt>
      <trkpt lat="43.92661" lon="5.11898">
        <ele>209.19999694824</ele>
        <time>2012-06-17T11:26:17.000Z</time>
      </trkpt>
      <trkpt lat="43.92661" lon="5.11899">
        <ele>209.19999694824</ele>
        <time>2012-06-17T11:26:18.000Z</time>
      </trkpt>
      <trkpt lat="43.92654" lon="5.11902">
        <ele>209</ele>
        <time>2012-06-17T11:26:24.000Z</time>
      </trkpt>
      <trkpt lat="43.92648" lon="5.11904">
        <ele>209</ele>
        <time>2012-06-17T11:26:29.000Z</time>
      </trkpt>
      <trkpt lat="43.92646" lon="5.11903">
        <ele>209</ele>
        <time>2012-06-17T11:26:30.000Z</time>
      </trkpt>
      <trkpt lat="43.92639" lon="5.11903">
        <ele>209</ele>
        <time>2012-06-17T11:26:34.000Z</time>
      </trkpt>
      <trkpt lat="43.92637" lon="5.11904">
        <ele>209</ele>
        <time>2012-06-17T11:26:36.000Z</time>
      </trkpt>
      <trkpt lat="43.92633" lon="5.11901">
        <ele>208.80000305176</ele>
        <time>2012-06-17T11:26:40.000Z</time>
      </trkpt>
      <trkpt lat="43.92627" lon="5.11902">
        <ele>208.80000305176</ele>
        <time>2012-06-17T11:26:46.000Z</time>
      </trkpt>
      <trkpt lat="43.92626" lon="5.11902">
        <ele>208.80000305176</ele>
        <time>2012-06-17T11:26:47.000Z</time>
      </trkpt>
      <trkpt lat="43.92621" lon="5.11899">
        <ele>208.60000610352</ele>
        <time>2012-06-17T11:26:54.000Z</time>
      </trkpt>
      <trkpt lat="43.92614" lon="5.11896">
        <ele>208.19999694824</ele>
        <time>2012-06-17T11:27:02.000Z</time>
      </trkpt>
      <trkpt lat="43.92609" lon="5.11897">
        <ele>208.19999694824</ele>
        <time>2012-06-17T11:27:06.000Z</time>
      </trkpt>
      <trkpt lat="43.92606" lon="5.11896">
        <ele>208</ele>
        <time>2012-06-17T11:27:09.000Z</time>
      </trkpt>
      <trkpt lat="43.92597" lon="5.11895">
        <ele>207.60000610352</ele>
        <time>2012-06-17T11:27:18.000Z</time>
      </trkpt>
      <trkpt lat="43.9259" lon="5.11895">
        <ele>207.60000610352</ele>
        <time>2012-06-17T11:27:26.000Z</time>
      </trkpt>
      <trkpt lat="43.92584" lon="5.11893">
        <ele>207</ele>
        <time>2012-06-17T11:27:34.000Z</time>
      </trkpt>
      <trkpt lat="43.92583" lon="5.11892">
        <ele>206.80000305176</ele>
        <time>2012-06-17T11:27:35.000Z</time>
      </trkpt>
      <trkpt lat="43.92579" lon="5.11888">
        <ele>206.19999694824</ele>
        <time>2012-06-17T11:27:40.000Z</time>
      </trkpt>
      <trkpt lat="43.92578" lon="5.11887">
        <ele>206</ele>
        <time>2012-06-17T11:27:42.000Z</time>
      </trkpt>
      <trkpt lat="43.92575" lon="5.11885">
        <ele>205.80000305176</ele>
        <time>2012-06-17T11:27:45.000Z</time>
      </trkpt>
      <trkpt lat="43.92569" lon="5.11878">
        <ele>204.60000610352</ele>
        <time>2012-06-17T11:27:53.000Z</time>
      </trkpt>
      <trkpt lat="43.92568" lon="5.11877">
        <ele>204.39999389648</ele>
        <time>2012-06-17T11:27:55.000Z</time>
      </trkpt>
      <trkpt lat="43.92567" lon="5.11874">
        <ele>203.80000305176</ele>
        <time>2012-06-17T11:27:57.000Z</time>
      </trkpt>
      <trkpt lat="43.92562" lon="5.11869">
        <ele>203</ele>
        <time>2012-06-17T11:28:02.000Z</time>
      </trkpt>
      <trkpt lat="43.9256" lon="5.11867">
        <ele>202.80000305176</ele>
        <time>2012-06-17T11:28:04.000Z</time>
      </trkpt>
      <trkpt lat="43.92553" lon="5.11861">
        <ele>201.80000305176</ele>
        <time>2012-06-17T11:28:11.000Z</time>
      </trkpt>
      <trkpt lat="43.92545" lon="5.11855">
        <ele>200.60000610352</ele>
        <time>2012-06-17T11:28:18.000Z</time>
      </trkpt>
      <trkpt lat="43.92538" lon="5.11853">
        <ele>200.39999389648</ele>
        <time>2012-06-17T11:28:25.000Z</time>
      </trkpt>
      <trkpt lat="43.92536" lon="5.11858">
        <ele>201.19999694824</ele>
        <time>2012-06-17T11:28:32.000Z</time>
      </trkpt>
      <trkpt lat="43.92536" lon="5.11867">
        <ele>202.60000610352</ele>
        <time>2012-06-17T11:28:39.000Z</time>
      </trkpt>
      <trkpt lat="43.9254" lon="5.11876">
        <ele>204</ele>
        <time>2012-06-17T11:28:44.000Z</time>
      </trkpt>
      <trkpt lat="43.92545" lon="5.11882">
        <ele>205.19999694824</ele>
        <time>2012-06-17T11:28:49.000Z</time>
      </trkpt>
      <trkpt lat="43.9255" lon="5.11893">
        <ele>207</ele>
        <time>2012-06-17T11:28:55.000Z</time>
      </trkpt>
      <trkpt lat="43.92555" lon="5.11901">
        <ele>208.39999389648</ele>
        <time>2012-06-17T11:29:01.000Z</time>
      </trkpt>
      <trkpt lat="43.92558" lon="5.11907">
        <ele>209.39999389648</ele>
        <time>2012-06-17T11:29:06.000Z</time>
      </trkpt>
      <trkpt lat="43.92559" lon="5.11908">
        <ele>209.60000610352</ele>
        <time>2012-06-17T11:29:07.000Z</time>
      </trkpt>
      <trkpt lat="43.92564" lon="5.1191">
        <ele>209.80000305176</ele>
        <time>2012-06-17T11:29:10.000Z</time>
      </trkpt>
      <trkpt lat="43.92566" lon="5.11913">
        <ele>210.39999389648</ele>
        <time>2012-06-17T11:29:12.000Z</time>
      </trkpt>
      <trkpt lat="43.92572" lon="5.11916">
        <ele>210.80000305176</ele>
        <time>2012-06-17T11:29:16.000Z</time>
      </trkpt>
      <trkpt lat="43.92573" lon="5.11917">
        <ele>211</ele>
        <time>2012-06-17T11:29:17.000Z</time>
      </trkpt>
      <trkpt lat="43.92575" lon="5.1192">
        <ele>211.39999389648</ele>
        <time>2012-06-17T11:29:20.000Z</time>
      </trkpt>
      <trkpt lat="43.92576" lon="5.11924">
        <ele>212</ele>
        <time>2012-06-17T11:29:24.000Z</time>
      </trkpt>
      <trkpt lat="43.92576" lon="5.11932">
        <ele>213</ele>
        <time>2012-06-17T11:29:31.000Z</time>
      </trkpt>
      <trkpt lat="43.92577" lon="5.11937">
        <ele>213.60000610352</ele>
        <time>2012-06-17T11:29:35.000Z</time>
      </trkpt>
      <trkpt lat="43.92579" lon="5.1194">
        <ele>214</ele>
        <time>2012-06-17T11:29:37.000Z</time>
      </trkpt>
      <trkpt lat="43.92582" lon="5.11944">
        <ele>214.60000610352</ele>
        <time>2012-06-17T11:29:40.000Z</time>
      </trkpt>
      <trkpt lat="43.92589" lon="5.11954">
        <ele>216</ele>
        <time>2012-06-17T11:29:46.000Z</time>
      </trkpt>
      <trkpt lat="43.92592" lon="5.11963">
        <ele>217.19999694824</ele>
        <time>2012-06-17T11:29:51.000Z</time>
      </trkpt>
      <trkpt lat="43.92594" lon="5.11964">
        <ele>217.39999389648</ele>
        <time>2012-06-17T11:29:52.000Z</time>
      </trkpt>
      <trkpt lat="43.92598" lon="5.11971">
        <ele>218.39999389648</ele>
        <time>2012-06-17T11:29:57.000Z</time>
      </trkpt>
      <trkpt lat="43.92602" lon="5.11978">
        <ele>219.60000610352</ele>
        <time>2012-06-17T11:30:03.000Z</time>
      </trkpt>
      <trkpt lat="43.92606" lon="5.11985">
        <ele>220.60000610352</ele>
        <time>2012-06-17T11:30:09.000Z</time>
      </trkpt>
      <trkpt lat="43.92608" lon="5.11986">
        <ele>220.80000305176</ele>
        <time>2012-06-17T11:30:11.000Z</time>
      </trkpt>
      <trkpt lat="43.92612" lon="5.11993">
        <ele>222</ele>
        <time>2012-06-17T11:30:15.000Z</time>
      </trkpt>
      <trkpt lat="43.92612" lon="5.11995">
        <ele>222.19999694824</ele>
        <time>2012-06-17T11:30:16.000Z</time>
      </trkpt>
      <trkpt lat="43.92614" lon="5.11999">
        <ele>223</ele>
        <time>2012-06-17T11:30:20.000Z</time>
      </trkpt>
      <trkpt lat="43.92615" lon="5.12001">
        <ele>223.39999389648</ele>
        <time>2012-06-17T11:30:22.000Z</time>
      </trkpt>
      <trkpt lat="43.9262" lon="5.12009">
        <ele>224.60000610352</ele>
        <time>2012-06-17T11:30:29.000Z</time>
      </trkpt>
      <trkpt lat="43.92628" lon="5.12016">
        <ele>225.80000305176</ele>
        <time>2012-06-17T11:30:35.000Z</time>
      </trkpt>
      <trkpt lat="43.92634" lon="5.12024">
        <ele>227</ele>
        <time>2012-06-17T11:30:42.000Z</time>
      </trkpt>
      <trkpt lat="43.92637" lon="5.12027">
        <ele>227.39999389648</ele>
        <time>2012-06-17T11:30:44.000Z</time>
      </trkpt>
      <trkpt lat="43.9264" lon="5.12032">
        <ele>228.19999694824</ele>
        <time>2012-06-17T11:30:48.000Z</time>
      </trkpt>
      <trkpt lat="43.92646" lon="5.12039">
        <ele>229.19999694824</ele>
        <time>2012-06-17T11:30:54.000Z</time>
      </trkpt>
      <trkpt lat="43.92653" lon="5.12047">
        <ele>230.19999694824</ele>
        <time>2012-06-17T11:31:01.000Z</time>
      </trkpt>
      <trkpt lat="43.92662" lon="5.12056">
        <ele>231.60000610352</ele>
        <time>2012-06-17T11:31:08.000Z</time>
      </trkpt>
      <trkpt lat="43.9267" lon="5.12061">
        <ele>232.60000610352</ele>
        <time>2012-06-17T11:31:14.000Z</time>
      </trkpt>
      <trkpt lat="43.92675" lon="5.12066">
        <ele>233.60000610352</ele>
        <time>2012-06-17T11:31:19.000Z</time>
      </trkpt>
      <trkpt lat="43.9268" lon="5.12075">
        <ele>235.19999694824</ele>
        <time>2012-06-17T11:31:25.000Z</time>
      </trkpt>
      <trkpt lat="43.92682" lon="5.12076">
        <ele>235.39999389648</ele>
        <time>2012-06-17T11:31:26.000Z</time>
      </trkpt>
      <trkpt lat="43.92689" lon="5.12085">
        <ele>237.19999694824</ele>
        <time>2012-06-17T11:31:32.000Z</time>
      </trkpt>
      <trkpt lat="43.92697" lon="5.12093">
        <ele>238.80000305176</ele>
        <time>2012-06-17T11:31:39.000Z</time>
      </trkpt>
      <trkpt lat="43.92702" lon="5.12096">
        <ele>239.60000610352</ele>
        <time>2012-06-17T11:31:43.000Z</time>
      </trkpt>
      <trkpt lat="43.92704" lon="5.12099">
        <ele>240.19999694824</ele>
        <time>2012-06-17T11:31:45.000Z</time>
      </trkpt>
      <trkpt lat="43.9271" lon="5.12107">
        <ele>241.39999389648</ele>
        <time>2012-06-17T11:31:51.000Z</time>
      </trkpt>
      <trkpt lat="43.92714" lon="5.12111">
        <ele>242.19999694824</ele>
        <time>2012-06-17T11:31:55.000Z</time>
      </trkpt>
      <trkpt lat="43.92719" lon="5.12113">
        <ele>242.60000610352</ele>
        <time>2012-06-17T11:31:59.000Z</time>
      </trkpt>
      <trkpt lat="43.92722" lon="5.12115">
        <ele>243</ele>
        <time>2012-06-17T11:32:02.000Z</time>
      </trkpt>
      <trkpt lat="43.92726" lon="5.1212">
        <ele>243.60000610352</ele>
        <time>2012-06-17T11:32:06.000Z</time>
      </trkpt>
      <trkpt lat="43.9273" lon="5.12124">
        <ele>244.19999694824</ele>
        <time>2012-06-17T11:32:13.000Z</time>
      </trkpt>
      <trkpt lat="43.9273" lon="5.12123">
        <ele>244</ele>
        <time>2012-06-17T11:32:31.000Z</time>
      </trkpt>
      <trkpt lat="43.92732" lon="5.12123">
        <ele>244.19999694824</ele>
        <time>2012-06-17T11:34:01.000Z</time>
      </trkpt>
      <trkpt lat="43.92734" lon="5.12122">
        <ele>244.19999694824</ele>
        <time>2012-06-17T11:34:07.000Z</time>
      </trkpt>
      <trkpt lat="43.92734" lon="5.12121">
        <ele>244</ele>
        <time>2012-06-17T11:34:53.000Z</time>
      </trkpt>
      <trkpt lat="43.92736" lon="5.12123">
        <ele>244.19999694824</ele>
        <time>2012-06-17T11:35:05.000Z</time>
      </trkpt>
      <trkpt lat="43.92736" lon="5.12129">
        <ele>244.80000305176</ele>
        <time>2012-06-17T11:35:11.000Z</time>
      </trkpt>
      <trkpt lat="43.92737" lon="5.12131">
        <ele>245</ele>
        <time>2012-06-17T11:35:13.000Z</time>
      </trkpt>
      <trkpt lat="43.92739" lon="5.12136">
        <ele>245.60000610352</ele>
        <time>2012-06-17T11:35:17.000Z</time>
      </trkpt>
      <trkpt lat="43.92742" lon="5.12143">
        <ele>246.19999694824</ele>
        <time>2012-06-17T11:35:23.000Z</time>
      </trkpt>
      <trkpt lat="43.92745" lon="5.12153">
        <ele>247</ele>
        <time>2012-06-17T11:35:29.000Z</time>
      </trkpt>
      <trkpt lat="43.92745" lon="5.12155">
        <ele>247.19999694824</ele>
        <time>2012-06-17T11:35:31.000Z</time>
      </trkpt>
      <trkpt lat="43.92747" lon="5.1216">
        <ele>247.60000610352</ele>
        <time>2012-06-17T11:35:35.000Z</time>
      </trkpt>
      <trkpt lat="43.9275" lon="5.12169">
        <ele>248.39999389648</ele>
        <time>2012-06-17T11:35:44.000Z</time>
      </trkpt>
      <trkpt lat="43.92756" lon="5.1218">
        <ele>250.19999694824</ele>
        <time>2012-06-17T11:35:52.000Z</time>
      </trkpt>
      <trkpt lat="43.92759" lon="5.12184">
        <ele>250.80000305176</ele>
        <time>2012-06-17T11:35:55.000Z</time>
      </trkpt>
      <trkpt lat="43.92759" lon="5.12186">
        <ele>251</ele>
        <time>2012-06-17T11:35:56.000Z</time>
      </trkpt>
      <trkpt lat="43.92759" lon="5.12187">
        <ele>251.19999694824</ele>
        <time>2012-06-17T11:35:57.000Z</time>
      </trkpt>
      <trkpt lat="43.9276" lon="5.12197">
        <ele>252.19999694824</ele>
        <time>2012-06-17T11:36:02.000Z</time>
      </trkpt>
      <trkpt lat="43.9276" lon="5.12199">
        <ele>252.60000610352</ele>
        <time>2012-06-17T11:36:03.000Z</time>
      </trkpt>
      <trkpt lat="43.92761" lon="5.12207">
        <ele>253.39999389648</ele>
        <time>2012-06-17T11:36:08.000Z</time>
      </trkpt>
      <trkpt lat="43.92762" lon="5.12211">
        <ele>254.19999694824</ele>
        <time>2012-06-17T11:36:11.000Z</time>
      </trkpt>
      <trkpt lat="43.92764" lon="5.12216">
        <ele>254.80000305176</ele>
        <time>2012-06-17T11:36:14.000Z</time>
      </trkpt>
      <trkpt lat="43.92765" lon="5.1222">
        <ele>255.39999389648</ele>
        <time>2012-06-17T11:36:17.000Z</time>
      </trkpt>
      <trkpt lat="43.92767" lon="5.12224">
        <ele>256</ele>
        <time>2012-06-17T11:36:20.000Z</time>
      </trkpt>
      <trkpt lat="43.92767" lon="5.12232">
        <ele>256.79998779297</ele>
        <time>2012-06-17T11:36:24.000Z</time>
      </trkpt>
      <trkpt lat="43.92766" lon="5.12235">
        <ele>257</ele>
        <time>2012-06-17T11:36:26.000Z</time>
      </trkpt>
      <trkpt lat="43.9276" lon="5.12248">
        <ele>258.20001220703</ele>
        <time>2012-06-17T11:36:34.000Z</time>
      </trkpt>
      <trkpt lat="43.92753" lon="5.12262">
        <ele>258</ele>
        <time>2012-06-17T11:36:43.000Z</time>
      </trkpt>
      <trkpt lat="43.92745" lon="5.12267">
        <ele>257.39999389648</ele>
        <time>2012-06-17T11:36:50.000Z</time>
      </trkpt>
      <trkpt lat="43.92744" lon="5.12267">
        <ele>257.20001220703</ele>
        <time>2012-06-17T11:36:51.000Z</time>
      </trkpt>
      <trkpt lat="43.92739" lon="5.12269">
        <ele>256.79998779297</ele>
        <time>2012-06-17T11:36:55.000Z</time>
      </trkpt>
      <trkpt lat="43.92739" lon="5.12268">
        <ele>256.79998779297</ele>
        <time>2012-06-17T11:36:56.000Z</time>
      </trkpt>
      <trkpt lat="43.92734" lon="5.12272">
        <ele>256.20001220703</ele>
        <time>2012-06-17T11:37:01.000Z</time>
      </trkpt>
      <trkpt lat="43.92733" lon="5.12273">
        <ele>256.20001220703</ele>
        <time>2012-06-17T11:37:02.000Z</time>
      </trkpt>
      <trkpt lat="43.92728" lon="5.12274">
        <ele>255.60000610352</ele>
        <time>2012-06-17T11:37:09.000Z</time>
      </trkpt>
      <trkpt lat="43.92724" lon="5.1227">
        <ele>255.39999389648</ele>
        <time>2012-06-17T11:37:12.000Z</time>
      </trkpt>
      <trkpt lat="43.92723" lon="5.12269">
        <ele>255.39999389648</ele>
        <time>2012-06-17T11:37:14.000Z</time>
      </trkpt>
      <trkpt lat="43.92719" lon="5.12266">
        <ele>255.39999389648</ele>
        <time>2012-06-17T11:37:18.000Z</time>
      </trkpt>
      <trkpt lat="43.92718" lon="5.12266">
        <ele>255.19999694824</ele>
        <time>2012-06-17T11:37:20.000Z</time>
      </trkpt>
      <trkpt lat="43.92713" lon="5.12265">
        <ele>255</ele>
        <time>2012-06-17T11:38:08.000Z</time>
      </trkpt>
      <trkpt lat="43.92711" lon="5.12264">
        <ele>254.80000305176</ele>
        <time>2012-06-17T11:38:19.000Z</time>
      </trkpt>
      <trkpt lat="43.92711" lon="5.12264">
        <ele>254.80000305176</ele>
        <time>2012-06-17T11:38:27.000Z</time>
      </trkpt>
      <trkpt lat="43.92712" lon="5.12266">
        <ele>254.80000305176</ele>
        <time>2012-06-17T11:38:43.000Z</time>
      </trkpt>
      <trkpt lat="43.92715" lon="5.12266">
        <ele>255</ele>
        <time>2012-06-17T11:38:45.000Z</time>
      </trkpt>
      <trkpt lat="43.92716" lon="5.12265">
        <ele>255.19999694824</ele>
        <time>2012-06-17T11:38:46.000Z</time>
      </trkpt>
      <trkpt lat="43.92722" lon="5.12266">
        <ele>255.60000610352</ele>
        <time>2012-06-17T11:38:53.000Z</time>
      </trkpt>
      <trkpt lat="43.92729" lon="5.12274">
        <ele>255.60000610352</ele>
        <time>2012-06-17T11:38:59.000Z</time>
      </trkpt>
      <trkpt lat="43.92732" lon="5.12279">
        <ele>255.80000305176</ele>
        <time>2012-06-17T11:39:03.000Z</time>
      </trkpt>
      <trkpt lat="43.92733" lon="5.1228">
        <ele>255.80000305176</ele>
        <time>2012-06-17T11:39:05.000Z</time>
      </trkpt>
      <trkpt lat="43.92732" lon="5.12284">
        <ele>255.60000610352</ele>
        <time>2012-06-17T11:39:08.000Z</time>
      </trkpt>
      <trkpt lat="43.92731" lon="5.12286">
        <ele>255.19999694824</ele>
        <time>2012-06-17T11:39:10.000Z</time>
      </trkpt>
      <trkpt lat="43.9273" lon="5.12288">
        <ele>255.19999694824</ele>
        <time>2012-06-17T11:39:12.000Z</time>
      </trkpt>
      <trkpt lat="43.92728" lon="5.1229">
        <ele>254.80000305176</ele>
        <time>2012-06-17T11:39:17.000Z</time>
      </trkpt>
      <trkpt lat="43.92725" lon="5.12293">
        <ele>254.19999694824</ele>
        <time>2012-06-17T11:39:20.000Z</time>
      </trkpt>
      <trkpt lat="43.92724" lon="5.12297">
        <ele>253.60000610352</ele>
        <time>2012-06-17T11:39:23.000Z</time>
      </trkpt>
      <trkpt lat="43.92721" lon="5.12299">
        <ele>253.19999694824</ele>
        <time>2012-06-17T11:39:26.000Z</time>
      </trkpt>
      <trkpt lat="43.92719" lon="5.12301">
        <ele>252.80000305176</ele>
        <time>2012-06-17T11:39:28.000Z</time>
      </trkpt>
      <trkpt lat="43.92717" lon="5.12305">
        <ele>252</ele>
        <time>2012-06-17T11:39:31.000Z</time>
      </trkpt>
      <trkpt lat="43.92715" lon="5.12308">
        <ele>251.39999389648</ele>
        <time>2012-06-17T11:39:34.000Z</time>
      </trkpt>
      <trkpt lat="43.92708" lon="5.1232">
        <ele>249.19999694824</ele>
        <time>2012-06-17T11:39:41.000Z</time>
      </trkpt>
      <trkpt lat="43.92708" lon="5.12322">
        <ele>249</ele>
        <time>2012-06-17T11:39:42.000Z</time>
      </trkpt>
      <trkpt lat="43.92705" lon="5.12329">
        <ele>247.80000305176</ele>
        <time>2012-06-17T11:39:46.000Z</time>
      </trkpt>
      <trkpt lat="43.92704" lon="5.12332">
        <ele>247.19999694824</ele>
        <time>2012-06-17T11:39:48.000Z</time>
      </trkpt>
      <trkpt lat="43.92703" lon="5.12333">
        <ele>246.80000305176</ele>
        <time>2012-06-17T11:39:50.000Z</time>
      </trkpt>
      <trkpt lat="43.92702" lon="5.12334">
        <ele>246.60000610352</ele>
        <time>2012-06-17T11:39:53.000Z</time>
      </trkpt>
      <trkpt lat="43.92701" lon="5.12335">
        <ele>245.60000610352</ele>
        <time>2012-06-17T11:39:55.000Z</time>
      </trkpt>
      <trkpt lat="43.92698" lon="5.12342">
        <ele>242.39999389648</ele>
        <time>2012-06-17T11:39:59.000Z</time>
      </trkpt>
      <trkpt lat="43.92696" lon="5.12344">
        <ele>241.39999389648</ele>
        <time>2012-06-17T11:40:00.000Z</time>
      </trkpt>
      <trkpt lat="43.92695" lon="5.12349">
        <ele>239.19999694824</ele>
        <time>2012-06-17T11:40:04.000Z</time>
      </trkpt>
      <trkpt lat="43.92695" lon="5.1235">
        <ele>238.80000305176</ele>
        <time>2012-06-17T11:40:05.000Z</time>
      </trkpt>
      <trkpt lat="43.92696" lon="5.12353">
        <ele>238</ele>
        <time>2012-06-17T11:40:13.000Z</time>
      </trkpt>
      <trkpt lat="43.92697" lon="5.12354">
        <ele>237.60000610352</ele>
        <time>2012-06-17T11:40:14.000Z</time>
      </trkpt>
      <trkpt lat="43.92697" lon="5.12355">
        <ele>237.39999389648</ele>
        <time>2012-06-17T11:40:18.000Z</time>
      </trkpt>
      <trkpt lat="43.92701" lon="5.12354">
        <ele>238.80000305176</ele>
        <time>2012-06-17T11:40:26.000Z</time>
      </trkpt>
      <trkpt lat="43.92704" lon="5.12358">
        <ele>237.80000305176</ele>
        <time>2012-06-17T11:40:32.000Z</time>
      </trkpt>
      <trkpt lat="43.92706" lon="5.12361">
        <ele>237.19999694824</ele>
        <time>2012-06-17T11:40:35.000Z</time>
      </trkpt>
      <trkpt lat="43.92707" lon="5.12362">
        <ele>237</ele>
        <time>2012-06-17T11:40:37.000Z</time>
      </trkpt>
      <trkpt lat="43.92709" lon="5.12362">
        <ele>237.39999389648</ele>
        <time>2012-06-17T11:40:41.000Z</time>
      </trkpt>
      <trkpt lat="43.92709" lon="5.12362">
        <ele>237.60000610352</ele>
        <time>2012-06-17T11:40:52.000Z</time>
      </trkpt>
      <trkpt lat="43.92707" lon="5.1236">
        <ele>237.80000305176</ele>
        <time>2012-06-17T11:40:58.000Z</time>
      </trkpt>
      <trkpt lat="43.92705" lon="5.12358">
        <ele>238.19999694824</ele>
        <time>2012-06-17T11:41:01.000Z</time>
      </trkpt>
      <trkpt lat="43.92704" lon="5.12356">
        <ele>238.60000610352</ele>
        <time>2012-06-17T11:41:03.000Z</time>
      </trkpt>
      <trkpt lat="43.92704" lon="5.12355">
        <ele>239</ele>
        <time>2012-06-17T11:41:09.000Z</time>
      </trkpt>
      <trkpt lat="43.92702" lon="5.12355">
        <ele>238.60000610352</ele>
        <time>2012-06-17T11:41:11.000Z</time>
      </trkpt>
      <trkpt lat="43.927" lon="5.12355">
        <ele>238.19999694824</ele>
        <time>2012-06-17T11:41:16.000Z</time>
      </trkpt>
      <trkpt lat="43.92702" lon="5.12349">
        <ele>240.60000610352</ele>
        <time>2012-06-17T11:41:34.000Z</time>
      </trkpt>
      <trkpt lat="43.927" lon="5.12345">
        <ele>241.80000305176</ele>
        <time>2012-06-17T11:41:39.000Z</time>
      </trkpt>
      <trkpt lat="43.92701" lon="5.12336">
        <ele>245.39999389648</ele>
        <time>2012-06-17T11:41:43.000Z</time>
      </trkpt>
      <trkpt lat="43.92709" lon="5.12322">
        <ele>249.19999694824</ele>
        <time>2012-06-17T11:41:48.000Z</time>
      </trkpt>
      <trkpt lat="43.92717" lon="5.12309">
        <ele>251.80000305176</ele>
        <time>2012-06-17T11:41:53.000Z</time>
      </trkpt>
      <trkpt lat="43.92724" lon="5.12301">
        <ele>253.39999389648</ele>
        <time>2012-06-17T11:41:59.000Z</time>
      </trkpt>
      <trkpt lat="43.92724" lon="5.12301">
        <ele>253.39999389648</ele>
        <time>2012-06-17T11:42:00.000Z</time>
      </trkpt>
      <trkpt lat="43.92728" lon="5.12295">
        <ele>254.39999389648</ele>
        <time>2012-06-17T11:42:03.000Z</time>
      </trkpt>
      <trkpt lat="43.92733" lon="5.1229">
        <ele>255.39999389648</ele>
        <time>2012-06-17T11:42:07.000Z</time>
      </trkpt>
      <trkpt lat="43.92732" lon="5.12282">
        <ele>255.60000610352</ele>
        <time>2012-06-17T11:42:11.000Z</time>
      </trkpt>
      <trkpt lat="43.92731" lon="5.1228">
        <ele>255.60000610352</ele>
        <time>2012-06-17T11:42:13.000Z</time>
      </trkpt>
      <trkpt lat="43.92731" lon="5.12278">
        <ele>255.80000305176</ele>
        <time>2012-06-17T11:42:14.000Z</time>
      </trkpt>
      <trkpt lat="43.92733" lon="5.12275">
        <ele>256</ele>
        <time>2012-06-17T11:42:15.000Z</time>
      </trkpt>
      <trkpt lat="43.92738" lon="5.12272">
        <ele>256.60000610352</ele>
        <time>2012-06-17T11:42:19.000Z</time>
      </trkpt>
      <trkpt lat="43.92746" lon="5.12266">
        <ele>257.39999389648</ele>
        <time>2012-06-17T11:42:23.000Z</time>
      </trkpt>
      <trkpt lat="43.92756" lon="5.12256">
        <ele>258.20001220703</ele>
        <time>2012-06-17T11:42:27.000Z</time>
      </trkpt>
      <trkpt lat="43.92765" lon="5.12242">
        <ele>257.79998779297</ele>
        <time>2012-06-17T11:42:31.000Z</time>
      </trkpt>
      <trkpt lat="43.92767" lon="5.12231">
        <ele>256.60000610352</ele>
        <time>2012-06-17T11:42:34.000Z</time>
      </trkpt>
      <trkpt lat="43.92766" lon="5.12226">
        <ele>256</ele>
        <time>2012-06-17T11:42:35.000Z</time>
      </trkpt>
      <trkpt lat="43.92763" lon="5.12201">
        <ele>253</ele>
        <time>2012-06-17T11:42:40.000Z</time>
      </trkpt>
      <trkpt lat="43.92762" lon="5.12185">
        <ele>251.19999694824</ele>
        <time>2012-06-17T11:42:44.000Z</time>
      </trkpt>
      <trkpt lat="43.92755" lon="5.12171">
        <ele>248.80000305176</ele>
        <time>2012-06-17T11:42:48.000Z</time>
      </trkpt>
      <trkpt lat="43.92747" lon="5.12156">
        <ele>247.19999694824</ele>
        <time>2012-06-17T11:42:53.000Z</time>
      </trkpt>
      <trkpt lat="43.92745" lon="5.12155">
        <ele>247.19999694824</ele>
        <time>2012-06-17T11:42:54.000Z</time>
      </trkpt>
      <trkpt lat="43.92741" lon="5.12144">
        <ele>246.19999694824</ele>
        <time>2012-06-17T11:42:57.000Z</time>
      </trkpt>
      <trkpt lat="43.92737" lon="5.1213">
        <ele>245</ele>
        <time>2012-06-17T11:43:01.000Z</time>
      </trkpt>
      <trkpt lat="43.92739" lon="5.12123">
        <ele>244.39999389648</ele>
        <time>2012-06-17T11:43:04.000Z</time>
      </trkpt>
      <trkpt lat="43.9274" lon="5.12122">
        <ele>244.39999389648</ele>
        <time>2012-06-17T11:43:05.000Z</time>
      </trkpt>
      <trkpt lat="43.92743" lon="5.12122">
        <ele>244.39999389648</ele>
        <time>2012-06-17T11:43:06.000Z</time>
      </trkpt>
      <trkpt lat="43.92746" lon="5.1212">
        <ele>244.39999389648</ele>
        <time>2012-06-17T11:43:08.000Z</time>
      </trkpt>
      <trkpt lat="43.92755" lon="5.12121">
        <ele>245.19999694824</ele>
        <time>2012-06-17T11:43:13.000Z</time>
      </trkpt>
      <trkpt lat="43.92762" lon="5.12126">
        <ele>246.19999694824</ele>
        <time>2012-06-17T11:43:17.000Z</time>
      </trkpt>
      <trkpt lat="43.9277" lon="5.1213">
        <ele>247.19999694824</ele>
        <time>2012-06-17T11:43:23.000Z</time>
      </trkpt>
      <trkpt lat="43.92774" lon="5.12132">
        <ele>247.60000610352</ele>
        <time>2012-06-17T11:43:26.000Z</time>
      </trkpt>
      <trkpt lat="43.92777" lon="5.1213">
        <ele>248</ele>
        <time>2012-06-17T11:43:29.000Z</time>
      </trkpt>
      <trkpt lat="43.92788" lon="5.12129">
        <ele>249</ele>
        <time>2012-06-17T11:43:36.000Z</time>
      </trkpt>
      <trkpt lat="43.92794" lon="5.12136">
        <ele>249.80000305176</ele>
        <time>2012-06-17T11:43:41.000Z</time>
      </trkpt>
      <trkpt lat="43.92799" lon="5.1214">
        <ele>250.60000610352</ele>
        <time>2012-06-17T11:43:46.000Z</time>
      </trkpt>
      <trkpt lat="43.92804" lon="5.12141">
        <ele>251</ele>
        <time>2012-06-17T11:43:51.000Z</time>
      </trkpt>
      <trkpt lat="43.92806" lon="5.12142">
        <ele>251.39999389648</ele>
        <time>2012-06-17T11:43:54.000Z</time>
      </trkpt>
      <trkpt lat="43.9281" lon="5.12143">
        <ele>251.80000305176</ele>
        <time>2012-06-17T11:43:57.000Z</time>
      </trkpt>
      <trkpt lat="43.92813" lon="5.12147">
        <ele>252.19999694824</ele>
        <time>2012-06-17T11:44:02.000Z</time>
      </trkpt>
      <trkpt lat="43.92823" lon="5.12153">
        <ele>253.39999389648</ele>
        <time>2012-06-17T11:44:10.000Z</time>
      </trkpt>
      <trkpt lat="43.9283" lon="5.12156">
        <ele>254.19999694824</ele>
        <time>2012-06-17T11:44:15.000Z</time>
      </trkpt>
      <trkpt lat="43.92837" lon="5.12157">
        <ele>255</ele>
        <time>2012-06-17T11:44:21.000Z</time>
      </trkpt>
      <trkpt lat="43.92846" lon="5.1216">
        <ele>256</ele>
        <time>2012-06-17T11:44:27.000Z</time>
      </trkpt>
      <trkpt lat="43.92847" lon="5.12161">
        <ele>256.20001220703</ele>
        <time>2012-06-17T11:44:28.000Z</time>
      </trkpt>
      <trkpt lat="43.92855" lon="5.12163">
        <ele>257.20001220703</ele>
        <time>2012-06-17T11:44:34.000Z</time>
      </trkpt>
      <trkpt lat="43.92859" lon="5.12163">
        <ele>257.60000610352</ele>
        <time>2012-06-17T11:44:38.000Z</time>
      </trkpt>
      <trkpt lat="43.92863" lon="5.12166">
        <ele>258.20001220703</ele>
        <time>2012-06-17T11:44:41.000Z</time>
      </trkpt>
      <trkpt lat="43.92869" lon="5.12168">
        <ele>259</ele>
        <time>2012-06-17T11:44:45.000Z</time>
      </trkpt>
      <trkpt lat="43.92871" lon="5.12169">
        <ele>259.20001220703</ele>
        <time>2012-06-17T11:44:47.000Z</time>
      </trkpt>
      <trkpt lat="43.92878" lon="5.12175">
        <ele>260.39999389648</ele>
        <time>2012-06-17T11:44:54.000Z</time>
      </trkpt>
      <trkpt lat="43.92883" lon="5.1218">
        <ele>261.39999389648</ele>
        <time>2012-06-17T11:44:58.000Z</time>
      </trkpt>
      <trkpt lat="43.92893" lon="5.12179">
        <ele>262.39999389648</ele>
        <time>2012-06-17T11:45:06.000Z</time>
      </trkpt>
      <trkpt lat="43.92903" lon="5.12178">
        <ele>263.39999389648</ele>
        <time>2012-06-17T11:45:13.000Z</time>
      </trkpt>
      <trkpt lat="43.92909" lon="5.1218">
        <ele>264.20001220703</ele>
        <time>2012-06-17T11:45:19.000Z</time>
      </trkpt>
      <trkpt lat="43.92915" lon="5.12181">
        <ele>264.79998779297</ele>
        <time>2012-06-17T11:45:24.000Z</time>
      </trkpt>
      <trkpt lat="43.92916" lon="5.12181">
        <ele>265</ele>
        <time>2012-06-17T11:45:25.000Z</time>
      </trkpt>
      <trkpt lat="43.92921" lon="5.12183">
        <ele>265.60000610352</ele>
        <time>2012-06-17T11:45:29.000Z</time>
      </trkpt>
      <trkpt lat="43.92925" lon="5.12185">
        <ele>266.20001220703</ele>
        <time>2012-06-17T11:45:32.000Z</time>
      </trkpt>
      <trkpt lat="43.9293" lon="5.12189">
        <ele>267</ele>
        <time>2012-06-17T11:45:37.000Z</time>
      </trkpt>
      <trkpt lat="43.92931" lon="5.12189">
        <ele>267.20001220703</ele>
        <time>2012-06-17T11:45:38.000Z</time>
      </trkpt>
      <trkpt lat="43.92935" lon="5.1219">
        <ele>267.79998779297</ele>
        <time>2012-06-17T11:45:41.000Z</time>
      </trkpt>
      <trkpt lat="43.92941" lon="5.12192">
        <ele>268.39999389648</ele>
        <time>2012-06-17T11:45:44.000Z</time>
      </trkpt>
      <trkpt lat="43.92946" lon="5.12195">
        <ele>269.20001220703</ele>
        <time>2012-06-17T11:45:48.000Z</time>
      </trkpt>
      <trkpt lat="43.92947" lon="5.12196">
        <ele>269.39999389648</ele>
        <time>2012-06-17T11:45:49.000Z</time>
      </trkpt>
      <trkpt lat="43.9295" lon="5.12199">
        <ele>269.79998779297</ele>
        <time>2012-06-17T11:45:51.000Z</time>
      </trkpt>
      <trkpt lat="43.92953" lon="5.12201">
        <ele>270.20001220703</ele>
        <time>2012-06-17T11:45:54.000Z</time>
      </trkpt>
      <trkpt lat="43.92953" lon="5.12201">
        <ele>270.39999389648</ele>
        <time>2012-06-17T11:45:55.000Z</time>
      </trkpt>
      <trkpt lat="43.92959" lon="5.12204">
        <ele>271</ele>
        <time>2012-06-17T11:46:02.000Z</time>
      </trkpt>
      <trkpt lat="43.92959" lon="5.12205">
        <ele>271.20001220703</ele>
        <time>2012-06-17T11:46:03.000Z</time>
      </trkpt>
      <trkpt lat="43.92969" lon="5.12208">
        <ele>272.39999389648</ele>
        <time>2012-06-17T11:46:09.000Z</time>
      </trkpt>
      <trkpt lat="43.9297" lon="5.1221">
        <ele>272.39999389648</ele>
        <time>2012-06-17T11:46:10.000Z</time>
      </trkpt>
      <trkpt lat="43.92975" lon="5.12213">
        <ele>273.20001220703</ele>
        <time>2012-06-17T11:46:15.000Z</time>
      </trkpt>
      <trkpt lat="43.92985" lon="5.12218">
        <ele>274.39999389648</ele>
        <time>2012-06-17T11:46:21.000Z</time>
      </trkpt>
      <trkpt lat="43.92994" lon="5.12225">
        <ele>275.60000610352</ele>
        <time>2012-06-17T11:46:28.000Z</time>
      </trkpt>
      <trkpt lat="43.92998" lon="5.12229">
        <ele>276</ele>
        <time>2012-06-17T11:46:33.000Z</time>
      </trkpt>
      <trkpt lat="43.93001" lon="5.12231">
        <ele>276.39999389648</ele>
        <time>2012-06-17T11:46:35.000Z</time>
      </trkpt>
      <trkpt lat="43.93007" lon="5.12232">
        <ele>277.20001220703</ele>
        <time>2012-06-17T11:46:41.000Z</time>
      </trkpt>
      <trkpt lat="43.93011" lon="5.12235">
        <ele>277.60000610352</ele>
        <time>2012-06-17T11:46:44.000Z</time>
      </trkpt>
      <trkpt lat="43.93015" lon="5.12237">
        <ele>278.20001220703</ele>
        <time>2012-06-17T11:46:47.000Z</time>
      </trkpt>
      <trkpt lat="43.93023" lon="5.12242">
        <ele>279.20001220703</ele>
        <time>2012-06-17T11:46:52.000Z</time>
      </trkpt>
      <trkpt lat="43.93026" lon="5.12242">
        <ele>279.39999389648</ele>
        <time>2012-06-17T11:46:54.000Z</time>
      </trkpt>
      <trkpt lat="43.93028" lon="5.12245">
        <ele>279.79998779297</ele>
        <time>2012-06-17T11:46:57.000Z</time>
      </trkpt>
      <trkpt lat="43.9303" lon="5.12247">
        <ele>280</ele>
        <time>2012-06-17T11:47:00.000Z</time>
      </trkpt>
      <trkpt lat="43.93037" lon="5.12248">
        <ele>280.79998779297</ele>
        <time>2012-06-17T11:47:06.000Z</time>
      </trkpt>
      <trkpt lat="43.93043" lon="5.12252">
        <ele>281.39999389648</ele>
        <time>2012-06-17T11:47:11.000Z</time>
      </trkpt>
      <trkpt lat="43.93045" lon="5.12252">
        <ele>281.79998779297</ele>
        <time>2012-06-17T11:47:12.000Z</time>
      </trkpt>
      <trkpt lat="43.93046" lon="5.12253">
        <ele>281.79998779297</ele>
        <time>2012-06-17T11:47:14.000Z</time>
      </trkpt>
      <trkpt lat="43.9305" lon="5.12255">
        <ele>282</ele>
        <time>2012-06-17T11:47:18.000Z</time>
      </trkpt>
      <trkpt lat="43.93052" lon="5.12255">
        <ele>282.20001220703</ele>
        <time>2012-06-17T11:47:20.000Z</time>
      </trkpt>
      <trkpt lat="43.93059" lon="5.12255">
        <ele>283</ele>
        <time>2012-06-17T11:47:24.000Z</time>
      </trkpt>
      <trkpt lat="43.9306" lon="5.12255">
        <ele>283.20001220703</ele>
        <time>2012-06-17T11:47:25.000Z</time>
      </trkpt>
      <trkpt lat="43.93062" lon="5.12255">
        <ele>283.39999389648</ele>
        <time>2012-06-17T11:47:26.000Z</time>
      </trkpt>
      <trkpt lat="43.93067" lon="5.12256">
        <ele>283.79998779297</ele>
        <time>2012-06-17T11:47:29.000Z</time>
      </trkpt>
      <trkpt lat="43.93073" lon="5.12255">
        <ele>284.60000610352</ele>
        <time>2012-06-17T11:47:34.000Z</time>
      </trkpt>
      <trkpt lat="43.93076" lon="5.12255">
        <ele>284.79998779297</ele>
        <time>2012-06-17T11:47:36.000Z</time>
      </trkpt>
      <trkpt lat="43.93084" lon="5.12261">
        <ele>285.20001220703</ele>
        <time>2012-06-17T11:47:42.000Z</time>
      </trkpt>
      <trkpt lat="43.9309" lon="5.12266">
        <ele>285.39999389648</ele>
        <time>2012-06-17T11:47:47.000Z</time>
      </trkpt>
      <trkpt lat="43.93093" lon="5.12267">
        <ele>285.60000610352</ele>
        <time>2012-06-17T11:47:49.000Z</time>
      </trkpt>
      <trkpt lat="43.93097" lon="5.1227">
        <ele>285.79998779297</ele>
        <time>2012-06-17T11:47:53.000Z</time>
      </trkpt>
      <trkpt lat="43.93099" lon="5.1227">
        <ele>286</ele>
        <time>2012-06-17T11:47:55.000Z</time>
      </trkpt>
      <trkpt lat="43.93103" lon="5.12269">
        <ele>286.60000610352</ele>
        <time>2012-06-17T11:47:58.000Z</time>
      </trkpt>
      <trkpt lat="43.93113" lon="5.12269">
        <ele>287.60000610352</ele>
        <time>2012-06-17T11:48:04.000Z</time>
      </trkpt>
      <trkpt lat="43.93117" lon="5.12269">
        <ele>288</ele>
        <time>2012-06-17T11:48:07.000Z</time>
      </trkpt>
      <trkpt lat="43.93124" lon="5.12268">
        <ele>288.79998779297</ele>
        <time>2012-06-17T11:48:11.000Z</time>
      </trkpt>
      <trkpt lat="43.93126" lon="5.12268">
        <ele>289</ele>
        <time>2012-06-17T11:48:12.000Z</time>
      </trkpt>
      <trkpt lat="43.93132" lon="5.12266">
        <ele>289.79998779297</ele>
        <time>2012-06-17T11:48:17.000Z</time>
      </trkpt>
      <trkpt lat="43.93141" lon="5.12267">
        <ele>290.60000610352</ele>
        <time>2012-06-17T11:48:21.000Z</time>
      </trkpt>
      <trkpt lat="43.93152" lon="5.12266">
        <ele>291.79998779297</ele>
        <time>2012-06-17T11:48:27.000Z</time>
      </trkpt>
      <trkpt lat="43.93163" lon="5.12265">
        <ele>293</ele>
        <time>2012-06-17T11:48:33.000Z</time>
      </trkpt>
      <trkpt lat="43.93165" lon="5.12265">
        <ele>293.20001220703</ele>
        <time>2012-06-17T11:48:35.000Z</time>
      </trkpt>
      <trkpt lat="43.93168" lon="5.12264">
        <ele>293.60000610352</ele>
        <time>2012-06-17T11:48:37.000Z</time>
      </trkpt>
      <trkpt lat="43.93169" lon="5.12264">
        <ele>293.79998779297</ele>
        <time>2012-06-17T11:48:38.000Z</time>
      </trkpt>
      <trkpt lat="43.93173" lon="5.12264">
        <ele>294.20001220703</ele>
        <time>2012-06-17T11:48:41.000Z</time>
      </trkpt>
      <trkpt lat="43.93177" lon="5.12263">
        <ele>294.79998779297</ele>
        <time>2012-06-17T11:48:44.000Z</time>
      </trkpt>
      <trkpt lat="43.9318" lon="5.12263">
        <ele>295.20001220703</ele>
        <time>2012-06-17T11:48:46.000Z</time>
      </trkpt>
      <trkpt lat="43.93187" lon="5.12263">
        <ele>296.20001220703</ele>
        <time>2012-06-17T11:48:51.000Z</time>
      </trkpt>
      <trkpt lat="43.93198" lon="5.12267">
        <ele>297.39999389648</ele>
        <time>2012-06-17T11:48:59.000Z</time>
      </trkpt>
      <trkpt lat="43.93199" lon="5.1227">
        <ele>297.39999389648</ele>
        <time>2012-06-17T11:49:02.000Z</time>
      </trkpt>
      <trkpt lat="43.93203" lon="5.12272">
        <ele>298</ele>
        <time>2012-06-17T11:49:05.000Z</time>
      </trkpt>
      <trkpt lat="43.93204" lon="5.12272">
        <ele>298</ele>
        <time>2012-06-17T11:49:06.000Z</time>
      </trkpt>
      <trkpt lat="43.93213" lon="5.12273">
        <ele>299.20001220703</ele>
        <time>2012-06-17T11:49:11.000Z</time>
      </trkpt>
      <trkpt lat="43.93226" lon="5.12273">
        <ele>300.79998779297</ele>
        <time>2012-06-17T11:49:20.000Z</time>
      </trkpt>
      <trkpt lat="43.93229" lon="5.12272">
        <ele>301.20001220703</ele>
        <time>2012-06-17T11:49:23.000Z</time>
      </trkpt>
      <trkpt lat="43.9323" lon="5.12272">
        <ele>301.39999389648</ele>
        <time>2012-06-17T11:49:26.000Z</time>
      </trkpt>
      <trkpt lat="43.93235" lon="5.12272">
        <ele>302</ele>
        <time>2012-06-17T11:49:33.000Z</time>
      </trkpt>
      <trkpt lat="43.93235" lon="5.12273">
        <ele>302</ele>
        <time>2012-06-17T11:49:38.000Z</time>
      </trkpt>
      <trkpt lat="43.93239" lon="5.12273">
        <ele>302.60000610352</ele>
        <time>2012-06-17T11:49:43.000Z</time>
      </trkpt>
      <trkpt lat="43.93247" lon="5.1227">
        <ele>303.60000610352</ele>
        <time>2012-06-17T11:49:49.000Z</time>
      </trkpt>
      <trkpt lat="43.93257" lon="5.12272">
        <ele>304.60000610352</ele>
        <time>2012-06-17T11:49:56.000Z</time>
      </trkpt>
      <trkpt lat="43.93266" lon="5.12273">
        <ele>305.20001220703</ele>
        <time>2012-06-17T11:50:02.000Z</time>
      </trkpt>
      <trkpt lat="43.93275" lon="5.12271">
        <ele>306</ele>
        <time>2012-06-17T11:50:09.000Z</time>
      </trkpt>
      <trkpt lat="43.93278" lon="5.12271">
        <ele>306.20001220703</ele>
        <time>2012-06-17T11:50:11.000Z</time>
      </trkpt>
      <trkpt lat="43.93288" lon="5.12267">
        <ele>306.79998779297</ele>
        <time>2012-06-17T11:50:17.000Z</time>
      </trkpt>
      <trkpt lat="43.93297" lon="5.1227">
        <ele>307.60000610352</ele>
        <time>2012-06-17T11:50:24.000Z</time>
      </trkpt>
      <trkpt lat="43.93305" lon="5.12274">
        <ele>308.20001220703</ele>
        <time>2012-06-17T11:50:30.000Z</time>
      </trkpt>
      <trkpt lat="43.93314" lon="5.12274">
        <ele>308.79998779297</ele>
        <time>2012-06-17T11:50:37.000Z</time>
      </trkpt>
      <trkpt lat="43.93329" lon="5.12272">
        <ele>310</ele>
        <time>2012-06-17T11:50:45.000Z</time>
      </trkpt>
      <trkpt lat="43.9334" lon="5.12269">
        <ele>310.79998779297</ele>
        <time>2012-06-17T11:50:52.000Z</time>
      </trkpt>
      <trkpt lat="43.93349" lon="5.12271">
        <ele>311.60000610352</ele>
        <time>2012-06-17T11:50:59.000Z</time>
      </trkpt>
      <trkpt lat="43.9336" lon="5.12275">
        <ele>312.39999389648</ele>
        <time>2012-06-17T11:51:06.000Z</time>
      </trkpt>
      <trkpt lat="43.93369" lon="5.1228">
        <ele>313.20001220703</ele>
        <time>2012-06-17T11:51:12.000Z</time>
      </trkpt>
      <trkpt lat="43.93382" lon="5.12285">
        <ele>314.39999389648</ele>
        <time>2012-06-17T11:51:20.000Z</time>
      </trkpt>
      <trkpt lat="43.93392" lon="5.1229">
        <ele>315.39999389648</ele>
        <time>2012-06-17T11:51:27.000Z</time>
      </trkpt>
      <trkpt lat="43.93397" lon="5.12294">
        <ele>316</ele>
        <time>2012-06-17T11:51:33.000Z</time>
      </trkpt>
      <trkpt lat="43.93398" lon="5.12294">
        <ele>316</ele>
        <time>2012-06-17T11:51:34.000Z</time>
      </trkpt>
      <trkpt lat="43.93402" lon="5.12295">
        <ele>316.39999389648</ele>
        <time>2012-06-17T11:51:38.000Z</time>
      </trkpt>
      <trkpt lat="43.93404" lon="5.12294">
        <ele>316.60000610352</ele>
        <time>2012-06-17T11:51:41.000Z</time>
      </trkpt>
      <trkpt lat="43.93404" lon="5.12294">
        <ele>316.60000610352</ele>
        <time>2012-06-17T11:51:45.000Z</time>
      </trkpt>
      <trkpt lat="43.93404" lon="5.12303">
        <ele>316.79998779297</ele>
        <time>2012-06-17T11:51:52.000Z</time>
      </trkpt>
      <trkpt lat="43.93401" lon="5.12317">
        <ele>317</ele>
        <time>2012-06-17T11:52:00.000Z</time>
      </trkpt>
      <trkpt lat="43.93399" lon="5.12331">
        <ele>317.20001220703</ele>
        <time>2012-06-17T11:52:08.000Z</time>
      </trkpt>
      <trkpt lat="43.934" lon="5.12338">
        <ele>317.20001220703</ele>
        <time>2012-06-17T11:52:29.000Z</time>
      </trkpt>
      <trkpt lat="43.93402" lon="5.12343">
        <ele>317.20001220703</ele>
        <time>2012-06-17T11:52:36.000Z</time>
      </trkpt>
      <trkpt lat="43.93405" lon="5.12352">
        <ele>317.20001220703</ele>
        <time>2012-06-17T11:52:57.000Z</time>
      </trkpt>
      <trkpt lat="43.93412" lon="5.12359">
        <ele>317.60000610352</ele>
        <time>2012-06-17T11:53:04.000Z</time>
      </trkpt>
      <trkpt lat="43.93419" lon="5.12368">
        <ele>317.79998779297</ele>
        <time>2012-06-17T11:53:11.000Z</time>
      </trkpt>
      <trkpt lat="43.93418" lon="5.12367">
        <ele>317.79998779297</ele>
        <time>2012-06-17T11:53:16.000Z</time>
      </trkpt>
      <trkpt lat="43.93409" lon="5.12354">
        <ele>317.39999389648</ele>
        <time>2012-06-17T11:53:21.000Z</time>
      </trkpt>
      <trkpt lat="43.93402" lon="5.12343">
        <ele>317.20001220703</ele>
        <time>2012-06-17T11:53:25.000Z</time>
      </trkpt>
      <trkpt lat="43.93399" lon="5.12333">
        <ele>317.20001220703</ele>
        <time>2012-06-17T11:53:28.000Z</time>
      </trkpt>
      <trkpt lat="43.934" lon="5.12328">
        <ele>317.20001220703</ele>
        <time>2012-06-17T11:53:29.000Z</time>
      </trkpt>
      <trkpt lat="43.93405" lon="5.12306">
        <ele>317</ele>
        <time>2012-06-17T11:53:34.000Z</time>
      </trkpt>
      <trkpt lat="43.93413" lon="5.12284">
        <ele>317</ele>
        <time>2012-06-17T11:53:40.000Z</time>
      </trkpt>
      <trkpt lat="43.93422" lon="5.12267">
        <ele>316.79998779297</ele>
        <time>2012-06-17T11:53:45.000Z</time>
      </trkpt>
      <trkpt lat="43.93432" lon="5.12242">
        <ele>315.79998779297</ele>
        <time>2012-06-17T11:53:52.000Z</time>
      </trkpt>
      <trkpt lat="43.93436" lon="5.12224">
        <ele>314.39999389648</ele>
        <time>2012-06-17T11:53:56.000Z</time>
      </trkpt>
      <trkpt lat="43.93441" lon="5.12212">
        <ele>313.79998779297</ele>
        <time>2012-06-17T11:54:00.000Z</time>
      </trkpt>
      <trkpt lat="43.93448" lon="5.12209">
        <ele>313.79998779297</ele>
        <time>2012-06-17T11:54:05.000Z</time>
      </trkpt>
      <trkpt lat="43.93459" lon="5.12212">
        <ele>314.39999389648</ele>
        <time>2012-06-17T11:54:12.000Z</time>
      </trkpt>
      <trkpt lat="43.93471" lon="5.12218">
        <ele>315.39999389648</ele>
        <time>2012-06-17T11:54:21.000Z</time>
      </trkpt>
      <trkpt lat="43.93479" lon="5.12221">
        <ele>315.79998779297</ele>
        <time>2012-06-17T11:54:27.000Z</time>
      </trkpt>
      <trkpt lat="43.93484" lon="5.1223">
        <ele>316.60000610352</ele>
        <time>2012-06-17T11:54:33.000Z</time>
      </trkpt>
      <trkpt lat="43.93489" lon="5.1224">
        <ele>317.20001220703</ele>
        <time>2012-06-17T11:54:39.000Z</time>
      </trkpt>
      <trkpt lat="43.93495" lon="5.1225">
        <ele>317.79998779297</ele>
        <time>2012-06-17T11:54:47.000Z</time>
      </trkpt>
      <trkpt lat="43.93495" lon="5.12251">
        <ele>318</ele>
        <time>2012-06-17T11:54:48.000Z</time>
      </trkpt>
      <trkpt lat="43.93496" lon="5.12253">
        <ele>318</ele>
        <time>2012-06-17T11:54:50.000Z</time>
      </trkpt>
      <trkpt lat="43.93497" lon="5.12255">
        <ele>318.20001220703</ele>
        <time>2012-06-17T11:54:52.000Z</time>
      </trkpt>
      <trkpt lat="43.93501" lon="5.12263">
        <ele>318.60000610352</ele>
        <time>2012-06-17T11:54:57.000Z</time>
      </trkpt>
      <trkpt lat="43.93501" lon="5.12265">
        <ele>318.60000610352</ele>
        <time>2012-06-17T11:54:58.000Z</time>
      </trkpt>
      <trkpt lat="43.93505" lon="5.12279">
        <ele>319.39999389648</ele>
        <time>2012-06-17T11:55:03.000Z</time>
      </trkpt>
      <trkpt lat="43.9351" lon="5.12295">
        <ele>320.39999389648</ele>
        <time>2012-06-17T11:55:09.000Z</time>
      </trkpt>
      <trkpt lat="43.93516" lon="5.1231">
        <ele>321.20001220703</ele>
        <time>2012-06-17T11:55:14.000Z</time>
      </trkpt>
      <trkpt lat="43.93523" lon="5.12324">
        <ele>321.79998779297</ele>
        <time>2012-06-17T11:55:19.000Z</time>
      </trkpt>
      <trkpt lat="43.93525" lon="5.12333">
        <ele>322.20001220703</ele>
        <time>2012-06-17T11:55:24.000Z</time>
      </trkpt>
      <trkpt lat="43.9353" lon="5.12347">
        <ele>321.79998779297</ele>
        <time>2012-06-17T11:55:32.000Z</time>
      </trkpt>
      <trkpt lat="43.93534" lon="5.12361">
        <ele>321.39999389648</ele>
        <time>2012-06-17T11:55:39.000Z</time>
      </trkpt>
      <trkpt lat="43.93537" lon="5.12381">
        <ele>320.60000610352</ele>
        <time>2012-06-17T11:55:45.000Z</time>
      </trkpt>
      <trkpt lat="43.93544" lon="5.12402">
        <ele>319.79998779297</ele>
        <time>2012-06-17T11:55:51.000Z</time>
      </trkpt>
      <trkpt lat="43.93557" lon="5.12418">
        <ele>319.20001220703</ele>
        <time>2012-06-17T11:55:57.000Z</time>
      </trkpt>
      <trkpt lat="43.93561" lon="5.12424">
        <ele>318.79998779297</ele>
        <time>2012-06-17T11:55:59.000Z</time>
      </trkpt>
      <trkpt lat="43.93568" lon="5.12443">
        <ele>317</ele>
        <time>2012-06-17T11:56:04.000Z</time>
      </trkpt>
      <trkpt lat="43.93571" lon="5.12464">
        <ele>315.20001220703</ele>
        <time>2012-06-17T11:56:09.000Z</time>
      </trkpt>
      <trkpt lat="43.93574" lon="5.12481">
        <ele>313.60000610352</ele>
        <time>2012-06-17T11:56:13.000Z</time>
      </trkpt>
      <trkpt lat="43.93575" lon="5.12498">
        <ele>312</ele>
        <time>2012-06-17T11:56:17.000Z</time>
      </trkpt>
      <trkpt lat="43.93579" lon="5.12513">
        <ele>310.20001220703</ele>
        <time>2012-06-17T11:56:21.000Z</time>
      </trkpt>
      <trkpt lat="43.93584" lon="5.12527">
        <ele>308.79998779297</ele>
        <time>2012-06-17T11:56:25.000Z</time>
      </trkpt>
      <trkpt lat="43.93594" lon="5.12541">
        <ele>308.20001220703</ele>
        <time>2012-06-17T11:56:30.000Z</time>
      </trkpt>
      <trkpt lat="43.93607" lon="5.12559">
        <ele>308</ele>
        <time>2012-06-17T11:56:36.000Z</time>
      </trkpt>
      <trkpt lat="43.93614" lon="5.12569">
        <ele>307.60000610352</ele>
        <time>2012-06-17T11:56:41.000Z</time>
      </trkpt>
      <trkpt lat="43.93619" lon="5.12575">
        <ele>307.60000610352</ele>
        <time>2012-06-17T11:56:45.000Z</time>
      </trkpt>
      <trkpt lat="43.93624" lon="5.1258">
        <ele>307.79998779297</ele>
        <time>2012-06-17T11:56:47.000Z</time>
      </trkpt>
      <trkpt lat="43.93632" lon="5.12588">
        <ele>307.79998779297</ele>
        <time>2012-06-17T11:56:52.000Z</time>
      </trkpt>
      <trkpt lat="43.93638" lon="5.12594">
        <ele>307.79998779297</ele>
        <time>2012-06-17T11:56:58.000Z</time>
      </trkpt>
      <trkpt lat="43.93638" lon="5.12596">
        <ele>307.60000610352</ele>
        <time>2012-06-17T11:56:59.000Z</time>
      </trkpt>
      <trkpt lat="43.9364" lon="5.126">
        <ele>307.39999389648</ele>
        <time>2012-06-17T11:57:02.000Z</time>
      </trkpt>
      <trkpt lat="43.93643" lon="5.12604">
        <ele>307.20001220703</ele>
        <time>2012-06-17T11:57:05.000Z</time>
      </trkpt>
      <trkpt lat="43.93653" lon="5.12613">
        <ele>307.20001220703</ele>
        <time>2012-06-17T11:57:13.000Z</time>
      </trkpt>
      <trkpt lat="43.93665" lon="5.12621">
        <ele>307.79998779297</ele>
        <time>2012-06-17T11:57:20.000Z</time>
      </trkpt>
      <trkpt lat="43.93668" lon="5.1262">
        <ele>308.20001220703</ele>
        <time>2012-06-17T11:57:24.000Z</time>
      </trkpt>
      <trkpt lat="43.93669" lon="5.1262">
        <ele>308.39999389648</ele>
        <time>2012-06-17T11:57:25.000Z</time>
      </trkpt>
      <trkpt lat="43.93672" lon="5.12622">
        <ele>308.39999389648</ele>
        <time>2012-06-17T11:57:31.000Z</time>
      </trkpt>
      <trkpt lat="43.93678" lon="5.12625">
        <ele>308.39999389648</ele>
        <time>2012-06-17T11:57:46.000Z</time>
      </trkpt>
      <trkpt lat="43.93682" lon="5.12625">
        <ele>308.79998779297</ele>
        <time>2012-06-17T11:57:53.000Z</time>
      </trkpt>
      <trkpt lat="43.93688" lon="5.12627">
        <ele>309</ele>
        <time>2012-06-17T11:58:09.000Z</time>
      </trkpt>
      <trkpt lat="43.93701" lon="5.12629">
        <ele>310</ele>
        <time>2012-06-17T11:58:14.000Z</time>
      </trkpt>
      <trkpt lat="43.93711" lon="5.12628">
        <ele>311</ele>
        <time>2012-06-17T11:58:18.000Z</time>
      </trkpt>
      <trkpt lat="43.93723" lon="5.12628">
        <ele>311.79998779297</ele>
        <time>2012-06-17T11:58:23.000Z</time>
      </trkpt>
      <trkpt lat="43.93734" lon="5.12629">
        <ele>312.79998779297</ele>
        <time>2012-06-17T11:58:27.000Z</time>
      </trkpt>
      <trkpt lat="43.93739" lon="5.12632">
        <ele>312.79998779297</ele>
        <time>2012-06-17T11:58:31.000Z</time>
      </trkpt>
      <trkpt lat="43.93749" lon="5.12642">
        <ele>312.60000610352</ele>
        <time>2012-06-17T11:58:40.000Z</time>
      </trkpt>
      <trkpt lat="43.93758" lon="5.12649">
        <ele>312.79998779297</ele>
        <time>2012-06-17T11:58:48.000Z</time>
      </trkpt>
      <trkpt lat="43.93768" lon="5.12655">
        <ele>313.20001220703</ele>
        <time>2012-06-17T11:58:56.000Z</time>
      </trkpt>
      <trkpt lat="43.93777" lon="5.12656">
        <ele>314.20001220703</ele>
        <time>2012-06-17T11:59:03.000Z</time>
      </trkpt>
      <trkpt lat="43.93793" lon="5.12651">
        <ele>316.20001220703</ele>
        <time>2012-06-17T11:59:13.000Z</time>
      </trkpt>
      <trkpt lat="43.93794" lon="5.12652">
        <ele>316.39999389648</ele>
        <time>2012-06-17T11:59:14.000Z</time>
      </trkpt>
      <trkpt lat="43.93805" lon="5.12655">
        <ele>317.20001220703</ele>
        <time>2012-06-17T11:59:22.000Z</time>
      </trkpt>
      <trkpt lat="43.93809" lon="5.12665">
        <ele>316.39999389648</ele>
        <time>2012-06-17T11:59:29.000Z</time>
      </trkpt>
      <trkpt lat="43.9381" lon="5.1267">
        <ele>317</ele>
        <time>2012-06-17T11:59:36.000Z</time>
      </trkpt>
      <trkpt lat="43.9381" lon="5.12674">
        <ele>317.60000610352</ele>
        <time>2012-06-17T12:00:12.000Z</time>
      </trkpt>
      <trkpt lat="43.93814" lon="5.12669">
        <ele>317.20001220703</ele>
        <time>2012-06-17T12:00:15.000Z</time>
      </trkpt>
      <trkpt lat="43.93817" lon="5.12668">
        <ele>317.39999389648</ele>
        <time>2012-06-17T12:00:21.000Z</time>
      </trkpt>
      <trkpt lat="43.93813" lon="5.12673">
        <ele>317.60000610352</ele>
        <time>2012-06-17T12:00:25.000Z</time>
      </trkpt>
      <trkpt lat="43.93812" lon="5.12673">
        <ele>317.60000610352</ele>
        <time>2012-06-17T12:00:26.000Z</time>
      </trkpt>
      <trkpt lat="43.93805" lon="5.1268">
        <ele>317.79998779297</ele>
        <time>2012-06-17T12:00:33.000Z</time>
      </trkpt>
      <trkpt lat="43.93805" lon="5.12681">
        <ele>318</ele>
        <time>2012-06-17T12:00:37.000Z</time>
      </trkpt>
      <trkpt lat="43.93798" lon="5.12687">
        <ele>318</ele>
        <time>2012-06-17T12:00:50.000Z</time>
      </trkpt>
      <trkpt lat="43.9379" lon="5.12694">
        <ele>317.79998779297</ele>
        <time>2012-06-17T12:00:56.000Z</time>
      </trkpt>
      <trkpt lat="43.93779" lon="5.12703">
        <ele>317.60000610352</ele>
        <time>2012-06-17T12:01:03.000Z</time>
      </trkpt>
      <trkpt lat="43.93764" lon="5.12711">
        <ele>316.60000610352</ele>
        <time>2012-06-17T12:01:09.000Z</time>
      </trkpt>
      <trkpt lat="43.93746" lon="5.12713">
        <ele>314.60000610352</ele>
        <time>2012-06-17T12:01:15.000Z</time>
      </trkpt>
      <trkpt lat="43.93743" lon="5.12714">
        <ele>314.20001220703</ele>
        <time>2012-06-17T12:01:16.000Z</time>
      </trkpt>
      <trkpt lat="43.93726" lon="5.12714">
        <ele>312.20001220703</ele>
        <time>2012-06-17T12:01:22.000Z</time>
      </trkpt>
      <trkpt lat="43.93714" lon="5.12717">
        <ele>311</ele>
        <time>2012-06-17T12:01:26.000Z</time>
      </trkpt>
      <trkpt lat="43.93701" lon="5.12721">
        <ele>309.60000610352</ele>
        <time>2012-06-17T12:01:31.000Z</time>
      </trkpt>
      <trkpt lat="43.93688" lon="5.12726">
        <ele>308.39999389648</ele>
        <time>2012-06-17T12:01:37.000Z</time>
      </trkpt>
      <trkpt lat="43.93677" lon="5.12729">
        <ele>307</ele>
        <time>2012-06-17T12:01:41.000Z</time>
      </trkpt>
      <trkpt lat="43.93666" lon="5.12731">
        <ele>305.79998779297</ele>
        <time>2012-06-17T12:01:45.000Z</time>
      </trkpt>
      <trkpt lat="43.93653" lon="5.12733">
        <ele>304</ele>
        <time>2012-06-17T12:01:50.000Z</time>
      </trkpt>
      <trkpt lat="43.93634" lon="5.12732">
        <ele>301.20001220703</ele>
        <time>2012-06-17T12:01:57.000Z</time>
      </trkpt>
      <trkpt lat="43.93616" lon="5.12725">
        <ele>298.39999389648</ele>
        <time>2012-06-17T12:02:03.000Z</time>
      </trkpt>
      <trkpt lat="43.93603" lon="5.12715">
        <ele>296</ele>
        <time>2012-06-17T12:02:08.000Z</time>
      </trkpt>
      <trkpt lat="43.93589" lon="5.12705">
        <ele>293.60000610352</ele>
        <time>2012-06-17T12:02:13.000Z</time>
      </trkpt>
      <trkpt lat="43.93576" lon="5.12699">
        <ele>291.39999389648</ele>
        <time>2012-06-17T12:02:18.000Z</time>
      </trkpt>
      <trkpt lat="43.93559" lon="5.12696">
        <ele>288.60000610352</ele>
        <time>2012-06-17T12:02:24.000Z</time>
      </trkpt>
      <trkpt lat="43.93542" lon="5.12699">
        <ele>286</ele>
        <time>2012-06-17T12:02:30.000Z</time>
      </trkpt>
      <trkpt lat="43.93534" lon="5.12711">
        <ele>285</ele>
        <time>2012-06-17T12:02:35.000Z</time>
      </trkpt>
      <trkpt lat="43.93533" lon="5.1272">
        <ele>285.20001220703</ele>
        <time>2012-06-17T12:02:40.000Z</time>
      </trkpt>
      <trkpt lat="43.93536" lon="5.12732">
        <ele>286</ele>
        <time>2012-06-17T12:02:46.000Z</time>
      </trkpt>
      <trkpt lat="43.93539" lon="5.12742">
        <ele>286.79998779297</ele>
        <time>2012-06-17T12:02:52.000Z</time>
      </trkpt>
      <trkpt lat="43.93541" lon="5.12752">
        <ele>287.39999389648</ele>
        <time>2012-06-17T12:02:57.000Z</time>
      </trkpt>
      <trkpt lat="43.93541" lon="5.12753">
        <ele>287.39999389648</ele>
        <time>2012-06-17T12:02:58.000Z</time>
      </trkpt>
      <trkpt lat="43.93542" lon="5.12757">
        <ele>287.60000610352</ele>
        <time>2012-06-17T12:03:01.000Z</time>
      </trkpt>
      <trkpt lat="43.93542" lon="5.12761">
        <ele>287.79998779297</ele>
        <time>2012-06-17T12:03:03.000Z</time>
      </trkpt>
      <trkpt lat="43.93544" lon="5.12768">
        <ele>288.20001220703</ele>
        <time>2012-06-17T12:03:07.000Z</time>
      </trkpt>
      <trkpt lat="43.93545" lon="5.12772">
        <ele>288.39999389648</ele>
        <time>2012-06-17T12:03:09.000Z</time>
      </trkpt>
      <trkpt lat="43.9355" lon="5.12783">
        <ele>289.20001220703</ele>
        <time>2012-06-17T12:03:15.000Z</time>
      </trkpt>
      <trkpt lat="43.93557" lon="5.12795">
        <ele>290.20001220703</ele>
        <time>2012-06-17T12:03:22.000Z</time>
      </trkpt>
      <trkpt lat="43.93566" lon="5.12804">
        <ele>290.79998779297</ele>
        <time>2012-06-17T12:03:30.000Z</time>
      </trkpt>
      <trkpt lat="43.93575" lon="5.12811">
        <ele>291.39999389648</ele>
        <time>2012-06-17T12:03:37.000Z</time>
      </trkpt>
      <trkpt lat="43.93585" lon="5.12816">
        <ele>292.20001220703</ele>
        <time>2012-06-17T12:03:45.000Z</time>
      </trkpt>
      <trkpt lat="43.93599" lon="5.1282">
        <ele>294.39999389648</ele>
        <time>2012-06-17T12:03:54.000Z</time>
      </trkpt>
      <trkpt lat="43.93609" lon="5.12824">
        <ele>296</ele>
        <time>2012-06-17T12:04:01.000Z</time>
      </trkpt>
      <trkpt lat="43.93616" lon="5.12827">
        <ele>297</ele>
        <time>2012-06-17T12:04:04.000Z</time>
      </trkpt>
      <trkpt lat="43.93618" lon="5.12828">
        <ele>297.39999389648</ele>
        <time>2012-06-17T12:04:05.000Z</time>
      </trkpt>
      <trkpt lat="43.9363" lon="5.12836">
        <ele>299.20001220703</ele>
        <time>2012-06-17T12:04:10.000Z</time>
      </trkpt>
      <trkpt lat="43.93634" lon="5.1284">
        <ele>299.60000610352</ele>
        <time>2012-06-17T12:04:12.000Z</time>
      </trkpt>
      <trkpt lat="43.93639" lon="5.12843">
        <ele>300</ele>
        <time>2012-06-17T12:04:14.000Z</time>
      </trkpt>
      <trkpt lat="43.93648" lon="5.12848">
        <ele>301</ele>
        <time>2012-06-17T12:04:20.000Z</time>
      </trkpt>
      <trkpt lat="43.9366" lon="5.12858">
        <ele>301.60000610352</ele>
        <time>2012-06-17T12:04:29.000Z</time>
      </trkpt>
      <trkpt lat="43.93668" lon="5.12865">
        <ele>301.79998779297</ele>
        <time>2012-06-17T12:04:35.000Z</time>
      </trkpt>
      <trkpt lat="43.93679" lon="5.12874">
        <ele>302</ele>
        <time>2012-06-17T12:04:43.000Z</time>
      </trkpt>
      <trkpt lat="43.93689" lon="5.12885">
        <ele>301.79998779297</ele>
        <time>2012-06-17T12:04:53.000Z</time>
      </trkpt>
      <trkpt lat="43.93692" lon="5.12896">
        <ele>300.20001220703</ele>
        <time>2012-06-17T12:05:00.000Z</time>
      </trkpt>
      <trkpt lat="43.93691" lon="5.12899">
        <ele>299.60000610352</ele>
        <time>2012-06-17T12:05:02.000Z</time>
      </trkpt>
      <trkpt lat="43.93687" lon="5.129">
        <ele>299</ele>
        <time>2012-06-17T12:05:05.000Z</time>
      </trkpt>
      <trkpt lat="43.93684" lon="5.12898">
        <ele>299</ele>
        <time>2012-06-17T12:05:08.000Z</time>
      </trkpt>
      <trkpt lat="43.93683" lon="5.12897">
        <ele>298.79998779297</ele>
        <time>2012-06-17T12:05:09.000Z</time>
      </trkpt>
      <trkpt lat="43.93679" lon="5.12896">
        <ele>298.60000610352</ele>
        <time>2012-06-17T12:05:11.000Z</time>
      </trkpt>
      <trkpt lat="43.93669" lon="5.12892">
        <ele>297.79998779297</ele>
        <time>2012-06-17T12:05:16.000Z</time>
      </trkpt>
      <trkpt lat="43.93667" lon="5.12894">
        <ele>297.20001220703</ele>
        <time>2012-06-17T12:05:18.000Z</time>
      </trkpt>
      <trkpt lat="43.93667" lon="5.12896">
        <ele>297</ele>
        <time>2012-06-17T12:05:20.000Z</time>
      </trkpt>
      <trkpt lat="43.93667" lon="5.12896">
        <ele>297</ele>
        <time>2012-06-17T12:05:21.000Z</time>
      </trkpt>
      <trkpt lat="43.93667" lon="5.12897">
        <ele>296.79998779297</ele>
        <time>2012-06-17T12:05:24.000Z</time>
      </trkpt>
      <trkpt lat="43.93667" lon="5.12905">
        <ele>295.79998779297</ele>
        <time>2012-06-17T12:05:28.000Z</time>
      </trkpt>
      <trkpt lat="43.93668" lon="5.12918">
        <ele>294.20001220703</ele>
        <time>2012-06-17T12:05:35.000Z</time>
      </trkpt>
      <trkpt lat="43.93663" lon="5.1293">
        <ele>294.79998779297</ele>
        <time>2012-06-17T12:05:43.000Z</time>
      </trkpt>
      <trkpt lat="43.93656" lon="5.12932">
        <ele>294.79998779297</ele>
        <time>2012-06-17T12:05:50.000Z</time>
      </trkpt>
      <trkpt lat="43.9365" lon="5.12933">
        <ele>294.79998779297</ele>
        <time>2012-06-17T12:06:08.000Z</time>
      </trkpt>
      <trkpt lat="43.93639" lon="5.12929">
        <ele>294.20001220703</ele>
        <time>2012-06-17T12:06:15.000Z</time>
      </trkpt>
      <trkpt lat="43.93632" lon="5.12923">
        <ele>293.39999389648</ele>
        <time>2012-06-17T12:06:21.000Z</time>
      </trkpt>
      <trkpt lat="43.9363" lon="5.12922">
        <ele>293.20001220703</ele>
        <time>2012-06-17T12:06:22.000Z</time>
      </trkpt>
      <trkpt lat="43.93621" lon="5.12916">
        <ele>292.39999389648</ele>
        <time>2012-06-17T12:06:30.000Z</time>
      </trkpt>
      <trkpt lat="43.93613" lon="5.12916">
        <ele>292.20001220703</ele>
        <time>2012-06-17T12:06:37.000Z</time>
      </trkpt>
      <trkpt lat="43.93612" lon="5.12915">
        <ele>292</ele>
        <time>2012-06-17T12:06:39.000Z</time>
      </trkpt>
      <trkpt lat="43.9361" lon="5.12916">
        <ele>292</ele>
        <time>2012-06-17T12:06:41.000Z</time>
      </trkpt>
      <trkpt lat="43.93601" lon="5.12919">
        <ele>292</ele>
        <time>2012-06-17T12:06:48.000Z</time>
      </trkpt>
      <trkpt lat="43.93593" lon="5.12923">
        <ele>292.39999389648</ele>
        <time>2012-06-17T12:06:55.000Z</time>
      </trkpt>
      <trkpt lat="43.93584" lon="5.12924">
        <ele>292.20001220703</ele>
        <time>2012-06-17T12:07:01.000Z</time>
      </trkpt>
      <trkpt lat="43.93584" lon="5.12923">
        <ele>292</ele>
        <time>2012-06-17T12:07:02.000Z</time>
      </trkpt>
      <trkpt lat="43.93584" lon="5.12924">
        <ele>292.20001220703</ele>
        <time>2012-06-17T12:07:07.000Z</time>
      </trkpt>
      <trkpt lat="43.93579" lon="5.12921">
        <ele>292.39999389648</ele>
        <time>2012-06-17T12:07:36.000Z</time>
      </trkpt>
      <trkpt lat="43.93566" lon="5.12923">
        <ele>294.39999389648</ele>
        <time>2012-06-17T12:07:42.000Z</time>
      </trkpt>
      <trkpt lat="43.93551" lon="5.12929">
        <ele>297.60000610352</ele>
        <time>2012-06-17T12:07:48.000Z</time>
      </trkpt>
      <trkpt lat="43.93537" lon="5.12933">
        <ele>300.39999389648</ele>
        <time>2012-06-17T12:07:55.000Z</time>
      </trkpt>
      <trkpt lat="43.93527" lon="5.12928">
        <ele>300.79998779297</ele>
        <time>2012-06-17T12:08:00.000Z</time>
      </trkpt>
      <trkpt lat="43.93517" lon="5.12915">
        <ele>299.60000610352</ele>
        <time>2012-06-17T12:08:07.000Z</time>
      </trkpt>
      <trkpt lat="43.93509" lon="5.129">
        <ele>298.39999389648</ele>
        <time>2012-06-17T12:08:12.000Z</time>
      </trkpt>
      <trkpt lat="43.93501" lon="5.12888">
        <ele>297.20001220703</ele>
        <time>2012-06-17T12:08:16.000Z</time>
      </trkpt>
      <trkpt lat="43.93492" lon="5.12874">
        <ele>297</ele>
        <time>2012-06-17T12:08:22.000Z</time>
      </trkpt>
      <trkpt lat="43.9349" lon="5.12872">
        <ele>297</ele>
        <time>2012-06-17T12:08:23.000Z</time>
      </trkpt>
      <trkpt lat="43.93485" lon="5.12869">
        <ele>297.60000610352</ele>
        <time>2012-06-17T12:08:26.000Z</time>
      </trkpt>
      <trkpt lat="43.93477" lon="5.12864">
        <ele>298.79998779297</ele>
        <time>2012-06-17T12:08:30.000Z</time>
      </trkpt>
      <trkpt lat="43.93474" lon="5.12864">
        <ele>299.39999389648</ele>
        <time>2012-06-17T12:08:31.000Z</time>
      </trkpt>
      <trkpt lat="43.93466" lon="5.12862">
        <ele>301</ele>
        <time>2012-06-17T12:08:34.000Z</time>
      </trkpt>
      <trkpt lat="43.93464" lon="5.1286">
        <ele>301</ele>
        <time>2012-06-17T12:08:36.000Z</time>
      </trkpt>
      <trkpt lat="43.93463" lon="5.12856">
        <ele>300.39999389648</ele>
        <time>2012-06-17T12:08:39.000Z</time>
      </trkpt>
      <trkpt lat="43.93461" lon="5.12854">
        <ele>300.60000610352</ele>
        <time>2012-06-17T12:08:41.000Z</time>
      </trkpt>
      <trkpt lat="43.93457" lon="5.12849">
        <ele>300.20001220703</ele>
        <time>2012-06-17T12:08:45.000Z</time>
      </trkpt>
      <trkpt lat="43.93457" lon="5.12847">
        <ele>300.20001220703</ele>
        <time>2012-06-17T12:08:46.000Z</time>
      </trkpt>
      <trkpt lat="43.93451" lon="5.12841">
        <ele>300</ele>
        <time>2012-06-17T12:08:52.000Z</time>
      </trkpt>
      <trkpt lat="43.9345" lon="5.12836">
        <ele>299.39999389648</ele>
        <time>2012-06-17T12:08:55.000Z</time>
      </trkpt>
      <trkpt lat="43.93448" lon="5.12832">
        <ele>299</ele>
        <time>2012-06-17T12:08:58.000Z</time>
      </trkpt>
      <trkpt lat="43.93442" lon="5.12822">
        <ele>298.60000610352</ele>
        <time>2012-06-17T12:09:04.000Z</time>
      </trkpt>
      <trkpt lat="43.93438" lon="5.12818">
        <ele>298.60000610352</ele>
        <time>2012-06-17T12:09:08.000Z</time>
      </trkpt>
      <trkpt lat="43.93435" lon="5.12818">
        <ele>299.20001220703</ele>
        <time>2012-06-17T12:09:10.000Z</time>
      </trkpt>
      <trkpt lat="43.93426" lon="5.12817">
        <ele>300.60000610352</ele>
        <time>2012-06-17T12:09:16.000Z</time>
      </trkpt>
      <trkpt lat="43.93418" lon="5.12812">
        <ele>301.20001220703</ele>
        <time>2012-06-17T12:09:22.000Z</time>
      </trkpt>
      <trkpt lat="43.93409" lon="5.12804">
        <ele>299.60000610352</ele>
        <time>2012-06-17T12:09:29.000Z</time>
      </trkpt>
      <trkpt lat="43.93399" lon="5.12798">
        <ele>298.20001220703</ele>
        <time>2012-06-17T12:09:34.000Z</time>
      </trkpt>
      <trkpt lat="43.93389" lon="5.12794">
        <ele>297.20001220703</ele>
        <time>2012-06-17T12:09:39.000Z</time>
      </trkpt>
      <trkpt lat="43.93384" lon="5.12793">
        <ele>296.79998779297</ele>
        <time>2012-06-17T12:09:43.000Z</time>
      </trkpt>
      <trkpt lat="43.93381" lon="5.12793">
        <ele>296.79998779297</ele>
        <time>2012-06-17T12:09:45.000Z</time>
      </trkpt>
      <trkpt lat="43.9337" lon="5.1279">
        <ele>296</ele>
        <time>2012-06-17T12:09:52.000Z</time>
      </trkpt>
      <trkpt lat="43.93366" lon="5.1279">
        <ele>296</ele>
        <time>2012-06-17T12:09:58.000Z</time>
      </trkpt>
      <trkpt lat="43.93357" lon="5.1279">
        <ele>295.79998779297</ele>
        <time>2012-06-17T12:10:14.000Z</time>
      </trkpt>
      <trkpt lat="43.9335" lon="5.12788">
        <ele>295.20001220703</ele>
        <time>2012-06-17T12:10:19.000Z</time>
      </trkpt>
      <trkpt lat="43.93343" lon="5.12786">
        <ele>294.79998779297</ele>
        <time>2012-06-17T12:10:26.000Z</time>
      </trkpt>
      <trkpt lat="43.93337" lon="5.12785">
        <ele>294.20001220703</ele>
        <time>2012-06-17T12:10:32.000Z</time>
      </trkpt>
      <trkpt lat="43.93336" lon="5.12786">
        <ele>294.60000610352</ele>
        <time>2012-06-17T12:10:39.000Z</time>
      </trkpt>
      <trkpt lat="43.93336" lon="5.12787">
        <ele>295</ele>
        <time>2012-06-17T12:10:48.000Z</time>
      </trkpt>
      <trkpt lat="43.93339" lon="5.12787">
        <ele>294.79998779297</ele>
        <time>2012-06-17T12:10:50.000Z</time>
      </trkpt>
      <trkpt lat="43.93341" lon="5.12787">
        <ele>295</ele>
        <time>2012-06-17T12:10:52.000Z</time>
      </trkpt>
      <trkpt lat="43.93343" lon="5.12787">
        <ele>294.79998779297</ele>
        <time>2012-06-17T12:10:53.000Z</time>
      </trkpt>
      <trkpt lat="43.93345" lon="5.12785">
        <ele>294.60000610352</ele>
        <time>2012-06-17T12:10:55.000Z</time>
      </trkpt>
      <trkpt lat="43.9335" lon="5.12782">
        <ele>293.79998779297</ele>
        <time>2012-06-17T12:11:01.000Z</time>
      </trkpt>
      <trkpt lat="43.93355" lon="5.12783">
        <ele>294</ele>
        <time>2012-06-17T12:11:05.000Z</time>
      </trkpt>
      <trkpt lat="43.93358" lon="5.12784">
        <ele>294.39999389648</ele>
        <time>2012-06-17T12:11:07.000Z</time>
      </trkpt>
      <trkpt lat="43.93361" lon="5.12787">
        <ele>295</ele>
        <time>2012-06-17T12:11:10.000Z</time>
      </trkpt>
      <trkpt lat="43.93364" lon="5.12789">
        <ele>295.60000610352</ele>
        <time>2012-06-17T12:11:13.000Z</time>
      </trkpt>
      <trkpt lat="43.93367" lon="5.1279">
        <ele>295.79998779297</ele>
        <time>2012-06-17T12:11:34.000Z</time>
      </trkpt>
      <trkpt lat="43.93368" lon="5.12797">
        <ele>297.79998779297</ele>
        <time>2012-06-17T12:11:39.000Z</time>
      </trkpt>
      <trkpt lat="43.93368" lon="5.12803">
        <ele>299</ele>
        <time>2012-06-17T12:11:43.000Z</time>
      </trkpt>
      <trkpt lat="43.93368" lon="5.12805">
        <ele>299.79998779297</ele>
        <time>2012-06-17T12:11:45.000Z</time>
      </trkpt>
      <trkpt lat="43.93371" lon="5.12819">
        <ele>303</ele>
        <time>2012-06-17T12:11:53.000Z</time>
      </trkpt>
      <trkpt lat="43.93371" lon="5.12821">
        <ele>303.60000610352</ele>
        <time>2012-06-17T12:11:54.000Z</time>
      </trkpt>
      <trkpt lat="43.93373" lon="5.12823">
        <ele>304</ele>
        <time>2012-06-17T12:11:55.000Z</time>
      </trkpt>
      <trkpt lat="43.93374" lon="5.12827">
        <ele>305</ele>
        <time>2012-06-17T12:11:59.000Z</time>
      </trkpt>
      <trkpt lat="43.93374" lon="5.12828">
        <ele>305.20001220703</ele>
        <time>2012-06-17T12:12:00.000Z</time>
      </trkpt>
      <trkpt lat="43.9337" lon="5.1283">
        <ele>305.60000610352</ele>
        <time>2012-06-17T12:12:05.000Z</time>
      </trkpt>
      <trkpt lat="43.93366" lon="5.1283">
        <ele>305.79998779297</ele>
        <time>2012-06-17T12:12:09.000Z</time>
      </trkpt>
      <trkpt lat="43.93361" lon="5.1283">
        <ele>306</ele>
        <time>2012-06-17T12:12:13.000Z</time>
      </trkpt>
      <trkpt lat="43.9336" lon="5.12831">
        <ele>306.20001220703</ele>
        <time>2012-06-17T12:12:15.000Z</time>
      </trkpt>
      <trkpt lat="43.93357" lon="5.12832">
        <ele>306.39999389648</ele>
        <time>2012-06-17T12:12:17.000Z</time>
      </trkpt>
      <trkpt lat="43.93353" lon="5.12836">
        <ele>307.39999389648</ele>
        <time>2012-06-17T12:12:22.000Z</time>
      </trkpt>
      <trkpt lat="43.93349" lon="5.12839">
        <ele>308.20001220703</ele>
        <time>2012-06-17T12:12:26.000Z</time>
      </trkpt>
      <trkpt lat="43.93346" lon="5.12843">
        <ele>308.79998779297</ele>
        <time>2012-06-17T12:12:29.000Z</time>
      </trkpt>
      <trkpt lat="43.93345" lon="5.12843">
        <ele>309</ele>
        <time>2012-06-17T12:12:30.000Z</time>
      </trkpt>
      <trkpt lat="43.93338" lon="5.12842">
        <ele>308.79998779297</ele>
        <time>2012-06-17T12:12:35.000Z</time>
      </trkpt>
      <trkpt lat="43.93333" lon="5.12848">
        <ele>310.20001220703</ele>
        <time>2012-06-17T12:12:41.000Z</time>
      </trkpt>
      <trkpt lat="43.93333" lon="5.1285">
        <ele>310.60000610352</ele>
        <time>2012-06-17T12:12:42.000Z</time>
      </trkpt>
      <trkpt lat="43.93332" lon="5.12855">
        <ele>311.60000610352</ele>
        <time>2012-06-17T12:12:45.000Z</time>
      </trkpt>
      <trkpt lat="43.9333" lon="5.12859">
        <ele>312.20001220703</ele>
        <time>2012-06-17T12:12:48.000Z</time>
      </trkpt>
      <trkpt lat="43.93328" lon="5.1286">
        <ele>312.39999389648</ele>
        <time>2012-06-17T12:12:51.000Z</time>
      </trkpt>
      <trkpt lat="43.93325" lon="5.1286">
        <ele>312.20001220703</ele>
        <time>2012-06-17T12:12:53.000Z</time>
      </trkpt>
      <trkpt lat="43.93321" lon="5.12862">
        <ele>312.39999389648</ele>
        <time>2012-06-17T12:12:58.000Z</time>
      </trkpt>
      <trkpt lat="43.93317" lon="5.12868">
        <ele>313.39999389648</ele>
        <time>2012-06-17T12:13:04.000Z</time>
      </trkpt>
      <trkpt lat="43.93313" lon="5.12872">
        <ele>314.20001220703</ele>
        <time>2012-06-17T12:13:09.000Z</time>
      </trkpt>
      <trkpt lat="43.93309" lon="5.12874">
        <ele>314.39999389648</ele>
        <time>2012-06-17T12:13:14.000Z</time>
      </trkpt>
      <trkpt lat="43.93309" lon="5.12875">
        <ele>314.39999389648</ele>
        <time>2012-06-17T12:13:15.000Z</time>
      </trkpt>
      <trkpt lat="43.93305" lon="5.12877">
        <ele>314.79998779297</ele>
        <time>2012-06-17T12:13:21.000Z</time>
      </trkpt>
      <trkpt lat="43.93302" lon="5.1288">
        <ele>315.20001220703</ele>
        <time>2012-06-17T12:13:26.000Z</time>
      </trkpt>
      <trkpt lat="43.93295" lon="5.12884">
        <ele>315.79998779297</ele>
        <time>2012-06-17T12:13:33.000Z</time>
      </trkpt>
      <trkpt lat="43.93294" lon="5.12893">
        <ele>317.60000610352</ele>
        <time>2012-06-17T12:13:38.000Z</time>
      </trkpt>
      <trkpt lat="43.93292" lon="5.12899">
        <ele>319</ele>
        <time>2012-06-17T12:13:44.000Z</time>
      </trkpt>
      <trkpt lat="43.93294" lon="5.12908">
        <ele>321.20001220703</ele>
        <time>2012-06-17T12:13:50.000Z</time>
      </trkpt>
      <trkpt lat="43.93295" lon="5.1291">
        <ele>321.60000610352</ele>
        <time>2012-06-17T12:13:51.000Z</time>
      </trkpt>
      <trkpt lat="43.93295" lon="5.12911">
        <ele>322</ele>
        <time>2012-06-17T12:13:52.000Z</time>
      </trkpt>
      <trkpt lat="43.93293" lon="5.12917">
        <ele>323</ele>
        <time>2012-06-17T12:13:56.000Z</time>
      </trkpt>
      <trkpt lat="43.93293" lon="5.12924">
        <ele>323.60000610352</ele>
        <time>2012-06-17T12:14:01.000Z</time>
      </trkpt>
      <trkpt lat="43.93293" lon="5.12935">
        <ele>324.39999389648</ele>
        <time>2012-06-17T12:14:06.000Z</time>
      </trkpt>
      <trkpt lat="43.93292" lon="5.12941">
        <ele>324.79998779297</ele>
        <time>2012-06-17T12:14:10.000Z</time>
      </trkpt>
      <trkpt lat="43.93292" lon="5.12945">
        <ele>325.20001220703</ele>
        <time>2012-06-17T12:14:13.000Z</time>
      </trkpt>
      <trkpt lat="43.93295" lon="5.12951">
        <ele>325.79998779297</ele>
        <time>2012-06-17T12:14:16.000Z</time>
      </trkpt>
      <trkpt lat="43.933" lon="5.12959">
        <ele>326.79998779297</ele>
        <time>2012-06-17T12:14:20.000Z</time>
      </trkpt>
      <trkpt lat="43.93301" lon="5.12967">
        <ele>327.39999389648</ele>
        <time>2012-06-17T12:14:23.000Z</time>
      </trkpt>
      <trkpt lat="43.933" lon="5.12972">
        <ele>327.79998779297</ele>
        <time>2012-06-17T12:14:25.000Z</time>
      </trkpt>
      <trkpt lat="43.933" lon="5.12979">
        <ele>328.39999389648</ele>
        <time>2012-06-17T12:14:29.000Z</time>
      </trkpt>
      <trkpt lat="43.93301" lon="5.12986">
        <ele>329</ele>
        <time>2012-06-17T12:14:34.000Z</time>
      </trkpt>
      <trkpt lat="43.933" lon="5.12989">
        <ele>329.20001220703</ele>
        <time>2012-06-17T12:14:36.000Z</time>
      </trkpt>
      <trkpt lat="43.93301" lon="5.12996">
        <ele>329.79998779297</ele>
        <time>2012-06-17T12:14:40.000Z</time>
      </trkpt>
      <trkpt lat="43.933" lon="5.13005">
        <ele>330.20001220703</ele>
        <time>2012-06-17T12:14:45.000Z</time>
      </trkpt>
      <trkpt lat="43.933" lon="5.13006">
        <ele>330.20001220703</ele>
        <time>2012-06-17T12:14:46.000Z</time>
      </trkpt>
      <trkpt lat="43.93304" lon="5.13016">
        <ele>331.20001220703</ele>
        <time>2012-06-17T12:14:52.000Z</time>
      </trkpt>
      <trkpt lat="43.93304" lon="5.1302">
        <ele>331.20001220703</ele>
        <time>2012-06-17T12:14:54.000Z</time>
      </trkpt>
      <trkpt lat="43.93305" lon="5.13026">
        <ele>331.60000610352</ele>
        <time>2012-06-17T12:14:57.000Z</time>
      </trkpt>
      <trkpt lat="43.93307" lon="5.13031">
        <ele>332.20001220703</ele>
        <time>2012-06-17T12:15:00.000Z</time>
      </trkpt>
      <trkpt lat="43.9331" lon="5.13036">
        <ele>332.79998779297</ele>
        <time>2012-06-17T12:15:04.000Z</time>
      </trkpt>
      <trkpt lat="43.93318" lon="5.13041">
        <ele>334.20001220703</ele>
        <time>2012-06-17T12:15:11.000Z</time>
      </trkpt>
      <trkpt lat="43.93318" lon="5.13042">
        <ele>334.20001220703</ele>
        <time>2012-06-17T12:15:12.000Z</time>
      </trkpt>
      <trkpt lat="43.93322" lon="5.13048">
        <ele>335.20001220703</ele>
        <time>2012-06-17T12:15:17.000Z</time>
      </trkpt>
      <trkpt lat="43.93323" lon="5.13051">
        <ele>335.39999389648</ele>
        <time>2012-06-17T12:15:19.000Z</time>
      </trkpt>
      <trkpt lat="43.93327" lon="5.13055">
        <ele>336.20001220703</ele>
        <time>2012-06-17T12:15:23.000Z</time>
      </trkpt>
      <trkpt lat="43.93327" lon="5.13058">
        <ele>336.60000610352</ele>
        <time>2012-06-17T12:15:25.000Z</time>
      </trkpt>
      <trkpt lat="43.9333" lon="5.13061">
        <ele>337</ele>
        <time>2012-06-17T12:15:28.000Z</time>
      </trkpt>
      <trkpt lat="43.93331" lon="5.13063">
        <ele>337.39999389648</ele>
        <time>2012-06-17T12:15:29.000Z</time>
      </trkpt>
      <trkpt lat="43.93332" lon="5.13069">
        <ele>338</ele>
        <time>2012-06-17T12:15:33.000Z</time>
      </trkpt>
      <trkpt lat="43.93334" lon="5.13072">
        <ele>338.39999389648</ele>
        <time>2012-06-17T12:15:35.000Z</time>
      </trkpt>
      <trkpt lat="43.93334" lon="5.13075">
        <ele>338.60000610352</ele>
        <time>2012-06-17T12:15:38.000Z</time>
      </trkpt>
      <trkpt lat="43.93334" lon="5.13076">
        <ele>338.60000610352</ele>
        <time>2012-06-17T12:15:39.000Z</time>
      </trkpt>
      <trkpt lat="43.93334" lon="5.13079">
        <ele>338.79998779297</ele>
        <time>2012-06-17T12:15:41.000Z</time>
      </trkpt>
      <trkpt lat="43.93335" lon="5.13086">
        <ele>339.60000610352</ele>
        <time>2012-06-17T12:15:44.000Z</time>
      </trkpt>
      <trkpt lat="43.93337" lon="5.13091">
        <ele>340.39999389648</ele>
        <time>2012-06-17T12:15:49.000Z</time>
      </trkpt>
      <trkpt lat="43.93338" lon="5.13095">
        <ele>341</ele>
        <time>2012-06-17T12:15:51.000Z</time>
      </trkpt>
      <trkpt lat="43.93338" lon="5.13104">
        <ele>342.20001220703</ele>
        <time>2012-06-17T12:15:56.000Z</time>
      </trkpt>
      <trkpt lat="43.9334" lon="5.13113">
        <ele>343.60000610352</ele>
        <time>2012-06-17T12:16:01.000Z</time>
      </trkpt>
      <trkpt lat="43.93341" lon="5.13116">
        <ele>344</ele>
        <time>2012-06-17T12:16:02.000Z</time>
      </trkpt>
      <trkpt lat="43.93343" lon="5.13126">
        <ele>345.60000610352</ele>
        <time>2012-06-17T12:16:08.000Z</time>
      </trkpt>
      <trkpt lat="43.93343" lon="5.13127">
        <ele>345.79998779297</ele>
        <time>2012-06-17T12:16:09.000Z</time>
      </trkpt>
      <trkpt lat="43.93344" lon="5.13129">
        <ele>346</ele>
        <time>2012-06-17T12:16:10.000Z</time>
      </trkpt>
      <trkpt lat="43.93345" lon="5.13136">
        <ele>347.20001220703</ele>
        <time>2012-06-17T12:16:14.000Z</time>
      </trkpt>
      <trkpt lat="43.93345" lon="5.13137">
        <ele>347.20001220703</ele>
        <time>2012-06-17T12:16:15.000Z</time>
      </trkpt>
      <trkpt lat="43.93343" lon="5.13137">
        <ele>347.20001220703</ele>
        <time>2012-06-17T12:16:16.000Z</time>
      </trkpt>
      <trkpt lat="43.93341" lon="5.13141">
        <ele>347.39999389648</ele>
        <time>2012-06-17T12:16:19.000Z</time>
      </trkpt>
      <trkpt lat="43.9334" lon="5.13152">
        <ele>348.60000610352</ele>
        <time>2012-06-17T12:16:25.000Z</time>
      </trkpt>
      <trkpt lat="43.93339" lon="5.13155">
        <ele>349</ele>
        <time>2012-06-17T12:16:27.000Z</time>
      </trkpt>
      <trkpt lat="43.93338" lon="5.13157">
        <ele>349.20001220703</ele>
        <time>2012-06-17T12:16:32.000Z</time>
      </trkpt>
      <trkpt lat="43.93342" lon="5.13158">
        <ele>349.79998779297</ele>
        <time>2012-06-17T12:16:34.000Z</time>
      </trkpt>
      <trkpt lat="43.9334" lon="5.13169">
        <ele>351</ele>
        <time>2012-06-17T12:16:47.000Z</time>
      </trkpt>
      <trkpt lat="43.93335" lon="5.13163">
        <ele>349.79998779297</ele>
        <time>2012-06-17T12:16:51.000Z</time>
      </trkpt>
      <trkpt lat="43.9333" lon="5.13162">
        <ele>349</ele>
        <time>2012-06-17T12:17:16.000Z</time>
      </trkpt>
      <trkpt lat="43.93334" lon="5.13157">
        <ele>348.79998779297</ele>
        <time>2012-06-17T12:17:21.000Z</time>
      </trkpt>
      <trkpt lat="43.93336" lon="5.13142">
        <ele>347</ele>
        <time>2012-06-17T12:17:30.000Z</time>
      </trkpt>
      <trkpt lat="43.93332" lon="5.13139">
        <ele>346</ele>
        <time>2012-06-17T12:17:34.000Z</time>
      </trkpt>
      <trkpt lat="43.93332" lon="5.13139">
        <ele>346.20001220703</ele>
        <time>2012-06-17T12:17:38.000Z</time>
      </trkpt>
      <trkpt lat="43.93338" lon="5.13143">
        <ele>347.20001220703</ele>
        <time>2012-06-17T12:17:47.000Z</time>
      </trkpt>
      <trkpt lat="43.93338" lon="5.13142">
        <ele>347.20001220703</ele>
        <time>2012-06-17T12:17:48.000Z</time>
      </trkpt>
      <trkpt lat="43.93339" lon="5.13144">
        <ele>347.60000610352</ele>
        <time>2012-06-17T12:17:51.000Z</time>
      </trkpt>
      <trkpt lat="43.93338" lon="5.13139">
        <ele>346.79998779297</ele>
        <time>2012-06-17T12:18:07.000Z</time>
      </trkpt>
      <trkpt lat="43.93334" lon="5.13137">
        <ele>346.20001220703</ele>
        <time>2012-06-17T12:18:15.000Z</time>
      </trkpt>
      <trkpt lat="43.93327" lon="5.13141">
        <ele>345.60000610352</ele>
        <time>2012-06-17T12:18:20.000Z</time>
      </trkpt>
      <trkpt lat="43.93318" lon="5.13144">
        <ele>344.20001220703</ele>
        <time>2012-06-17T12:18:24.000Z</time>
      </trkpt>
      <trkpt lat="43.93308" lon="5.13142">
        <ele>342.20001220703</ele>
        <time>2012-06-17T12:18:29.000Z</time>
      </trkpt>
      <trkpt lat="43.93307" lon="5.13139">
        <ele>341.60000610352</ele>
        <time>2012-06-17T12:18:30.000Z</time>
      </trkpt>
      <trkpt lat="43.93305" lon="5.13131">
        <ele>340.20001220703</ele>
        <time>2012-06-17T12:18:33.000Z</time>
      </trkpt>
      <trkpt lat="43.93305" lon="5.13128">
        <ele>339.79998779297</ele>
        <time>2012-06-17T12:18:34.000Z</time>
      </trkpt>
      <trkpt lat="43.93302" lon="5.13123">
        <ele>338.60000610352</ele>
        <time>2012-06-17T12:18:37.000Z</time>
      </trkpt>
      <trkpt lat="43.933" lon="5.1312">
        <ele>337.79998779297</ele>
        <time>2012-06-17T12:18:39.000Z</time>
      </trkpt>
      <trkpt lat="43.93294" lon="5.13112">
        <ele>335.60000610352</ele>
        <time>2012-06-17T12:18:43.000Z</time>
      </trkpt>
      <trkpt lat="43.93292" lon="5.13102">
        <ele>334</ele>
        <time>2012-06-17T12:18:46.000Z</time>
      </trkpt>
      <trkpt lat="43.9329" lon="5.13096">
        <ele>332.79998779297</ele>
        <time>2012-06-17T12:18:48.000Z</time>
      </trkpt>
      <trkpt lat="43.93284" lon="5.13082">
        <ele>330</ele>
        <time>2012-06-17T12:18:53.000Z</time>
      </trkpt>
      <trkpt lat="43.93277" lon="5.13071">
        <ele>328.60000610352</ele>
        <time>2012-06-17T12:18:57.000Z</time>
      </trkpt>
      <trkpt lat="43.93264" lon="5.13056">
        <ele>326.20001220703</ele>
        <time>2012-06-17T12:19:02.000Z</time>
      </trkpt>
      <trkpt lat="43.93258" lon="5.13048">
        <ele>325.20001220703</ele>
        <time>2012-06-17T12:19:06.000Z</time>
      </trkpt>
      <trkpt lat="43.93254" lon="5.13044">
        <ele>324.60000610352</ele>
        <time>2012-06-17T12:19:08.000Z</time>
      </trkpt>
      <trkpt lat="43.93251" lon="5.13043">
        <ele>324.20001220703</ele>
        <time>2012-06-17T12:19:10.000Z</time>
      </trkpt>
      <trkpt lat="43.93245" lon="5.13044">
        <ele>322.60000610352</ele>
        <time>2012-06-17T12:19:13.000Z</time>
      </trkpt>
      <trkpt lat="43.93242" lon="5.13044">
        <ele>322</ele>
        <time>2012-06-17T12:19:14.000Z</time>
      </trkpt>
      <trkpt lat="43.9324" lon="5.13051">
        <ele>321.20001220703</ele>
        <time>2012-06-17T12:19:18.000Z</time>
      </trkpt>
      <trkpt lat="43.93241" lon="5.13062">
        <ele>321.39999389648</ele>
        <time>2012-06-17T12:19:22.000Z</time>
      </trkpt>
      <trkpt lat="43.93241" lon="5.13065">
        <ele>321.39999389648</ele>
        <time>2012-06-17T12:19:23.000Z</time>
      </trkpt>
      <trkpt lat="43.9324" lon="5.13071">
        <ele>321</ele>
        <time>2012-06-17T12:19:26.000Z</time>
      </trkpt>
      <trkpt lat="43.93239" lon="5.13074">
        <ele>320.79998779297</ele>
        <time>2012-06-17T12:19:27.000Z</time>
      </trkpt>
      <trkpt lat="43.9323" lon="5.13079">
        <ele>318.20001220703</ele>
        <time>2012-06-17T12:19:31.000Z</time>
      </trkpt>
      <trkpt lat="43.9322" lon="5.13078">
        <ele>315.20001220703</ele>
        <time>2012-06-17T12:19:35.000Z</time>
      </trkpt>
      <trkpt lat="43.9321" lon="5.13075">
        <ele>312.39999389648</ele>
        <time>2012-06-17T12:19:40.000Z</time>
      </trkpt>
      <trkpt lat="43.932" lon="5.13077">
        <ele>309.20001220703</ele>
        <time>2012-06-17T12:19:44.000Z</time>
      </trkpt>
      <trkpt lat="43.93192" lon="5.13083">
        <ele>306.79998779297</ele>
        <time>2012-06-17T12:19:49.000Z</time>
      </trkpt>
      <trkpt lat="43.93188" lon="5.13091">
        <ele>306</ele>
        <time>2012-06-17T12:19:53.000Z</time>
      </trkpt>
      <trkpt lat="43.93184" lon="5.13095">
        <ele>305</ele>
        <time>2012-06-17T12:19:56.000Z</time>
      </trkpt>
      <trkpt lat="43.9318" lon="5.131">
        <ele>304.20001220703</ele>
        <time>2012-06-17T12:19:59.000Z</time>
      </trkpt>
      <trkpt lat="43.9318" lon="5.13113">
        <ele>304.60000610352</ele>
        <time>2012-06-17T12:20:03.000Z</time>
      </trkpt>
      <trkpt lat="43.9318" lon="5.13122">
        <ele>305.39999389648</ele>
        <time>2012-06-17T12:20:06.000Z</time>
      </trkpt>
      <trkpt lat="43.93179" lon="5.13124">
        <ele>305.20001220703</ele>
        <time>2012-06-17T12:20:07.000Z</time>
      </trkpt>
      <trkpt lat="43.93178" lon="5.1313">
        <ele>305.20001220703</ele>
        <time>2012-06-17T12:20:09.000Z</time>
      </trkpt>
      <trkpt lat="43.93177" lon="5.13138">
        <ele>305.20001220703</ele>
        <time>2012-06-17T12:20:12.000Z</time>
      </trkpt>
      <trkpt lat="43.93176" lon="5.13149">
        <ele>305.60000610352</ele>
        <time>2012-06-17T12:20:15.000Z</time>
      </trkpt>
      <trkpt lat="43.93176" lon="5.13151">
        <ele>305.39999389648</ele>
        <time>2012-06-17T12:20:16.000Z</time>
      </trkpt>
      <trkpt lat="43.93174" lon="5.13159">
        <ele>305.39999389648</ele>
        <time>2012-06-17T12:20:22.000Z</time>
      </trkpt>
      <trkpt lat="43.93171" lon="5.1317">
        <ele>305.20001220703</ele>
        <time>2012-06-17T12:20:26.000Z</time>
      </trkpt>
      <trkpt lat="43.9317" lon="5.13173">
        <ele>305.39999389648</ele>
        <time>2012-06-17T12:20:27.000Z</time>
      </trkpt>
      <trkpt lat="43.93168" lon="5.13175">
        <ele>305.20001220703</ele>
        <time>2012-06-17T12:20:28.000Z</time>
      </trkpt>
      <trkpt lat="43.93165" lon="5.13177">
        <ele>304.20001220703</ele>
        <time>2012-06-17T12:20:31.000Z</time>
      </trkpt>
      <trkpt lat="43.9316" lon="5.13176">
        <ele>302.39999389648</ele>
        <time>2012-06-17T12:20:36.000Z</time>
      </trkpt>
      <trkpt lat="43.93153" lon="5.13177">
        <ele>300.20001220703</ele>
        <time>2012-06-17T12:20:40.000Z</time>
      </trkpt>
      <trkpt lat="43.93147" lon="5.13179">
        <ele>298.60000610352</ele>
        <time>2012-06-17T12:20:45.000Z</time>
      </trkpt>
      <trkpt lat="43.93146" lon="5.13179">
        <ele>298.39999389648</ele>
        <time>2012-06-17T12:20:46.000Z</time>
      </trkpt>
      <trkpt lat="43.93145" lon="5.13177">
        <ele>297.39999389648</ele>
        <time>2012-06-17T12:20:49.000Z</time>
      </trkpt>
      <trkpt lat="43.93142" lon="5.13178">
        <ele>296.79998779297</ele>
        <time>2012-06-17T12:20:51.000Z</time>
      </trkpt>
      <trkpt lat="43.93137" lon="5.13175">
        <ele>294.60000610352</ele>
        <time>2012-06-17T12:20:54.000Z</time>
      </trkpt>
      <trkpt lat="43.93131" lon="5.13172">
        <ele>291.79998779297</ele>
        <time>2012-06-17T12:20:59.000Z</time>
      </trkpt>
      <trkpt lat="43.93124" lon="5.13168">
        <ele>288.39999389648</ele>
        <time>2012-06-17T12:21:03.000Z</time>
      </trkpt>
      <trkpt lat="43.93121" lon="5.1316">
        <ele>286.39999389648</ele>
        <time>2012-06-17T12:21:07.000Z</time>
      </trkpt>
      <trkpt lat="43.93117" lon="5.13161">
        <ele>285.39999389648</ele>
        <time>2012-06-17T12:21:09.000Z</time>
      </trkpt>
      <trkpt lat="43.93111" lon="5.13164">
        <ele>283.20001220703</ele>
        <time>2012-06-17T12:21:13.000Z</time>
      </trkpt>
      <trkpt lat="43.93107" lon="5.13159">
        <ele>281.39999389648</ele>
        <time>2012-06-17T12:21:17.000Z</time>
      </trkpt>
      <trkpt lat="43.93109" lon="5.13146">
        <ele>281.39999389648</ele>
        <time>2012-06-17T12:21:21.000Z</time>
      </trkpt>
      <trkpt lat="43.93105" lon="5.13144">
        <ele>279.60000610352</ele>
        <time>2012-06-17T12:21:25.000Z</time>
      </trkpt>
      <trkpt lat="43.93099" lon="5.13144">
        <ele>277.60000610352</ele>
        <time>2012-06-17T12:21:30.000Z</time>
      </trkpt>
      <trkpt lat="43.93093" lon="5.1314">
        <ele>275.20001220703</ele>
        <time>2012-06-17T12:21:34.000Z</time>
      </trkpt>
      <trkpt lat="43.93086" lon="5.1314">
        <ele>272.60000610352</ele>
        <time>2012-06-17T12:21:39.000Z</time>
      </trkpt>
      <trkpt lat="43.93081" lon="5.13132">
        <ele>270.20001220703</ele>
        <time>2012-06-17T12:21:43.000Z</time>
      </trkpt>
      <trkpt lat="43.93082" lon="5.13124">
        <ele>269.39999389648</ele>
        <time>2012-06-17T12:21:47.000Z</time>
      </trkpt>
      <trkpt lat="43.93082" lon="5.13122">
        <ele>269.39999389648</ele>
        <time>2012-06-17T12:21:48.000Z</time>
      </trkpt>
      <trkpt lat="43.93083" lon="5.13118">
        <ele>269.20001220703</ele>
        <time>2012-06-17T12:21:50.000Z</time>
      </trkpt>
      <trkpt lat="43.93081" lon="5.13114">
        <ele>268.20001220703</ele>
        <time>2012-06-17T12:21:52.000Z</time>
      </trkpt>
      <trkpt lat="43.93081" lon="5.13114">
        <ele>268</ele>
        <time>2012-06-17T12:21:53.000Z</time>
      </trkpt>
      <trkpt lat="43.93075" lon="5.13115">
        <ele>266.20001220703</ele>
        <time>2012-06-17T12:21:58.000Z</time>
      </trkpt>
      <trkpt lat="43.93069" lon="5.13114">
        <ele>264</ele>
        <time>2012-06-17T12:22:04.000Z</time>
      </trkpt>
      <trkpt lat="43.93068" lon="5.13113">
        <ele>263.60000610352</ele>
        <time>2012-06-17T12:22:06.000Z</time>
      </trkpt>
      <trkpt lat="43.93066" lon="5.13113">
        <ele>262.79998779297</ele>
        <time>2012-06-17T12:22:08.000Z</time>
      </trkpt>
      <trkpt lat="43.93059" lon="5.13114">
        <ele>260.79998779297</ele>
        <time>2012-06-17T12:22:12.000Z</time>
      </trkpt>
      <trkpt lat="43.93051" lon="5.13117">
        <ele>258.60000610352</ele>
        <time>2012-06-17T12:22:18.000Z</time>
      </trkpt>
      <trkpt lat="43.93044" lon="5.13123">
        <ele>257.20001220703</ele>
        <time>2012-06-17T12:22:23.000Z</time>
      </trkpt>
      <trkpt lat="43.93043" lon="5.13126">
        <ele>257.39999389648</ele>
        <time>2012-06-17T12:22:24.000Z</time>
      </trkpt>
      <trkpt lat="43.93039" lon="5.13129">
        <ele>256.60000610352</ele>
        <time>2012-06-17T12:22:27.000Z</time>
      </trkpt>
      <trkpt lat="43.93038" lon="5.1313">
        <ele>256.60000610352</ele>
        <time>2012-06-17T12:22:28.000Z</time>
      </trkpt>
      <trkpt lat="43.93034" lon="5.13134">
        <ele>255.80000305176</ele>
        <time>2012-06-17T12:22:32.000Z</time>
      </trkpt>
      <trkpt lat="43.9303" lon="5.13135">
        <ele>254.80000305176</ele>
        <time>2012-06-17T12:22:36.000Z</time>
      </trkpt>
      <trkpt lat="43.93028" lon="5.13137">
        <ele>254.60000610352</ele>
        <time>2012-06-17T12:22:37.000Z</time>
      </trkpt>
      <trkpt lat="43.93023" lon="5.13137">
        <ele>253</ele>
        <time>2012-06-17T12:22:41.000Z</time>
      </trkpt>
      <trkpt lat="43.93021" lon="5.13137">
        <ele>252.60000610352</ele>
        <time>2012-06-17T12:22:42.000Z</time>
      </trkpt>
      <trkpt lat="43.93018" lon="5.13136">
        <ele>251.39999389648</ele>
        <time>2012-06-17T12:22:45.000Z</time>
      </trkpt>
      <trkpt lat="43.93017" lon="5.13137">
        <ele>251.19999694824</ele>
        <time>2012-06-17T12:22:46.000Z</time>
      </trkpt>
      <trkpt lat="43.93016" lon="5.13138">
        <ele>251.19999694824</ele>
        <time>2012-06-17T12:22:47.000Z</time>
      </trkpt>
      <trkpt lat="43.93013" lon="5.13136">
        <ele>249.80000305176</ele>
        <time>2012-06-17T12:22:50.000Z</time>
      </trkpt>
      <trkpt lat="43.93012" lon="5.13135">
        <ele>249.19999694824</ele>
        <time>2012-06-17T12:22:51.000Z</time>
      </trkpt>
      <trkpt lat="43.93006" lon="5.1313">
        <ele>246.39999389648</ele>
        <time>2012-06-17T12:22:56.000Z</time>
      </trkpt>
      <trkpt lat="43.93002" lon="5.13131">
        <ele>245.19999694824</ele>
        <time>2012-06-17T12:23:00.000Z</time>
      </trkpt>
      <trkpt lat="43.92997" lon="5.13127">
        <ele>243.19999694824</ele>
        <time>2012-06-17T12:23:05.000Z</time>
      </trkpt>
      <trkpt lat="43.92996" lon="5.13126">
        <ele>242.80000305176</ele>
        <time>2012-06-17T12:23:06.000Z</time>
      </trkpt>
      <trkpt lat="43.92994" lon="5.1312">
        <ele>241.19999694824</ele>
        <time>2012-06-17T12:23:09.000Z</time>
      </trkpt>
      <trkpt lat="43.9299" lon="5.13117">
        <ele>239.19999694824</ele>
        <time>2012-06-17T12:23:14.000Z</time>
      </trkpt>
      <trkpt lat="43.92986" lon="5.13109">
        <ele>236.19999694824</ele>
        <time>2012-06-17T12:23:19.000Z</time>
      </trkpt>
      <trkpt lat="43.92986" lon="5.13101">
        <ele>234</ele>
        <time>2012-06-17T12:23:24.000Z</time>
      </trkpt>
      <trkpt lat="43.92984" lon="5.13101">
        <ele>233.60000610352</ele>
        <time>2012-06-17T12:23:25.000Z</time>
      </trkpt>
      <trkpt lat="43.92982" lon="5.131">
        <ele>232.80000305176</ele>
        <time>2012-06-17T12:23:28.000Z</time>
      </trkpt>
      <trkpt lat="43.92981" lon="5.13099">
        <ele>232</ele>
        <time>2012-06-17T12:23:30.000Z</time>
      </trkpt>
      <trkpt lat="43.9298" lon="5.13098">
        <ele>231.60000610352</ele>
        <time>2012-06-17T12:23:32.000Z</time>
      </trkpt>
      <trkpt lat="43.92979" lon="5.13097">
        <ele>231</ele>
        <time>2012-06-17T12:23:33.000Z</time>
      </trkpt>
      <trkpt lat="43.92976" lon="5.13095">
        <ele>229.80000305176</ele>
        <time>2012-06-17T12:23:36.000Z</time>
      </trkpt>
      <trkpt lat="43.92975" lon="5.13094">
        <ele>229.19999694824</ele>
        <time>2012-06-17T12:23:37.000Z</time>
      </trkpt>
      <trkpt lat="43.92975" lon="5.13093">
        <ele>228.80000305176</ele>
        <time>2012-06-17T12:23:38.000Z</time>
      </trkpt>
      <trkpt lat="43.92971" lon="5.1309">
        <ele>226.80000305176</ele>
        <time>2012-06-17T12:23:41.000Z</time>
      </trkpt>
      <trkpt lat="43.92968" lon="5.13087">
        <ele>224.80000305176</ele>
        <time>2012-06-17T12:23:45.000Z</time>
      </trkpt>
      <trkpt lat="43.92967" lon="5.13085">
        <ele>224.19999694824</ele>
        <time>2012-06-17T12:23:46.000Z</time>
      </trkpt>
      <trkpt lat="43.92965" lon="5.13085">
        <ele>223.60000610352</ele>
        <time>2012-06-17T12:23:47.000Z</time>
      </trkpt>
      <trkpt lat="43.9296" lon="5.1308">
        <ele>221.39999389648</ele>
        <time>2012-06-17T12:23:50.000Z</time>
      </trkpt>
      <trkpt lat="43.92959" lon="5.13077">
        <ele>220.80000305176</ele>
        <time>2012-06-17T12:23:51.000Z</time>
      </trkpt>
      <trkpt lat="43.92954" lon="5.13073">
        <ele>219.19999694824</ele>
        <time>2012-06-17T12:23:55.000Z</time>
      </trkpt>
      <trkpt lat="43.92952" lon="5.13074">
        <ele>218.39999389648</ele>
        <time>2012-06-17T12:23:56.000Z</time>
      </trkpt>
      <trkpt lat="43.92946" lon="5.13072">
        <ele>216.60000610352</ele>
        <time>2012-06-17T12:23:59.000Z</time>
      </trkpt>
      <trkpt lat="43.92944" lon="5.1307">
        <ele>215.60000610352</ele>
        <time>2012-06-17T12:24:00.000Z</time>
      </trkpt>
      <trkpt lat="43.92941" lon="5.13069">
        <ele>214.60000610352</ele>
        <time>2012-06-17T12:24:02.000Z</time>
      </trkpt>
      <trkpt lat="43.92936" lon="5.13072">
        <ele>213.19999694824</ele>
        <time>2012-06-17T12:24:05.000Z</time>
      </trkpt>
      <trkpt lat="43.92933" lon="5.13084">
        <ele>213.39999389648</ele>
        <time>2012-06-17T12:24:09.000Z</time>
      </trkpt>
      <trkpt lat="43.92929" lon="5.13091">
        <ele>214.80000305176</ele>
        <time>2012-06-17T12:24:13.000Z</time>
      </trkpt>
      <trkpt lat="43.92923" lon="5.13095">
        <ele>214.60000610352</ele>
        <time>2012-06-17T12:24:16.000Z</time>
      </trkpt>
      <trkpt lat="43.92918" lon="5.13097">
        <ele>213.80000305176</ele>
        <time>2012-06-17T12:24:18.000Z</time>
      </trkpt>
      <trkpt lat="43.92916" lon="5.13094">
        <ele>212</ele>
        <time>2012-06-17T12:24:20.000Z</time>
      </trkpt>
      <trkpt lat="43.92911" lon="5.13092">
        <ele>211.19999694824</ele>
        <time>2012-06-17T12:24:22.000Z</time>
      </trkpt>
      <trkpt lat="43.92902" lon="5.13087">
        <ele>208</ele>
        <time>2012-06-17T12:24:26.000Z</time>
      </trkpt>
      <trkpt lat="43.9289" lon="5.1309">
        <ele>208.19999694824</ele>
        <time>2012-06-17T12:24:32.000Z</time>
      </trkpt>
      <trkpt lat="43.92882" lon="5.13087">
        <ele>206.19999694824</ele>
        <time>2012-06-17T12:24:35.000Z</time>
      </trkpt>
      <trkpt lat="43.9288" lon="5.13086">
        <ele>205.80000305176</ele>
        <time>2012-06-17T12:24:36.000Z</time>
      </trkpt>
      <trkpt lat="43.92872" lon="5.13082">
        <ele>203.60000610352</ele>
        <time>2012-06-17T12:24:39.000Z</time>
      </trkpt>
      <trkpt lat="43.92871" lon="5.13081">
        <ele>203.19999694824</ele>
        <time>2012-06-17T12:24:40.000Z</time>
      </trkpt>
      <trkpt lat="43.9286" lon="5.13078">
        <ele>201.60000610352</ele>
        <time>2012-06-17T12:24:45.000Z</time>
      </trkpt>
      <trkpt lat="43.92851" lon="5.13069">
        <ele>199.19999694824</ele>
        <time>2012-06-17T12:24:50.000Z</time>
      </trkpt>
      <trkpt lat="43.92842" lon="5.13061">
        <ele>196.60000610352</ele>
        <time>2012-06-17T12:24:54.000Z</time>
      </trkpt>
      <trkpt lat="43.92832" lon="5.13057">
        <ele>194.60000610352</ele>
        <time>2012-06-17T12:24:59.000Z</time>
      </trkpt>
      <trkpt lat="43.9283" lon="5.13055">
        <ele>194.19999694824</ele>
        <time>2012-06-17T12:25:00.000Z</time>
      </trkpt>
      <trkpt lat="43.92826" lon="5.13049">
        <ele>192.80000305176</ele>
        <time>2012-06-17T12:25:03.000Z</time>
      </trkpt>
      <trkpt lat="43.92822" lon="5.13044">
        <ele>191.60000610352</ele>
        <time>2012-06-17T12:25:07.000Z</time>
      </trkpt>
      <trkpt lat="43.92819" lon="5.13043">
        <ele>191.60000610352</ele>
        <time>2012-06-17T12:25:08.000Z</time>
      </trkpt>
      <trkpt lat="43.92812" lon="5.13037">
        <ele>190</ele>
        <time>2012-06-17T12:25:11.000Z</time>
      </trkpt>
      <trkpt lat="43.92805" lon="5.13033">
        <ele>188.80000305176</ele>
        <time>2012-06-17T12:25:15.000Z</time>
      </trkpt>
      <trkpt lat="43.92797" lon="5.13029">
        <ele>187.19999694824</ele>
        <time>2012-06-17T12:25:20.000Z</time>
      </trkpt>
      <trkpt lat="43.92788" lon="5.13026">
        <ele>186.19999694824</ele>
        <time>2012-06-17T12:25:24.000Z</time>
      </trkpt>
      <trkpt lat="43.92784" lon="5.13024">
        <ele>185</ele>
        <time>2012-06-17T12:25:26.000Z</time>
      </trkpt>
      <trkpt lat="43.92778" lon="5.13017">
        <ele>182.60000610352</ele>
        <time>2012-06-17T12:25:29.000Z</time>
      </trkpt>
      <trkpt lat="43.92769" lon="5.1301">
        <ele>180</ele>
        <time>2012-06-17T12:25:35.000Z</time>
      </trkpt>
      <trkpt lat="43.92762" lon="5.13002">
        <ele>176.80000305176</ele>
        <time>2012-06-17T12:25:40.000Z</time>
      </trkpt>
      <trkpt lat="43.92754" lon="5.12994">
        <ele>174.39999389648</ele>
        <time>2012-06-17T12:25:45.000Z</time>
      </trkpt>
      <trkpt lat="43.92746" lon="5.12987">
        <ele>172.60000610352</ele>
        <time>2012-06-17T12:25:50.000Z</time>
      </trkpt>
      <trkpt lat="43.92741" lon="5.12975">
        <ele>170.19999694824</ele>
        <time>2012-06-17T12:25:55.000Z</time>
      </trkpt>
      <trkpt lat="43.92745" lon="5.12964">
        <ele>168.39999389648</ele>
        <time>2012-06-17T12:25:59.000Z</time>
      </trkpt>
      <trkpt lat="43.92746" lon="5.12955">
        <ele>167</ele>
        <time>2012-06-17T12:26:02.000Z</time>
      </trkpt>
      <trkpt lat="43.92748" lon="5.12951">
        <ele>166.39999389648</ele>
        <time>2012-06-17T12:26:03.000Z</time>
      </trkpt>
      <trkpt lat="43.9275" lon="5.12934">
        <ele>164</ele>
        <time>2012-06-17T12:26:07.000Z</time>
      </trkpt>
      <trkpt lat="43.92752" lon="5.12931">
        <ele>163.80000305176</ele>
        <time>2012-06-17T12:26:08.000Z</time>
      </trkpt>
      <trkpt lat="43.92752" lon="5.12923">
        <ele>162.60000610352</ele>
        <time>2012-06-17T12:26:11.000Z</time>
      </trkpt>
      <trkpt lat="43.92747" lon="5.12922">
        <ele>161.39999389648</ele>
        <time>2012-06-17T12:26:14.000Z</time>
      </trkpt>
      <trkpt lat="43.92737" lon="5.12919">
        <ele>159.60000610352</ele>
        <time>2012-06-17T12:26:18.000Z</time>
      </trkpt>
      <trkpt lat="43.92735" lon="5.12918">
        <ele>159</ele>
        <time>2012-06-17T12:26:19.000Z</time>
      </trkpt>
      <trkpt lat="43.92721" lon="5.12917">
        <ele>156.80000305176</ele>
        <time>2012-06-17T12:26:24.000Z</time>
      </trkpt>
      <trkpt lat="43.92712" lon="5.12914">
        <ele>155.80000305176</ele>
        <time>2012-06-17T12:26:28.000Z</time>
      </trkpt>
      <trkpt lat="43.92711" lon="5.12913">
        <ele>155.60000610352</ele>
        <time>2012-06-17T12:26:29.000Z</time>
      </trkpt>
      <trkpt lat="43.92701" lon="5.1291">
        <ele>154.60000610352</ele>
        <time>2012-06-17T12:26:35.000Z</time>
      </trkpt>
      <trkpt lat="43.92691" lon="5.12904">
        <ele>153.60000610352</ele>
        <time>2012-06-17T12:26:40.000Z</time>
      </trkpt>
      <trkpt lat="43.92686" lon="5.12901">
        <ele>153</ele>
        <time>2012-06-17T12:26:42.000Z</time>
      </trkpt>
      <trkpt lat="43.92679" lon="5.12894">
        <ele>152.60000610352</ele>
        <time>2012-06-17T12:26:45.000Z</time>
      </trkpt>
      <trkpt lat="43.92669" lon="5.12891">
        <ele>151.19999694824</ele>
        <time>2012-06-17T12:26:49.000Z</time>
      </trkpt>
      <trkpt lat="43.92657" lon="5.12887">
        <ele>149.60000610352</ele>
        <time>2012-06-17T12:26:54.000Z</time>
      </trkpt>
      <trkpt lat="43.92643" lon="5.12885">
        <ele>147.39999389648</ele>
        <time>2012-06-17T12:26:59.000Z</time>
      </trkpt>
      <trkpt lat="43.92629" lon="5.12881">
        <ele>145.39999389648</ele>
        <time>2012-06-17T12:27:04.000Z</time>
      </trkpt>
      <trkpt lat="43.92618" lon="5.12881">
        <ele>143.60000610352</ele>
        <time>2012-06-17T12:27:08.000Z</time>
      </trkpt>
      <trkpt lat="43.92606" lon="5.12876">
        <ele>141.80000305176</ele>
        <time>2012-06-17T12:27:13.000Z</time>
      </trkpt>
      <trkpt lat="43.92594" lon="5.12871">
        <ele>139.80000305176</ele>
        <time>2012-06-17T12:27:18.000Z</time>
      </trkpt>
      <trkpt lat="43.9258" lon="5.1287">
        <ele>137.60000610352</ele>
        <time>2012-06-17T12:27:24.000Z</time>
      </trkpt>
      <trkpt lat="43.92571" lon="5.12873">
        <ele>136.80000305176</ele>
        <time>2012-06-17T12:27:29.000Z</time>
      </trkpt>
      <trkpt lat="43.92555" lon="5.12874">
        <ele>135.19999694824</ele>
        <time>2012-06-17T12:27:35.000Z</time>
      </trkpt>
      <trkpt lat="43.92541" lon="5.12871">
        <ele>133.80000305176</ele>
        <time>2012-06-17T12:27:40.000Z</time>
      </trkpt>
      <trkpt lat="43.92528" lon="5.12867">
        <ele>132.19999694824</ele>
        <time>2012-06-17T12:27:45.000Z</time>
      </trkpt>
      <trkpt lat="43.92516" lon="5.12864">
        <ele>131</ele>
        <time>2012-06-17T12:27:49.000Z</time>
      </trkpt>
      <trkpt lat="43.92504" lon="5.12857">
        <ele>129.19999694824</ele>
        <time>2012-06-17T12:27:54.000Z</time>
      </trkpt>
      <trkpt lat="43.92489" lon="5.12849">
        <ele>126.19999694824</ele>
        <time>2012-06-17T12:28:00.000Z</time>
      </trkpt>
      <trkpt lat="43.92478" lon="5.12844">
        <ele>123.59999847412</ele>
        <time>2012-06-17T12:28:04.000Z</time>
      </trkpt>
      <trkpt lat="43.92464" lon="5.12838">
        <ele>119.80000305176</ele>
        <time>2012-06-17T12:28:10.000Z</time>
      </trkpt>
      <trkpt lat="43.9245" lon="5.12834">
        <ele>116.40000152588</ele>
        <time>2012-06-17T12:28:15.000Z</time>
      </trkpt>
      <trkpt lat="43.92435" lon="5.12841">
        <ele>114.80000305176</ele>
        <time>2012-06-17T12:28:21.000Z</time>
      </trkpt>
      <trkpt lat="43.92423" lon="5.12839">
        <ele>112</ele>
        <time>2012-06-17T12:28:25.000Z</time>
      </trkpt>
      <trkpt lat="43.92408" lon="5.12828">
        <ele>108</ele>
        <time>2012-06-17T12:28:31.000Z</time>
      </trkpt>
      <trkpt lat="43.92394" lon="5.12824">
        <ele>106.19999694824</ele>
        <time>2012-06-17T12:28:36.000Z</time>
      </trkpt>
      <trkpt lat="43.92385" lon="5.12822">
        <ele>105.19999694824</ele>
        <time>2012-06-17T12:28:39.000Z</time>
      </trkpt>
      <trkpt lat="43.92383" lon="5.12822">
        <ele>104.80000305176</ele>
        <time>2012-06-17T12:28:40.000Z</time>
      </trkpt>
      <trkpt lat="43.92371" lon="5.1282">
        <ele>103</ele>
        <time>2012-06-17T12:28:45.000Z</time>
      </trkpt>
      <trkpt lat="43.92358" lon="5.12813">
        <ele>101.19999694824</ele>
        <time>2012-06-17T12:28:50.000Z</time>
      </trkpt>
      <trkpt lat="43.92347" lon="5.12806">
        <ele>99.599998474121</ele>
        <time>2012-06-17T12:28:54.000Z</time>
      </trkpt>
      <trkpt lat="43.92334" lon="5.12799">
        <ele>97.599998474121</ele>
        <time>2012-06-17T12:28:59.000Z</time>
      </trkpt>
      <trkpt lat="43.92322" lon="5.12795">
        <ele>95.599998474121</ele>
        <time>2012-06-17T12:29:03.000Z</time>
      </trkpt>
      <trkpt lat="43.92311" lon="5.12796">
        <ele>93.599998474121</ele>
        <time>2012-06-17T12:29:07.000Z</time>
      </trkpt>
      <trkpt lat="43.92304" lon="5.12797">
        <ele>92.400001525879</ele>
        <time>2012-06-17T12:29:12.000Z</time>
      </trkpt>
      <trkpt lat="43.92298" lon="5.12796">
        <ele>91.400001525879</ele>
        <time>2012-06-17T12:29:16.000Z</time>
      </trkpt>
      <trkpt lat="43.92297" lon="5.12797">
        <ele>91</ele>
        <time>2012-06-17T12:29:17.000Z</time>
      </trkpt>
      <trkpt lat="43.92288" lon="5.12797">
        <ele>89.400001525879</ele>
        <time>2012-06-17T12:29:25.000Z</time>
      </trkpt>
      <trkpt lat="43.92274" lon="5.12796">
        <ele>87.199996948242</ele>
        <time>2012-06-17T12:29:35.000Z</time>
      </trkpt>
      <trkpt lat="43.92263" lon="5.12798">
        <ele>85.199996948242</ele>
        <time>2012-06-17T12:29:42.000Z</time>
      </trkpt>
      <trkpt lat="43.92252" lon="5.12801">
        <ele>83</ele>
        <time>2012-06-17T12:29:51.000Z</time>
      </trkpt>
      <trkpt lat="43.92249" lon="5.12803">
        <ele>82.800003051758</ele>
        <time>2012-06-17T12:29:56.000Z</time>
      </trkpt>
      <trkpt lat="43.92249" lon="5.12807">
        <ele>82.599998474121</ele>
        <time>2012-06-17T12:30:03.000Z</time>
      </trkpt>
      <trkpt lat="43.9225" lon="5.12804">
        <ele>82.800003051758</ele>
        <time>2012-06-17T12:30:32.000Z</time>
      </trkpt>
      <trkpt lat="43.92249" lon="5.12804">
        <ele>82.800003051758</ele>
        <time>2012-06-17T12:30:37.000Z</time>
      </trkpt>
      <trkpt lat="43.92248" lon="5.12805">
        <ele>82.800003051758</ele>
        <time>2012-06-17T12:30:42.000Z</time>
      </trkpt>
      <trkpt lat="43.9224" lon="5.12802">
        <ele>83</ele>
        <time>2012-06-17T12:32:07.000Z</time>
      </trkpt>
      <trkpt lat="43.92232" lon="5.12789">
        <ele>83.199996948242</ele>
        <time>2012-06-17T12:32:16.000Z</time>
      </trkpt>
      <trkpt lat="43.92222" lon="5.12776">
        <ele>83.400001525879</ele>
        <time>2012-06-17T12:32:25.000Z</time>
      </trkpt>
      <trkpt lat="43.92217" lon="5.12772">
        <ele>83.400001525879</ele>
        <time>2012-06-17T12:32:31.000Z</time>
      </trkpt>
      <trkpt lat="43.92208" lon="5.12769">
        <ele>83.199996948242</ele>
        <time>2012-06-17T12:32:37.000Z</time>
      </trkpt>
      <trkpt lat="43.92204" lon="5.12769">
        <ele>83.199996948242</ele>
        <time>2012-06-17T12:32:43.000Z</time>
      </trkpt>
      <trkpt lat="43.92201" lon="5.1277">
        <ele>83.199996948242</ele>
        <time>2012-06-17T12:32:47.000Z</time>
      </trkpt>
      <trkpt lat="43.922" lon="5.12775">
        <ele>83.199996948242</ele>
        <time>2012-06-17T12:32:49.000Z</time>
      </trkpt>
      <trkpt lat="43.92199" lon="5.12787">
        <ele>83.599998474121</ele>
        <time>2012-06-17T12:32:55.000Z</time>
      </trkpt>
      <trkpt lat="43.92198" lon="5.12801">
        <ele>83.800003051758</ele>
        <time>2012-06-17T12:32:59.000Z</time>
      </trkpt>
      <trkpt lat="43.92198" lon="5.12813">
        <ele>84</ele>
        <time>2012-06-17T12:33:03.000Z</time>
      </trkpt>
      <trkpt lat="43.92197" lon="5.1282">
        <ele>84.199996948242</ele>
        <time>2012-06-17T12:33:06.000Z</time>
      </trkpt>
      <trkpt lat="43.92193" lon="5.12827">
        <ele>84.599998474121</ele>
        <time>2012-06-17T12:33:08.000Z</time>
      </trkpt>
      <trkpt lat="43.9218" lon="5.12833">
        <ele>85.400001525879</ele>
        <time>2012-06-17T12:33:12.000Z</time>
      </trkpt>
      <trkpt lat="43.92168" lon="5.12839">
        <ele>86</ele>
        <time>2012-06-17T12:33:16.000Z</time>
      </trkpt>
      <trkpt lat="43.92157" lon="5.1284">
        <ele>87.199996948242</ele>
        <time>2012-06-17T12:33:20.000Z</time>
      </trkpt>
      <trkpt lat="43.92141" lon="5.12843">
        <ele>89.599998474121</ele>
        <time>2012-06-17T12:33:26.000Z</time>
      </trkpt>
      <trkpt lat="43.92123" lon="5.12839">
        <ele>91.599998474121</ele>
        <time>2012-06-17T12:33:32.000Z</time>
      </trkpt>
      <trkpt lat="43.92113" lon="5.12836">
        <ele>92.199996948242</ele>
        <time>2012-06-17T12:33:36.000Z</time>
      </trkpt>
      <trkpt lat="43.92102" lon="5.12827">
        <ele>92.199996948242</ele>
        <time>2012-06-17T12:33:40.000Z</time>
      </trkpt>
      <trkpt lat="43.92089" lon="5.1282">
        <ele>92.800003051758</ele>
        <time>2012-06-17T12:33:45.000Z</time>
      </trkpt>
      <trkpt lat="43.92075" lon="5.12819">
        <ele>94</ele>
        <time>2012-06-17T12:33:50.000Z</time>
      </trkpt>
      <trkpt lat="43.9206" lon="5.12814">
        <ele>94.800003051758</ele>
        <time>2012-06-17T12:33:56.000Z</time>
      </trkpt>
      <trkpt lat="43.92048" lon="5.12812">
        <ele>95.400001525879</ele>
        <time>2012-06-17T12:34:01.000Z</time>
      </trkpt>
      <trkpt lat="43.92032" lon="5.12803">
        <ele>95</ele>
        <time>2012-06-17T12:34:07.000Z</time>
      </trkpt>
      <trkpt lat="43.9202" lon="5.12802">
        <ele>96</ele>
        <time>2012-06-17T12:34:12.000Z</time>
      </trkpt>
      <trkpt lat="43.92005" lon="5.12798">
        <ele>96.199996948242</ele>
        <time>2012-06-17T12:34:18.000Z</time>
      </trkpt>
      <trkpt lat="43.91991" lon="5.12796">
        <ele>97</ele>
        <time>2012-06-17T12:34:23.000Z</time>
      </trkpt>
      <trkpt lat="43.91982" lon="5.12792">
        <ele>97</ele>
        <time>2012-06-17T12:34:27.000Z</time>
      </trkpt>
      <trkpt lat="43.91974" lon="5.12781">
        <ele>95.400001525879</ele>
        <time>2012-06-17T12:34:31.000Z</time>
      </trkpt>
      <trkpt lat="43.91962" lon="5.12774">
        <ele>95</ele>
        <time>2012-06-17T12:34:37.000Z</time>
      </trkpt>
      <trkpt lat="43.91954" lon="5.12766">
        <ele>94.199996948242</ele>
        <time>2012-06-17T12:34:42.000Z</time>
      </trkpt>
      <trkpt lat="43.91947" lon="5.12757">
        <ele>92.800003051758</ele>
        <time>2012-06-17T12:34:48.000Z</time>
      </trkpt>
      <trkpt lat="43.9194" lon="5.12742">
        <ele>91.800003051758</ele>
        <time>2012-06-17T12:34:55.000Z</time>
      </trkpt>
      <trkpt lat="43.91937" lon="5.12739">
        <ele>92</ele>
        <time>2012-06-17T12:34:57.000Z</time>
      </trkpt>
      <trkpt lat="43.9193" lon="5.12735">
        <ele>92.599998474121</ele>
        <time>2012-06-17T12:35:02.000Z</time>
      </trkpt>
      <trkpt lat="43.91923" lon="5.12731">
        <ele>93.199996948242</ele>
        <time>2012-06-17T12:35:08.000Z</time>
      </trkpt>
      <trkpt lat="43.91917" lon="5.12726">
        <ele>93.800003051758</ele>
        <time>2012-06-17T12:35:12.000Z</time>
      </trkpt>
      <trkpt lat="43.91916" lon="5.12724">
        <ele>93.800003051758</ele>
        <time>2012-06-17T12:35:13.000Z</time>
      </trkpt>
      <trkpt lat="43.9191" lon="5.12714">
        <ele>94.400001525879</ele>
        <time>2012-06-17T12:35:19.000Z</time>
      </trkpt>
      <trkpt lat="43.91907" lon="5.12711">
        <ele>94.599998474121</ele>
        <time>2012-06-17T12:35:21.000Z</time>
      </trkpt>
      <trkpt lat="43.919" lon="5.12704">
        <ele>95.199996948242</ele>
        <time>2012-06-17T12:35:27.000Z</time>
      </trkpt>
      <trkpt lat="43.91899" lon="5.12703">
        <ele>95.199996948242</ele>
        <time>2012-06-17T12:35:28.000Z</time>
      </trkpt>
      <trkpt lat="43.91894" lon="5.12694">
        <ele>95.400001525879</ele>
        <time>2012-06-17T12:35:34.000Z</time>
      </trkpt>
      <trkpt lat="43.91893" lon="5.12693">
        <ele>95.400001525879</ele>
        <time>2012-06-17T12:35:35.000Z</time>
      </trkpt>
      <trkpt lat="43.91889" lon="5.12687">
        <ele>95.400001525879</ele>
        <time>2012-06-17T12:35:39.000Z</time>
      </trkpt>
      <trkpt lat="43.9188" lon="5.12684">
        <ele>96.400001525879</ele>
        <time>2012-06-17T12:35:45.000Z</time>
      </trkpt>
      <trkpt lat="43.91879" lon="5.12683">
        <ele>96.400001525879</ele>
        <time>2012-06-17T12:35:46.000Z</time>
      </trkpt>
      <trkpt lat="43.91872" lon="5.12681">
        <ele>97</ele>
        <time>2012-06-17T12:35:51.000Z</time>
      </trkpt>
      <trkpt lat="43.9187" lon="5.1268">
        <ele>97.199996948242</ele>
        <time>2012-06-17T12:35:53.000Z</time>
      </trkpt>
      <trkpt lat="43.91867" lon="5.12675">
        <ele>97.199996948242</ele>
        <time>2012-06-17T12:35:57.000Z</time>
      </trkpt>
      <trkpt lat="43.91866" lon="5.12673">
        <ele>97.199996948242</ele>
        <time>2012-06-17T12:35:58.000Z</time>
      </trkpt>
      <trkpt lat="43.91862" lon="5.12671">
        <ele>97.400001525879</ele>
        <time>2012-06-17T12:36:01.000Z</time>
      </trkpt>
      <trkpt lat="43.91858" lon="5.1267">
        <ele>97.599998474121</ele>
        <time>2012-06-17T12:36:04.000Z</time>
      </trkpt>
      <trkpt lat="43.91847" lon="5.12668">
        <ele>98.599998474121</ele>
        <time>2012-06-17T12:36:11.000Z</time>
      </trkpt>
      <trkpt lat="43.91841" lon="5.12669">
        <ele>99.400001525879</ele>
        <time>2012-06-17T12:36:15.000Z</time>
      </trkpt>
      <trkpt lat="43.91838" lon="5.12669">
        <ele>99.800003051758</ele>
        <time>2012-06-17T12:36:17.000Z</time>
      </trkpt>
      <trkpt lat="43.9183" lon="5.12671">
        <ele>100.59999847412</ele>
        <time>2012-06-17T12:36:23.000Z</time>
      </trkpt>
      <trkpt lat="43.91819" lon="5.12673">
        <ele>101</ele>
        <time>2012-06-17T12:36:30.000Z</time>
      </trkpt>
      <trkpt lat="43.9181" lon="5.12675">
        <ele>101.59999847412</ele>
        <time>2012-06-17T12:36:36.000Z</time>
      </trkpt>
      <trkpt lat="43.91798" lon="5.12676">
        <ele>101.80000305176</ele>
        <time>2012-06-17T12:36:44.000Z</time>
      </trkpt>
      <trkpt lat="43.91785" lon="5.1268">
        <ele>102.59999847412</ele>
        <time>2012-06-17T12:36:52.000Z</time>
      </trkpt>
      <trkpt lat="43.91775" lon="5.12681">
        <ele>103.19999694824</ele>
        <time>2012-06-17T12:36:59.000Z</time>
      </trkpt>
      <trkpt lat="43.91764" lon="5.12683">
        <ele>103.59999847412</ele>
        <time>2012-06-17T12:37:06.000Z</time>
      </trkpt>
      <trkpt lat="43.91754" lon="5.12682">
        <ele>103.80000305176</ele>
        <time>2012-06-17T12:37:12.000Z</time>
      </trkpt>
      <trkpt lat="43.91741" lon="5.12684">
        <ele>104.40000152588</ele>
        <time>2012-06-17T12:37:21.000Z</time>
      </trkpt>
      <trkpt lat="43.9173" lon="5.12685">
        <ele>105</ele>
        <time>2012-06-17T12:37:28.000Z</time>
      </trkpt>
      <trkpt lat="43.91721" lon="5.12685">
        <ele>105.40000152588</ele>
        <time>2012-06-17T12:37:33.000Z</time>
      </trkpt>
      <trkpt lat="43.91708" lon="5.12686">
        <ele>106</ele>
        <time>2012-06-17T12:37:39.000Z</time>
      </trkpt>
      <trkpt lat="43.91695" lon="5.12688">
        <ele>106.80000305176</ele>
        <time>2012-06-17T12:37:45.000Z</time>
      </trkpt>
      <trkpt lat="43.9169" lon="5.12687">
        <ele>106.80000305176</ele>
        <time>2012-06-17T12:37:49.000Z</time>
      </trkpt>
      <trkpt lat="43.91681" lon="5.1269">
        <ele>107.59999847412</ele>
        <time>2012-06-17T12:37:55.000Z</time>
      </trkpt>
      <trkpt lat="43.9168" lon="5.12691">
        <ele>108</ele>
        <time>2012-06-17T12:37:56.000Z</time>
      </trkpt>
      <trkpt lat="43.91673" lon="5.12693">
        <ele>108.59999847412</ele>
        <time>2012-06-17T12:38:00.000Z</time>
      </trkpt>
      <trkpt lat="43.91663" lon="5.12692">
        <ele>108.59999847412</ele>
        <time>2012-06-17T12:38:06.000Z</time>
      </trkpt>
      <trkpt lat="43.91654" lon="5.12694">
        <ele>108.80000305176</ele>
        <time>2012-06-17T12:38:12.000Z</time>
      </trkpt>
      <trkpt lat="43.91643" lon="5.12694">
        <ele>108.59999847412</ele>
        <time>2012-06-17T12:38:17.000Z</time>
      </trkpt>
      <trkpt lat="43.91631" lon="5.12692">
        <ele>108.40000152588</ele>
        <time>2012-06-17T12:38:22.000Z</time>
      </trkpt>
      <trkpt lat="43.91618" lon="5.12696">
        <ele>108.80000305176</ele>
        <time>2012-06-17T12:38:27.000Z</time>
      </trkpt>
      <trkpt lat="43.91608" lon="5.12699">
        <ele>109.19999694824</ele>
        <time>2012-06-17T12:38:32.000Z</time>
      </trkpt>
      <trkpt lat="43.91595" lon="5.12703">
        <ele>109.80000305176</ele>
        <time>2012-06-17T12:38:40.000Z</time>
      </trkpt>
      <trkpt lat="43.9158" lon="5.12709">
        <ele>110.59999847412</ele>
        <time>2012-06-17T12:38:50.000Z</time>
      </trkpt>
      <trkpt lat="43.91572" lon="5.12711">
        <ele>110.80000305176</ele>
        <time>2012-06-17T12:38:56.000Z</time>
      </trkpt>
      <trkpt lat="43.91571" lon="5.12712">
        <ele>111</ele>
        <time>2012-06-17T12:38:57.000Z</time>
      </trkpt>
      <trkpt lat="43.91561" lon="5.12714">
        <ele>111.40000152588</ele>
        <time>2012-06-17T12:39:04.000Z</time>
      </trkpt>
      <trkpt lat="43.91556" lon="5.12714">
        <ele>111.40000152588</ele>
        <time>2012-06-17T12:39:07.000Z</time>
      </trkpt>
      <trkpt lat="43.91552" lon="5.12714">
        <ele>111.40000152588</ele>
        <time>2012-06-17T12:39:10.000Z</time>
      </trkpt>
      <trkpt lat="43.91551" lon="5.12714">
        <ele>111.19999694824</ele>
        <time>2012-06-17T12:39:12.000Z</time>
      </trkpt>
      <trkpt lat="43.91551" lon="5.12713">
        <ele>111.19999694824</ele>
        <time>2012-06-17T12:39:15.000Z</time>
      </trkpt>
      <trkpt lat="43.91544" lon="5.12716">
        <ele>111.59999847412</ele>
        <time>2012-06-17T12:39:26.000Z</time>
      </trkpt>
      <trkpt lat="43.91533" lon="5.12719">
        <ele>112</ele>
        <time>2012-06-17T12:39:33.000Z</time>
      </trkpt>
      <trkpt lat="43.91521" lon="5.12719">
        <ele>112</ele>
        <time>2012-06-17T12:39:41.000Z</time>
      </trkpt>
      <trkpt lat="43.91509" lon="5.12714">
        <ele>111.19999694824</ele>
        <time>2012-06-17T12:39:48.000Z</time>
      </trkpt>
      <trkpt lat="43.91502" lon="5.1271">
        <ele>110.80000305176</ele>
        <time>2012-06-17T12:39:53.000Z</time>
      </trkpt>
      <trkpt lat="43.91492" lon="5.12704">
        <ele>110.19999694824</ele>
        <time>2012-06-17T12:40:00.000Z</time>
      </trkpt>
      <trkpt lat="43.91482" lon="5.12701">
        <ele>110</ele>
        <time>2012-06-17T12:40:07.000Z</time>
      </trkpt>
      <trkpt lat="43.91473" lon="5.12699">
        <ele>110.19999694824</ele>
        <time>2012-06-17T12:40:15.000Z</time>
      </trkpt>
      <trkpt lat="43.91469" lon="5.12697">
        <ele>110</ele>
        <time>2012-06-17T12:40:28.000Z</time>
      </trkpt>
      <trkpt lat="43.91469" lon="5.12698">
        <ele>110.19999694824</ele>
        <time>2012-06-17T12:40:29.000Z</time>
      </trkpt>
      <trkpt lat="43.91467" lon="5.12699">
        <ele>110.40000152588</ele>
        <time>2012-06-17T12:40:36.000Z</time>
      </trkpt>
      <trkpt lat="43.91466" lon="5.12696">
        <ele>110</ele>
        <time>2012-06-17T12:40:46.000Z</time>
      </trkpt>
      <trkpt lat="43.91465" lon="5.12693">
        <ele>109.80000305176</ele>
        <time>2012-06-17T12:40:48.000Z</time>
      </trkpt>
      <trkpt lat="43.91464" lon="5.12693">
        <ele>109.80000305176</ele>
        <time>2012-06-17T12:40:49.000Z</time>
      </trkpt>
      <trkpt lat="43.91461" lon="5.12686">
        <ele>109.19999694824</ele>
        <time>2012-06-17T12:40:54.000Z</time>
      </trkpt>
      <trkpt lat="43.91457" lon="5.12681">
        <ele>109</ele>
        <time>2012-06-17T12:40:59.000Z</time>
      </trkpt>
      <trkpt lat="43.91457" lon="5.1268">
        <ele>108.80000305176</ele>
        <time>2012-06-17T12:41:00.000Z</time>
      </trkpt>
      <trkpt lat="43.91455" lon="5.12678">
        <ele>108.80000305176</ele>
        <time>2012-06-17T12:41:02.000Z</time>
      </trkpt>
      <trkpt lat="43.91453" lon="5.12675">
        <ele>108.59999847412</ele>
        <time>2012-06-17T12:41:05.000Z</time>
      </trkpt>
      <trkpt lat="43.91447" lon="5.12668">
        <ele>108.40000152588</ele>
        <time>2012-06-17T12:41:12.000Z</time>
      </trkpt>
      <trkpt lat="43.91447" lon="5.12673">
        <ele>108.80000305176</ele>
        <time>2012-06-17T12:41:15.000Z</time>
      </trkpt>
      <trkpt lat="43.91449" lon="5.12681">
        <ele>109.40000152588</ele>
        <time>2012-06-17T12:41:20.000Z</time>
      </trkpt>
      <trkpt lat="43.91451" lon="5.12682">
        <ele>109.40000152588</ele>
        <time>2012-06-17T12:41:21.000Z</time>
      </trkpt>
      <trkpt lat="43.91459" lon="5.12689">
        <ele>109.59999847412</ele>
        <time>2012-06-17T12:41:26.000Z</time>
      </trkpt>
      <trkpt lat="43.91466" lon="5.12697">
        <ele>110.19999694824</ele>
        <time>2012-06-17T12:41:33.000Z</time>
      </trkpt>
      <trkpt lat="43.91471" lon="5.12699">
        <ele>110.19999694824</ele>
        <time>2012-06-17T12:41:39.000Z</time>
      </trkpt>
      <trkpt lat="43.91473" lon="5.12699">
        <ele>110.19999694824</ele>
        <time>2012-06-17T12:41:50.000Z</time>
      </trkpt>
      <trkpt lat="43.91468" lon="5.127">
        <ele>110.40000152588</ele>
        <time>2012-06-17T12:42:07.000Z</time>
      </trkpt>
      <trkpt lat="43.91455" lon="5.12692">
        <ele>110</ele>
        <time>2012-06-17T12:42:11.000Z</time>
      </trkpt>
      <trkpt lat="43.91446" lon="5.1268">
        <ele>109.40000152588</ele>
        <time>2012-06-17T12:42:15.000Z</time>
      </trkpt>
      <trkpt lat="43.91443" lon="5.12663">
        <ele>108.59999847412</ele>
        <time>2012-06-17T12:42:19.000Z</time>
      </trkpt>
      <trkpt lat="43.91442" lon="5.1266">
        <ele>108.59999847412</ele>
        <time>2012-06-17T12:42:20.000Z</time>
      </trkpt>
      <trkpt lat="43.9144" lon="5.12654">
        <ele>109</ele>
        <time>2012-06-17T12:42:23.000Z</time>
      </trkpt>
      <trkpt lat="43.91438" lon="5.12651">
        <ele>109.19999694824</ele>
        <time>2012-06-17T12:42:25.000Z</time>
      </trkpt>
      <trkpt lat="43.91438" lon="5.1265">
        <ele>109.19999694824</ele>
        <time>2012-06-17T12:42:26.000Z</time>
      </trkpt>
      <trkpt lat="43.91442" lon="5.12646">
        <ele>109</ele>
        <time>2012-06-17T12:42:28.000Z</time>
      </trkpt>
      <trkpt lat="43.91448" lon="5.12642">
        <ele>108.59999847412</ele>
        <time>2012-06-17T12:42:32.000Z</time>
      </trkpt>
      <trkpt lat="43.91448" lon="5.12642">
        <ele>108.59999847412</ele>
        <time>2012-06-17T12:42:34.000Z</time>
      </trkpt>
      <trkpt lat="43.91446" lon="5.12646">
        <ele>108.80000305176</ele>
        <time>2012-06-17T12:42:40.000Z</time>
      </trkpt>
      <trkpt lat="43.91447" lon="5.12651">
        <ele>108.59999847412</ele>
        <time>2012-06-17T12:42:43.000Z</time>
      </trkpt>
      <trkpt lat="43.91447" lon="5.12655">
        <ele>108.40000152588</ele>
        <time>2012-06-17T12:42:45.000Z</time>
      </trkpt>
      <trkpt lat="43.91449" lon="5.12668">
        <ele>108.19999694824</ele>
        <time>2012-06-17T12:42:49.000Z</time>
      </trkpt>
      <trkpt lat="43.91451" lon="5.1267">
        <ele>108.19999694824</ele>
        <time>2012-06-17T12:42:51.000Z</time>
      </trkpt>
      <trkpt lat="43.91453" lon="5.12672">
        <ele>108.19999694824</ele>
        <time>2012-06-17T12:42:53.000Z</time>
      </trkpt>
      <trkpt lat="43.91458" lon="5.12675">
        <ele>108.40000152588</ele>
        <time>2012-06-17T12:42:59.000Z</time>
      </trkpt>
      <trkpt lat="43.91463" lon="5.12678">
        <ele>108.40000152588</ele>
        <time>2012-06-17T12:43:04.000Z</time>
      </trkpt>
      <trkpt lat="43.91463" lon="5.12677">
        <ele>108.19999694824</ele>
        <time>2012-06-17T12:43:05.000Z</time>
      </trkpt>
      <trkpt lat="43.91466" lon="5.12676">
        <ele>108</ele>
        <time>2012-06-17T12:43:12.000Z</time>
      </trkpt>
      <trkpt lat="43.91465" lon="5.12672">
        <ele>107.59999847412</ele>
        <time>2012-06-17T12:43:20.000Z</time>
      </trkpt>
      <trkpt lat="43.91465" lon="5.1267">
        <ele>107.40000152588</ele>
        <time>2012-06-17T12:43:22.000Z</time>
      </trkpt>
      <trkpt lat="43.91465" lon="5.12665">
        <ele>107.19999694824</ele>
        <time>2012-06-17T12:43:26.000Z</time>
      </trkpt>
      <trkpt lat="43.91465" lon="5.12662">
        <ele>107.19999694824</ele>
        <time>2012-06-17T12:43:31.000Z</time>
      </trkpt>
      <trkpt lat="43.91462" lon="5.12658">
        <ele>107.40000152588</ele>
        <time>2012-06-17T12:43:36.000Z</time>
      </trkpt>
      <trkpt lat="43.91466" lon="5.12655">
        <ele>107.19999694824</ele>
        <time>2012-06-17T12:43:40.000Z</time>
      </trkpt>
      <trkpt lat="43.91475" lon="5.1265">
        <ele>106.59999847412</ele>
        <time>2012-06-17T12:43:49.000Z</time>
      </trkpt>
      <trkpt lat="43.91476" lon="5.1265">
        <ele>106.59999847412</ele>
        <time>2012-06-17T12:43:50.000Z</time>
      </trkpt>
      <trkpt lat="43.91478" lon="5.12649">
        <ele>106.40000152588</ele>
        <time>2012-06-17T12:43:53.000Z</time>
      </trkpt>
      <trkpt lat="43.9148" lon="5.12648">
        <ele>106.40000152588</ele>
        <time>2012-06-17T12:43:54.000Z</time>
      </trkpt>
      <trkpt lat="43.91484" lon="5.12646">
        <ele>106.19999694824</ele>
        <time>2012-06-17T12:43:58.000Z</time>
      </trkpt>
      <trkpt lat="43.91486" lon="5.12644">
        <ele>106</ele>
        <time>2012-06-17T12:44:00.000Z</time>
      </trkpt>
      <trkpt lat="43.91489" lon="5.12642">
        <ele>105.80000305176</ele>
        <time>2012-06-17T12:44:04.000Z</time>
      </trkpt>
      <trkpt lat="43.91491" lon="5.12639">
        <ele>105.59999847412</ele>
        <time>2012-06-17T12:44:06.000Z</time>
      </trkpt>
      <trkpt lat="43.91502" lon="5.12634">
        <ele>105</ele>
        <time>2012-06-17T12:44:15.000Z</time>
      </trkpt>
      <trkpt lat="43.91502" lon="5.12635">
        <ele>105</ele>
        <time>2012-06-17T12:44:16.000Z</time>
      </trkpt>
      <trkpt lat="43.91504" lon="5.12634">
        <ele>105</ele>
        <time>2012-06-17T12:44:20.000Z</time>
      </trkpt>
      <trkpt lat="43.91509" lon="5.12629">
        <ele>104.80000305176</ele>
        <time>2012-06-17T12:44:31.000Z</time>
      </trkpt>
      <trkpt lat="43.91514" lon="5.12627">
        <ele>104.80000305176</ele>
        <time>2012-06-17T12:44:37.000Z</time>
      </trkpt>
      <trkpt lat="43.91518" lon="5.12627">
        <ele>104.59999847412</ele>
        <time>2012-06-17T12:44:43.000Z</time>
      </trkpt>
      <trkpt lat="43.91521" lon="5.12625">
        <ele>104.59999847412</ele>
        <time>2012-06-17T12:44:48.000Z</time>
      </trkpt>
      <trkpt lat="43.91521" lon="5.12626">
        <ele>104.59999847412</ele>
        <time>2012-06-17T12:45:02.000Z</time>
      </trkpt>
      <trkpt lat="43.91519" lon="5.12626">
        <ele>104.59999847412</ele>
        <time>2012-06-17T12:45:06.000Z</time>
      </trkpt>
      <trkpt lat="43.91518" lon="5.12628">
        <ele>104.59999847412</ele>
        <time>2012-06-17T12:45:10.000Z</time>
      </trkpt>
      <trkpt lat="43.91516" lon="5.1263">
        <ele>104.80000305176</ele>
        <time>2012-06-17T12:45:16.000Z</time>
      </trkpt>
      <trkpt lat="43.91515" lon="5.12635">
        <ele>104.80000305176</ele>
        <time>2012-06-17T12:45:21.000Z</time>
      </trkpt>
      <trkpt lat="43.91516" lon="5.12642">
        <ele>104.80000305176</ele>
        <time>2012-06-17T12:45:27.000Z</time>
      </trkpt>
      <trkpt lat="43.91516" lon="5.12643">
        <ele>104.80000305176</ele>
        <time>2012-06-17T12:45:31.000Z</time>
      </trkpt>
      <trkpt lat="43.91508" lon="5.12641">
        <ele>104.80000305176</ele>
        <time>2012-06-17T12:45:37.000Z</time>
      </trkpt>
      <trkpt lat="43.91501" lon="5.12643">
        <ele>105</ele>
        <time>2012-06-17T12:45:43.000Z</time>
      </trkpt>
      <trkpt lat="43.91494" lon="5.12645">
        <ele>105.40000152588</ele>
        <time>2012-06-17T12:45:50.000Z</time>
      </trkpt>
      <trkpt lat="43.91493" lon="5.12646">
        <ele>105.40000152588</ele>
        <time>2012-06-17T12:45:51.000Z</time>
      </trkpt>
      <trkpt lat="43.91492" lon="5.12654">
        <ele>105.40000152588</ele>
        <time>2012-06-17T12:45:56.000Z</time>
      </trkpt>
      <trkpt lat="43.91484" lon="5.12658">
        <ele>106</ele>
        <time>2012-06-17T12:46:02.000Z</time>
      </trkpt>
      <trkpt lat="43.91478" lon="5.12658">
        <ele>106.40000152588</ele>
        <time>2012-06-17T12:46:07.000Z</time>
      </trkpt>
      <trkpt lat="43.91475" lon="5.12657">
        <ele>106.59999847412</ele>
        <time>2012-06-17T12:46:13.000Z</time>
      </trkpt>
      <trkpt lat="43.91471" lon="5.12659">
        <ele>106.80000305176</ele>
        <time>2012-06-17T12:46:21.000Z</time>
      </trkpt>
      <trkpt lat="43.91466" lon="5.12664">
        <ele>107</ele>
        <time>2012-06-17T12:46:28.000Z</time>
      </trkpt>
      <trkpt lat="43.91466" lon="5.12667">
        <ele>107</ele>
        <time>2012-06-17T12:46:37.000Z</time>
      </trkpt>
      <trkpt lat="43.91469" lon="5.12673">
        <ele>107.40000152588</ele>
        <time>2012-06-17T12:46:58.000Z</time>
      </trkpt>
      <trkpt lat="43.91473" lon="5.12672">
        <ele>107.19999694824</ele>
        <time>2012-06-17T12:47:16.000Z</time>
      </trkpt>
      <trkpt lat="43.91479" lon="5.1267">
        <ele>106.59999847412</ele>
        <time>2012-06-17T12:47:21.000Z</time>
      </trkpt>
      <trkpt lat="43.91481" lon="5.12672">
        <ele>106.80000305176</ele>
        <time>2012-06-17T12:47:23.000Z</time>
      </trkpt>
      <trkpt lat="43.91489" lon="5.12675">
        <ele>106.59999847412</ele>
        <time>2012-06-17T12:47:29.000Z</time>
      </trkpt>
      <trkpt lat="43.91492" lon="5.12677">
        <ele>106.80000305176</ele>
        <time>2012-06-17T12:47:32.000Z</time>
      </trkpt>
      <trkpt lat="43.91493" lon="5.12677">
        <ele>106.59999847412</ele>
        <time>2012-06-17T12:47:33.000Z</time>
      </trkpt>
      <trkpt lat="43.91494" lon="5.12677">
        <ele>106.59999847412</ele>
        <time>2012-06-17T12:47:34.000Z</time>
      </trkpt>
      <trkpt lat="43.91501" lon="5.12677">
        <ele>106.40000152588</ele>
        <time>2012-06-17T12:47:39.000Z</time>
      </trkpt>
      <trkpt lat="43.91511" lon="5.12677">
        <ele>106.19999694824</ele>
        <time>2012-06-17T12:47:46.000Z</time>
      </trkpt>
      <trkpt lat="43.9152" lon="5.12678">
        <ele>106.19999694824</ele>
        <time>2012-06-17T12:47:52.000Z</time>
      </trkpt>
      <trkpt lat="43.91531" lon="5.12677">
        <ele>106</ele>
        <time>2012-06-17T12:48:00.000Z</time>
      </trkpt>
      <trkpt lat="43.91538" lon="5.12675">
        <ele>105.80000305176</ele>
        <time>2012-06-17T12:48:05.000Z</time>
      </trkpt>
      <trkpt lat="43.91538" lon="5.12674">
        <ele>105.59999847412</ele>
        <time>2012-06-17T12:48:06.000Z</time>
      </trkpt>
      <trkpt lat="43.91537" lon="5.12667">
        <ele>104.59999847412</ele>
        <time>2012-06-17T12:48:09.000Z</time>
      </trkpt>
      <trkpt lat="43.91537" lon="5.12665">
        <ele>104.59999847412</ele>
        <time>2012-06-17T12:48:10.000Z</time>
      </trkpt>
      <trkpt lat="43.91538" lon="5.12659">
        <ele>104.40000152588</ele>
        <time>2012-06-17T12:48:12.000Z</time>
      </trkpt>
      <trkpt lat="43.91541" lon="5.12658">
        <ele>104.40000152588</ele>
        <time>2012-06-17T12:48:14.000Z</time>
      </trkpt>
      <trkpt lat="43.91551" lon="5.1265">
        <ele>104.19999694824</ele>
        <time>2012-06-17T12:48:22.000Z</time>
      </trkpt>
      <trkpt lat="43.91562" lon="5.12645">
        <ele>104</ele>
        <time>2012-06-17T12:48:31.000Z</time>
      </trkpt>
      <trkpt lat="43.91566" lon="5.12644">
        <ele>104</ele>
        <time>2012-06-17T12:48:34.000Z</time>
      </trkpt>
      <trkpt lat="43.91567" lon="5.12649">
        <ele>104</ele>
        <time>2012-06-17T12:48:36.000Z</time>
      </trkpt>
      <trkpt lat="43.91567" lon="5.12652">
        <ele>104</ele>
        <time>2012-06-17T12:48:38.000Z</time>
      </trkpt>
      <trkpt lat="43.91568" lon="5.12655">
        <ele>104</ele>
        <time>2012-06-17T12:48:40.000Z</time>
      </trkpt>
      <trkpt lat="43.91569" lon="5.12659">
        <ele>104</ele>
        <time>2012-06-17T12:48:42.000Z</time>
      </trkpt>
      <trkpt lat="43.91569" lon="5.12668">
        <ele>104.40000152588</ele>
        <time>2012-06-17T12:48:49.000Z</time>
      </trkpt>
      <trkpt lat="43.91568" lon="5.12678">
        <ele>106</ele>
        <time>2012-06-17T12:48:56.000Z</time>
      </trkpt>
      <trkpt lat="43.91573" lon="5.12687">
        <ele>107.19999694824</ele>
        <time>2012-06-17T12:49:01.000Z</time>
      </trkpt>
      <trkpt lat="43.91574" lon="5.12693">
        <ele>108.19999694824</ele>
        <time>2012-06-17T12:49:04.000Z</time>
      </trkpt>
      <trkpt lat="43.91576" lon="5.12697">
        <ele>108.80000305176</ele>
        <time>2012-06-17T12:49:08.000Z</time>
      </trkpt>
      <trkpt lat="43.91577" lon="5.12702">
        <ele>109.40000152588</ele>
        <time>2012-06-17T12:49:13.000Z</time>
      </trkpt>
      <trkpt lat="43.91579" lon="5.12707">
        <ele>110.19999694824</ele>
        <time>2012-06-17T12:49:18.000Z</time>
      </trkpt>
      <trkpt lat="43.9158" lon="5.12707">
        <ele>110.19999694824</ele>
        <time>2012-06-17T12:49:19.000Z</time>
      </trkpt>
      <trkpt lat="43.91586" lon="5.12704">
        <ele>109.80000305176</ele>
        <time>2012-06-17T12:49:23.000Z</time>
      </trkpt>
      <trkpt lat="43.91596" lon="5.12703">
        <ele>109.80000305176</ele>
        <time>2012-06-17T12:49:30.000Z</time>
      </trkpt>
      <trkpt lat="43.91604" lon="5.12702">
        <ele>109.59999847412</ele>
        <time>2012-06-17T12:49:36.000Z</time>
      </trkpt>
      <trkpt lat="43.91615" lon="5.12698">
        <ele>109.19999694824</ele>
        <time>2012-06-17T12:49:43.000Z</time>
      </trkpt>
      <trkpt lat="43.91623" lon="5.12698">
        <ele>109.19999694824</ele>
        <time>2012-06-17T12:49:48.000Z</time>
      </trkpt>
      <trkpt lat="43.91632" lon="5.12699">
        <ele>109.40000152588</ele>
        <time>2012-06-17T12:49:54.000Z</time>
      </trkpt>
      <trkpt lat="43.91644" lon="5.127">
        <ele>109.59999847412</ele>
        <time>2012-06-17T12:50:01.000Z</time>
      </trkpt>
      <trkpt lat="43.91655" lon="5.12696">
        <ele>109.19999694824</ele>
        <time>2012-06-17T12:50:06.000Z</time>
      </trkpt>
      <trkpt lat="43.91663" lon="5.12694">
        <ele>109</ele>
        <time>2012-06-17T12:50:10.000Z</time>
      </trkpt>
      <trkpt lat="43.91673" lon="5.12691">
        <ele>108.19999694824</ele>
        <time>2012-06-17T12:50:14.000Z</time>
      </trkpt>
      <trkpt lat="43.91689" lon="5.12687">
        <ele>107</ele>
        <time>2012-06-17T12:50:20.000Z</time>
      </trkpt>
      <trkpt lat="43.91703" lon="5.12683">
        <ele>105.59999847412</ele>
        <time>2012-06-17T12:50:25.000Z</time>
      </trkpt>
      <trkpt lat="43.91717" lon="5.12679">
        <ele>104.40000152588</ele>
        <time>2012-06-17T12:50:30.000Z</time>
      </trkpt>
      <trkpt lat="43.91733" lon="5.12676">
        <ele>103.19999694824</ele>
        <time>2012-06-17T12:50:36.000Z</time>
      </trkpt>
      <trkpt lat="43.91745" lon="5.12674">
        <ele>102.59999847412</ele>
        <time>2012-06-17T12:50:41.000Z</time>
      </trkpt>
      <trkpt lat="43.91759" lon="5.12671">
        <ele>101.59999847412</ele>
        <time>2012-06-17T12:50:46.000Z</time>
      </trkpt>
      <trkpt lat="43.91779" lon="5.1267">
        <ele>101.19999694824</ele>
        <time>2012-06-17T12:50:53.000Z</time>
      </trkpt>
      <trkpt lat="43.91796" lon="5.12667">
        <ele>100.59999847412</ele>
        <time>2012-06-17T12:50:59.000Z</time>
      </trkpt>
      <trkpt lat="43.91815" lon="5.12663">
        <ele>99.800003051758</ele>
        <time>2012-06-17T12:51:06.000Z</time>
      </trkpt>
      <trkpt lat="43.91831" lon="5.1266">
        <ele>99.400001525879</ele>
        <time>2012-06-17T12:51:12.000Z</time>
      </trkpt>
      <trkpt lat="43.91843" lon="5.12658">
        <ele>98</ele>
        <time>2012-06-17T12:51:17.000Z</time>
      </trkpt>
      <trkpt lat="43.91851" lon="5.1266">
        <ele>97.599998474121</ele>
        <time>2012-06-17T12:51:23.000Z</time>
      </trkpt>
      <trkpt lat="43.91856" lon="5.12667">
        <ele>97.599998474121</ele>
        <time>2012-06-17T12:51:27.000Z</time>
      </trkpt>
      <trkpt lat="43.91858" lon="5.12668">
        <ele>97.400001525879</ele>
        <time>2012-06-17T12:51:28.000Z</time>
      </trkpt>
      <trkpt lat="43.91875" lon="5.12665">
        <ele>95.400001525879</ele>
        <time>2012-06-17T12:51:34.000Z</time>
      </trkpt>
      <trkpt lat="43.91878" lon="5.12663">
        <ele>94.800003051758</ele>
        <time>2012-06-17T12:51:35.000Z</time>
      </trkpt>
      <trkpt lat="43.91881" lon="5.12657">
        <ele>94.199996948242</ele>
        <time>2012-06-17T12:51:37.000Z</time>
      </trkpt>
      <trkpt lat="43.91883" lon="5.12641">
        <ele>92.599998474121</ele>
        <time>2012-06-17T12:51:42.000Z</time>
      </trkpt>
      <trkpt lat="43.91878" lon="5.12622">
        <ele>91.599998474121</ele>
        <time>2012-06-17T12:51:48.000Z</time>
      </trkpt>
      <trkpt lat="43.91867" lon="5.12612">
        <ele>91.400001525879</ele>
        <time>2012-06-17T12:51:53.000Z</time>
      </trkpt>
      <trkpt lat="43.91853" lon="5.1261">
        <ele>92.400001525879</ele>
        <time>2012-06-17T12:51:58.000Z</time>
      </trkpt>
      <trkpt lat="43.91838" lon="5.12604">
        <ele>93</ele>
        <time>2012-06-17T12:52:04.000Z</time>
      </trkpt>
      <trkpt lat="43.91829" lon="5.12594">
        <ele>92.199996948242</ele>
        <time>2012-06-17T12:52:08.000Z</time>
      </trkpt>
      <trkpt lat="43.91825" lon="5.12577">
        <ele>91</ele>
        <time>2012-06-17T12:52:13.000Z</time>
      </trkpt>
      <trkpt lat="43.91825" lon="5.12556">
        <ele>91</ele>
        <time>2012-06-17T12:52:18.000Z</time>
      </trkpt>
      <trkpt lat="43.91833" lon="5.12543">
        <ele>90.599998474121</ele>
        <time>2012-06-17T12:52:22.000Z</time>
      </trkpt>
      <trkpt lat="43.91845" lon="5.12533">
        <ele>90.199996948242</ele>
        <time>2012-06-17T12:52:27.000Z</time>
      </trkpt>
      <trkpt lat="43.9186" lon="5.1253">
        <ele>89.800003051758</ele>
        <time>2012-06-17T12:52:32.000Z</time>
      </trkpt>
      <trkpt lat="43.91876" lon="5.12533">
        <ele>89.400001525879</ele>
        <time>2012-06-17T12:52:37.000Z</time>
      </trkpt>
      <trkpt lat="43.91891" lon="5.1254">
        <ele>88.800003051758</ele>
        <time>2012-06-17T12:52:42.000Z</time>
      </trkpt>
      <trkpt lat="43.91904" lon="5.12549">
        <ele>88.199996948242</ele>
        <time>2012-06-17T12:52:47.000Z</time>
      </trkpt>
      <trkpt lat="43.91923" lon="5.1256">
        <ele>86.599998474121</ele>
        <time>2012-06-17T12:52:54.000Z</time>
      </trkpt>
      <trkpt lat="43.91934" lon="5.12567">
        <ele>85.599998474121</ele>
        <time>2012-06-17T12:52:58.000Z</time>
      </trkpt>
      <trkpt lat="43.91945" lon="5.12574">
        <ele>84.400001525879</ele>
        <time>2012-06-17T12:53:03.000Z</time>
      </trkpt>
      <trkpt lat="43.91957" lon="5.12577">
        <ele>83.400001525879</ele>
        <time>2012-06-17T12:53:08.000Z</time>
      </trkpt>
      <trkpt lat="43.91959" lon="5.12574">
        <ele>83.400001525879</ele>
        <time>2012-06-17T12:53:09.000Z</time>
      </trkpt>
      <trkpt lat="43.91963" lon="5.12564">
        <ele>83.800003051758</ele>
        <time>2012-06-17T12:53:12.000Z</time>
      </trkpt>
      <trkpt lat="43.91964" lon="5.12561">
        <ele>83.800003051758</ele>
        <time>2012-06-17T12:53:13.000Z</time>
      </trkpt>
      <trkpt lat="43.91972" lon="5.12545">
        <ele>84.199996948242</ele>
        <time>2012-06-17T12:53:19.000Z</time>
      </trkpt>
      <trkpt lat="43.91982" lon="5.1253">
        <ele>84.400001525879</ele>
        <time>2012-06-17T12:53:25.000Z</time>
      </trkpt>
      <trkpt lat="43.9199" lon="5.12517">
        <ele>84.599998474121</ele>
        <time>2012-06-17T12:53:30.000Z</time>
      </trkpt>
      <trkpt lat="43.91996" lon="5.12508">
        <ele>84.800003051758</ele>
        <time>2012-06-17T12:53:34.000Z</time>
      </trkpt>
      <trkpt lat="43.92006" lon="5.12497">
        <ele>85.199996948242</ele>
        <time>2012-06-17T12:53:39.000Z</time>
      </trkpt>
      <trkpt lat="43.92014" lon="5.12482">
        <ele>85.800003051758</ele>
        <time>2012-06-17T12:53:44.000Z</time>
      </trkpt>
      <trkpt lat="43.92021" lon="5.12461">
        <ele>86.400001525879</ele>
        <time>2012-06-17T12:53:51.000Z</time>
      </trkpt>
      <trkpt lat="43.92026" lon="5.12443">
        <ele>86.599998474121</ele>
        <time>2012-06-17T12:53:57.000Z</time>
      </trkpt>
      <trkpt lat="43.92026" lon="5.12421">
        <ele>87.400001525879</ele>
        <time>2012-06-17T12:54:03.000Z</time>
      </trkpt>
      <trkpt lat="43.92023" lon="5.12401">
        <ele>87.199996948242</ele>
        <time>2012-06-17T12:54:09.000Z</time>
      </trkpt>
      <trkpt lat="43.92028" lon="5.1239">
        <ele>86</ele>
        <time>2012-06-17T12:54:13.000Z</time>
      </trkpt>
      <trkpt lat="43.92041" lon="5.12379">
        <ele>84</ele>
        <time>2012-06-17T12:54:18.000Z</time>
      </trkpt>
      <trkpt lat="43.92053" lon="5.12372">
        <ele>82.400001525879</ele>
        <time>2012-06-17T12:54:23.000Z</time>
      </trkpt>
      <trkpt lat="43.9206" lon="5.12363">
        <ele>81.599998474121</ele>
        <time>2012-06-17T12:54:27.000Z</time>
      </trkpt>
      <trkpt lat="43.9206" lon="5.12359">
        <ele>81.400001525879</ele>
        <time>2012-06-17T12:54:28.000Z</time>
      </trkpt>
      <trkpt lat="43.92055" lon="5.12352">
        <ele>81.599998474121</ele>
        <time>2012-06-17T12:54:30.000Z</time>
      </trkpt>
      <trkpt lat="43.92053" lon="5.12344">
        <ele>81.599998474121</ele>
        <time>2012-06-17T12:54:32.000Z</time>
      </trkpt>
      <trkpt lat="43.92048" lon="5.12336">
        <ele>81.599998474121</ele>
        <time>2012-06-17T12:54:35.000Z</time>
      </trkpt>
      <trkpt lat="43.92042" lon="5.12317">
        <ele>81.400001525879</ele>
        <time>2012-06-17T12:54:41.000Z</time>
      </trkpt>
      <trkpt lat="43.9204" lon="5.1231">
        <ele>81.199996948242</ele>
        <time>2012-06-17T12:54:44.000Z</time>
      </trkpt>
      <trkpt lat="43.92038" lon="5.12304">
        <ele>81.199996948242</ele>
        <time>2012-06-17T12:54:46.000Z</time>
      </trkpt>
      <trkpt lat="43.92036" lon="5.12292">
        <ele>80.800003051758</ele>
        <time>2012-06-17T12:54:51.000Z</time>
      </trkpt>
      <trkpt lat="43.92037" lon="5.12289">
        <ele>80.599998474121</ele>
        <time>2012-06-17T12:54:53.000Z</time>
      </trkpt>
      <trkpt lat="43.92037" lon="5.12286">
        <ele>80.400001525879</ele>
        <time>2012-06-17T12:54:56.000Z</time>
      </trkpt>
      <trkpt lat="43.92034" lon="5.12282">
        <ele>80.400001525879</ele>
        <time>2012-06-17T12:55:08.000Z</time>
      </trkpt>
      <trkpt lat="43.92033" lon="5.12279">
        <ele>80.199996948242</ele>
        <time>2012-06-17T12:55:14.000Z</time>
      </trkpt>
      <trkpt lat="43.92029" lon="5.12279">
        <ele>80.400001525879</ele>
        <time>2012-06-17T12:55:41.000Z</time>
      </trkpt>
      <trkpt lat="43.92032" lon="5.12277">
        <ele>80.199996948242</ele>
        <time>2012-06-17T12:55:44.000Z</time>
      </trkpt>
      <trkpt lat="43.92032" lon="5.12278">
        <ele>80.199996948242</ele>
        <time>2012-06-17T12:55:48.000Z</time>
      </trkpt>
      <trkpt lat="43.9203" lon="5.12273">
        <ele>80</ele>
        <time>2012-06-17T12:56:19.000Z</time>
      </trkpt>
      <trkpt lat="43.92027" lon="5.12274">
        <ele>80.199996948242</ele>
        <time>2012-06-17T12:57:08.000Z</time>
      </trkpt>
      <trkpt lat="43.9203" lon="5.12265">
        <ele>79.800003051758</ele>
        <time>2012-06-17T12:57:37.000Z</time>
      </trkpt>
      <trkpt lat="43.92032" lon="5.12266">
        <ele>79.800003051758</ele>
        <time>2012-06-17T12:57:39.000Z</time>
      </trkpt>
      <trkpt lat="43.92032" lon="5.12265">
        <ele>79.599998474121</ele>
        <time>2012-06-17T12:57:42.000Z</time>
      </trkpt>
      <trkpt lat="43.92034" lon="5.12262">
        <ele>79.599998474121</ele>
        <time>2012-06-17T12:57:45.000Z</time>
      </trkpt>
      <trkpt lat="43.92035" lon="5.12261">
        <ele>79.400001525879</ele>
        <time>2012-06-17T12:57:46.000Z</time>
      </trkpt>
      <trkpt lat="43.92035" lon="5.12257">
        <ele>79.199996948242</ele>
        <time>2012-06-17T12:57:53.000Z</time>
      </trkpt>
      <trkpt lat="43.92035" lon="5.12254">
        <ele>79.199996948242</ele>
        <time>2012-06-17T12:57:59.000Z</time>
      </trkpt>
      <trkpt lat="43.92037" lon="5.12253">
        <ele>79.199996948242</ele>
        <time>2012-06-17T12:58:04.000Z</time>
      </trkpt>
      <trkpt lat="43.92036" lon="5.12252">
        <ele>79</ele>
        <time>2012-06-17T12:59:16.000Z</time>
      </trkpt>
      <trkpt lat="43.92037" lon="5.12252">
        <ele>79</ele>
        <time>2012-06-17T13:00:46.000Z</time>
      </trkpt>
      <trkpt lat="43.92043" lon="5.12256">
        <ele>79.199996948242</ele>
        <time>2012-06-17T13:01:13.000Z</time>
      </trkpt>
      <trkpt lat="43.92043" lon="5.12258">
        <ele>79.199996948242</ele>
        <time>2012-06-17T13:01:26.000Z</time>
      </trkpt>
      <trkpt lat="43.92041" lon="5.12259">
        <ele>79.400001525879</ele>
        <time>2012-06-17T13:01:30.000Z</time>
      </trkpt>
      <trkpt lat="43.92039" lon="5.12261">
        <ele>79.400001525879</ele>
        <time>2012-06-17T13:01:36.000Z</time>
      </trkpt>
      <trkpt lat="43.92034" lon="5.12258">
        <ele>79.400001525879</ele>
        <time>2012-06-17T13:02:59.000Z</time>
      </trkpt>
      <trkpt lat="43.9203" lon="5.12258">
        <ele>79.400001525879</ele>
        <time>2012-06-17T13:04:16.000Z</time>
      </trkpt>
      <trkpt lat="43.92031" lon="5.12259">
        <ele>79.400001525879</ele>
        <time>2012-06-17T13:04:52.000Z</time>
      </trkpt>
      <trkpt lat="43.92029" lon="5.12263">
        <ele>79.599998474121</ele>
        <time>2012-06-17T13:06:30.000Z</time>
      </trkpt>
      <trkpt lat="43.92037" lon="5.12262">
        <ele>79.599998474121</ele>
        <time>2012-06-17T13:08:31.000Z</time>
      </trkpt>
      <trkpt lat="43.92033" lon="5.12255">
        <ele>79.199996948242</ele>
        <time>2012-06-17T13:10:04.000Z</time>
      </trkpt>
      <trkpt lat="43.92033" lon="5.12257">
        <ele>79.400001525879</ele>
        <time>2012-06-17T13:10:08.000Z</time>
      </trkpt>
      <trkpt lat="43.92032" lon="5.12264">
        <ele>79.599998474121</ele>
        <time>2012-06-17T13:11:18.000Z</time>
      </trkpt>
      <trkpt lat="43.92033" lon="5.12265">
        <ele>79.599998474121</ele>
        <time>2012-06-17T13:13:13.000Z</time>
      </trkpt>
      <trkpt lat="43.92026" lon="5.12266">
        <ele>79.800003051758</ele>
        <time>2012-06-17T13:13:21.000Z</time>
      </trkpt>
      <trkpt lat="43.92029" lon="5.12266">
        <ele>79.800003051758</ele>
        <time>2012-06-17T13:13:26.000Z</time>
      </trkpt>
      <trkpt lat="43.92032" lon="5.12265">
        <ele>79.599998474121</ele>
        <time>2012-06-17T13:13:33.000Z</time>
      </trkpt>
      <trkpt lat="43.92032" lon="5.12266">
        <ele>79.800003051758</ele>
        <time>2012-06-17T13:13:38.000Z</time>
      </trkpt>
      <trkpt lat="43.92035" lon="5.12259">
        <ele>79.400001525879</ele>
        <time>2012-06-17T13:13:46.000Z</time>
      </trkpt>
      <trkpt lat="43.92034" lon="5.12254">
        <ele>79.199996948242</ele>
        <time>2012-06-17T13:13:51.000Z</time>
      </trkpt>
      <trkpt lat="43.92035" lon="5.12253">
        <ele>79.199996948242</ele>
        <time>2012-06-17T13:13:52.000Z</time>
      </trkpt>
      <trkpt lat="43.92038" lon="5.12258">
        <ele>79.199996948242</ele>
        <time>2012-06-17T13:14:10.000Z</time>
      </trkpt>
      <trkpt lat="43.92033" lon="5.12263">
        <ele>79.599998474121</ele>
        <time>2012-06-17T13:14:19.000Z</time>
      </trkpt>
      <trkpt lat="43.92032" lon="5.12264">
        <ele>79.599998474121</ele>
        <time>2012-06-17T13:14:51.000Z</time>
      </trkpt>
      <trkpt lat="43.92032" lon="5.12266">
        <ele>79.599998474121</ele>
        <time>2012-06-17T13:14:57.000Z</time>
      </trkpt>
      <trkpt lat="43.92033" lon="5.12262">
        <ele>79.599998474121</ele>
        <time>2012-06-17T13:15:34.000Z</time>
      </trkpt>
      <trkpt lat="43.92036" lon="5.12263">
        <ele>79.599998474121</ele>
        <time>2012-06-17T13:15:38.000Z</time>
      </trkpt>
      <trkpt lat="43.9204" lon="5.12259">
        <ele>79.400001525879</ele>
        <time>2012-06-17T13:15:43.000Z</time>
      </trkpt>
      <trkpt lat="43.92041" lon="5.12259">
        <ele>79.400001525879</ele>
        <time>2012-06-17T13:15:49.000Z</time>
      </trkpt>
      <trkpt lat="43.92035" lon="5.12261">
        <ele>79.400001525879</ele>
        <time>2012-06-17T13:16:05.000Z</time>
      </trkpt>
    </trkseg>
  </trk>
</gpx>